<?xml version="1.0" encoding="UTF-8" standalone="no" ?><gpx xmlns="http://www.topografix.com/GPX/1/1" xmlns:gpxx="http://www.garmin.com/xmlschemas/GpxExtensions/v3" xmlns:wptx1="http://www.garmin.com/xmlschemas/WaypointExtension/v1" xmlns:gpxtpx="http://www.garmin.com/xmlschemas/TrackPointExtension/v1" creator="GuideVTT.com" version="1.1" xmlns:xsi="http://www.w3.org/2001/XMLSchema-instance" xsi:schemaLocation="http://www.topografix.com/GPX/1/1 http://www.topografix.com/GPX/1/1/gpx.xsd http://www.garmin.com/xmlschemas/GpxExtensions/v3 http://www8.garmin.com/xmlschemas/GpxExtensionsv3.xsd http://www.garmin.com/xmlschemas/WaypointExtension/v1 http://www8.garmin.com/xmlschemas/WaypointExtensionv1.xsd http://www.garmin.com/xmlschemas/TrackPointExtension/v1 http://www.garmin.com/xmlschemas/TrackPointExtensionv1.xsd">
<metadata><link href="http://www.garmin.com"><text>Garmin International</text></link><time>2013-06-22T15:13:50Z</time></metadata>
<trk><name>rp2025-29.gpx</name><extensions><gpxx:TrackExtension><gpxx:DisplayColor>Cyan</gpxx:DisplayColor></gpxx:TrackExtension></extensions><trkseg>
<trkpt lat="46.25614" lon="7.09025"><ele>1074.6</ele><time>2025-10-07T11:05:01Z</time></trkpt>
<trkpt lat="46.25614" lon="7.09035"><ele>1075.2</ele><time>2025-10-07T11:05:04Z</time></trkpt>
<trkpt lat="46.25616" lon="7.0904"><ele>1075.4</ele><time>2025-10-07T11:05:07Z</time></trkpt>
<trkpt lat="46.25623" lon="7.09052"><ele>1076</ele><time>2025-10-07T11:05:14Z</time></trkpt>
<trkpt lat="46.25623" lon="7.09053"><ele>1076.2</ele><time>2025-10-07T11:05:15Z</time></trkpt>
<trkpt lat="46.25624" lon="7.09057"><ele>1076.4</ele><time>2025-10-07T11:05:17Z</time></trkpt>
<trkpt lat="46.25624" lon="7.09061"><ele>1076.6</ele><time>2025-10-07T11:05:19Z</time></trkpt>
<trkpt lat="46.25624" lon="7.09073"><ele>1077</ele><time>2025-10-07T11:05:24Z</time></trkpt>
<trkpt lat="46.25624" lon="7.09078"><ele>1077.2</ele><time>2025-10-07T11:05:26Z</time></trkpt>
<trkpt lat="46.25624" lon="7.09086"><ele>1077.6</ele><time>2025-10-07T11:05:29Z</time></trkpt>
<trkpt lat="46.25626" lon="7.09101"><ele>1078</ele><time>2025-10-07T11:05:34Z</time></trkpt>
<trkpt lat="46.25627" lon="7.0911"><ele>1078.4</ele><time>2025-10-07T11:05:37Z</time></trkpt>
<trkpt lat="46.25627" lon="7.09116"><ele>1078.6</ele><time>2025-10-07T11:05:39Z</time></trkpt>
<trkpt lat="46.25631" lon="7.09135"><ele>1079.4</ele><time>2025-10-07T11:05:47Z</time></trkpt>
<trkpt lat="46.25631" lon="7.09138"><ele>1079.4</ele><time>2025-10-07T11:05:48Z</time></trkpt>
<trkpt lat="46.25636" lon="7.09157"><ele>1080.2</ele><time>2025-10-07T11:05:56Z</time></trkpt>
<trkpt lat="46.2564" lon="7.09163"><ele>1080.4</ele><time>2025-10-07T11:06:00Z</time></trkpt>
<trkpt lat="46.25644" lon="7.09171"><ele>1080.6</ele><time>2025-10-07T11:06:04Z</time></trkpt>
<trkpt lat="46.25653" lon="7.09187"><ele>1081.4</ele><time>2025-10-07T11:06:11Z</time></trkpt>
<trkpt lat="46.25655" lon="7.0919"><ele>1081.4</ele><time>2025-10-07T11:06:13Z</time></trkpt>
<trkpt lat="46.2566" lon="7.09198"><ele>1082</ele><time>2025-10-07T11:06:18Z</time></trkpt>
<trkpt lat="46.25668" lon="7.09207"><ele>1082.4</ele><time>2025-10-07T11:06:24Z</time></trkpt>
<trkpt lat="46.2567" lon="7.09212"><ele>1082.4</ele><time>2025-10-07T11:06:26Z</time></trkpt>
<trkpt lat="46.25672" lon="7.09223"><ele>1082.8</ele><time>2025-10-07T11:06:30Z</time></trkpt>
<trkpt lat="46.25678" lon="7.09242"><ele>1083.4</ele><time>2025-10-07T11:06:38Z</time></trkpt>
<trkpt lat="46.25678" lon="7.09244"><ele>1083.4</ele><time>2025-10-07T11:06:39Z</time></trkpt>
<trkpt lat="46.25682" lon="7.09252"><ele>1083.8</ele><time>2025-10-07T11:06:43Z</time></trkpt>
<trkpt lat="46.25682" lon="7.09254"><ele>1084</ele><time>2025-10-07T11:06:44Z</time></trkpt>
<trkpt lat="46.25683" lon="7.09256"><ele>1084</ele><time>2025-10-07T11:06:45Z</time></trkpt>
<trkpt lat="46.25684" lon="7.09267"><ele>1084.2</ele><time>2025-10-07T11:06:49Z</time></trkpt>
<trkpt lat="46.25686" lon="7.09274"><ele>1084.2</ele><time>2025-10-07T11:06:52Z</time></trkpt>
<trkpt lat="46.25687" lon="7.09278"><ele>1084.6</ele><time>2025-10-07T11:06:54Z</time></trkpt>
<trkpt lat="46.25687" lon="7.09281"><ele>1084.6</ele><time>2025-10-07T11:06:55Z</time></trkpt>
<trkpt lat="46.25687" lon="7.09283"><ele>1084.8</ele><time>2025-10-07T11:06:56Z</time></trkpt>
<trkpt lat="46.25693" lon="7.09297"><ele>1085.2</ele><time>2025-10-07T11:07:03Z</time></trkpt>
<trkpt lat="46.25694" lon="7.09304"><ele>1085.6</ele><time>2025-10-07T11:07:06Z</time></trkpt>
<trkpt lat="46.25696" lon="7.09313"><ele>1086</ele><time>2025-10-07T11:07:10Z</time></trkpt>
<trkpt lat="46.25701" lon="7.09321"><ele>1086.6</ele><time>2025-10-07T11:07:16Z</time></trkpt>
<trkpt lat="46.25702" lon="7.09323"><ele>1086.8</ele><time>2025-10-07T11:07:17Z</time></trkpt>
<trkpt lat="46.25703" lon="7.0933"><ele>1087</ele><time>2025-10-07T11:07:21Z</time></trkpt>
<trkpt lat="46.25704" lon="7.09333"><ele>1087.2</ele><time>2025-10-07T11:07:23Z</time></trkpt>
<trkpt lat="46.25704" lon="7.09344"><ele>1087.6</ele><time>2025-10-07T11:07:29Z</time></trkpt>
<trkpt lat="46.25705" lon="7.09346"><ele>1087.8</ele><time>2025-10-07T11:07:30Z</time></trkpt>
<trkpt lat="46.25708" lon="7.09355"><ele>1088.2</ele><time>2025-10-07T11:07:35Z</time></trkpt>
<trkpt lat="46.25711" lon="7.09364"><ele>1088.8</ele><time>2025-10-07T11:07:40Z</time></trkpt>
<trkpt lat="46.25713" lon="7.09372"><ele>1089.2</ele><time>2025-10-07T11:07:44Z</time></trkpt>
<trkpt lat="46.25717" lon="7.09384"><ele>1089.8</ele><time>2025-10-07T11:07:50Z</time></trkpt>
<trkpt lat="46.25718" lon="7.09389"><ele>1090</ele><time>2025-10-07T11:07:52Z</time></trkpt>
<trkpt lat="46.25722" lon="7.09403"><ele>1090.8</ele><time>2025-10-07T11:07:59Z</time></trkpt>
<trkpt lat="46.25722" lon="7.09405"><ele>1090.8</ele><time>2025-10-07T11:08:00Z</time></trkpt>
<trkpt lat="46.25726" lon="7.09418"><ele>1091.6</ele><time>2025-10-07T11:08:06Z</time></trkpt>
<trkpt lat="46.25727" lon="7.09423"><ele>1092</ele><time>2025-10-07T11:08:08Z</time></trkpt>
<trkpt lat="46.25729" lon="7.09435"><ele>1092.4</ele><time>2025-10-07T11:08:13Z</time></trkpt>
<trkpt lat="46.25732" lon="7.09444"><ele>1093</ele><time>2025-10-07T11:08:17Z</time></trkpt>
<trkpt lat="46.25734" lon="7.0945"><ele>1093.4</ele><time>2025-10-07T11:08:20Z</time></trkpt>
<trkpt lat="46.25737" lon="7.09462"><ele>1094</ele><time>2025-10-07T11:08:26Z</time></trkpt>
<trkpt lat="46.25737" lon="7.09472"><ele>1094.4</ele><time>2025-10-07T11:08:30Z</time></trkpt>
<trkpt lat="46.25729" lon="7.09481"><ele>1095.2</ele><time>2025-10-07T11:08:35Z</time></trkpt>
<trkpt lat="46.25716" lon="7.09496"><ele>1095.4</ele><time>2025-10-07T11:08:41Z</time></trkpt>
<trkpt lat="46.25699" lon="7.09519"><ele>1095.4</ele><time>2025-10-07T11:08:48Z</time></trkpt>
<trkpt lat="46.25689" lon="7.09532"><ele>1095.6</ele><time>2025-10-07T11:08:52Z</time></trkpt>
<trkpt lat="46.25687" lon="7.09536"><ele>1095.6</ele><time>2025-10-07T11:08:53Z</time></trkpt>
<trkpt lat="46.2568" lon="7.09547"><ele>1095.8</ele><time>2025-10-07T11:08:56Z</time></trkpt>
<trkpt lat="46.25676" lon="7.09554"><ele>1096</ele><time>2025-10-07T11:08:58Z</time></trkpt>
<trkpt lat="46.25667" lon="7.0957"><ele>1096.2</ele><time>2025-10-07T11:09:02Z</time></trkpt>
<trkpt lat="46.25665" lon="7.09574"><ele>1096.2</ele><time>2025-10-07T11:09:03Z</time></trkpt>
<trkpt lat="46.25657" lon="7.09595"><ele>1097.2</ele><time>2025-10-07T11:09:09Z</time></trkpt>
<trkpt lat="46.25656" lon="7.09599"><ele>1097.4</ele><time>2025-10-07T11:09:10Z</time></trkpt>
<trkpt lat="46.25645" lon="7.09621"><ele>1098.4</ele><time>2025-10-07T11:09:17Z</time></trkpt>
<trkpt lat="46.25636" lon="7.09638"><ele>1099</ele><time>2025-10-07T11:09:23Z</time></trkpt>
<trkpt lat="46.25633" lon="7.09644"><ele>1099.4</ele><time>2025-10-07T11:09:25Z</time></trkpt>
<trkpt lat="46.25626" lon="7.0966"><ele>1100.2</ele><time>2025-10-07T11:09:30Z</time></trkpt>
<trkpt lat="46.25623" lon="7.09666"><ele>1100.4</ele><time>2025-10-07T11:09:32Z</time></trkpt>
<trkpt lat="46.25616" lon="7.09683"><ele>1101</ele><time>2025-10-07T11:09:37Z</time></trkpt>
<trkpt lat="46.2561" lon="7.097"><ele>1101.6</ele><time>2025-10-07T11:09:42Z</time></trkpt>
<trkpt lat="46.25609" lon="7.09702"><ele>1101.8</ele><time>2025-10-07T11:09:43Z</time></trkpt>
<trkpt lat="46.25604" lon="7.09721"><ele>1102.6</ele><time>2025-10-07T11:09:49Z</time></trkpt>
<trkpt lat="46.25603" lon="7.09724"><ele>1102.8</ele><time>2025-10-07T11:09:50Z</time></trkpt>
<trkpt lat="46.25599" lon="7.09741"><ele>1103.6</ele><time>2025-10-07T11:09:56Z</time></trkpt>
<trkpt lat="46.25599" lon="7.09743"><ele>1104</ele><time>2025-10-07T11:09:57Z</time></trkpt>
<trkpt lat="46.25598" lon="7.09751"><ele>1104.6</ele><time>2025-10-07T11:10:01Z</time></trkpt>
<trkpt lat="46.25597" lon="7.09756"><ele>1104.8</ele><time>2025-10-07T11:10:03Z</time></trkpt>
<trkpt lat="46.25597" lon="7.09767"><ele>1105.6</ele><time>2025-10-07T11:10:08Z</time></trkpt>
<trkpt lat="46.25597" lon="7.09771"><ele>1105.8</ele><time>2025-10-07T11:10:11Z</time></trkpt>
<trkpt lat="46.25597" lon="7.09776"><ele>1106</ele><time>2025-10-07T11:10:13Z</time></trkpt>
<trkpt lat="46.25597" lon="7.09778"><ele>1106</ele><time>2025-10-07T11:10:14Z</time></trkpt>
<trkpt lat="46.25597" lon="7.0979"><ele>1106.6</ele><time>2025-10-07T11:10:19Z</time></trkpt>
<trkpt lat="46.25597" lon="7.09794"><ele>1106.8</ele><time>2025-10-07T11:10:20Z</time></trkpt>
<trkpt lat="46.25597" lon="7.09797"><ele>1107</ele><time>2025-10-07T11:10:21Z</time></trkpt>
<trkpt lat="46.25593" lon="7.09827"><ele>1107.8</ele><time>2025-10-07T11:10:28Z</time></trkpt>
<trkpt lat="46.2559" lon="7.09855"><ele>1108</ele><time>2025-10-07T11:10:34Z</time></trkpt>
<trkpt lat="46.25589" lon="7.0989"><ele>1108.6</ele><time>2025-10-07T11:10:42Z</time></trkpt>
<trkpt lat="46.25592" lon="7.09915"><ele>1108.4</ele><time>2025-10-07T11:10:47Z</time></trkpt>
<trkpt lat="46.25594" lon="7.09931"><ele>1108</ele><time>2025-10-07T11:10:50Z</time></trkpt>
<trkpt lat="46.25597" lon="7.09953"><ele>1107.4</ele><time>2025-10-07T11:10:54Z</time></trkpt>
<trkpt lat="46.25596" lon="7.09971"><ele>1107</ele><time>2025-10-07T11:10:57Z</time></trkpt>
<trkpt lat="46.25593" lon="7.09991"><ele>1106.6</ele><time>2025-10-07T11:11:00Z</time></trkpt>
<trkpt lat="46.2559" lon="7.10008"><ele>1106.4</ele><time>2025-10-07T11:11:04Z</time></trkpt>
<trkpt lat="46.25585" lon="7.10027"><ele>1106.2</ele><time>2025-10-07T11:11:09Z</time></trkpt>
<trkpt lat="46.25579" lon="7.10049"><ele>1106</ele><time>2025-10-07T11:11:16Z</time></trkpt>
<trkpt lat="46.25573" lon="7.10068"><ele>1106.4</ele><time>2025-10-07T11:11:23Z</time></trkpt>
<trkpt lat="46.25569" lon="7.10086"><ele>1107.4</ele><time>2025-10-07T11:11:28Z</time></trkpt>
<trkpt lat="46.25567" lon="7.10093"><ele>1108</ele><time>2025-10-07T11:11:30Z</time></trkpt>
<trkpt lat="46.25564" lon="7.10107"><ele>1109</ele><time>2025-10-07T11:11:34Z</time></trkpt>
<trkpt lat="46.25565" lon="7.10113"><ele>1109.6</ele><time>2025-10-07T11:11:36Z</time></trkpt>
<trkpt lat="46.25566" lon="7.1012"><ele>1109.8</ele><time>2025-10-07T11:11:38Z</time></trkpt>
<trkpt lat="46.25565" lon="7.1013"><ele>1110</ele><time>2025-10-07T11:11:40Z</time></trkpt>
<trkpt lat="46.2556" lon="7.10168"><ele>1109.4</ele><time>2025-10-07T11:11:45Z</time></trkpt>
<trkpt lat="46.2555" lon="7.10196"><ele>1109.8</ele><time>2025-10-07T11:11:50Z</time></trkpt>
<trkpt lat="46.25548" lon="7.10204"><ele>1110.2</ele><time>2025-10-07T11:11:52Z</time></trkpt>
<trkpt lat="46.25547" lon="7.10211"><ele>1110.6</ele><time>2025-10-07T11:11:54Z</time></trkpt>
<trkpt lat="46.25547" lon="7.10215"><ele>1111</ele><time>2025-10-07T11:11:55Z</time></trkpt>
<trkpt lat="46.25547" lon="7.10219"><ele>1111.2</ele><time>2025-10-07T11:11:56Z</time></trkpt>
<trkpt lat="46.25542" lon="7.10239"><ele>1111.8</ele><time>2025-10-07T11:12:00Z</time></trkpt>
<trkpt lat="46.25538" lon="7.1026"><ele>1112.4</ele><time>2025-10-07T11:12:04Z</time></trkpt>
<trkpt lat="46.25537" lon="7.10265"><ele>1112.4</ele><time>2025-10-07T11:12:05Z</time></trkpt>
<trkpt lat="46.25534" lon="7.10295"><ele>1112.8</ele><time>2025-10-07T11:12:10Z</time></trkpt>
<trkpt lat="46.25529" lon="7.10313"><ele>1112.4</ele><time>2025-10-07T11:12:13Z</time></trkpt>
<trkpt lat="46.25526" lon="7.10318"><ele>1112.2</ele><time>2025-10-07T11:12:14Z</time></trkpt>
<trkpt lat="46.25516" lon="7.10328"><ele>1112.4</ele><time>2025-10-07T11:12:18Z</time></trkpt>
<trkpt lat="46.25513" lon="7.10337"><ele>1113.4</ele><time>2025-10-07T11:12:22Z</time></trkpt>
<trkpt lat="46.25513" lon="7.1034"><ele>1113.4</ele><time>2025-10-07T11:12:23Z</time></trkpt>
<trkpt lat="46.25509" lon="7.10349"><ele>1114.6</ele><time>2025-10-07T11:12:28Z</time></trkpt>
<trkpt lat="46.25505" lon="7.10356"><ele>1115.4</ele><time>2025-10-07T11:12:33Z</time></trkpt>
<trkpt lat="46.25503" lon="7.10357"><ele>1115.6</ele><time>2025-10-07T11:12:34Z</time></trkpt>
<trkpt lat="46.255" lon="7.1036"><ele>1116.8</ele><time>2025-10-07T11:12:38Z</time></trkpt>
<trkpt lat="46.25496" lon="7.10368"><ele>1117.4</ele><time>2025-10-07T11:12:43Z</time></trkpt>
<trkpt lat="46.25496" lon="7.10376"><ele>1118</ele><time>2025-10-07T11:12:47Z</time></trkpt>
<trkpt lat="46.25497" lon="7.10381"><ele>1118.6</ele><time>2025-10-07T11:12:50Z</time></trkpt>
<trkpt lat="46.25498" lon="7.10386"><ele>1119.2</ele><time>2025-10-07T11:12:52Z</time></trkpt>
<trkpt lat="46.255" lon="7.10394"><ele>1119.6</ele><time>2025-10-07T11:12:56Z</time></trkpt>
<trkpt lat="46.255" lon="7.10398"><ele>1120</ele><time>2025-10-07T11:12:58Z</time></trkpt>
<trkpt lat="46.25501" lon="7.10401"><ele>1120.2</ele><time>2025-10-07T11:12:59Z</time></trkpt>
<trkpt lat="46.25502" lon="7.10416"><ele>1121.2</ele><time>2025-10-07T11:13:06Z</time></trkpt>
<trkpt lat="46.25501" lon="7.10417"><ele>1121.2</ele><time>2025-10-07T11:13:07Z</time></trkpt>
<trkpt lat="46.25499" lon="7.10425"><ele>1121.8</ele><time>2025-10-07T11:13:11Z</time></trkpt>
<trkpt lat="46.25497" lon="7.1044"><ele>1122.2</ele><time>2025-10-07T11:13:16Z</time></trkpt>
<trkpt lat="46.25494" lon="7.10455"><ele>1122.4</ele><time>2025-10-07T11:13:21Z</time></trkpt>
<trkpt lat="46.25494" lon="7.10457"><ele>1122.4</ele><time>2025-10-07T11:13:22Z</time></trkpt>
<trkpt lat="46.25492" lon="7.1047"><ele>1123</ele><time>2025-10-07T11:13:27Z</time></trkpt>
<trkpt lat="46.25492" lon="7.10473"><ele>1123.4</ele><time>2025-10-07T11:13:29Z</time></trkpt>
<trkpt lat="46.25491" lon="7.10478"><ele>1124</ele><time>2025-10-07T11:13:33Z</time></trkpt>
<trkpt lat="46.2549" lon="7.10482"><ele>1124.6</ele><time>2025-10-07T11:13:36Z</time></trkpt>
<trkpt lat="46.2549" lon="7.10489"><ele>1125</ele><time>2025-10-07T11:13:39Z</time></trkpt>
<trkpt lat="46.2549" lon="7.10494"><ele>1125.8</ele><time>2025-10-07T11:13:42Z</time></trkpt>
<trkpt lat="46.25488" lon="7.105"><ele>1126.8</ele><time>2025-10-07T11:13:45Z</time></trkpt>
<trkpt lat="46.25488" lon="7.10503"><ele>1127</ele><time>2025-10-07T11:13:46Z</time></trkpt>
<trkpt lat="46.25485" lon="7.10514"><ele>1127.8</ele><time>2025-10-07T11:13:52Z</time></trkpt>
<trkpt lat="46.25485" lon="7.10515"><ele>1128</ele><time>2025-10-07T11:13:53Z</time></trkpt>
<trkpt lat="46.25482" lon="7.10519"><ele>1129</ele><time>2025-10-07T11:13:59Z</time></trkpt>
<trkpt lat="46.25481" lon="7.10522"><ele>1129</ele><time>2025-10-07T11:14:00Z</time></trkpt>
<trkpt lat="46.25478" lon="7.10532"><ele>1130</ele><time>2025-10-07T11:14:04Z</time></trkpt>
<trkpt lat="46.25477" lon="7.10535"><ele>1130.2</ele><time>2025-10-07T11:14:05Z</time></trkpt>
<trkpt lat="46.25476" lon="7.10541"><ele>1130.8</ele><time>2025-10-07T11:14:09Z</time></trkpt>
<trkpt lat="46.25473" lon="7.10548"><ele>1131.4</ele><time>2025-10-07T11:14:13Z</time></trkpt>
<trkpt lat="46.25472" lon="7.10552"><ele>1131.6</ele><time>2025-10-07T11:14:15Z</time></trkpt>
<trkpt lat="46.25471" lon="7.10558"><ele>1132.4</ele><time>2025-10-07T11:14:20Z</time></trkpt>
<trkpt lat="46.25471" lon="7.10559"><ele>1132.6</ele><time>2025-10-07T11:14:21Z</time></trkpt>
<trkpt lat="46.25472" lon="7.10571"><ele>1133.6</ele><time>2025-10-07T11:14:26Z</time></trkpt>
<trkpt lat="46.25473" lon="7.10576"><ele>1134.4</ele><time>2025-10-07T11:14:28Z</time></trkpt>
<trkpt lat="46.25473" lon="7.10578"><ele>1134.6</ele><time>2025-10-07T11:14:29Z</time></trkpt>
<trkpt lat="46.25476" lon="7.10583"><ele>1135.8</ele><time>2025-10-07T11:14:33Z</time></trkpt>
<trkpt lat="46.25477" lon="7.10584"><ele>1136.2</ele><time>2025-10-07T11:14:34Z</time></trkpt>
<trkpt lat="46.25479" lon="7.10595"><ele>1137</ele><time>2025-10-07T11:14:41Z</time></trkpt>
<trkpt lat="46.25477" lon="7.10604"><ele>1137.6</ele><time>2025-10-07T11:14:47Z</time></trkpt>
<trkpt lat="46.25478" lon="7.1061"><ele>1138</ele><time>2025-10-07T11:14:51Z</time></trkpt>
<trkpt lat="46.25477" lon="7.10614"><ele>1138.6</ele><time>2025-10-07T11:14:54Z</time></trkpt>
<trkpt lat="46.25477" lon="7.10618"><ele>1139.2</ele><time>2025-10-07T11:14:58Z</time></trkpt>
<trkpt lat="46.25476" lon="7.1062"><ele>1139.4</ele><time>2025-10-07T11:15:00Z</time></trkpt>
<trkpt lat="46.25476" lon="7.1062"><ele>1139.4</ele><time>2025-10-07T11:15:01Z</time></trkpt>
<trkpt lat="46.25473" lon="7.10626"><ele>1140.2</ele><time>2025-10-07T11:15:06Z</time></trkpt>
<trkpt lat="46.2547" lon="7.10635"><ele>1141.4</ele><time>2025-10-07T11:15:13Z</time></trkpt>
<trkpt lat="46.25466" lon="7.1064"><ele>1141.8</ele><time>2025-10-07T11:15:21Z</time></trkpt>
<trkpt lat="46.25465" lon="7.10643"><ele>1142.2</ele><time>2025-10-07T11:15:26Z</time></trkpt>
<trkpt lat="46.25465" lon="7.10643"><ele>1142.4</ele><time>2025-10-07T11:15:27Z</time></trkpt>
<trkpt lat="46.25464" lon="7.10649"><ele>1143.4</ele><time>2025-10-07T11:15:33Z</time></trkpt>
<trkpt lat="46.25464" lon="7.1065"><ele>1143.6</ele><time>2025-10-07T11:15:34Z</time></trkpt>
<trkpt lat="46.2546" lon="7.10659"><ele>1144.6</ele><time>2025-10-07T11:15:41Z</time></trkpt>
<trkpt lat="46.25459" lon="7.1066"><ele>1144.8</ele><time>2025-10-07T11:15:44Z</time></trkpt>
<trkpt lat="46.25459" lon="7.10661"><ele>1145</ele><time>2025-10-07T11:15:45Z</time></trkpt>
<trkpt lat="46.25459" lon="7.10661"><ele>1145</ele><time>2025-10-07T11:15:46Z</time></trkpt>
<trkpt lat="46.25458" lon="7.10662"><ele>1145.2</ele><time>2025-10-07T11:15:47Z</time></trkpt>
<trkpt lat="46.25457" lon="7.10665"><ele>1145.8</ele><time>2025-10-07T11:15:50Z</time></trkpt>
<trkpt lat="46.25454" lon="7.1067"><ele>1146</ele><time>2025-10-07T11:15:53Z</time></trkpt>
<trkpt lat="46.25452" lon="7.10676"><ele>1146.8</ele><time>2025-10-07T11:15:59Z</time></trkpt>
<trkpt lat="46.25453" lon="7.10679"><ele>1147.2</ele><time>2025-10-07T11:16:02Z</time></trkpt>
<trkpt lat="46.25453" lon="7.10685"><ele>1147.8</ele><time>2025-10-07T11:16:07Z</time></trkpt>
<trkpt lat="46.25453" lon="7.10686"><ele>1147.8</ele><time>2025-10-07T11:16:08Z</time></trkpt>
<trkpt lat="46.25453" lon="7.10695"><ele>1148.4</ele><time>2025-10-07T11:16:14Z</time></trkpt>
<trkpt lat="46.25455" lon="7.10698"><ele>1148.8</ele><time>2025-10-07T11:16:18Z</time></trkpt>
<trkpt lat="46.25455" lon="7.10698"><ele>1149</ele><time>2025-10-07T11:16:19Z</time></trkpt>
<trkpt lat="46.25457" lon="7.10699"><ele>1149.8</ele><time>2025-10-07T11:16:25Z</time></trkpt>
<trkpt lat="46.25456" lon="7.107"><ele>1150</ele><time>2025-10-07T11:16:26Z</time></trkpt>
<trkpt lat="46.25455" lon="7.10707"><ele>1150.8</ele><time>2025-10-07T11:16:32Z</time></trkpt>
<trkpt lat="46.25454" lon="7.10709"><ele>1151</ele><time>2025-10-07T11:16:34Z</time></trkpt>
<trkpt lat="46.25455" lon="7.10715"><ele>1151.4</ele><time>2025-10-07T11:16:39Z</time></trkpt>
<trkpt lat="46.25458" lon="7.10726"><ele>1150.2</ele><time>2025-10-07T11:16:45Z</time></trkpt>
<trkpt lat="46.25457" lon="7.10729"><ele>1150</ele><time>2025-10-07T11:16:48Z</time></trkpt>
<trkpt lat="46.25457" lon="7.10729"><ele>1149.6</ele><time>2025-10-07T11:16:50Z</time></trkpt>
<trkpt lat="46.25455" lon="7.10729"><ele>1149.4</ele><time>2025-10-07T11:16:55Z</time></trkpt>
<trkpt lat="46.25452" lon="7.10729"><ele>1149.8</ele><time>2025-10-07T11:17:01Z</time></trkpt>
<trkpt lat="46.2545" lon="7.10729"><ele>1150</ele><time>2025-10-07T11:17:08Z</time></trkpt>
<trkpt lat="46.2545" lon="7.10729"><ele>1150</ele><time>2025-10-07T11:17:09Z</time></trkpt>
<trkpt lat="46.2545" lon="7.10729"><ele>1150</ele><time>2025-10-07T11:17:10Z</time></trkpt>
<trkpt lat="46.2545" lon="7.10728"><ele>1150</ele><time>2025-10-07T11:17:11Z</time></trkpt>
<trkpt lat="46.25449" lon="7.10727"><ele>1150</ele><time>2025-10-07T11:17:15Z</time></trkpt>
<trkpt lat="46.25449" lon="7.10727"><ele>1150</ele><time>2025-10-07T11:17:19Z</time></trkpt>
<trkpt lat="46.25449" lon="7.10727"><ele>1150</ele><time>2025-10-07T11:17:23Z</time></trkpt>
<trkpt lat="46.25449" lon="7.10727"><ele>1149.8</ele><time>2025-10-07T11:17:30Z</time></trkpt>
<trkpt lat="46.25449" lon="7.10727"><ele>1149.8</ele><time>2025-10-07T11:17:34Z</time></trkpt>
<trkpt lat="46.25449" lon="7.10727"><ele>1149.8</ele><time>2025-10-07T11:17:36Z</time></trkpt>
<trkpt lat="46.2545" lon="7.10725"><ele>1149.8</ele><time>2025-10-07T11:17:40Z</time></trkpt>
<trkpt lat="46.25451" lon="7.10724"><ele>1149.8</ele><time>2025-10-07T11:17:47Z</time></trkpt>
<trkpt lat="46.25457" lon="7.10726"><ele>1149.6</ele><time>2025-10-07T11:17:56Z</time></trkpt>
<trkpt lat="46.25456" lon="7.10726"><ele>1149.8</ele><time>2025-10-07T11:18:02Z</time></trkpt>
<trkpt lat="46.25456" lon="7.10726"><ele>1149.8</ele><time>2025-10-07T11:18:07Z</time></trkpt>
<trkpt lat="46.25456" lon="7.10726"><ele>1149.8</ele><time>2025-10-07T11:18:08Z</time></trkpt>
<trkpt lat="46.25462" lon="7.10726"><ele>1150</ele><time>2025-10-07T11:18:17Z</time></trkpt>
<trkpt lat="46.25463" lon="7.10725"><ele>1150</ele><time>2025-10-07T11:18:24Z</time></trkpt>
<trkpt lat="46.25463" lon="7.10725"><ele>1150</ele><time>2025-10-07T11:18:29Z</time></trkpt>
<trkpt lat="46.25462" lon="7.10725"><ele>1150</ele><time>2025-10-07T11:18:30Z</time></trkpt>
<trkpt lat="46.25462" lon="7.10725"><ele>1150</ele><time>2025-10-07T11:18:31Z</time></trkpt>
<trkpt lat="46.25459" lon="7.10727"><ele>1150</ele><time>2025-10-07T11:18:37Z</time></trkpt>
<trkpt lat="46.25458" lon="7.10732"><ele>1150</ele><time>2025-10-07T11:18:42Z</time></trkpt>
<trkpt lat="46.25455" lon="7.10735"><ele>1150.2</ele><time>2025-10-07T11:18:46Z</time></trkpt>
<trkpt lat="46.2545" lon="7.10739"><ele>1151</ele><time>2025-10-07T11:18:51Z</time></trkpt>
<trkpt lat="46.2545" lon="7.1074"><ele>1151</ele><time>2025-10-07T11:18:52Z</time></trkpt>
<trkpt lat="46.25447" lon="7.10745"><ele>1152.2</ele><time>2025-10-07T11:18:57Z</time></trkpt>
<trkpt lat="46.25447" lon="7.10747"><ele>1152.4</ele><time>2025-10-07T11:18:58Z</time></trkpt>
<trkpt lat="46.25443" lon="7.10754"><ele>1153.2</ele><time>2025-10-07T11:19:03Z</time></trkpt>
<trkpt lat="46.25442" lon="7.10757"><ele>1153.6</ele><time>2025-10-07T11:19:05Z</time></trkpt>
<trkpt lat="46.25441" lon="7.10761"><ele>1154.2</ele><time>2025-10-07T11:19:09Z</time></trkpt>
<trkpt lat="46.2544" lon="7.10764"><ele>1154.8</ele><time>2025-10-07T11:19:12Z</time></trkpt>
<trkpt lat="46.2544" lon="7.10766"><ele>1155.4</ele><time>2025-10-07T11:19:15Z</time></trkpt>
<trkpt lat="46.25441" lon="7.10767"><ele>1155.8</ele><time>2025-10-07T11:19:17Z</time></trkpt>
<trkpt lat="46.25441" lon="7.10769"><ele>1156.4</ele><time>2025-10-07T11:19:21Z</time></trkpt>
<trkpt lat="46.25441" lon="7.10771"><ele>1156.8</ele><time>2025-10-07T11:19:23Z</time></trkpt>
<trkpt lat="46.25441" lon="7.10773"><ele>1157.4</ele><time>2025-10-07T11:19:27Z</time></trkpt>
<trkpt lat="46.25442" lon="7.10775"><ele>1158</ele><time>2025-10-07T11:19:30Z</time></trkpt>
<trkpt lat="46.25442" lon="7.10776"><ele>1158.2</ele><time>2025-10-07T11:19:32Z</time></trkpt>
<trkpt lat="46.25442" lon="7.10778"><ele>1158.4</ele><time>2025-10-07T11:19:34Z</time></trkpt>
<trkpt lat="46.25442" lon="7.10781"><ele>1159</ele><time>2025-10-07T11:19:38Z</time></trkpt>
<trkpt lat="46.25441" lon="7.10784"><ele>1159.4</ele><time>2025-10-07T11:19:41Z</time></trkpt>
<trkpt lat="46.25441" lon="7.10784"><ele>1159.6</ele><time>2025-10-07T11:19:42Z</time></trkpt>
<trkpt lat="46.2544" lon="7.10783"><ele>1160</ele><time>2025-10-07T11:19:44Z</time></trkpt>
<trkpt lat="46.25439" lon="7.10783"><ele>1160.4</ele><time>2025-10-07T11:19:47Z</time></trkpt>
<trkpt lat="46.25438" lon="7.10782"><ele>1160.8</ele><time>2025-10-07T11:19:49Z</time></trkpt>
<trkpt lat="46.25437" lon="7.10781"><ele>1161</ele><time>2025-10-07T11:19:51Z</time></trkpt>
<trkpt lat="46.25437" lon="7.10783"><ele>1161.8</ele><time>2025-10-07T11:19:58Z</time></trkpt>
<trkpt lat="46.25437" lon="7.10788"><ele>1162.8</ele><time>2025-10-07T11:20:04Z</time></trkpt>
<trkpt lat="46.25437" lon="7.10788"><ele>1163.2</ele><time>2025-10-07T11:20:06Z</time></trkpt>
<trkpt lat="46.25438" lon="7.10791"><ele>1163.8</ele><time>2025-10-07T11:20:11Z</time></trkpt>
<trkpt lat="46.25437" lon="7.10791"><ele>1164.4</ele><time>2025-10-07T11:20:14Z</time></trkpt>
<trkpt lat="46.25438" lon="7.10793"><ele>1165</ele><time>2025-10-07T11:20:18Z</time></trkpt>
<trkpt lat="46.25437" lon="7.10796"><ele>1165.8</ele><time>2025-10-07T11:20:23Z</time></trkpt>
<trkpt lat="46.25437" lon="7.10797"><ele>1166</ele><time>2025-10-07T11:20:24Z</time></trkpt>
<trkpt lat="46.25437" lon="7.10798"><ele>1166.8</ele><time>2025-10-07T11:20:28Z</time></trkpt>
<trkpt lat="46.25438" lon="7.10799"><ele>1167</ele><time>2025-10-07T11:20:29Z</time></trkpt>
<trkpt lat="46.25438" lon="7.10802"><ele>1168.2</ele><time>2025-10-07T11:20:35Z</time></trkpt>
<trkpt lat="46.25438" lon="7.10803"><ele>1168.4</ele><time>2025-10-07T11:20:36Z</time></trkpt>
<trkpt lat="46.25438" lon="7.10807"><ele>1169</ele><time>2025-10-07T11:20:41Z</time></trkpt>
<trkpt lat="46.25441" lon="7.10809"><ele>1169</ele><time>2025-10-07T11:20:46Z</time></trkpt>
<trkpt lat="46.25441" lon="7.10809"><ele>1169</ele><time>2025-10-07T11:20:47Z</time></trkpt>
<trkpt lat="46.25442" lon="7.10813"><ele>1168.4</ele><time>2025-10-07T11:20:54Z</time></trkpt>
<trkpt lat="46.25442" lon="7.10818"><ele>1169.4</ele><time>2025-10-07T11:20:59Z</time></trkpt>
<trkpt lat="46.25442" lon="7.1082"><ele>1169.8</ele><time>2025-10-07T11:21:01Z</time></trkpt>
<trkpt lat="46.25441" lon="7.10824"><ele>1170.4</ele><time>2025-10-07T11:21:06Z</time></trkpt>
<trkpt lat="46.25441" lon="7.10825"><ele>1170.4</ele><time>2025-10-07T11:21:07Z</time></trkpt>
<trkpt lat="46.25439" lon="7.10831"><ele>1171.4</ele><time>2025-10-07T11:21:14Z</time></trkpt>
<trkpt lat="46.25439" lon="7.10831"><ele>1172</ele><time>2025-10-07T11:21:18Z</time></trkpt>
<trkpt lat="46.25439" lon="7.10836"><ele>1172</ele><time>2025-10-07T11:21:22Z</time></trkpt>
<trkpt lat="46.25438" lon="7.10843"><ele>1172.4</ele><time>2025-10-07T11:21:28Z</time></trkpt>
<trkpt lat="46.25437" lon="7.10847"><ele>1172.6</ele><time>2025-10-07T11:21:31Z</time></trkpt>
<trkpt lat="46.25437" lon="7.10849"><ele>1172.6</ele><time>2025-10-07T11:21:34Z</time></trkpt>
<trkpt lat="46.25438" lon="7.10854"><ele>1173.2</ele><time>2025-10-07T11:21:39Z</time></trkpt>
<trkpt lat="46.25439" lon="7.10856"><ele>1173.6</ele><time>2025-10-07T11:21:42Z</time></trkpt>
<trkpt lat="46.25439" lon="7.1086"><ele>1173.6</ele><time>2025-10-07T11:21:45Z</time></trkpt>
<trkpt lat="46.25437" lon="7.10867"><ele>1173.8</ele><time>2025-10-07T11:21:51Z</time></trkpt>
<trkpt lat="46.25436" lon="7.10868"><ele>1174</ele><time>2025-10-07T11:21:55Z</time></trkpt>
<trkpt lat="46.25437" lon="7.10869"><ele>1174.2</ele><time>2025-10-07T11:21:57Z</time></trkpt>
<trkpt lat="46.25437" lon="7.1087"><ele>1174.6</ele><time>2025-10-07T11:22:00Z</time></trkpt>
<trkpt lat="46.25437" lon="7.1087"><ele>1174.6</ele><time>2025-10-07T11:22:01Z</time></trkpt>
<trkpt lat="46.25438" lon="7.10868"><ele>1174.6</ele><time>2025-10-07T11:22:04Z</time></trkpt>
<trkpt lat="46.25439" lon="7.10868"><ele>1174.4</ele><time>2025-10-07T11:22:07Z</time></trkpt>
<trkpt lat="46.25441" lon="7.10868"><ele>1174.4</ele><time>2025-10-07T11:22:12Z</time></trkpt>
<trkpt lat="46.25439" lon="7.10867"><ele>1174.4</ele><time>2025-10-07T11:22:18Z</time></trkpt>
<trkpt lat="46.25438" lon="7.10867"><ele>1174.4</ele><time>2025-10-07T11:22:20Z</time></trkpt>
<trkpt lat="46.25436" lon="7.10866"><ele>1175.8</ele><time>2025-10-07T11:22:26Z</time></trkpt>
<trkpt lat="46.25434" lon="7.10868"><ele>1176.8</ele><time>2025-10-07T11:22:30Z</time></trkpt>
<trkpt lat="46.25431" lon="7.10875"><ele>1177.6</ele><time>2025-10-07T11:22:37Z</time></trkpt>
<trkpt lat="46.25431" lon="7.10878"><ele>1178</ele><time>2025-10-07T11:22:39Z</time></trkpt>
<trkpt lat="46.25433" lon="7.10882"><ele>1178.4</ele><time>2025-10-07T11:22:43Z</time></trkpt>
<trkpt lat="46.25431" lon="7.10886"><ele>1179</ele><time>2025-10-07T11:22:47Z</time></trkpt>
<trkpt lat="46.2543" lon="7.1089"><ele>1179.6</ele><time>2025-10-07T11:22:51Z</time></trkpt>
<trkpt lat="46.25429" lon="7.10892"><ele>1180</ele><time>2025-10-07T11:22:54Z</time></trkpt>
<trkpt lat="46.25426" lon="7.10894"><ele>1180.6</ele><time>2025-10-07T11:22:57Z</time></trkpt>
<trkpt lat="46.25423" lon="7.10897"><ele>1181.2</ele><time>2025-10-07T11:23:00Z</time></trkpt>
<trkpt lat="46.25419" lon="7.109"><ele>1182.2</ele><time>2025-10-07T11:23:05Z</time></trkpt>
<trkpt lat="46.25418" lon="7.109"><ele>1182.4</ele><time>2025-10-07T11:23:06Z</time></trkpt>
<trkpt lat="46.25415" lon="7.10903"><ele>1183</ele><time>2025-10-07T11:23:10Z</time></trkpt>
<trkpt lat="46.25413" lon="7.10905"><ele>1183.4</ele><time>2025-10-07T11:23:14Z</time></trkpt>
<trkpt lat="46.25409" lon="7.10907"><ele>1184</ele><time>2025-10-07T11:23:19Z</time></trkpt>
<trkpt lat="46.25403" lon="7.10909"><ele>1184.4</ele><time>2025-10-07T11:23:24Z</time></trkpt>
<trkpt lat="46.25399" lon="7.10911"><ele>1185</ele><time>2025-10-07T11:23:29Z</time></trkpt>
<trkpt lat="46.25395" lon="7.10911"><ele>1185.4</ele><time>2025-10-07T11:23:33Z</time></trkpt>
<trkpt lat="46.25393" lon="7.10911"><ele>1185.6</ele><time>2025-10-07T11:23:35Z</time></trkpt>
<trkpt lat="46.2539" lon="7.10909"><ele>1186.4</ele><time>2025-10-07T11:23:39Z</time></trkpt>
<trkpt lat="46.2539" lon="7.10909"><ele>1186.4</ele><time>2025-10-07T11:23:40Z</time></trkpt>
<trkpt lat="46.25388" lon="7.10908"><ele>1186.8</ele><time>2025-10-07T11:23:42Z</time></trkpt>
<trkpt lat="46.25385" lon="7.10908"><ele>1187.4</ele><time>2025-10-07T11:23:46Z</time></trkpt>
<trkpt lat="46.25383" lon="7.10907"><ele>1187.8</ele><time>2025-10-07T11:23:49Z</time></trkpt>
<trkpt lat="46.2538" lon="7.10905"><ele>1188.2</ele><time>2025-10-07T11:23:52Z</time></trkpt>
<trkpt lat="46.25379" lon="7.10897"><ele>1188.8</ele><time>2025-10-07T11:23:58Z</time></trkpt>
<trkpt lat="46.25382" lon="7.10891"><ele>1188.8</ele><time>2025-10-07T11:24:02Z</time></trkpt>
<trkpt lat="46.25384" lon="7.10892"><ele>1189</ele><time>2025-10-07T11:24:06Z</time></trkpt>
<trkpt lat="46.25382" lon="7.10903"><ele>1190</ele><time>2025-10-07T11:24:13Z</time></trkpt>
<trkpt lat="46.25379" lon="7.10906"><ele>1191</ele><time>2025-10-07T11:24:20Z</time></trkpt>
<trkpt lat="46.25378" lon="7.10906"><ele>1191</ele><time>2025-10-07T11:24:21Z</time></trkpt>
<trkpt lat="46.25373" lon="7.1091"><ele>1192</ele><time>2025-10-07T11:24:26Z</time></trkpt>
<trkpt lat="46.25371" lon="7.10911"><ele>1192</ele><time>2025-10-07T11:24:27Z</time></trkpt>
<trkpt lat="46.25362" lon="7.10921"><ele>1193.2</ele><time>2025-10-07T11:24:34Z</time></trkpt>
<trkpt lat="46.25355" lon="7.10926"><ele>1194.2</ele><time>2025-10-07T11:24:41Z</time></trkpt>
<trkpt lat="46.25354" lon="7.10927"><ele>1194.2</ele><time>2025-10-07T11:24:42Z</time></trkpt>
<trkpt lat="46.2535" lon="7.10933"><ele>1195.2</ele><time>2025-10-07T11:24:48Z</time></trkpt>
<trkpt lat="46.25343" lon="7.10939"><ele>1196.4</ele><time>2025-10-07T11:24:55Z</time></trkpt>
<trkpt lat="46.25337" lon="7.10945"><ele>1197.6</ele><time>2025-10-07T11:25:01Z</time></trkpt>
<trkpt lat="46.25333" lon="7.10948"><ele>1198.6</ele><time>2025-10-07T11:25:07Z</time></trkpt>
<trkpt lat="46.25331" lon="7.10949"><ele>1198.8</ele><time>2025-10-07T11:25:08Z</time></trkpt>
<trkpt lat="46.25326" lon="7.10949"><ele>1199.4</ele><time>2025-10-07T11:25:12Z</time></trkpt>
<trkpt lat="46.25325" lon="7.1095"><ele>1199.6</ele><time>2025-10-07T11:25:13Z</time></trkpt>
<trkpt lat="46.25321" lon="7.10951"><ele>1200.4</ele><time>2025-10-07T11:25:17Z</time></trkpt>
<trkpt lat="46.25319" lon="7.10951"><ele>1200.8</ele><time>2025-10-07T11:25:20Z</time></trkpt>
<trkpt lat="46.25318" lon="7.1095"><ele>1201</ele><time>2025-10-07T11:25:22Z</time></trkpt>
<trkpt lat="46.25312" lon="7.1095"><ele>1201.8</ele><time>2025-10-07T11:25:27Z</time></trkpt>
<trkpt lat="46.25312" lon="7.1095"><ele>1202</ele><time>2025-10-07T11:25:28Z</time></trkpt>
<trkpt lat="46.25306" lon="7.10949"><ele>1202.6</ele><time>2025-10-07T11:25:33Z</time></trkpt>
<trkpt lat="46.25302" lon="7.10949"><ele>1203.6</ele><time>2025-10-07T11:25:39Z</time></trkpt>
<trkpt lat="46.25301" lon="7.1095"><ele>1203.8</ele><time>2025-10-07T11:25:40Z</time></trkpt>
<trkpt lat="46.25295" lon="7.1095"><ele>1204.6</ele><time>2025-10-07T11:25:46Z</time></trkpt>
<trkpt lat="46.25293" lon="7.1095"><ele>1204.8</ele><time>2025-10-07T11:25:47Z</time></trkpt>
<trkpt lat="46.25287" lon="7.10952"><ele>1205.6</ele><time>2025-10-07T11:25:53Z</time></trkpt>
<trkpt lat="46.25286" lon="7.10952"><ele>1206</ele><time>2025-10-07T11:25:55Z</time></trkpt>
<trkpt lat="46.25282" lon="7.10953"><ele>1206.8</ele><time>2025-10-07T11:25:59Z</time></trkpt>
<trkpt lat="46.25281" lon="7.10953"><ele>1207</ele><time>2025-10-07T11:26:01Z</time></trkpt>
<trkpt lat="46.25277" lon="7.10952"><ele>1207.8</ele><time>2025-10-07T11:26:06Z</time></trkpt>
<trkpt lat="46.25276" lon="7.10952"><ele>1208.2</ele><time>2025-10-07T11:26:08Z</time></trkpt>
<trkpt lat="46.25271" lon="7.10953"><ele>1209.2</ele><time>2025-10-07T11:26:13Z</time></trkpt>
<trkpt lat="46.2527" lon="7.10953"><ele>1209.2</ele><time>2025-10-07T11:26:14Z</time></trkpt>
<trkpt lat="46.25265" lon="7.10951"><ele>1210</ele><time>2025-10-07T11:26:19Z</time></trkpt>
<trkpt lat="46.25262" lon="7.10952"><ele>1210.4</ele><time>2025-10-07T11:26:21Z</time></trkpt>
<trkpt lat="46.25258" lon="7.10947"><ele>1211.4</ele><time>2025-10-07T11:26:25Z</time></trkpt>
<trkpt lat="46.25257" lon="7.10946"><ele>1211.6</ele><time>2025-10-07T11:26:26Z</time></trkpt>
<trkpt lat="46.25254" lon="7.10941"><ele>1212</ele><time>2025-10-07T11:26:30Z</time></trkpt>
<trkpt lat="46.25252" lon="7.10938"><ele>1212.6</ele><time>2025-10-07T11:26:33Z</time></trkpt>
<trkpt lat="46.25249" lon="7.10932"><ele>1213.4</ele><time>2025-10-07T11:26:38Z</time></trkpt>
<trkpt lat="46.25247" lon="7.1093"><ele>1213.6</ele><time>2025-10-07T11:26:40Z</time></trkpt>
<trkpt lat="46.25245" lon="7.10927"><ele>1214.2</ele><time>2025-10-07T11:26:44Z</time></trkpt>
<trkpt lat="46.25242" lon="7.10927"><ele>1214.8</ele><time>2025-10-07T11:26:47Z</time></trkpt>
<trkpt lat="46.25239" lon="7.10927"><ele>1215.4</ele><time>2025-10-07T11:26:51Z</time></trkpt>
<trkpt lat="46.25236" lon="7.10927"><ele>1215.8</ele><time>2025-10-07T11:26:54Z</time></trkpt>
<trkpt lat="46.25232" lon="7.10927"><ele>1216.2</ele><time>2025-10-07T11:26:57Z</time></trkpt>
<trkpt lat="46.25225" lon="7.10927"><ele>1216.8</ele><time>2025-10-07T11:27:02Z</time></trkpt>
<trkpt lat="46.25222" lon="7.10929"><ele>1217.2</ele><time>2025-10-07T11:27:05Z</time></trkpt>
<trkpt lat="46.25222" lon="7.10938"><ele>1217.8</ele><time>2025-10-07T11:27:11Z</time></trkpt>
<trkpt lat="46.25226" lon="7.10947"><ele>1218.6</ele><time>2025-10-07T11:27:19Z</time></trkpt>
<trkpt lat="46.25228" lon="7.1095"><ele>1219</ele><time>2025-10-07T11:27:22Z</time></trkpt>
<trkpt lat="46.25231" lon="7.10955"><ele>1219.4</ele><time>2025-10-07T11:27:26Z</time></trkpt>
<trkpt lat="46.25233" lon="7.10961"><ele>1220</ele><time>2025-10-07T11:27:30Z</time></trkpt>
<trkpt lat="46.25235" lon="7.10965"><ele>1220.2</ele><time>2025-10-07T11:27:32Z</time></trkpt>
<trkpt lat="46.25239" lon="7.10972"><ele>1221</ele><time>2025-10-07T11:27:37Z</time></trkpt>
<trkpt lat="46.2524" lon="7.10973"><ele>1221.2</ele><time>2025-10-07T11:27:38Z</time></trkpt>
<trkpt lat="46.25244" lon="7.10978"><ele>1222.2</ele><time>2025-10-07T11:27:44Z</time></trkpt>
<trkpt lat="46.25244" lon="7.1098"><ele>1222.4</ele><time>2025-10-07T11:27:45Z</time></trkpt>
<trkpt lat="46.25248" lon="7.10986"><ele>1223.2</ele><time>2025-10-07T11:27:50Z</time></trkpt>
<trkpt lat="46.25249" lon="7.10987"><ele>1223.4</ele><time>2025-10-07T11:27:51Z</time></trkpt>
<trkpt lat="46.2525" lon="7.10991"><ele>1224</ele><time>2025-10-07T11:27:55Z</time></trkpt>
<trkpt lat="46.25251" lon="7.10992"><ele>1224.4</ele><time>2025-10-07T11:27:56Z</time></trkpt>
<trkpt lat="46.25251" lon="7.10993"><ele>1224.8</ele><time>2025-10-07T11:27:58Z</time></trkpt>
<trkpt lat="46.25252" lon="7.10994"><ele>1225</ele><time>2025-10-07T11:27:59Z</time></trkpt>
<trkpt lat="46.25254" lon="7.10995"><ele>1225.4</ele><time>2025-10-07T11:28:02Z</time></trkpt>
<trkpt lat="46.25256" lon="7.10997"><ele>1226</ele><time>2025-10-07T11:28:06Z</time></trkpt>
<trkpt lat="46.25258" lon="7.10999"><ele>1226.4</ele><time>2025-10-07T11:28:09Z</time></trkpt>
<trkpt lat="46.25261" lon="7.11"><ele>1227</ele><time>2025-10-07T11:28:12Z</time></trkpt>
<trkpt lat="46.25265" lon="7.11001"><ele>1227.6</ele><time>2025-10-07T11:28:17Z</time></trkpt>
<trkpt lat="46.25266" lon="7.11002"><ele>1227.8</ele><time>2025-10-07T11:28:18Z</time></trkpt>
<trkpt lat="46.2527" lon="7.11008"><ele>1228.8</ele><time>2025-10-07T11:28:24Z</time></trkpt>
<trkpt lat="46.25276" lon="7.11015"><ele>1229.8</ele><time>2025-10-07T11:28:31Z</time></trkpt>
<trkpt lat="46.25281" lon="7.11022"><ele>1230.6</ele><time>2025-10-07T11:28:36Z</time></trkpt>
<trkpt lat="46.25283" lon="7.11023"><ele>1231</ele><time>2025-10-07T11:28:38Z</time></trkpt>
<trkpt lat="46.25286" lon="7.11026"><ele>1231.8</ele><time>2025-10-07T11:28:42Z</time></trkpt>
<trkpt lat="46.25289" lon="7.11028"><ele>1232</ele><time>2025-10-07T11:28:44Z</time></trkpt>
<trkpt lat="46.25292" lon="7.1103"><ele>1232.6</ele><time>2025-10-07T11:28:47Z</time></trkpt>
<trkpt lat="46.25295" lon="7.11032"><ele>1233.2</ele><time>2025-10-07T11:28:50Z</time></trkpt>
<trkpt lat="46.25296" lon="7.11034"><ele>1233.4</ele><time>2025-10-07T11:28:52Z</time></trkpt>
<trkpt lat="46.25301" lon="7.11039"><ele>1234.2</ele><time>2025-10-07T11:28:57Z</time></trkpt>
<trkpt lat="46.25304" lon="7.11042"><ele>1234.6</ele><time>2025-10-07T11:28:59Z</time></trkpt>
<trkpt lat="46.25306" lon="7.11047"><ele>1235.4</ele><time>2025-10-07T11:29:04Z</time></trkpt>
<trkpt lat="46.25306" lon="7.11049"><ele>1235.6</ele><time>2025-10-07T11:29:05Z</time></trkpt>
<trkpt lat="46.25306" lon="7.11053"><ele>1236</ele><time>2025-10-07T11:29:09Z</time></trkpt>
<trkpt lat="46.25306" lon="7.11054"><ele>1236.2</ele><time>2025-10-07T11:29:10Z</time></trkpt>
<trkpt lat="46.25306" lon="7.11058"><ele>1236.4</ele><time>2025-10-07T11:29:13Z</time></trkpt>
<trkpt lat="46.25306" lon="7.11062"><ele>1236.6</ele><time>2025-10-07T11:29:16Z</time></trkpt>
<trkpt lat="46.25307" lon="7.11063"><ele>1236.8</ele><time>2025-10-07T11:29:18Z</time></trkpt>
<trkpt lat="46.25306" lon="7.11067"><ele>1237.4</ele><time>2025-10-07T11:29:21Z</time></trkpt>
<trkpt lat="46.25305" lon="7.11067"><ele>1237.4</ele><time>2025-10-07T11:29:22Z</time></trkpt>
<trkpt lat="46.25304" lon="7.1107"><ele>1237.8</ele><time>2025-10-07T11:29:24Z</time></trkpt>
<trkpt lat="46.25304" lon="7.11072"><ele>1237.8</ele><time>2025-10-07T11:29:25Z</time></trkpt>
<trkpt lat="46.25304" lon="7.11079"><ele>1238.6</ele><time>2025-10-07T11:29:29Z</time></trkpt>
<trkpt lat="46.25304" lon="7.11085"><ele>1239.4</ele><time>2025-10-07T11:29:33Z</time></trkpt>
<trkpt lat="46.25305" lon="7.11088"><ele>1239.8</ele><time>2025-10-07T11:29:35Z</time></trkpt>
<trkpt lat="46.25304" lon="7.11094"><ele>1240.6</ele><time>2025-10-07T11:29:39Z</time></trkpt>
<trkpt lat="46.25304" lon="7.11097"><ele>1241</ele><time>2025-10-07T11:29:41Z</time></trkpt>
<trkpt lat="46.25302" lon="7.11101"><ele>1241.6</ele><time>2025-10-07T11:29:44Z</time></trkpt>
<trkpt lat="46.25301" lon="7.11105"><ele>1242</ele><time>2025-10-07T11:29:46Z</time></trkpt>
<trkpt lat="46.25297" lon="7.11111"><ele>1242.6</ele><time>2025-10-07T11:29:50Z</time></trkpt>
<trkpt lat="46.25295" lon="7.11114"><ele>1243</ele><time>2025-10-07T11:29:54Z</time></trkpt>
<trkpt lat="46.25294" lon="7.11115"><ele>1243</ele><time>2025-10-07T11:29:55Z</time></trkpt>
<trkpt lat="46.25293" lon="7.11116"><ele>1243.2</ele><time>2025-10-07T11:29:56Z</time></trkpt>
<trkpt lat="46.25289" lon="7.11119"><ele>1243.6</ele><time>2025-10-07T11:30:01Z</time></trkpt>
<trkpt lat="46.25282" lon="7.1112"><ele>1243.6</ele><time>2025-10-07T11:30:05Z</time></trkpt>
<trkpt lat="46.25281" lon="7.11121"><ele>1243.6</ele><time>2025-10-07T11:30:06Z</time></trkpt>
<trkpt lat="46.25283" lon="7.11124"><ele>1243.6</ele><time>2025-10-07T11:30:09Z</time></trkpt>
<trkpt lat="46.25282" lon="7.11125"><ele>1243.6</ele><time>2025-10-07T11:30:10Z</time></trkpt>
<trkpt lat="46.25281" lon="7.11128"><ele>1243.6</ele><time>2025-10-07T11:30:12Z</time></trkpt>
<trkpt lat="46.25281" lon="7.11134"><ele>1243.4</ele><time>2025-10-07T11:30:14Z</time></trkpt>
<trkpt lat="46.25278" lon="7.11147"><ele>1243.8</ele><time>2025-10-07T11:30:19Z</time></trkpt>
<trkpt lat="46.25276" lon="7.11154"><ele>1244</ele><time>2025-10-07T11:30:22Z</time></trkpt>
<trkpt lat="46.25272" lon="7.11157"><ele>1244.4</ele><time>2025-10-07T11:30:25Z</time></trkpt>
<trkpt lat="46.25269" lon="7.1116"><ele>1244.6</ele><time>2025-10-07T11:30:28Z</time></trkpt>
<trkpt lat="46.25268" lon="7.11162"><ele>1244.6</ele><time>2025-10-07T11:30:31Z</time></trkpt>
<trkpt lat="46.2527" lon="7.11161"><ele>1244.8</ele><time>2025-10-07T11:30:37Z</time></trkpt>
<trkpt lat="46.25269" lon="7.11161"><ele>1244.4</ele><time>2025-10-07T11:30:42Z</time></trkpt>
<trkpt lat="46.25269" lon="7.11161"><ele>1244.4</ele><time>2025-10-07T11:30:45Z</time></trkpt>
<trkpt lat="46.25269" lon="7.11161"><ele>1244.6</ele><time>2025-10-07T11:30:50Z</time></trkpt>
<trkpt lat="46.25269" lon="7.11161"><ele>1244.6</ele><time>2025-10-07T11:30:57Z</time></trkpt>
<trkpt lat="46.25269" lon="7.11162"><ele>1244.6</ele><time>2025-10-07T11:30:59Z</time></trkpt>
<trkpt lat="46.25269" lon="7.11163"><ele>1244.6</ele><time>2025-10-07T11:31:01Z</time></trkpt>
<trkpt lat="46.25268" lon="7.11162"><ele>1244.6</ele><time>2025-10-07T11:31:08Z</time></trkpt>
<trkpt lat="46.25268" lon="7.11162"><ele>1244.6</ele><time>2025-10-07T11:31:16Z</time></trkpt>
<trkpt lat="46.25268" lon="7.11162"><ele>1244.6</ele><time>2025-10-07T11:31:24Z</time></trkpt>
<trkpt lat="46.25268" lon="7.11162"><ele>1244.6</ele><time>2025-10-07T11:31:30Z</time></trkpt>
<trkpt lat="46.25268" lon="7.11162"><ele>1244.4</ele><time>2025-10-07T11:31:34Z</time></trkpt>
<trkpt lat="46.25268" lon="7.11162"><ele>1244.4</ele><time>2025-10-07T11:31:36Z</time></trkpt>
<trkpt lat="46.25268" lon="7.11162"><ele>1244.4</ele><time>2025-10-07T11:31:39Z</time></trkpt>
<trkpt lat="46.25268" lon="7.11162"><ele>1244.4</ele><time>2025-10-07T11:31:49Z</time></trkpt>
<trkpt lat="46.25268" lon="7.11162"><ele>1244.4</ele><time>2025-10-07T11:31:55Z</time></trkpt>
<trkpt lat="46.25268" lon="7.11161"><ele>1244.4</ele><time>2025-10-07T11:32:01Z</time></trkpt>
<trkpt lat="46.25268" lon="7.11163"><ele>1244.4</ele><time>2025-10-07T11:32:07Z</time></trkpt>
<trkpt lat="46.25269" lon="7.11164"><ele>1244.4</ele><time>2025-10-07T11:32:10Z</time></trkpt>
<trkpt lat="46.25269" lon="7.11165"><ele>1244.4</ele><time>2025-10-07T11:32:11Z</time></trkpt>
<trkpt lat="46.25272" lon="7.1117"><ele>1244.8</ele><time>2025-10-07T11:32:15Z</time></trkpt>
<trkpt lat="46.25273" lon="7.11176"><ele>1245</ele><time>2025-10-07T11:32:18Z</time></trkpt>
<trkpt lat="46.25273" lon="7.11181"><ele>1245.4</ele><time>2025-10-07T11:32:21Z</time></trkpt>
<trkpt lat="46.25273" lon="7.11185"><ele>1246</ele><time>2025-10-07T11:32:25Z</time></trkpt>
<trkpt lat="46.25273" lon="7.11184"><ele>1246</ele><time>2025-10-07T11:32:26Z</time></trkpt>
<trkpt lat="46.25273" lon="7.11184"><ele>1245.6</ele><time>2025-10-07T11:32:32Z</time></trkpt>
<trkpt lat="46.25273" lon="7.11183"><ele>1246</ele><time>2025-10-07T11:32:40Z</time></trkpt>
<trkpt lat="46.25275" lon="7.11182"><ele>1245.6</ele><time>2025-10-07T11:32:44Z</time></trkpt>
<trkpt lat="46.25274" lon="7.11182"><ele>1245.8</ele><time>2025-10-07T11:32:52Z</time></trkpt>
<trkpt lat="46.25274" lon="7.11182"><ele>1245.8</ele><time>2025-10-07T11:32:59Z</time></trkpt>
<trkpt lat="46.25274" lon="7.11182"><ele>1245.8</ele><time>2025-10-07T11:33:07Z</time></trkpt>
<trkpt lat="46.25274" lon="7.11182"><ele>1245.8</ele><time>2025-10-07T11:33:12Z</time></trkpt>
<trkpt lat="46.25274" lon="7.11182"><ele>1245.8</ele><time>2025-10-07T11:33:18Z</time></trkpt>
<trkpt lat="46.25274" lon="7.11182"><ele>1245.6</ele><time>2025-10-07T11:33:23Z</time></trkpt>
<trkpt lat="46.25274" lon="7.11185"><ele>1245.8</ele><time>2025-10-07T11:33:30Z</time></trkpt>
<trkpt lat="46.25274" lon="7.11186"><ele>1245.8</ele><time>2025-10-07T11:33:36Z</time></trkpt>
<trkpt lat="46.25273" lon="7.11186"><ele>1245.8</ele><time>2025-10-07T11:33:42Z</time></trkpt>
<trkpt lat="46.25275" lon="7.11185"><ele>1245.8</ele><time>2025-10-07T11:33:46Z</time></trkpt>
<trkpt lat="46.25274" lon="7.11185"><ele>1245.8</ele><time>2025-10-07T11:33:52Z</time></trkpt>
<trkpt lat="46.25274" lon="7.11185"><ele>1245.8</ele><time>2025-10-07T11:33:58Z</time></trkpt>
<trkpt lat="46.25275" lon="7.11185"><ele>1245.8</ele><time>2025-10-07T11:33:59Z</time></trkpt>
<trkpt lat="46.25274" lon="7.11191"><ele>1245.8</ele><time>2025-10-07T11:34:02Z</time></trkpt>
<trkpt lat="46.25273" lon="7.11192"><ele>1246</ele><time>2025-10-07T11:34:03Z</time></trkpt>
<trkpt lat="46.25272" lon="7.11194"><ele>1246.2</ele><time>2025-10-07T11:34:04Z</time></trkpt>
<trkpt lat="46.25267" lon="7.11203"><ele>1247.2</ele><time>2025-10-07T11:34:10Z</time></trkpt>
<trkpt lat="46.25265" lon="7.11209"><ele>1247.8</ele><time>2025-10-07T11:34:14Z</time></trkpt>
<trkpt lat="46.25266" lon="7.11212"><ele>1248.2</ele><time>2025-10-07T11:34:16Z</time></trkpt>
<trkpt lat="46.25266" lon="7.11214"><ele>1248.4</ele><time>2025-10-07T11:34:17Z</time></trkpt>
<trkpt lat="46.25267" lon="7.11222"><ele>1249.4</ele><time>2025-10-07T11:34:23Z</time></trkpt>
<trkpt lat="46.25268" lon="7.11222"><ele>1249.4</ele><time>2025-10-07T11:34:25Z</time></trkpt>
<trkpt lat="46.25267" lon="7.11222"><ele>1249.4</ele><time>2025-10-07T11:34:27Z</time></trkpt>
<trkpt lat="46.25266" lon="7.11225"><ele>1249.4</ele><time>2025-10-07T11:34:33Z</time></trkpt>
<trkpt lat="46.25267" lon="7.11226"><ele>1249.6</ele><time>2025-10-07T11:34:37Z</time></trkpt>
<trkpt lat="46.25267" lon="7.11227"><ele>1249.6</ele><time>2025-10-07T11:34:38Z</time></trkpt>
<trkpt lat="46.25266" lon="7.11227"><ele>1249.8</ele><time>2025-10-07T11:34:39Z</time></trkpt>
<trkpt lat="46.25265" lon="7.11226"><ele>1249.8</ele><time>2025-10-07T11:34:41Z</time></trkpt>
<trkpt lat="46.25265" lon="7.11226"><ele>1249.8</ele><time>2025-10-07T11:34:43Z</time></trkpt>
<trkpt lat="46.25265" lon="7.11232"><ele>1250.4</ele><time>2025-10-07T11:34:49Z</time></trkpt>
<trkpt lat="46.25265" lon="7.11233"><ele>1250.4</ele><time>2025-10-07T11:34:50Z</time></trkpt>
<trkpt lat="46.25265" lon="7.11238"><ele>1251.2</ele><time>2025-10-07T11:34:55Z</time></trkpt>
<trkpt lat="46.25266" lon="7.11239"><ele>1251.6</ele><time>2025-10-07T11:34:58Z</time></trkpt>
<trkpt lat="46.25266" lon="7.11239"><ele>1251.6</ele><time>2025-10-07T11:34:59Z</time></trkpt>
<trkpt lat="46.25267" lon="7.11245"><ele>1252.2</ele><time>2025-10-07T11:35:04Z</time></trkpt>
<trkpt lat="46.2527" lon="7.1125"><ele>1252.6</ele><time>2025-10-07T11:35:08Z</time></trkpt>
<trkpt lat="46.25272" lon="7.11254"><ele>1253.2</ele><time>2025-10-07T11:35:11Z</time></trkpt>
<trkpt lat="46.25272" lon="7.1126"><ele>1253.8</ele><time>2025-10-07T11:35:15Z</time></trkpt>
<trkpt lat="46.25273" lon="7.11262"><ele>1253.8</ele><time>2025-10-07T11:35:16Z</time></trkpt>
<trkpt lat="46.25274" lon="7.11271"><ele>1254.4</ele><time>2025-10-07T11:35:22Z</time></trkpt>
<trkpt lat="46.25275" lon="7.11274"><ele>1254.8</ele><time>2025-10-07T11:35:24Z</time></trkpt>
<trkpt lat="46.25276" lon="7.11276"><ele>1255</ele><time>2025-10-07T11:35:25Z</time></trkpt>
<trkpt lat="46.25277" lon="7.11279"><ele>1255.4</ele><time>2025-10-07T11:35:28Z</time></trkpt>
<trkpt lat="46.25278" lon="7.1128"><ele>1255.6</ele><time>2025-10-07T11:35:29Z</time></trkpt>
<trkpt lat="46.25281" lon="7.11286"><ele>1256</ele><time>2025-10-07T11:35:33Z</time></trkpt>
<trkpt lat="46.25283" lon="7.11289"><ele>1256.4</ele><time>2025-10-07T11:35:36Z</time></trkpt>
<trkpt lat="46.25287" lon="7.11295"><ele>1257</ele><time>2025-10-07T11:35:41Z</time></trkpt>
<trkpt lat="46.25288" lon="7.11296"><ele>1257.2</ele><time>2025-10-07T11:35:42Z</time></trkpt>
<trkpt lat="46.2529" lon="7.11298"><ele>1257.6</ele><time>2025-10-07T11:35:44Z</time></trkpt>
<trkpt lat="46.25291" lon="7.113"><ele>1258</ele><time>2025-10-07T11:35:46Z</time></trkpt>
<trkpt lat="46.25292" lon="7.11302"><ele>1258.2</ele><time>2025-10-07T11:35:47Z</time></trkpt>
<trkpt lat="46.25294" lon="7.11309"><ele>1259</ele><time>2025-10-07T11:35:52Z</time></trkpt>
<trkpt lat="46.25294" lon="7.11312"><ele>1259.2</ele><time>2025-10-07T11:35:54Z</time></trkpt>
<trkpt lat="46.25294" lon="7.11321"><ele>1259.6</ele><time>2025-10-07T11:35:59Z</time></trkpt>
<trkpt lat="46.25295" lon="7.11325"><ele>1260.4</ele><time>2025-10-07T11:36:02Z</time></trkpt>
<trkpt lat="46.25296" lon="7.11329"><ele>1260.8</ele><time>2025-10-07T11:36:05Z</time></trkpt>
<trkpt lat="46.25298" lon="7.11334"><ele>1261.4</ele><time>2025-10-07T11:36:09Z</time></trkpt>
<trkpt lat="46.253" lon="7.11339"><ele>1262</ele><time>2025-10-07T11:36:14Z</time></trkpt>
<trkpt lat="46.253" lon="7.1134"><ele>1262.2</ele><time>2025-10-07T11:36:15Z</time></trkpt>
<trkpt lat="46.25301" lon="7.11341"><ele>1262.4</ele><time>2025-10-07T11:36:16Z</time></trkpt>
<trkpt lat="46.25301" lon="7.11346"><ele>1263</ele><time>2025-10-07T11:36:20Z</time></trkpt>
<trkpt lat="46.25302" lon="7.11349"><ele>1263.4</ele><time>2025-10-07T11:36:22Z</time></trkpt>
<trkpt lat="46.25303" lon="7.11354"><ele>1263.8</ele><time>2025-10-07T11:36:26Z</time></trkpt>
<trkpt lat="46.25305" lon="7.11359"><ele>1264.4</ele><time>2025-10-07T11:36:30Z</time></trkpt>
<trkpt lat="46.25306" lon="7.11363"><ele>1265</ele><time>2025-10-07T11:36:34Z</time></trkpt>
<trkpt lat="46.25306" lon="7.11369"><ele>1265.6</ele><time>2025-10-07T11:36:38Z</time></trkpt>
<trkpt lat="46.25306" lon="7.11371"><ele>1265.8</ele><time>2025-10-07T11:36:40Z</time></trkpt>
<trkpt lat="46.25306" lon="7.11372"><ele>1266</ele><time>2025-10-07T11:36:41Z</time></trkpt>
<trkpt lat="46.25307" lon="7.11378"><ele>1266.6</ele><time>2025-10-07T11:36:46Z</time></trkpt>
<trkpt lat="46.25308" lon="7.11381"><ele>1267</ele><time>2025-10-07T11:36:48Z</time></trkpt>
<trkpt lat="46.25309" lon="7.11388"><ele>1267.8</ele><time>2025-10-07T11:36:54Z</time></trkpt>
<trkpt lat="46.25309" lon="7.11389"><ele>1268</ele><time>2025-10-07T11:36:55Z</time></trkpt>
<trkpt lat="46.2531" lon="7.11394"><ele>1268.6</ele><time>2025-10-07T11:36:59Z</time></trkpt>
<trkpt lat="46.2531" lon="7.11396"><ele>1268.8</ele><time>2025-10-07T11:37:01Z</time></trkpt>
<trkpt lat="46.2531" lon="7.11397"><ele>1269</ele><time>2025-10-07T11:37:02Z</time></trkpt>
<trkpt lat="46.25312" lon="7.11402"><ele>1269.6</ele><time>2025-10-07T11:37:07Z</time></trkpt>
<trkpt lat="46.25312" lon="7.11404"><ele>1269.8</ele><time>2025-10-07T11:37:08Z</time></trkpt>
<trkpt lat="46.25312" lon="7.11405"><ele>1270</ele><time>2025-10-07T11:37:09Z</time></trkpt>
<trkpt lat="46.25314" lon="7.11413"><ele>1270.6</ele><time>2025-10-07T11:37:15Z</time></trkpt>
<trkpt lat="46.25314" lon="7.11415"><ele>1270.8</ele><time>2025-10-07T11:37:16Z</time></trkpt>
<trkpt lat="46.25314" lon="7.11417"><ele>1271</ele><time>2025-10-07T11:37:18Z</time></trkpt>
<trkpt lat="46.25315" lon="7.11421"><ele>1271.4</ele><time>2025-10-07T11:37:21Z</time></trkpt>
<trkpt lat="46.25315" lon="7.11429"><ele>1272</ele><time>2025-10-07T11:37:26Z</time></trkpt>
<trkpt lat="46.25316" lon="7.11436"><ele>1273</ele><time>2025-10-07T11:37:33Z</time></trkpt>
<trkpt lat="46.25317" lon="7.11437"><ele>1273.2</ele><time>2025-10-07T11:37:34Z</time></trkpt>
<trkpt lat="46.25316" lon="7.11446"><ele>1274</ele><time>2025-10-07T11:37:41Z</time></trkpt>
<trkpt lat="46.25316" lon="7.11447"><ele>1274.2</ele><time>2025-10-07T11:37:42Z</time></trkpt>
<trkpt lat="46.25318" lon="7.11457"><ele>1275</ele><time>2025-10-07T11:37:49Z</time></trkpt>
<trkpt lat="46.25319" lon="7.11459"><ele>1275.2</ele><time>2025-10-07T11:37:51Z</time></trkpt>
<trkpt lat="46.2532" lon="7.11464"><ele>1275.8</ele><time>2025-10-07T11:37:55Z</time></trkpt>
<trkpt lat="46.25321" lon="7.11467"><ele>1276.4</ele><time>2025-10-07T11:37:58Z</time></trkpt>
<trkpt lat="46.2532" lon="7.11474"><ele>1277.2</ele><time>2025-10-07T11:38:03Z</time></trkpt>
<trkpt lat="46.2532" lon="7.11475"><ele>1277.2</ele><time>2025-10-07T11:38:04Z</time></trkpt>
<trkpt lat="46.25319" lon="7.11475"><ele>1277.4</ele><time>2025-10-07T11:38:05Z</time></trkpt>
<trkpt lat="46.25316" lon="7.11477"><ele>1277.8</ele><time>2025-10-07T11:38:09Z</time></trkpt>
<trkpt lat="46.25314" lon="7.11476"><ele>1278.2</ele><time>2025-10-07T11:38:11Z</time></trkpt>
<trkpt lat="46.25312" lon="7.11476"><ele>1278.6</ele><time>2025-10-07T11:38:13Z</time></trkpt>
<trkpt lat="46.2531" lon="7.11474"><ele>1279</ele><time>2025-10-07T11:38:16Z</time></trkpt>
<trkpt lat="46.25306" lon="7.1147"><ele>1279.6</ele><time>2025-10-07T11:38:20Z</time></trkpt>
<trkpt lat="46.25303" lon="7.11468"><ele>1280</ele><time>2025-10-07T11:38:23Z</time></trkpt>
<trkpt lat="46.253" lon="7.11463"><ele>1280.6</ele><time>2025-10-07T11:38:28Z</time></trkpt>
<trkpt lat="46.25296" lon="7.1146"><ele>1281.4</ele><time>2025-10-07T11:38:33Z</time></trkpt>
<trkpt lat="46.25293" lon="7.11458"><ele>1281.6</ele><time>2025-10-07T11:38:36Z</time></trkpt>
<trkpt lat="46.25291" lon="7.11457"><ele>1282</ele><time>2025-10-07T11:38:39Z</time></trkpt>
<trkpt lat="46.25291" lon="7.11456"><ele>1282.2</ele><time>2025-10-07T11:38:40Z</time></trkpt>
<trkpt lat="46.25288" lon="7.11453"><ele>1282.6</ele><time>2025-10-07T11:38:43Z</time></trkpt>
<trkpt lat="46.25287" lon="7.11452"><ele>1282.8</ele><time>2025-10-07T11:38:44Z</time></trkpt>
<trkpt lat="46.25283" lon="7.1145"><ele>1283.2</ele><time>2025-10-07T11:38:48Z</time></trkpt>
<trkpt lat="46.2528" lon="7.11448"><ele>1283.8</ele><time>2025-10-07T11:38:51Z</time></trkpt>
<trkpt lat="46.25279" lon="7.11448"><ele>1283.8</ele><time>2025-10-07T11:38:52Z</time></trkpt>
<trkpt lat="46.25277" lon="7.11447"><ele>1284</ele><time>2025-10-07T11:38:54Z</time></trkpt>
<trkpt lat="46.25274" lon="7.11442"><ele>1284.8</ele><time>2025-10-07T11:38:59Z</time></trkpt>
<trkpt lat="46.25273" lon="7.11442"><ele>1285</ele><time>2025-10-07T11:39:00Z</time></trkpt>
<trkpt lat="46.25271" lon="7.11441"><ele>1285.2</ele><time>2025-10-07T11:39:02Z</time></trkpt>
<trkpt lat="46.25269" lon="7.1144"><ele>1285.6</ele><time>2025-10-07T11:39:05Z</time></trkpt>
<trkpt lat="46.25266" lon="7.11441"><ele>1286</ele><time>2025-10-07T11:39:08Z</time></trkpt>
<trkpt lat="46.25263" lon="7.11442"><ele>1286.4</ele><time>2025-10-07T11:39:11Z</time></trkpt>
<trkpt lat="46.25258" lon="7.11446"><ele>1287</ele><time>2025-10-07T11:39:16Z</time></trkpt>
<trkpt lat="46.25258" lon="7.11447"><ele>1287.4</ele><time>2025-10-07T11:39:18Z</time></trkpt>
<trkpt lat="46.25257" lon="7.11449"><ele>1287.4</ele><time>2025-10-07T11:39:19Z</time></trkpt>
<trkpt lat="46.25259" lon="7.11454"><ele>1288</ele><time>2025-10-07T11:39:23Z</time></trkpt>
<trkpt lat="46.25259" lon="7.11457"><ele>1288.2</ele><time>2025-10-07T11:39:24Z</time></trkpt>
<trkpt lat="46.2526" lon="7.1146"><ele>1288.8</ele><time>2025-10-07T11:39:27Z</time></trkpt>
<trkpt lat="46.25263" lon="7.11462"><ele>1289.2</ele><time>2025-10-07T11:39:30Z</time></trkpt>
<trkpt lat="46.25266" lon="7.11466"><ele>1289.8</ele><time>2025-10-07T11:39:34Z</time></trkpt>
<trkpt lat="46.25268" lon="7.11468"><ele>1290.2</ele><time>2025-10-07T11:39:37Z</time></trkpt>
<trkpt lat="46.25269" lon="7.11471"><ele>1290.6</ele><time>2025-10-07T11:39:39Z</time></trkpt>
<trkpt lat="46.2527" lon="7.11481"><ele>1291.4</ele><time>2025-10-07T11:39:45Z</time></trkpt>
<trkpt lat="46.25269" lon="7.11482"><ele>1291.6</ele><time>2025-10-07T11:39:46Z</time></trkpt>
<trkpt lat="46.2527" lon="7.11486"><ele>1291.8</ele><time>2025-10-07T11:39:49Z</time></trkpt>
<trkpt lat="46.2527" lon="7.11489"><ele>1292</ele><time>2025-10-07T11:39:51Z</time></trkpt>
<trkpt lat="46.25271" lon="7.11494"><ele>1292.6</ele><time>2025-10-07T11:39:54Z</time></trkpt>
<trkpt lat="46.25273" lon="7.11501"><ele>1293</ele><time>2025-10-07T11:39:59Z</time></trkpt>
<trkpt lat="46.25274" lon="7.11503"><ele>1293.2</ele><time>2025-10-07T11:40:00Z</time></trkpt>
<trkpt lat="46.25274" lon="7.11507"><ele>1293.6</ele><time>2025-10-07T11:40:03Z</time></trkpt>
<trkpt lat="46.25275" lon="7.1151"><ele>1293.8</ele><time>2025-10-07T11:40:05Z</time></trkpt>
<trkpt lat="46.25275" lon="7.11511"><ele>1294</ele><time>2025-10-07T11:40:06Z</time></trkpt>
<trkpt lat="46.25278" lon="7.11516"><ele>1294.4</ele><time>2025-10-07T11:40:10Z</time></trkpt>
<trkpt lat="46.25279" lon="7.11519"><ele>1294.8</ele><time>2025-10-07T11:40:12Z</time></trkpt>
<trkpt lat="46.25279" lon="7.11525"><ele>1295.2</ele><time>2025-10-07T11:40:16Z</time></trkpt>
<trkpt lat="46.25281" lon="7.11533"><ele>1296</ele><time>2025-10-07T11:40:21Z</time></trkpt>
<trkpt lat="46.25281" lon="7.11542"><ele>1297</ele><time>2025-10-07T11:40:27Z</time></trkpt>
<trkpt lat="46.25281" lon="7.11544"><ele>1297.2</ele><time>2025-10-07T11:40:29Z</time></trkpt>
<trkpt lat="46.2528" lon="7.1155"><ele>1298</ele><time>2025-10-07T11:40:33Z</time></trkpt>
<trkpt lat="46.2528" lon="7.11553"><ele>1298.4</ele><time>2025-10-07T11:40:35Z</time></trkpt>
<trkpt lat="46.2528" lon="7.11555"><ele>1298.6</ele><time>2025-10-07T11:40:36Z</time></trkpt>
<trkpt lat="46.25279" lon="7.11559"><ele>1299</ele><time>2025-10-07T11:40:38Z</time></trkpt>
<trkpt lat="46.25279" lon="7.11567"><ele>1300.2</ele><time>2025-10-07T11:40:43Z</time></trkpt>
<trkpt lat="46.25279" lon="7.11574"><ele>1301.2</ele><time>2025-10-07T11:40:48Z</time></trkpt>
<trkpt lat="46.25279" lon="7.11575"><ele>1301.4</ele><time>2025-10-07T11:40:49Z</time></trkpt>
<trkpt lat="46.25279" lon="7.11576"><ele>1301.4</ele><time>2025-10-07T11:40:50Z</time></trkpt>
<trkpt lat="46.25281" lon="7.11578"><ele>1301.6</ele><time>2025-10-07T11:40:52Z</time></trkpt>
<trkpt lat="46.25282" lon="7.11579"><ele>1301.8</ele><time>2025-10-07T11:40:54Z</time></trkpt>
<trkpt lat="46.25287" lon="7.11582"><ele>1302.4</ele><time>2025-10-07T11:41:00Z</time></trkpt>
<trkpt lat="46.25288" lon="7.11583"><ele>1302.4</ele><time>2025-10-07T11:41:01Z</time></trkpt>
<trkpt lat="46.25292" lon="7.11584"><ele>1302.8</ele><time>2025-10-07T11:41:04Z</time></trkpt>
<trkpt lat="46.25294" lon="7.11587"><ele>1303.4</ele><time>2025-10-07T11:41:07Z</time></trkpt>
<trkpt lat="46.25295" lon="7.11588"><ele>1303.6</ele><time>2025-10-07T11:41:08Z</time></trkpt>
<trkpt lat="46.25296" lon="7.11595"><ele>1304.6</ele><time>2025-10-07T11:41:13Z</time></trkpt>
<trkpt lat="46.25297" lon="7.11603"><ele>1305.6</ele><time>2025-10-07T11:41:19Z</time></trkpt>
<trkpt lat="46.25297" lon="7.11605"><ele>1305.8</ele><time>2025-10-07T11:41:20Z</time></trkpt>
<trkpt lat="46.25296" lon="7.11607"><ele>1306.2</ele><time>2025-10-07T11:41:21Z</time></trkpt>
<trkpt lat="46.25296" lon="7.11611"><ele>1306.8</ele><time>2025-10-07T11:41:24Z</time></trkpt>
<trkpt lat="46.25296" lon="7.11612"><ele>1306.8</ele><time>2025-10-07T11:41:25Z</time></trkpt>
<trkpt lat="46.25295" lon="7.11615"><ele>1307.2</ele><time>2025-10-07T11:41:27Z</time></trkpt>
<trkpt lat="46.25295" lon="7.11618"><ele>1307.8</ele><time>2025-10-07T11:41:30Z</time></trkpt>
<trkpt lat="46.25295" lon="7.1162"><ele>1308</ele><time>2025-10-07T11:41:31Z</time></trkpt>
<trkpt lat="46.25294" lon="7.11628"><ele>1309</ele><time>2025-10-07T11:41:36Z</time></trkpt>
<trkpt lat="46.25293" lon="7.1163"><ele>1309.2</ele><time>2025-10-07T11:41:37Z</time></trkpt>
<trkpt lat="46.25293" lon="7.11637"><ele>1309.8</ele><time>2025-10-07T11:41:42Z</time></trkpt>
<trkpt lat="46.25293" lon="7.11638"><ele>1310</ele><time>2025-10-07T11:41:43Z</time></trkpt>
<trkpt lat="46.25293" lon="7.11646"><ele>1311</ele><time>2025-10-07T11:41:48Z</time></trkpt>
<trkpt lat="46.25292" lon="7.11647"><ele>1311.2</ele><time>2025-10-07T11:41:49Z</time></trkpt>
<trkpt lat="46.25291" lon="7.11653"><ele>1311.6</ele><time>2025-10-07T11:41:52Z</time></trkpt>
<trkpt lat="46.25291" lon="7.11664"><ele>1312.2</ele><time>2025-10-07T11:41:58Z</time></trkpt>
<trkpt lat="46.25291" lon="7.11666"><ele>1312.4</ele><time>2025-10-07T11:42:00Z</time></trkpt>
<trkpt lat="46.25292" lon="7.11671"><ele>1312.6</ele><time>2025-10-07T11:42:03Z</time></trkpt>
<trkpt lat="46.25296" lon="7.11686"><ele>1313.2</ele><time>2025-10-07T11:42:10Z</time></trkpt>
<trkpt lat="46.25296" lon="7.11688"><ele>1313.4</ele><time>2025-10-07T11:42:11Z</time></trkpt>
<trkpt lat="46.25298" lon="7.11703"><ele>1313.6</ele><time>2025-10-07T11:42:18Z</time></trkpt>
<trkpt lat="46.253" lon="7.11714"><ele>1314.2</ele><time>2025-10-07T11:42:24Z</time></trkpt>
<trkpt lat="46.25301" lon="7.11716"><ele>1314.4</ele><time>2025-10-07T11:42:25Z</time></trkpt>
<trkpt lat="46.25303" lon="7.11727"><ele>1315.2</ele><time>2025-10-07T11:42:31Z</time></trkpt>
<trkpt lat="46.25303" lon="7.11728"><ele>1315.4</ele><time>2025-10-07T11:42:32Z</time></trkpt>
<trkpt lat="46.25305" lon="7.11737"><ele>1316.2</ele><time>2025-10-07T11:42:38Z</time></trkpt>
<trkpt lat="46.25306" lon="7.1174"><ele>1316.4</ele><time>2025-10-07T11:42:40Z</time></trkpt>
<trkpt lat="46.25307" lon="7.11745"><ele>1316.8</ele><time>2025-10-07T11:42:43Z</time></trkpt>
<trkpt lat="46.25307" lon="7.11746"><ele>1317</ele><time>2025-10-07T11:42:44Z</time></trkpt>
<trkpt lat="46.25308" lon="7.11752"><ele>1317.4</ele><time>2025-10-07T11:42:48Z</time></trkpt>
<trkpt lat="46.25308" lon="7.11754"><ele>1317.6</ele><time>2025-10-07T11:42:50Z</time></trkpt>
<trkpt lat="46.25312" lon="7.11768"><ele>1318</ele><time>2025-10-07T11:42:56Z</time></trkpt>
<trkpt lat="46.25314" lon="7.11775"><ele>1318.2</ele><time>2025-10-07T11:43:00Z</time></trkpt>
<trkpt lat="46.25317" lon="7.11776"><ele>1318.6</ele><time>2025-10-07T11:43:02Z</time></trkpt>
<trkpt lat="46.25323" lon="7.11781"><ele>1319.4</ele><time>2025-10-07T11:43:08Z</time></trkpt>
<trkpt lat="46.25323" lon="7.11781"><ele>1319.6</ele><time>2025-10-07T11:43:09Z</time></trkpt>
<trkpt lat="46.25329" lon="7.11786"><ele>1320.4</ele><time>2025-10-07T11:43:14Z</time></trkpt>
<trkpt lat="46.2533" lon="7.11788"><ele>1320.8</ele><time>2025-10-07T11:43:16Z</time></trkpt>
<trkpt lat="46.25333" lon="7.11793"><ele>1321.6</ele><time>2025-10-07T11:43:20Z</time></trkpt>
<trkpt lat="46.25333" lon="7.11795"><ele>1321.8</ele><time>2025-10-07T11:43:21Z</time></trkpt>
<trkpt lat="46.25336" lon="7.118"><ele>1323</ele><time>2025-10-07T11:43:26Z</time></trkpt>
<trkpt lat="46.25341" lon="7.11805"><ele>1324.2</ele><time>2025-10-07T11:43:31Z</time></trkpt>
<trkpt lat="46.25343" lon="7.11807"><ele>1324.6</ele><time>2025-10-07T11:43:33Z</time></trkpt>
<trkpt lat="46.25343" lon="7.11809"><ele>1324.8</ele><time>2025-10-07T11:43:34Z</time></trkpt>
<trkpt lat="46.25346" lon="7.11811"><ele>1325.4</ele><time>2025-10-07T11:43:37Z</time></trkpt>
<trkpt lat="46.25349" lon="7.11816"><ele>1326.2</ele><time>2025-10-07T11:43:41Z</time></trkpt>
<trkpt lat="46.2535" lon="7.11816"><ele>1326.4</ele><time>2025-10-07T11:43:42Z</time></trkpt>
<trkpt lat="46.2535" lon="7.11818"><ele>1326.6</ele><time>2025-10-07T11:43:43Z</time></trkpt>
<trkpt lat="46.25352" lon="7.11821"><ele>1327</ele><time>2025-10-07T11:43:46Z</time></trkpt>
<trkpt lat="46.25353" lon="7.11821"><ele>1327.2</ele><time>2025-10-07T11:43:47Z</time></trkpt>
<trkpt lat="46.25354" lon="7.11822"><ele>1327.6</ele><time>2025-10-07T11:43:49Z</time></trkpt>
<trkpt lat="46.25356" lon="7.11826"><ele>1328.2</ele><time>2025-10-07T11:43:53Z</time></trkpt>
<trkpt lat="46.25359" lon="7.1183"><ele>1328.8</ele><time>2025-10-07T11:43:57Z</time></trkpt>
<trkpt lat="46.25359" lon="7.11832"><ele>1328.8</ele><time>2025-10-07T11:43:58Z</time></trkpt>
<trkpt lat="46.2536" lon="7.11834"><ele>1329.2</ele><time>2025-10-07T11:44:00Z</time></trkpt>
<trkpt lat="46.25361" lon="7.11836"><ele>1329.6</ele><time>2025-10-07T11:44:03Z</time></trkpt>
<trkpt lat="46.25362" lon="7.11838"><ele>1329.8</ele><time>2025-10-07T11:44:05Z</time></trkpt>
<trkpt lat="46.25363" lon="7.1184"><ele>1330</ele><time>2025-10-07T11:44:07Z</time></trkpt>
<trkpt lat="46.25367" lon="7.11846"><ele>1330.8</ele><time>2025-10-07T11:44:13Z</time></trkpt>
<trkpt lat="46.25367" lon="7.11847"><ele>1331</ele><time>2025-10-07T11:44:14Z</time></trkpt>
<trkpt lat="46.2537" lon="7.11857"><ele>1332.2</ele><time>2025-10-07T11:44:21Z</time></trkpt>
<trkpt lat="46.2537" lon="7.1186"><ele>1332.4</ele><time>2025-10-07T11:44:23Z</time></trkpt>
<trkpt lat="46.2537" lon="7.11866"><ele>1333</ele><time>2025-10-07T11:44:28Z</time></trkpt>
<trkpt lat="46.25371" lon="7.11867"><ele>1333.2</ele><time>2025-10-07T11:44:29Z</time></trkpt>
<trkpt lat="46.25372" lon="7.11873"><ele>1334</ele><time>2025-10-07T11:44:34Z</time></trkpt>
<trkpt lat="46.25372" lon="7.11875"><ele>1334.2</ele><time>2025-10-07T11:44:36Z</time></trkpt>
<trkpt lat="46.25373" lon="7.1188"><ele>1335</ele><time>2025-10-07T11:44:40Z</time></trkpt>
<trkpt lat="46.25374" lon="7.11883"><ele>1335.4</ele><time>2025-10-07T11:44:43Z</time></trkpt>
<trkpt lat="46.25374" lon="7.11885"><ele>1335.6</ele><time>2025-10-07T11:44:45Z</time></trkpt>
<trkpt lat="46.25377" lon="7.11889"><ele>1336.4</ele><time>2025-10-07T11:44:49Z</time></trkpt>
<trkpt lat="46.25377" lon="7.1189"><ele>1336.6</ele><time>2025-10-07T11:44:50Z</time></trkpt>
<trkpt lat="46.2538" lon="7.11896"><ele>1337.6</ele><time>2025-10-07T11:44:57Z</time></trkpt>
<trkpt lat="46.25384" lon="7.11905"><ele>1338.6</ele><time>2025-10-07T11:45:04Z</time></trkpt>
<trkpt lat="46.25385" lon="7.11912"><ele>1339.8</ele><time>2025-10-07T11:45:09Z</time></trkpt>
<trkpt lat="46.25386" lon="7.11913"><ele>1340</ele><time>2025-10-07T11:45:10Z</time></trkpt>
<trkpt lat="46.25388" lon="7.11917"><ele>1340.8</ele><time>2025-10-07T11:45:14Z</time></trkpt>
<trkpt lat="46.25389" lon="7.1192"><ele>1341.4</ele><time>2025-10-07T11:45:17Z</time></trkpt>
<trkpt lat="46.25391" lon="7.11922"><ele>1341.8</ele><time>2025-10-07T11:45:19Z</time></trkpt>
<trkpt lat="46.25392" lon="7.11925"><ele>1342.4</ele><time>2025-10-07T11:45:22Z</time></trkpt>
<trkpt lat="46.25393" lon="7.11927"><ele>1342.6</ele><time>2025-10-07T11:45:23Z</time></trkpt>
<trkpt lat="46.25393" lon="7.11927"><ele>1342.8</ele><time>2025-10-07T11:45:24Z</time></trkpt>
<trkpt lat="46.25397" lon="7.11932"><ele>1344</ele><time>2025-10-07T11:45:29Z</time></trkpt>
<trkpt lat="46.25398" lon="7.11933"><ele>1344.2</ele><time>2025-10-07T11:45:30Z</time></trkpt>
<trkpt lat="46.25401" lon="7.11939"><ele>1345</ele><time>2025-10-07T11:45:34Z</time></trkpt>
<trkpt lat="46.25402" lon="7.11941"><ele>1345.4</ele><time>2025-10-07T11:45:35Z</time></trkpt>
<trkpt lat="46.25402" lon="7.11946"><ele>1346.2</ele><time>2025-10-07T11:45:39Z</time></trkpt>
<trkpt lat="46.25401" lon="7.11949"><ele>1346.6</ele><time>2025-10-07T11:45:41Z</time></trkpt>
<trkpt lat="46.25401" lon="7.11953"><ele>1347.4</ele><time>2025-10-07T11:45:44Z</time></trkpt>
<trkpt lat="46.25401" lon="7.11957"><ele>1348</ele><time>2025-10-07T11:45:47Z</time></trkpt>
<trkpt lat="46.254" lon="7.11961"><ele>1348.4</ele><time>2025-10-07T11:45:50Z</time></trkpt>
<trkpt lat="46.25399" lon="7.11965"><ele>1349.2</ele><time>2025-10-07T11:45:53Z</time></trkpt>
<trkpt lat="46.25399" lon="7.11969"><ele>1349.6</ele><time>2025-10-07T11:45:56Z</time></trkpt>
<trkpt lat="46.25397" lon="7.11974"><ele>1350.4</ele><time>2025-10-07T11:46:00Z</time></trkpt>
<trkpt lat="46.25397" lon="7.11977"><ele>1350.6</ele><time>2025-10-07T11:46:02Z</time></trkpt>
<trkpt lat="46.25395" lon="7.11979"><ele>1350.8</ele><time>2025-10-07T11:46:03Z</time></trkpt>
<trkpt lat="46.25395" lon="7.1198"><ele>1351</ele><time>2025-10-07T11:46:04Z</time></trkpt>
<trkpt lat="46.25395" lon="7.11981"><ele>1351.2</ele><time>2025-10-07T11:46:05Z</time></trkpt>
<trkpt lat="46.25395" lon="7.11987"><ele>1351.6</ele><time>2025-10-07T11:46:09Z</time></trkpt>
<trkpt lat="46.25395" lon="7.11989"><ele>1351.8</ele><time>2025-10-07T11:46:10Z</time></trkpt>
<trkpt lat="46.25396" lon="7.11994"><ele>1352.2</ele><time>2025-10-07T11:46:15Z</time></trkpt>
<trkpt lat="46.25394" lon="7.12007"><ele>1352.4</ele><time>2025-10-07T11:46:23Z</time></trkpt>
<trkpt lat="46.25394" lon="7.12018"><ele>1352.6</ele><time>2025-10-07T11:46:29Z</time></trkpt>
<trkpt lat="46.25393" lon="7.12026"><ele>1352.6</ele><time>2025-10-07T11:46:34Z</time></trkpt>
<trkpt lat="46.25393" lon="7.12028"><ele>1352.6</ele><time>2025-10-07T11:46:35Z</time></trkpt>
<trkpt lat="46.25393" lon="7.12034"><ele>1352.8</ele><time>2025-10-07T11:46:39Z</time></trkpt>
<trkpt lat="46.25394" lon="7.12039"><ele>1352.8</ele><time>2025-10-07T11:46:42Z</time></trkpt>
<trkpt lat="46.25395" lon="7.12042"><ele>1353</ele><time>2025-10-07T11:46:44Z</time></trkpt>
<trkpt lat="46.25393" lon="7.12051"><ele>1353.6</ele><time>2025-10-07T11:46:50Z</time></trkpt>
<trkpt lat="46.25392" lon="7.12059"><ele>1353.8</ele><time>2025-10-07T11:46:54Z</time></trkpt>
<trkpt lat="46.25391" lon="7.12062"><ele>1354</ele><time>2025-10-07T11:46:56Z</time></trkpt>
<trkpt lat="46.25391" lon="7.12071"><ele>1354.4</ele><time>2025-10-07T11:47:02Z</time></trkpt>
<trkpt lat="46.2539" lon="7.12079"><ele>1355</ele><time>2025-10-07T11:47:07Z</time></trkpt>
<trkpt lat="46.2539" lon="7.1208"><ele>1355</ele><time>2025-10-07T11:47:08Z</time></trkpt>
<trkpt lat="46.2539" lon="7.12089"><ele>1355.8</ele><time>2025-10-07T11:47:14Z</time></trkpt>
<trkpt lat="46.2539" lon="7.12092"><ele>1356</ele><time>2025-10-07T11:47:16Z</time></trkpt>
<trkpt lat="46.2539" lon="7.12097"><ele>1356.4</ele><time>2025-10-07T11:47:19Z</time></trkpt>
<trkpt lat="46.25391" lon="7.12104"><ele>1357.2</ele><time>2025-10-07T11:47:24Z</time></trkpt>
<trkpt lat="46.25392" lon="7.12105"><ele>1357.2</ele><time>2025-10-07T11:47:25Z</time></trkpt>
<trkpt lat="46.25392" lon="7.12111"><ele>1358</ele><time>2025-10-07T11:47:30Z</time></trkpt>
<trkpt lat="46.25392" lon="7.12112"><ele>1358</ele><time>2025-10-07T11:47:31Z</time></trkpt>
<trkpt lat="46.25392" lon="7.12114"><ele>1358.2</ele><time>2025-10-07T11:47:32Z</time></trkpt>
<trkpt lat="46.25393" lon="7.12122"><ele>1359</ele><time>2025-10-07T11:47:37Z</time></trkpt>
<trkpt lat="46.25393" lon="7.12126"><ele>1359.2</ele><time>2025-10-07T11:47:39Z</time></trkpt>
<trkpt lat="46.25393" lon="7.1213"><ele>1359.8</ele><time>2025-10-07T11:47:42Z</time></trkpt>
<trkpt lat="46.25394" lon="7.12134"><ele>1360.4</ele><time>2025-10-07T11:47:46Z</time></trkpt>
<trkpt lat="46.25393" lon="7.12137"><ele>1360.8</ele><time>2025-10-07T11:47:48Z</time></trkpt>
<trkpt lat="46.25392" lon="7.12143"><ele>1361.4</ele><time>2025-10-07T11:47:53Z</time></trkpt>
<trkpt lat="46.25392" lon="7.12145"><ele>1361.6</ele><time>2025-10-07T11:47:54Z</time></trkpt>
<trkpt lat="46.25393" lon="7.12153"><ele>1362.2</ele><time>2025-10-07T11:47:58Z</time></trkpt>
<trkpt lat="46.25393" lon="7.12156"><ele>1362.6</ele><time>2025-10-07T11:48:00Z</time></trkpt>
<trkpt lat="46.25393" lon="7.12163"><ele>1363.6</ele><time>2025-10-07T11:48:05Z</time></trkpt>
<trkpt lat="46.25393" lon="7.12165"><ele>1363.8</ele><time>2025-10-07T11:48:06Z</time></trkpt>
<trkpt lat="46.25393" lon="7.12173"><ele>1364.6</ele><time>2025-10-07T11:48:11Z</time></trkpt>
<trkpt lat="46.25393" lon="7.12175"><ele>1364.8</ele><time>2025-10-07T11:48:12Z</time></trkpt>
<trkpt lat="46.25392" lon="7.1218"><ele>1365.4</ele><time>2025-10-07T11:48:15Z</time></trkpt>
<trkpt lat="46.2539" lon="7.12183"><ele>1366</ele><time>2025-10-07T11:48:18Z</time></trkpt>
<trkpt lat="46.25391" lon="7.1219"><ele>1367</ele><time>2025-10-07T11:48:24Z</time></trkpt>
<trkpt lat="46.25391" lon="7.12192"><ele>1367.2</ele><time>2025-10-07T11:48:25Z</time></trkpt>
<trkpt lat="46.25392" lon="7.12201"><ele>1367.8</ele><time>2025-10-07T11:48:31Z</time></trkpt>
<trkpt lat="46.25392" lon="7.12203"><ele>1368.2</ele><time>2025-10-07T11:48:33Z</time></trkpt>
<trkpt lat="46.25393" lon="7.12206"><ele>1368.4</ele><time>2025-10-07T11:48:35Z</time></trkpt>
<trkpt lat="46.25393" lon="7.12211"><ele>1369</ele><time>2025-10-07T11:48:38Z</time></trkpt>
<trkpt lat="46.25393" lon="7.12212"><ele>1369.2</ele><time>2025-10-07T11:48:39Z</time></trkpt>
<trkpt lat="46.25396" lon="7.12218"><ele>1370</ele><time>2025-10-07T11:48:44Z</time></trkpt>
<trkpt lat="46.25397" lon="7.12221"><ele>1370.2</ele><time>2025-10-07T11:48:46Z</time></trkpt>
<trkpt lat="46.25399" lon="7.12227"><ele>1370.6</ele><time>2025-10-07T11:48:51Z</time></trkpt>
<trkpt lat="46.25402" lon="7.12231"><ele>1371.4</ele><time>2025-10-07T11:48:55Z</time></trkpt>
<trkpt lat="46.25403" lon="7.12235"><ele>1371.8</ele><time>2025-10-07T11:48:58Z</time></trkpt>
<trkpt lat="46.25405" lon="7.1224"><ele>1372.4</ele><time>2025-10-07T11:49:02Z</time></trkpt>
<trkpt lat="46.25406" lon="7.12242"><ele>1372.6</ele><time>2025-10-07T11:49:04Z</time></trkpt>
<trkpt lat="46.25409" lon="7.12245"><ele>1373.4</ele><time>2025-10-07T11:49:08Z</time></trkpt>
<trkpt lat="46.2541" lon="7.12247"><ele>1373.8</ele><time>2025-10-07T11:49:11Z</time></trkpt>
<trkpt lat="46.25411" lon="7.12247"><ele>1374</ele><time>2025-10-07T11:49:16Z</time></trkpt>
<trkpt lat="46.25411" lon="7.12247"><ele>1374</ele><time>2025-10-07T11:49:22Z</time></trkpt>
<trkpt lat="46.25411" lon="7.12247"><ele>1373.8</ele><time>2025-10-07T11:49:27Z</time></trkpt>
<trkpt lat="46.25412" lon="7.12248"><ele>1374</ele><time>2025-10-07T11:49:31Z</time></trkpt>
<trkpt lat="46.25412" lon="7.12248"><ele>1374</ele><time>2025-10-07T11:49:35Z</time></trkpt>
<trkpt lat="46.25412" lon="7.12248"><ele>1374</ele><time>2025-10-07T11:49:39Z</time></trkpt>
<trkpt lat="46.25412" lon="7.12248"><ele>1374</ele><time>2025-10-07T11:49:44Z</time></trkpt>
<trkpt lat="46.25412" lon="7.12248"><ele>1374</ele><time>2025-10-07T11:49:54Z</time></trkpt>
<trkpt lat="46.25412" lon="7.12248"><ele>1374</ele><time>2025-10-07T11:49:56Z</time></trkpt>
<trkpt lat="46.25412" lon="7.12248"><ele>1374</ele><time>2025-10-07T11:50:00Z</time></trkpt>
<trkpt lat="46.25412" lon="7.12248"><ele>1374</ele><time>2025-10-07T11:50:06Z</time></trkpt>
<trkpt lat="46.25412" lon="7.12248"><ele>1373.6</ele><time>2025-10-07T11:50:13Z</time></trkpt>
<trkpt lat="46.25412" lon="7.12246"><ele>1373.6</ele><time>2025-10-07T11:50:18Z</time></trkpt>
<trkpt lat="46.25413" lon="7.12245"><ele>1373.6</ele><time>2025-10-07T11:50:23Z</time></trkpt>
<trkpt lat="46.25414" lon="7.12246"><ele>1373.6</ele><time>2025-10-07T11:50:24Z</time></trkpt>
<trkpt lat="46.25416" lon="7.12246"><ele>1373.2</ele><time>2025-10-07T11:50:27Z</time></trkpt>
<trkpt lat="46.25423" lon="7.12247"><ele>1374.2</ele><time>2025-10-07T11:50:33Z</time></trkpt>
<trkpt lat="46.25424" lon="7.12247"><ele>1374.6</ele><time>2025-10-07T11:50:35Z</time></trkpt>
<trkpt lat="46.25429" lon="7.12246"><ele>1375.4</ele><time>2025-10-07T11:50:39Z</time></trkpt>
<trkpt lat="46.2543" lon="7.12246"><ele>1375.8</ele><time>2025-10-07T11:50:40Z</time></trkpt>
<trkpt lat="46.25434" lon="7.12245"><ele>1376.8</ele><time>2025-10-07T11:50:45Z</time></trkpt>
<trkpt lat="46.25442" lon="7.12243"><ele>1377.4</ele><time>2025-10-07T11:50:51Z</time></trkpt>
<trkpt lat="46.25452" lon="7.1224"><ele>1377</ele><time>2025-10-07T11:50:55Z</time></trkpt>
<trkpt lat="46.25456" lon="7.12241"><ele>1376.8</ele><time>2025-10-07T11:50:56Z</time></trkpt>
<trkpt lat="46.25472" lon="7.12244"><ele>1376.6</ele><time>2025-10-07T11:51:01Z</time></trkpt>
<trkpt lat="46.25483" lon="7.12249"><ele>1376.6</ele><time>2025-10-07T11:51:06Z</time></trkpt>
<trkpt lat="46.25488" lon="7.12254"><ele>1377.4</ele><time>2025-10-07T11:51:11Z</time></trkpt>
<trkpt lat="46.2549" lon="7.12254"><ele>1377.6</ele><time>2025-10-07T11:51:13Z</time></trkpt>
<trkpt lat="46.25492" lon="7.12255"><ele>1377.8</ele><time>2025-10-07T11:51:15Z</time></trkpt>
<trkpt lat="46.25494" lon="7.12257"><ele>1378.2</ele><time>2025-10-07T11:51:17Z</time></trkpt>
<trkpt lat="46.25497" lon="7.1226"><ele>1378.8</ele><time>2025-10-07T11:51:21Z</time></trkpt>
<trkpt lat="46.25499" lon="7.12262"><ele>1379.2</ele><time>2025-10-07T11:51:23Z</time></trkpt>
<trkpt lat="46.25503" lon="7.12267"><ele>1379.8</ele><time>2025-10-07T11:51:28Z</time></trkpt>
<trkpt lat="46.25504" lon="7.12268"><ele>1380</ele><time>2025-10-07T11:51:29Z</time></trkpt>
<trkpt lat="46.25507" lon="7.12271"><ele>1380.6</ele><time>2025-10-07T11:51:33Z</time></trkpt>
<trkpt lat="46.25511" lon="7.12274"><ele>1381.2</ele><time>2025-10-07T11:51:37Z</time></trkpt>
<trkpt lat="46.25513" lon="7.12276"><ele>1381.4</ele><time>2025-10-07T11:51:39Z</time></trkpt>
<trkpt lat="46.25518" lon="7.1228"><ele>1382.2</ele><time>2025-10-07T11:51:43Z</time></trkpt>
<trkpt lat="46.2552" lon="7.12282"><ele>1382.6</ele><time>2025-10-07T11:51:45Z</time></trkpt>
<trkpt lat="46.25522" lon="7.12284"><ele>1383</ele><time>2025-10-07T11:51:48Z</time></trkpt>
<trkpt lat="46.25524" lon="7.12285"><ele>1383</ele><time>2025-10-07T11:51:50Z</time></trkpt>
<trkpt lat="46.25525" lon="7.12286"><ele>1383.2</ele><time>2025-10-07T11:51:51Z</time></trkpt>
<trkpt lat="46.25525" lon="7.12286"><ele>1383.2</ele><time>2025-10-07T11:51:52Z</time></trkpt>
<trkpt lat="46.25527" lon="7.12287"><ele>1383.4</ele><time>2025-10-07T11:51:54Z</time></trkpt>
<trkpt lat="46.25533" lon="7.12291"><ele>1384.2</ele><time>2025-10-07T11:51:59Z</time></trkpt>
<trkpt lat="46.25537" lon="7.12294"><ele>1385.4</ele><time>2025-10-07T11:52:04Z</time></trkpt>
<trkpt lat="46.25542" lon="7.12296"><ele>1386.2</ele><time>2025-10-07T11:52:09Z</time></trkpt>
<trkpt lat="46.25543" lon="7.12297"><ele>1386.4</ele><time>2025-10-07T11:52:10Z</time></trkpt>
<trkpt lat="46.25549" lon="7.12302"><ele>1387.2</ele><time>2025-10-07T11:52:16Z</time></trkpt>
<trkpt lat="46.25552" lon="7.12303"><ele>1387.4</ele><time>2025-10-07T11:52:19Z</time></trkpt>
<trkpt lat="46.25554" lon="7.12302"><ele>1387.6</ele><time>2025-10-07T11:52:21Z</time></trkpt>
<trkpt lat="46.25559" lon="7.12304"><ele>1388.4</ele><time>2025-10-07T11:52:26Z</time></trkpt>
<trkpt lat="46.2556" lon="7.12305"><ele>1388.6</ele><time>2025-10-07T11:52:27Z</time></trkpt>
<trkpt lat="46.25566" lon="7.12304"><ele>1389.4</ele><time>2025-10-07T11:52:32Z</time></trkpt>
<trkpt lat="46.25568" lon="7.12303"><ele>1389.8</ele><time>2025-10-07T11:52:34Z</time></trkpt>
<trkpt lat="46.25569" lon="7.12302"><ele>1390.2</ele><time>2025-10-07T11:52:37Z</time></trkpt>
<trkpt lat="46.25572" lon="7.12296"><ele>1390.8</ele><time>2025-10-07T11:52:41Z</time></trkpt>
<trkpt lat="46.25573" lon="7.12294"><ele>1391.2</ele><time>2025-10-07T11:52:43Z</time></trkpt>
<trkpt lat="46.25572" lon="7.12288"><ele>1392</ele><time>2025-10-07T11:52:47Z</time></trkpt>
<trkpt lat="46.25572" lon="7.12282"><ele>1392.6</ele><time>2025-10-07T11:52:50Z</time></trkpt>
<trkpt lat="46.25574" lon="7.12278"><ele>1393.2</ele><time>2025-10-07T11:52:53Z</time></trkpt>
<trkpt lat="46.25576" lon="7.12273"><ele>1393.6</ele><time>2025-10-07T11:52:57Z</time></trkpt>
<trkpt lat="46.25579" lon="7.12268"><ele>1394.2</ele><time>2025-10-07T11:53:01Z</time></trkpt>
<trkpt lat="46.25581" lon="7.12265"><ele>1394.4</ele><time>2025-10-07T11:53:03Z</time></trkpt>
<trkpt lat="46.25584" lon="7.1226"><ele>1394.8</ele><time>2025-10-07T11:53:08Z</time></trkpt>
<trkpt lat="46.25587" lon="7.12259"><ele>1395</ele><time>2025-10-07T11:53:10Z</time></trkpt>
<trkpt lat="46.2559" lon="7.12257"><ele>1395.2</ele><time>2025-10-07T11:53:13Z</time></trkpt>
<trkpt lat="46.2559" lon="7.12258"><ele>1395.6</ele><time>2025-10-07T11:53:18Z</time></trkpt>
<trkpt lat="46.2559" lon="7.12257"><ele>1395.4</ele><time>2025-10-07T11:53:21Z</time></trkpt>
<trkpt lat="46.2559" lon="7.12257"><ele>1395.2</ele><time>2025-10-07T11:53:25Z</time></trkpt>
<trkpt lat="46.2559" lon="7.12257"><ele>1395.2</ele><time>2025-10-07T11:53:29Z</time></trkpt>
<trkpt lat="46.2559" lon="7.12257"><ele>1395.4</ele><time>2025-10-07T11:53:32Z</time></trkpt>
<trkpt lat="46.2559" lon="7.12257"><ele>1395.4</ele><time>2025-10-07T11:53:38Z</time></trkpt>
<trkpt lat="46.2559" lon="7.12257"><ele>1395.4</ele><time>2025-10-07T11:53:39Z</time></trkpt>
<trkpt lat="46.2559" lon="7.12257"><ele>1395.4</ele><time>2025-10-07T11:53:47Z</time></trkpt>
<trkpt lat="46.2559" lon="7.12255"><ele>1395.2</ele><time>2025-10-07T11:53:52Z</time></trkpt>
<trkpt lat="46.2558" lon="7.12264"><ele>1394.8</ele><time>2025-10-07T11:53:56Z</time></trkpt>
<trkpt lat="46.25577" lon="7.12271"><ele>1394</ele><time>2025-10-07T11:53:59Z</time></trkpt>
<trkpt lat="46.25578" lon="7.12271"><ele>1394</ele><time>2025-10-07T11:54:00Z</time></trkpt>
<trkpt lat="46.25577" lon="7.12271"><ele>1394</ele><time>2025-10-07T11:54:04Z</time></trkpt>
<trkpt lat="46.25583" lon="7.12262"><ele>1394.4</ele><time>2025-10-07T11:54:10Z</time></trkpt>
<trkpt lat="46.25591" lon="7.12257"><ele>1395.2</ele><time>2025-10-07T11:54:14Z</time></trkpt>
<trkpt lat="46.25593" lon="7.12257"><ele>1395.4</ele><time>2025-10-07T11:54:15Z</time></trkpt>
<trkpt lat="46.25596" lon="7.12257"><ele>1395.8</ele><time>2025-10-07T11:54:19Z</time></trkpt>
<trkpt lat="46.2559" lon="7.12258"><ele>1395.8</ele><time>2025-10-07T11:54:25Z</time></trkpt>
<trkpt lat="46.2559" lon="7.12259"><ele>1395.2</ele><time>2025-10-07T11:54:32Z</time></trkpt>
<trkpt lat="46.2559" lon="7.12259"><ele>1395.2</ele><time>2025-10-07T11:54:40Z</time></trkpt>
<trkpt lat="46.25589" lon="7.12259"><ele>1395.2</ele><time>2025-10-07T11:54:41Z</time></trkpt>
<trkpt lat="46.25591" lon="7.12256"><ele>1395.2</ele><time>2025-10-07T11:54:45Z</time></trkpt>
<trkpt lat="46.25595" lon="7.12256"><ele>1395</ele><time>2025-10-07T11:54:50Z</time></trkpt>
<trkpt lat="46.25601" lon="7.12258"><ele>1395.2</ele><time>2025-10-07T11:54:54Z</time></trkpt>
<trkpt lat="46.25602" lon="7.12259"><ele>1395.4</ele><time>2025-10-07T11:54:55Z</time></trkpt>
<trkpt lat="46.2561" lon="7.1226"><ele>1396</ele><time>2025-10-07T11:55:01Z</time></trkpt>
<trkpt lat="46.2561" lon="7.1226"><ele>1396.2</ele><time>2025-10-07T11:55:08Z</time></trkpt>
<trkpt lat="46.2561" lon="7.1226"><ele>1396.2</ele><time>2025-10-07T11:55:09Z</time></trkpt>
<trkpt lat="46.2561" lon="7.1226"><ele>1396.4</ele><time>2025-10-07T11:55:13Z</time></trkpt>
<trkpt lat="46.25611" lon="7.12257"><ele>1396.4</ele><time>2025-10-07T11:55:20Z</time></trkpt>
<trkpt lat="46.25611" lon="7.12255"><ele>1396.2</ele><time>2025-10-07T11:55:22Z</time></trkpt>
<trkpt lat="46.25612" lon="7.12251"><ele>1396.4</ele><time>2025-10-07T11:55:25Z</time></trkpt>
<trkpt lat="46.25615" lon="7.12238"><ele>1396.6</ele><time>2025-10-07T11:55:31Z</time></trkpt>
<trkpt lat="46.25615" lon="7.12237"><ele>1396.8</ele><time>2025-10-07T11:55:32Z</time></trkpt>
<trkpt lat="46.25612" lon="7.1223"><ele>1397.4</ele><time>2025-10-07T11:55:36Z</time></trkpt>
<trkpt lat="46.25609" lon="7.12223"><ele>1398.4</ele><time>2025-10-07T11:55:41Z</time></trkpt>
<trkpt lat="46.25609" lon="7.12221"><ele>1398.6</ele><time>2025-10-07T11:55:42Z</time></trkpt>
<trkpt lat="46.25609" lon="7.12212"><ele>1399.4</ele><time>2025-10-07T11:55:47Z</time></trkpt>
<trkpt lat="46.2561" lon="7.12211"><ele>1399.4</ele><time>2025-10-07T11:55:48Z</time></trkpt>
<trkpt lat="46.25611" lon="7.122"><ele>1399.8</ele><time>2025-10-07T11:55:53Z</time></trkpt>
<trkpt lat="46.25613" lon="7.12185"><ele>1399.4</ele><time>2025-10-07T11:55:58Z</time></trkpt>
<trkpt lat="46.25613" lon="7.1218"><ele>1399.4</ele><time>2025-10-07T11:56:00Z</time></trkpt>
<trkpt lat="46.25611" lon="7.12175"><ele>1399.6</ele><time>2025-10-07T11:56:02Z</time></trkpt>
<trkpt lat="46.25607" lon="7.12163"><ele>1400</ele><time>2025-10-07T11:56:07Z</time></trkpt>
<trkpt lat="46.25606" lon="7.12159"><ele>1400.4</ele><time>2025-10-07T11:56:09Z</time></trkpt>
<trkpt lat="46.25605" lon="7.12157"><ele>1400.6</ele><time>2025-10-07T11:56:10Z</time></trkpt>
<trkpt lat="46.25601" lon="7.12147"><ele>1401</ele><time>2025-10-07T11:56:15Z</time></trkpt>
<trkpt lat="46.256" lon="7.12138"><ele>1401.6</ele><time>2025-10-07T11:56:19Z</time></trkpt>
<trkpt lat="46.25598" lon="7.12131"><ele>1401.8</ele><time>2025-10-07T11:56:22Z</time></trkpt>
<trkpt lat="46.25595" lon="7.12124"><ele>1402.6</ele><time>2025-10-07T11:56:27Z</time></trkpt>
<trkpt lat="46.25592" lon="7.12117"><ele>1403.4</ele><time>2025-10-07T11:56:31Z</time></trkpt>
<trkpt lat="46.25592" lon="7.12113"><ele>1403.6</ele><time>2025-10-07T11:56:33Z</time></trkpt>
<trkpt lat="46.25593" lon="7.12112"><ele>1403.8</ele><time>2025-10-07T11:56:34Z</time></trkpt>
<trkpt lat="46.25596" lon="7.12109"><ele>1404.2</ele><time>2025-10-07T11:56:37Z</time></trkpt>
<trkpt lat="46.25597" lon="7.12109"><ele>1404.4</ele><time>2025-10-07T11:56:38Z</time></trkpt>
<trkpt lat="46.25598" lon="7.1211"><ele>1404.6</ele><time>2025-10-07T11:56:39Z</time></trkpt>
<trkpt lat="46.25604" lon="7.12115"><ele>1405.8</ele><time>2025-10-07T11:56:44Z</time></trkpt>
<trkpt lat="46.25607" lon="7.12123"><ele>1407</ele><time>2025-10-07T11:56:50Z</time></trkpt>
<trkpt lat="46.25611" lon="7.12129"><ele>1407.6</ele><time>2025-10-07T11:56:55Z</time></trkpt>
<trkpt lat="46.25613" lon="7.12133"><ele>1408</ele><time>2025-10-07T11:56:58Z</time></trkpt>
<trkpt lat="46.25614" lon="7.12134"><ele>1408.2</ele><time>2025-10-07T11:57:00Z</time></trkpt>
<trkpt lat="46.25617" lon="7.12138"><ele>1409</ele><time>2025-10-07T11:57:05Z</time></trkpt>
<trkpt lat="46.25618" lon="7.12139"><ele>1409</ele><time>2025-10-07T11:57:06Z</time></trkpt>
<trkpt lat="46.25623" lon="7.12143"><ele>1409.8</ele><time>2025-10-07T11:57:11Z</time></trkpt>
<trkpt lat="46.25625" lon="7.12144"><ele>1410.2</ele><time>2025-10-07T11:57:14Z</time></trkpt>
<trkpt lat="46.25627" lon="7.12147"><ele>1410.4</ele><time>2025-10-07T11:57:17Z</time></trkpt>
<trkpt lat="46.2563" lon="7.12153"><ele>1411.2</ele><time>2025-10-07T11:57:23Z</time></trkpt>
<trkpt lat="46.25631" lon="7.12158"><ele>1411.8</ele><time>2025-10-07T11:57:28Z</time></trkpt>
<trkpt lat="46.2563" lon="7.1216"><ele>1411.8</ele><time>2025-10-07T11:57:32Z</time></trkpt>
<trkpt lat="46.25629" lon="7.12163"><ele>1411.6</ele><time>2025-10-07T11:57:38Z</time></trkpt>
<trkpt lat="46.25629" lon="7.12163"><ele>1411.8</ele><time>2025-10-07T11:57:43Z</time></trkpt>
<trkpt lat="46.25629" lon="7.12161"><ele>1411.6</ele><time>2025-10-07T11:57:48Z</time></trkpt>
<trkpt lat="46.2563" lon="7.1216"><ele>1411.8</ele><time>2025-10-07T11:57:52Z</time></trkpt>
<trkpt lat="46.2563" lon="7.1216"><ele>1411.8</ele><time>2025-10-07T11:57:56Z</time></trkpt>
<trkpt lat="46.25631" lon="7.12161"><ele>1411.6</ele><time>2025-10-07T11:58:01Z</time></trkpt>
<trkpt lat="46.25631" lon="7.1216"><ele>1412</ele><time>2025-10-07T11:58:07Z</time></trkpt>
<trkpt lat="46.25631" lon="7.1216"><ele>1411.8</ele><time>2025-10-07T11:58:09Z</time></trkpt>
<trkpt lat="46.25631" lon="7.1216"><ele>1411.8</ele><time>2025-10-07T11:58:10Z</time></trkpt>
<trkpt lat="46.2563" lon="7.12161"><ele>1411.6</ele><time>2025-10-07T11:58:11Z</time></trkpt>
<trkpt lat="46.2563" lon="7.12161"><ele>1411.6</ele><time>2025-10-07T11:58:12Z</time></trkpt>
<trkpt lat="46.2563" lon="7.12161"><ele>1411.2</ele><time>2025-10-07T11:58:20Z</time></trkpt>
<trkpt lat="46.2563" lon="7.12162"><ele>1411.6</ele><time>2025-10-07T11:58:25Z</time></trkpt>
<trkpt lat="46.2563" lon="7.12165"><ele>1411.4</ele><time>2025-10-07T11:58:31Z</time></trkpt>
<trkpt lat="46.25629" lon="7.12165"><ele>1411.4</ele><time>2025-10-07T11:58:36Z</time></trkpt>
<trkpt lat="46.25628" lon="7.12164"><ele>1411.4</ele><time>2025-10-07T11:58:42Z</time></trkpt>
<trkpt lat="46.25628" lon="7.12163"><ele>1411.4</ele><time>2025-10-07T11:58:45Z</time></trkpt>
<trkpt lat="46.2563" lon="7.12163"><ele>1411.4</ele><time>2025-10-07T11:58:50Z</time></trkpt>
<trkpt lat="46.2563" lon="7.12162"><ele>1411.4</ele><time>2025-10-07T11:58:56Z</time></trkpt>
<trkpt lat="46.25629" lon="7.12159"><ele>1411.4</ele><time>2025-10-07T11:59:01Z</time></trkpt>
<trkpt lat="46.25629" lon="7.12161"><ele>1411.4</ele><time>2025-10-07T11:59:04Z</time></trkpt>
<trkpt lat="46.25628" lon="7.12161"><ele>1411.4</ele><time>2025-10-07T11:59:10Z</time></trkpt>
<trkpt lat="46.25628" lon="7.1216"><ele>1411.4</ele><time>2025-10-07T11:59:16Z</time></trkpt>
<trkpt lat="46.25627" lon="7.1216"><ele>1411.4</ele><time>2025-10-07T11:59:21Z</time></trkpt>
<trkpt lat="46.25628" lon="7.12159"><ele>1411.4</ele><time>2025-10-07T11:59:23Z</time></trkpt>
<trkpt lat="46.25629" lon="7.12158"><ele>1411.4</ele><time>2025-10-07T11:59:26Z</time></trkpt>
<trkpt lat="46.25629" lon="7.12158"><ele>1411.4</ele><time>2025-10-07T11:59:28Z</time></trkpt>
<trkpt lat="46.25629" lon="7.12158"><ele>1411.4</ele><time>2025-10-07T11:59:34Z</time></trkpt>
<trkpt lat="46.25629" lon="7.12158"><ele>1411.4</ele><time>2025-10-07T11:59:36Z</time></trkpt>
<trkpt lat="46.25629" lon="7.12157"><ele>1411.4</ele><time>2025-10-07T11:59:39Z</time></trkpt>
<trkpt lat="46.25629" lon="7.12153"><ele>1411.4</ele><time>2025-10-07T11:59:46Z</time></trkpt>
<trkpt lat="46.25627" lon="7.12153"><ele>1411.4</ele><time>2025-10-07T11:59:53Z</time></trkpt>
<trkpt lat="46.25628" lon="7.12155"><ele>1411.4</ele><time>2025-10-07T11:59:58Z</time></trkpt>
<trkpt lat="46.2563" lon="7.12159"><ele>1411.4</ele><time>2025-10-07T12:00:02Z</time></trkpt>
<trkpt lat="46.25632" lon="7.12162"><ele>1411.4</ele><time>2025-10-07T12:00:07Z</time></trkpt>
<trkpt lat="46.25632" lon="7.12162"><ele>1411.4</ele><time>2025-10-07T12:00:08Z</time></trkpt>
<trkpt lat="46.25634" lon="7.12166"><ele>1411.4</ele><time>2025-10-07T12:00:13Z</time></trkpt>
<trkpt lat="46.25634" lon="7.12169"><ele>1411.4</ele><time>2025-10-07T12:00:14Z</time></trkpt>
<trkpt lat="46.25635" lon="7.12173"><ele>1411.2</ele><time>2025-10-07T12:00:17Z</time></trkpt>
<trkpt lat="46.25636" lon="7.12176"><ele>1411.6</ele><time>2025-10-07T12:00:20Z</time></trkpt>
<trkpt lat="46.25637" lon="7.12179"><ele>1412</ele><time>2025-10-07T12:00:23Z</time></trkpt>
<trkpt lat="46.25637" lon="7.1218"><ele>1412.2</ele><time>2025-10-07T12:00:24Z</time></trkpt>
<trkpt lat="46.25638" lon="7.12185"><ele>1413.2</ele><time>2025-10-07T12:00:29Z</time></trkpt>
<trkpt lat="46.25639" lon="7.12186"><ele>1413.4</ele><time>2025-10-07T12:00:30Z</time></trkpt>
<trkpt lat="46.2564" lon="7.12191"><ele>1414.2</ele><time>2025-10-07T12:00:35Z</time></trkpt>
<trkpt lat="46.2564" lon="7.12192"><ele>1414.4</ele><time>2025-10-07T12:00:36Z</time></trkpt>
<trkpt lat="46.25641" lon="7.12199"><ele>1415.2</ele><time>2025-10-07T12:00:41Z</time></trkpt>
<trkpt lat="46.25642" lon="7.122"><ele>1415.4</ele><time>2025-10-07T12:00:43Z</time></trkpt>
<trkpt lat="46.25644" lon="7.12204"><ele>1416.2</ele><time>2025-10-07T12:00:46Z</time></trkpt>
<trkpt lat="46.25646" lon="7.12205"><ele>1416.6</ele><time>2025-10-07T12:00:48Z</time></trkpt>
<trkpt lat="46.25647" lon="7.12207"><ele>1417</ele><time>2025-10-07T12:00:50Z</time></trkpt>
<trkpt lat="46.25651" lon="7.12209"><ele>1417.6</ele><time>2025-10-07T12:00:54Z</time></trkpt>
<trkpt lat="46.25652" lon="7.12209"><ele>1417.8</ele><time>2025-10-07T12:00:55Z</time></trkpt>
<trkpt lat="46.25656" lon="7.12212"><ele>1418.4</ele><time>2025-10-07T12:01:00Z</time></trkpt>
<trkpt lat="46.25657" lon="7.12213"><ele>1418.8</ele><time>2025-10-07T12:01:02Z</time></trkpt>
<trkpt lat="46.2566" lon="7.12215"><ele>1419.2</ele><time>2025-10-07T12:01:05Z</time></trkpt>
<trkpt lat="46.25661" lon="7.12221"><ele>1419.8</ele><time>2025-10-07T12:01:10Z</time></trkpt>
<trkpt lat="46.25662" lon="7.12223"><ele>1419.8</ele><time>2025-10-07T12:01:11Z</time></trkpt>
<trkpt lat="46.25662" lon="7.12225"><ele>1420</ele><time>2025-10-07T12:01:13Z</time></trkpt>
<trkpt lat="46.25663" lon="7.12225"><ele>1420</ele><time>2025-10-07T12:01:14Z</time></trkpt>
<trkpt lat="46.25665" lon="7.12229"><ele>1420.8</ele><time>2025-10-07T12:01:19Z</time></trkpt>
<trkpt lat="46.25666" lon="7.12231"><ele>1421</ele><time>2025-10-07T12:01:21Z</time></trkpt>
<trkpt lat="46.25667" lon="7.12233"><ele>1421.2</ele><time>2025-10-07T12:01:23Z</time></trkpt>
<trkpt lat="46.25669" lon="7.12238"><ele>1422</ele><time>2025-10-07T12:01:29Z</time></trkpt>
<trkpt lat="46.2567" lon="7.12237"><ele>1422.2</ele><time>2025-10-07T12:01:31Z</time></trkpt>
<trkpt lat="46.25671" lon="7.12235"><ele>1422.6</ele><time>2025-10-07T12:01:34Z</time></trkpt>
<trkpt lat="46.25672" lon="7.12234"><ele>1422.8</ele><time>2025-10-07T12:01:35Z</time></trkpt>
<trkpt lat="46.25672" lon="7.12231"><ele>1423.2</ele><time>2025-10-07T12:01:38Z</time></trkpt>
<trkpt lat="46.25672" lon="7.1223"><ele>1423.4</ele><time>2025-10-07T12:01:39Z</time></trkpt>
<trkpt lat="46.25673" lon="7.12223"><ele>1424</ele><time>2025-10-07T12:01:45Z</time></trkpt>
<trkpt lat="46.25673" lon="7.12221"><ele>1424.2</ele><time>2025-10-07T12:01:46Z</time></trkpt>
<trkpt lat="46.25673" lon="7.12218"><ele>1424.8</ele><time>2025-10-07T12:01:51Z</time></trkpt>
<trkpt lat="46.25673" lon="7.12214"><ele>1425.2</ele><time>2025-10-07T12:01:54Z</time></trkpt>
<trkpt lat="46.25672" lon="7.12213"><ele>1425.4</ele><time>2025-10-07T12:01:55Z</time></trkpt>
<trkpt lat="46.25673" lon="7.1221"><ele>1425.6</ele><time>2025-10-07T12:01:56Z</time></trkpt>
<trkpt lat="46.25672" lon="7.12207"><ele>1426.2</ele><time>2025-10-07T12:02:00Z</time></trkpt>
<trkpt lat="46.25672" lon="7.12206"><ele>1426.4</ele><time>2025-10-07T12:02:01Z</time></trkpt>
<trkpt lat="46.25671" lon="7.122"><ele>1427.6</ele><time>2025-10-07T12:02:06Z</time></trkpt>
<trkpt lat="46.2567" lon="7.12199"><ele>1427.8</ele><time>2025-10-07T12:02:07Z</time></trkpt>
<trkpt lat="46.2567" lon="7.12192"><ele>1429</ele><time>2025-10-07T12:02:11Z</time></trkpt>
<trkpt lat="46.25671" lon="7.12188"><ele>1429.6</ele><time>2025-10-07T12:02:13Z</time></trkpt>
<trkpt lat="46.25671" lon="7.12186"><ele>1430</ele><time>2025-10-07T12:02:14Z</time></trkpt>
<trkpt lat="46.2567" lon="7.12185"><ele>1430.2</ele><time>2025-10-07T12:02:15Z</time></trkpt>
<trkpt lat="46.25669" lon="7.12183"><ele>1430.6</ele><time>2025-10-07T12:02:17Z</time></trkpt>
<trkpt lat="46.2567" lon="7.1218"><ele>1431</ele><time>2025-10-07T12:02:21Z</time></trkpt>
<trkpt lat="46.2567" lon="7.12179"><ele>1431</ele><time>2025-10-07T12:02:22Z</time></trkpt>
<trkpt lat="46.25669" lon="7.12178"><ele>1431.2</ele><time>2025-10-07T12:02:23Z</time></trkpt>
<trkpt lat="46.25668" lon="7.1217"><ele>1431</ele><time>2025-10-07T12:02:27Z</time></trkpt>
<trkpt lat="46.2567" lon="7.12169"><ele>1431</ele><time>2025-10-07T12:02:28Z</time></trkpt>
<trkpt lat="46.25672" lon="7.12165"><ele>1431</ele><time>2025-10-07T12:02:31Z</time></trkpt>
<trkpt lat="46.25677" lon="7.12159"><ele>1431.8</ele><time>2025-10-07T12:02:39Z</time></trkpt>
<trkpt lat="46.25679" lon="7.12159"><ele>1432.2</ele><time>2025-10-07T12:02:41Z</time></trkpt>
<trkpt lat="46.25683" lon="7.12162"><ele>1433</ele><time>2025-10-07T12:02:46Z</time></trkpt>
<trkpt lat="46.25685" lon="7.12162"><ele>1433.2</ele><time>2025-10-07T12:02:47Z</time></trkpt>
<trkpt lat="46.25688" lon="7.12164"><ele>1434</ele><time>2025-10-07T12:02:51Z</time></trkpt>
<trkpt lat="46.25689" lon="7.12164"><ele>1434.2</ele><time>2025-10-07T12:02:52Z</time></trkpt>
<trkpt lat="46.25691" lon="7.12166"><ele>1435</ele><time>2025-10-07T12:02:55Z</time></trkpt>
<trkpt lat="46.25692" lon="7.12166"><ele>1435.4</ele><time>2025-10-07T12:02:57Z</time></trkpt>
<trkpt lat="46.25693" lon="7.12167"><ele>1435.6</ele><time>2025-10-07T12:02:59Z</time></trkpt>
<trkpt lat="46.25694" lon="7.12168"><ele>1436</ele><time>2025-10-07T12:03:01Z</time></trkpt>
<trkpt lat="46.25696" lon="7.12168"><ele>1436.4</ele><time>2025-10-07T12:03:03Z</time></trkpt>
<trkpt lat="46.25699" lon="7.12171"><ele>1437.4</ele><time>2025-10-07T12:03:07Z</time></trkpt>
<trkpt lat="46.257" lon="7.12172"><ele>1437.4</ele><time>2025-10-07T12:03:08Z</time></trkpt>
<trkpt lat="46.25704" lon="7.12174"><ele>1438.4</ele><time>2025-10-07T12:03:13Z</time></trkpt>
<trkpt lat="46.25703" lon="7.12176"><ele>1438.6</ele><time>2025-10-07T12:03:14Z</time></trkpt>
<trkpt lat="46.25701" lon="7.12178"><ele>1438.8</ele><time>2025-10-07T12:03:16Z</time></trkpt>
<trkpt lat="46.25699" lon="7.1218"><ele>1439</ele><time>2025-10-07T12:03:18Z</time></trkpt>
<trkpt lat="46.25697" lon="7.12183"><ele>1439.6</ele><time>2025-10-07T12:03:21Z</time></trkpt>
<trkpt lat="46.25694" lon="7.12188"><ele>1440.6</ele><time>2025-10-07T12:03:24Z</time></trkpt>
<trkpt lat="46.25694" lon="7.12193"><ele>1441.6</ele><time>2025-10-07T12:03:28Z</time></trkpt>
<trkpt lat="46.25694" lon="7.12194"><ele>1441.8</ele><time>2025-10-07T12:03:29Z</time></trkpt>
<trkpt lat="46.25694" lon="7.12194"><ele>1442</ele><time>2025-10-07T12:03:30Z</time></trkpt>
<trkpt lat="46.25695" lon="7.12196"><ele>1442</ele><time>2025-10-07T12:03:31Z</time></trkpt>
<trkpt lat="46.25697" lon="7.12198"><ele>1442.4</ele><time>2025-10-07T12:03:34Z</time></trkpt>
<trkpt lat="46.25699" lon="7.122"><ele>1442.8</ele><time>2025-10-07T12:03:36Z</time></trkpt>
<trkpt lat="46.25701" lon="7.12203"><ele>1443.4</ele><time>2025-10-07T12:03:40Z</time></trkpt>
<trkpt lat="46.25702" lon="7.12203"><ele>1443.8</ele><time>2025-10-07T12:03:42Z</time></trkpt>
<trkpt lat="46.25703" lon="7.12205"><ele>1444.2</ele><time>2025-10-07T12:03:44Z</time></trkpt>
<trkpt lat="46.25705" lon="7.12209"><ele>1444.8</ele><time>2025-10-07T12:03:49Z</time></trkpt>
<trkpt lat="46.25707" lon="7.12213"><ele>1445.2</ele><time>2025-10-07T12:03:52Z</time></trkpt>
<trkpt lat="46.25707" lon="7.12214"><ele>1445.4</ele><time>2025-10-07T12:03:54Z</time></trkpt>
<trkpt lat="46.25707" lon="7.1222"><ele>1446</ele><time>2025-10-07T12:03:58Z</time></trkpt>
<trkpt lat="46.25708" lon="7.12223"><ele>1446.2</ele><time>2025-10-07T12:04:00Z</time></trkpt>
<trkpt lat="46.25709" lon="7.12229"><ele>1446.8</ele><time>2025-10-07T12:04:05Z</time></trkpt>
<trkpt lat="46.25709" lon="7.12231"><ele>1447</ele><time>2025-10-07T12:04:07Z</time></trkpt>
<trkpt lat="46.25709" lon="7.12232"><ele>1447.2</ele><time>2025-10-07T12:04:08Z</time></trkpt>
<trkpt lat="46.2571" lon="7.12235"><ele>1447.6</ele><time>2025-10-07T12:04:11Z</time></trkpt>
<trkpt lat="46.25712" lon="7.12237"><ele>1448</ele><time>2025-10-07T12:04:14Z</time></trkpt>
<trkpt lat="46.25714" lon="7.12239"><ele>1448.6</ele><time>2025-10-07T12:04:17Z</time></trkpt>
<trkpt lat="46.25716" lon="7.12241"><ele>1449.2</ele><time>2025-10-07T12:04:20Z</time></trkpt>
<trkpt lat="46.25717" lon="7.12241"><ele>1449.6</ele><time>2025-10-07T12:04:22Z</time></trkpt>
<trkpt lat="46.25719" lon="7.12243"><ele>1450.2</ele><time>2025-10-07T12:04:25Z</time></trkpt>
<trkpt lat="46.25722" lon="7.12244"><ele>1450.8</ele><time>2025-10-07T12:04:28Z</time></trkpt>
<trkpt lat="46.25723" lon="7.12245"><ele>1451</ele><time>2025-10-07T12:04:29Z</time></trkpt>
<trkpt lat="46.25725" lon="7.12246"><ele>1451.4</ele><time>2025-10-07T12:04:31Z</time></trkpt>
<trkpt lat="46.25728" lon="7.12247"><ele>1451.8</ele><time>2025-10-07T12:04:34Z</time></trkpt>
<trkpt lat="46.2573" lon="7.12249"><ele>1452.2</ele><time>2025-10-07T12:04:36Z</time></trkpt>
<trkpt lat="46.25732" lon="7.12249"><ele>1452.4</ele><time>2025-10-07T12:04:38Z</time></trkpt>
<trkpt lat="46.25733" lon="7.12249"><ele>1452.6</ele><time>2025-10-07T12:04:39Z</time></trkpt>
<trkpt lat="46.25735" lon="7.12249"><ele>1453</ele><time>2025-10-07T12:04:42Z</time></trkpt>
<trkpt lat="46.25737" lon="7.12252"><ele>1453.6</ele><time>2025-10-07T12:04:45Z</time></trkpt>
<trkpt lat="46.25741" lon="7.12254"><ele>1454.4</ele><time>2025-10-07T12:04:50Z</time></trkpt>
<trkpt lat="46.25743" lon="7.12255"><ele>1454.6</ele><time>2025-10-07T12:04:52Z</time></trkpt>
<trkpt lat="46.25745" lon="7.12256"><ele>1455.2</ele><time>2025-10-07T12:04:55Z</time></trkpt>
<trkpt lat="46.25747" lon="7.12257"><ele>1455.6</ele><time>2025-10-07T12:04:56Z</time></trkpt>
<trkpt lat="46.25748" lon="7.12257"><ele>1455.8</ele><time>2025-10-07T12:04:57Z</time></trkpt>
<trkpt lat="46.25751" lon="7.12258"><ele>1456.8</ele><time>2025-10-07T12:05:02Z</time></trkpt>
<trkpt lat="46.25752" lon="7.12259"><ele>1457</ele><time>2025-10-07T12:05:03Z</time></trkpt>
<trkpt lat="46.25756" lon="7.1226"><ele>1457.8</ele><time>2025-10-07T12:05:09Z</time></trkpt>
<trkpt lat="46.25758" lon="7.12261"><ele>1458</ele><time>2025-10-07T12:05:11Z</time></trkpt>
<trkpt lat="46.25761" lon="7.1226"><ele>1458.6</ele><time>2025-10-07T12:05:14Z</time></trkpt>
<trkpt lat="46.25763" lon="7.12262"><ele>1459</ele><time>2025-10-07T12:05:19Z</time></trkpt>
<trkpt lat="46.25765" lon="7.12262"><ele>1459.2</ele><time>2025-10-07T12:05:20Z</time></trkpt>
<trkpt lat="46.2577" lon="7.12263"><ele>1459.8</ele><time>2025-10-07T12:05:25Z</time></trkpt>
<trkpt lat="46.25775" lon="7.12265"><ele>1460.2</ele><time>2025-10-07T12:05:30Z</time></trkpt>
<trkpt lat="46.25777" lon="7.12265"><ele>1460.2</ele><time>2025-10-07T12:05:31Z</time></trkpt>
<trkpt lat="46.25781" lon="7.12267"><ele>1460.6</ele><time>2025-10-07T12:05:35Z</time></trkpt>
<trkpt lat="46.25785" lon="7.12269"><ele>1461.2</ele><time>2025-10-07T12:05:40Z</time></trkpt>
<trkpt lat="46.25786" lon="7.1227"><ele>1461.4</ele><time>2025-10-07T12:05:41Z</time></trkpt>
<trkpt lat="46.25787" lon="7.12273"><ele>1461.6</ele><time>2025-10-07T12:05:43Z</time></trkpt>
<trkpt lat="46.25789" lon="7.12277"><ele>1461.8</ele><time>2025-10-07T12:05:46Z</time></trkpt>
<trkpt lat="46.25797" lon="7.12289"><ele>1461</ele><time>2025-10-07T12:05:51Z</time></trkpt>
<trkpt lat="46.25803" lon="7.12299"><ele>1461.2</ele><time>2025-10-07T12:05:56Z</time></trkpt>
<trkpt lat="46.25805" lon="7.12299"><ele>1461.2</ele><time>2025-10-07T12:05:57Z</time></trkpt>
<trkpt lat="46.25809" lon="7.12304"><ele>1461.4</ele><time>2025-10-07T12:06:00Z</time></trkpt>
<trkpt lat="46.25813" lon="7.12313"><ele>1461.2</ele><time>2025-10-07T12:06:04Z</time></trkpt>
<trkpt lat="46.25819" lon="7.12319"><ele>1460.6</ele><time>2025-10-07T12:06:07Z</time></trkpt>
<trkpt lat="46.25824" lon="7.12325"><ele>1460.2</ele><time>2025-10-07T12:06:09Z</time></trkpt>
<trkpt lat="46.2583" lon="7.12332"><ele>1458.6</ele><time>2025-10-07T12:06:11Z</time></trkpt>
<trkpt lat="46.25834" lon="7.12335"><ele>1458.2</ele><time>2025-10-07T12:06:12Z</time></trkpt>
<trkpt lat="46.25844" lon="7.12343"><ele>1457.8</ele><time>2025-10-07T12:06:14Z</time></trkpt>
<trkpt lat="46.25849" lon="7.12345"><ele>1457.4</ele><time>2025-10-07T12:06:15Z</time></trkpt>
<trkpt lat="46.25853" lon="7.12348"><ele>1457.6</ele><time>2025-10-07T12:06:16Z</time></trkpt>
<trkpt lat="46.25867" lon="7.1236"><ele>1458.2</ele><time>2025-10-07T12:06:21Z</time></trkpt>
<trkpt lat="46.25871" lon="7.12361"><ele>1458.6</ele><time>2025-10-07T12:06:23Z</time></trkpt>
<trkpt lat="46.25876" lon="7.12364"><ele>1459</ele><time>2025-10-07T12:06:27Z</time></trkpt>
<trkpt lat="46.25881" lon="7.12368"><ele>1459.4</ele><time>2025-10-07T12:06:31Z</time></trkpt>
<trkpt lat="46.25883" lon="7.1237"><ele>1459.4</ele><time>2025-10-07T12:06:33Z</time></trkpt>
<trkpt lat="46.25884" lon="7.12372"><ele>1459.6</ele><time>2025-10-07T12:06:35Z</time></trkpt>
<trkpt lat="46.25889" lon="7.12376"><ele>1460</ele><time>2025-10-07T12:06:39Z</time></trkpt>
<trkpt lat="46.25893" lon="7.12379"><ele>1460.4</ele><time>2025-10-07T12:06:42Z</time></trkpt>
<trkpt lat="46.25895" lon="7.12382"><ele>1460.6</ele><time>2025-10-07T12:06:44Z</time></trkpt>
<trkpt lat="46.25899" lon="7.12386"><ele>1461</ele><time>2025-10-07T12:06:48Z</time></trkpt>
<trkpt lat="46.25901" lon="7.12388"><ele>1461.2</ele><time>2025-10-07T12:06:50Z</time></trkpt>
<trkpt lat="46.25906" lon="7.12393"><ele>1461.8</ele><time>2025-10-07T12:06:54Z</time></trkpt>
<trkpt lat="46.25908" lon="7.12395"><ele>1462</ele><time>2025-10-07T12:06:56Z</time></trkpt>
<trkpt lat="46.25909" lon="7.124"><ele>1462.6</ele><time>2025-10-07T12:07:01Z</time></trkpt>
<trkpt lat="46.2591" lon="7.124"><ele>1462.4</ele><time>2025-10-07T12:07:10Z</time></trkpt>
<trkpt lat="46.25912" lon="7.12398"><ele>1462.4</ele><time>2025-10-07T12:07:17Z</time></trkpt>
<trkpt lat="46.25912" lon="7.12399"><ele>1462.8</ele><time>2025-10-07T12:07:20Z</time></trkpt>
<trkpt lat="46.25913" lon="7.12399"><ele>1462.8</ele><time>2025-10-07T12:07:21Z</time></trkpt>
<trkpt lat="46.25915" lon="7.12401"><ele>1463</ele><time>2025-10-07T12:07:23Z</time></trkpt>
<trkpt lat="46.25916" lon="7.12404"><ele>1463.2</ele><time>2025-10-07T12:07:25Z</time></trkpt>
<trkpt lat="46.25921" lon="7.12411"><ele>1463.6</ele><time>2025-10-07T12:07:31Z</time></trkpt>
<trkpt lat="46.25922" lon="7.12412"><ele>1463.8</ele><time>2025-10-07T12:07:32Z</time></trkpt>
<trkpt lat="46.25927" lon="7.12419"><ele>1464.8</ele><time>2025-10-07T12:07:38Z</time></trkpt>
<trkpt lat="46.25932" lon="7.12423"><ele>1465.8</ele><time>2025-10-07T12:07:43Z</time></trkpt>
<trkpt lat="46.25932" lon="7.12424"><ele>1466</ele><time>2025-10-07T12:07:44Z</time></trkpt>
<trkpt lat="46.25932" lon="7.12424"><ele>1466</ele><time>2025-10-07T12:07:45Z</time></trkpt>
<trkpt lat="46.25932" lon="7.12424"><ele>1466</ele><time>2025-10-07T12:07:54Z</time></trkpt>
<trkpt lat="46.25932" lon="7.12424"><ele>1466.2</ele><time>2025-10-07T12:08:01Z</time></trkpt>
<trkpt lat="46.25932" lon="7.12424"><ele>1466</ele><time>2025-10-07T12:08:05Z</time></trkpt>
<trkpt lat="46.25932" lon="7.12424"><ele>1466</ele><time>2025-10-07T12:08:12Z</time></trkpt>
<trkpt lat="46.25932" lon="7.12424"><ele>1466</ele><time>2025-10-07T12:08:14Z</time></trkpt>
<trkpt lat="46.25932" lon="7.12424"><ele>1466</ele><time>2025-10-07T12:08:28Z</time></trkpt>
<trkpt lat="46.25933" lon="7.12425"><ele>1466</ele><time>2025-10-07T12:08:33Z</time></trkpt>
<trkpt lat="46.25934" lon="7.12425"><ele>1466</ele><time>2025-10-07T12:08:34Z</time></trkpt>
<trkpt lat="46.25935" lon="7.12428"><ele>1466.2</ele><time>2025-10-07T12:08:36Z</time></trkpt>
<trkpt lat="46.25937" lon="7.12432"><ele>1466.8</ele><time>2025-10-07T12:08:39Z</time></trkpt>
<trkpt lat="46.25937" lon="7.12433"><ele>1467.2</ele><time>2025-10-07T12:08:40Z</time></trkpt>
<trkpt lat="46.25942" lon="7.12438"><ele>1468</ele><time>2025-10-07T12:08:45Z</time></trkpt>
<trkpt lat="46.25944" lon="7.12439"><ele>1468.2</ele><time>2025-10-07T12:08:46Z</time></trkpt>
<trkpt lat="46.25949" lon="7.12443"><ele>1469.2</ele><time>2025-10-07T12:08:50Z</time></trkpt>
<trkpt lat="46.2595" lon="7.12445"><ele>1469.4</ele><time>2025-10-07T12:08:51Z</time></trkpt>
<trkpt lat="46.25956" lon="7.12452"><ele>1470.6</ele><time>2025-10-07T12:08:57Z</time></trkpt>
<trkpt lat="46.2596" lon="7.12458"><ele>1471.6</ele><time>2025-10-07T12:09:03Z</time></trkpt>
<trkpt lat="46.25963" lon="7.12462"><ele>1472.4</ele><time>2025-10-07T12:09:07Z</time></trkpt>
<trkpt lat="46.25964" lon="7.12462"><ele>1472.8</ele><time>2025-10-07T12:09:09Z</time></trkpt>
<trkpt lat="46.25965" lon="7.12462"><ele>1472.8</ele><time>2025-10-07T12:09:10Z</time></trkpt>
<trkpt lat="46.25967" lon="7.12465"><ele>1473.2</ele><time>2025-10-07T12:09:12Z</time></trkpt>
<trkpt lat="46.25969" lon="7.12469"><ele>1473.6</ele><time>2025-10-07T12:09:15Z</time></trkpt>
<trkpt lat="46.2597" lon="7.12471"><ele>1473.8</ele><time>2025-10-07T12:09:17Z</time></trkpt>
<trkpt lat="46.25973" lon="7.12475"><ele>1474.4</ele><time>2025-10-07T12:09:21Z</time></trkpt>
<trkpt lat="46.25975" lon="7.12476"><ele>1474.8</ele><time>2025-10-07T12:09:23Z</time></trkpt>
<trkpt lat="46.25981" lon="7.12477"><ele>1475.6</ele><time>2025-10-07T12:09:28Z</time></trkpt>
<trkpt lat="46.25983" lon="7.12479"><ele>1476</ele><time>2025-10-07T12:09:30Z</time></trkpt>
<trkpt lat="46.25986" lon="7.1248"><ele>1476.4</ele><time>2025-10-07T12:09:33Z</time></trkpt>
<trkpt lat="46.25992" lon="7.12482"><ele>1477</ele><time>2025-10-07T12:09:39Z</time></trkpt>
<trkpt lat="46.25993" lon="7.12482"><ele>1477</ele><time>2025-10-07T12:09:40Z</time></trkpt>
<trkpt lat="46.25999" lon="7.12486"><ele>1477.8</ele><time>2025-10-07T12:09:46Z</time></trkpt>
<trkpt lat="46.25999" lon="7.12487"><ele>1477.6</ele><time>2025-10-07T12:09:53Z</time></trkpt>
<trkpt lat="46.25998" lon="7.12486"><ele>1477.4</ele><time>2025-10-07T12:09:56Z</time></trkpt>
<trkpt lat="46.25998" lon="7.12485"><ele>1477.4</ele><time>2025-10-07T12:09:58Z</time></trkpt>
<trkpt lat="46.25998" lon="7.12486"><ele>1477.6</ele><time>2025-10-07T12:10:03Z</time></trkpt>
<trkpt lat="46.25998" lon="7.12487"><ele>1477.6</ele><time>2025-10-07T12:10:08Z</time></trkpt>
<trkpt lat="46.25999" lon="7.12487"><ele>1477.4</ele><time>2025-10-07T12:10:15Z</time></trkpt>
<trkpt lat="46.26" lon="7.12486"><ele>1477.2</ele><time>2025-10-07T12:10:19Z</time></trkpt>
<trkpt lat="46.26001" lon="7.12486"><ele>1477</ele><time>2025-10-07T12:10:28Z</time></trkpt>
<trkpt lat="46.25997" lon="7.12485"><ele>1477.2</ele><time>2025-10-07T12:10:33Z</time></trkpt>
<trkpt lat="46.25993" lon="7.12484"><ele>1477.2</ele><time>2025-10-07T12:10:36Z</time></trkpt>
<trkpt lat="46.25983" lon="7.1248"><ele>1476.2</ele><time>2025-10-07T12:10:41Z</time></trkpt>
<trkpt lat="46.25983" lon="7.1248"><ele>1476.2</ele><time>2025-10-07T12:10:46Z</time></trkpt>
<trkpt lat="46.25983" lon="7.1248"><ele>1476.2</ele><time>2025-10-07T12:10:47Z</time></trkpt>
<trkpt lat="46.25985" lon="7.1248"><ele>1476.2</ele><time>2025-10-07T12:10:49Z</time></trkpt>
<trkpt lat="46.25993" lon="7.12483"><ele>1476.8</ele><time>2025-10-07T12:10:53Z</time></trkpt>
<trkpt lat="46.26002" lon="7.12489"><ele>1478</ele><time>2025-10-07T12:10:58Z</time></trkpt>
<trkpt lat="46.26003" lon="7.12491"><ele>1478.2</ele><time>2025-10-07T12:10:59Z</time></trkpt>
<trkpt lat="46.26005" lon="7.1249"><ele>1478.2</ele><time>2025-10-07T12:11:03Z</time></trkpt>
<trkpt lat="46.26003" lon="7.12488"><ele>1478.2</ele><time>2025-10-07T12:11:04Z</time></trkpt>
<trkpt lat="46.26001" lon="7.12485"><ele>1478.4</ele><time>2025-10-07T12:11:06Z</time></trkpt>
<trkpt lat="46.26001" lon="7.12485"><ele>1478</ele><time>2025-10-07T12:11:08Z</time></trkpt>
<trkpt lat="46.26002" lon="7.12486"><ele>1478</ele><time>2025-10-07T12:11:10Z</time></trkpt>
<trkpt lat="46.26004" lon="7.12488"><ele>1478.6</ele><time>2025-10-07T12:11:14Z</time></trkpt>
<trkpt lat="46.26004" lon="7.12489"><ele>1478.8</ele><time>2025-10-07T12:11:20Z</time></trkpt>
<trkpt lat="46.26007" lon="7.12491"><ele>1479</ele><time>2025-10-07T12:11:25Z</time></trkpt>
<trkpt lat="46.26007" lon="7.12491"><ele>1479.2</ele><time>2025-10-07T12:11:26Z</time></trkpt>
<trkpt lat="46.26008" lon="7.12492"><ele>1479.6</ele><time>2025-10-07T12:11:29Z</time></trkpt>
<trkpt lat="46.26012" lon="7.12497"><ele>1480.2</ele><time>2025-10-07T12:11:34Z</time></trkpt>
<trkpt lat="46.26013" lon="7.12498"><ele>1480.4</ele><time>2025-10-07T12:11:35Z</time></trkpt>
<trkpt lat="46.26016" lon="7.12503"><ele>1481.4</ele><time>2025-10-07T12:11:40Z</time></trkpt>
<trkpt lat="46.26021" lon="7.12509"><ele>1482.6</ele><time>2025-10-07T12:11:45Z</time></trkpt>
<trkpt lat="46.26021" lon="7.1251"><ele>1482.8</ele><time>2025-10-07T12:11:46Z</time></trkpt>
<trkpt lat="46.26024" lon="7.12516"><ele>1484</ele><time>2025-10-07T12:11:50Z</time></trkpt>
<trkpt lat="46.26026" lon="7.1252"><ele>1484.6</ele><time>2025-10-07T12:11:53Z</time></trkpt>
<trkpt lat="46.26027" lon="7.12523"><ele>1485</ele><time>2025-10-07T12:11:55Z</time></trkpt>
<trkpt lat="46.2603" lon="7.1253"><ele>1485.6</ele><time>2025-10-07T12:11:59Z</time></trkpt>
<trkpt lat="46.26032" lon="7.12535"><ele>1485.8</ele><time>2025-10-07T12:12:02Z</time></trkpt>
<trkpt lat="46.26033" lon="7.12536"><ele>1485.8</ele><time>2025-10-07T12:12:03Z</time></trkpt>
<trkpt lat="46.26033" lon="7.12538"><ele>1486</ele><time>2025-10-07T12:12:04Z</time></trkpt>
<trkpt lat="46.26033" lon="7.1254"><ele>1486.2</ele><time>2025-10-07T12:12:05Z</time></trkpt>
<trkpt lat="46.26034" lon="7.12548"><ele>1487</ele><time>2025-10-07T12:12:10Z</time></trkpt>
<trkpt lat="46.26034" lon="7.1256"><ele>1488.2</ele><time>2025-10-07T12:12:17Z</time></trkpt>
<trkpt lat="46.26036" lon="7.1257"><ele>1489.2</ele><time>2025-10-07T12:12:23Z</time></trkpt>
<trkpt lat="46.26036" lon="7.12572"><ele>1489.4</ele><time>2025-10-07T12:12:24Z</time></trkpt>
<trkpt lat="46.26035" lon="7.1258"><ele>1490</ele><time>2025-10-07T12:12:28Z</time></trkpt>
<trkpt lat="46.26035" lon="7.12583"><ele>1490.2</ele><time>2025-10-07T12:12:30Z</time></trkpt>
<trkpt lat="46.26034" lon="7.12585"><ele>1490.4</ele><time>2025-10-07T12:12:31Z</time></trkpt>
<trkpt lat="46.26031" lon="7.12591"><ele>1491</ele><time>2025-10-07T12:12:35Z</time></trkpt>
<trkpt lat="46.2603" lon="7.12592"><ele>1491.2</ele><time>2025-10-07T12:12:36Z</time></trkpt>
<trkpt lat="46.26029" lon="7.12593"><ele>1491.4</ele><time>2025-10-07T12:12:37Z</time></trkpt>
<trkpt lat="46.26025" lon="7.12599"><ele>1492.2</ele><time>2025-10-07T12:12:42Z</time></trkpt>
<trkpt lat="46.26024" lon="7.126"><ele>1492.4</ele><time>2025-10-07T12:12:43Z</time></trkpt>
<trkpt lat="46.26024" lon="7.126"><ele>1492.6</ele><time>2025-10-07T12:12:44Z</time></trkpt>
<trkpt lat="46.26023" lon="7.12603"><ele>1492.8</ele><time>2025-10-07T12:12:46Z</time></trkpt>
<trkpt lat="46.26022" lon="7.12604"><ele>1493</ele><time>2025-10-07T12:12:47Z</time></trkpt>
<trkpt lat="46.26018" lon="7.12612"><ele>1493.6</ele><time>2025-10-07T12:12:52Z</time></trkpt>
<trkpt lat="46.26018" lon="7.12615"><ele>1493.8</ele><time>2025-10-07T12:12:54Z</time></trkpt>
<trkpt lat="46.26017" lon="7.12624"><ele>1494.6</ele><time>2025-10-07T12:13:00Z</time></trkpt>
<trkpt lat="46.26018" lon="7.12625"><ele>1494.8</ele><time>2025-10-07T12:13:01Z</time></trkpt>
<trkpt lat="46.2602" lon="7.12637"><ele>1495.2</ele><time>2025-10-07T12:13:07Z</time></trkpt>
<trkpt lat="46.26022" lon="7.12646"><ele>1495.6</ele><time>2025-10-07T12:13:12Z</time></trkpt>
<trkpt lat="46.26023" lon="7.12647"><ele>1495.8</ele><time>2025-10-07T12:13:13Z</time></trkpt>
<trkpt lat="46.26024" lon="7.12656"><ele>1496.2</ele><time>2025-10-07T12:13:17Z</time></trkpt>
<trkpt lat="46.26025" lon="7.12669"><ele>1496.4</ele><time>2025-10-07T12:13:23Z</time></trkpt>
<trkpt lat="46.26027" lon="7.12685"><ele>1496</ele><time>2025-10-07T12:13:28Z</time></trkpt>
<trkpt lat="46.26025" lon="7.12689"><ele>1496.2</ele><time>2025-10-07T12:13:30Z</time></trkpt>
<trkpt lat="46.26022" lon="7.12692"><ele>1496.2</ele><time>2025-10-07T12:13:32Z</time></trkpt>
<trkpt lat="46.2602" lon="7.12693"><ele>1496.2</ele><time>2025-10-07T12:13:33Z</time></trkpt>
<trkpt lat="46.26016" lon="7.12689"><ele>1496.2</ele><time>2025-10-07T12:13:36Z</time></trkpt>
<trkpt lat="46.26012" lon="7.12675"><ele>1496.6</ele><time>2025-10-07T12:13:41Z</time></trkpt>
<trkpt lat="46.26011" lon="7.12673"><ele>1497</ele><time>2025-10-07T12:13:42Z</time></trkpt>
<trkpt lat="46.26009" lon="7.12669"><ele>1497.8</ele><time>2025-10-07T12:13:45Z</time></trkpt>
<trkpt lat="46.26006" lon="7.12665"><ele>1498.4</ele><time>2025-10-07T12:13:48Z</time></trkpt>
<trkpt lat="46.26004" lon="7.12662"><ele>1499</ele><time>2025-10-07T12:13:51Z</time></trkpt>
<trkpt lat="46.26" lon="7.12657"><ele>1499.6</ele><time>2025-10-07T12:13:55Z</time></trkpt>
<trkpt lat="46.25999" lon="7.12655"><ele>1500</ele><time>2025-10-07T12:13:57Z</time></trkpt>
<trkpt lat="46.25994" lon="7.12652"><ele>1500.6</ele><time>2025-10-07T12:14:01Z</time></trkpt>
<trkpt lat="46.25994" lon="7.12652"><ele>1500.6</ele><time>2025-10-07T12:14:02Z</time></trkpt>
<trkpt lat="46.25991" lon="7.12652"><ele>1501</ele><time>2025-10-07T12:14:05Z</time></trkpt>
<trkpt lat="46.25988" lon="7.12652"><ele>1501.6</ele><time>2025-10-07T12:14:08Z</time></trkpt>
<trkpt lat="46.25982" lon="7.12654"><ele>1502.2</ele><time>2025-10-07T12:14:13Z</time></trkpt>
<trkpt lat="46.25981" lon="7.12655"><ele>1502.4</ele><time>2025-10-07T12:14:14Z</time></trkpt>
<trkpt lat="46.25977" lon="7.12658"><ele>1503.2</ele><time>2025-10-07T12:14:19Z</time></trkpt>
<trkpt lat="46.25976" lon="7.12658"><ele>1503.6</ele><time>2025-10-07T12:14:21Z</time></trkpt>
<trkpt lat="46.25972" lon="7.12658"><ele>1504.4</ele><time>2025-10-07T12:14:25Z</time></trkpt>
<trkpt lat="46.25971" lon="7.12659"><ele>1504.6</ele><time>2025-10-07T12:14:26Z</time></trkpt>
<trkpt lat="46.25969" lon="7.12659"><ele>1505.2</ele><time>2025-10-07T12:14:29Z</time></trkpt>
<trkpt lat="46.25968" lon="7.1266"><ele>1505.4</ele><time>2025-10-07T12:14:30Z</time></trkpt>
<trkpt lat="46.25967" lon="7.1266"><ele>1505.8</ele><time>2025-10-07T12:14:32Z</time></trkpt>
<trkpt lat="46.25965" lon="7.12661"><ele>1506.4</ele><time>2025-10-07T12:14:35Z</time></trkpt>
<trkpt lat="46.25964" lon="7.12661"><ele>1506.6</ele><time>2025-10-07T12:14:36Z</time></trkpt>
<trkpt lat="46.2596" lon="7.1266"><ele>1507.4</ele><time>2025-10-07T12:14:40Z</time></trkpt>
<trkpt lat="46.25959" lon="7.12659"><ele>1507.8</ele><time>2025-10-07T12:14:41Z</time></trkpt>
<trkpt lat="46.25956" lon="7.12657"><ele>1508.6</ele><time>2025-10-07T12:14:45Z</time></trkpt>
<trkpt lat="46.25954" lon="7.12655"><ele>1509</ele><time>2025-10-07T12:14:48Z</time></trkpt>
<trkpt lat="46.25952" lon="7.12652"><ele>1509.6</ele><time>2025-10-07T12:14:52Z</time></trkpt>
<trkpt lat="46.25951" lon="7.12651"><ele>1510</ele><time>2025-10-07T12:14:54Z</time></trkpt>
<trkpt lat="46.2595" lon="7.1265"><ele>1510.2</ele><time>2025-10-07T12:14:55Z</time></trkpt>
<trkpt lat="46.25948" lon="7.12647"><ele>1510.6</ele><time>2025-10-07T12:14:59Z</time></trkpt>
<trkpt lat="46.25948" lon="7.12647"><ele>1510.8</ele><time>2025-10-07T12:15:00Z</time></trkpt>
<trkpt lat="46.25945" lon="7.12643"><ele>1511.4</ele><time>2025-10-07T12:15:04Z</time></trkpt>
<trkpt lat="46.25944" lon="7.12641"><ele>1511.8</ele><time>2025-10-07T12:15:06Z</time></trkpt>
<trkpt lat="46.25943" lon="7.12638"><ele>1512.2</ele><time>2025-10-07T12:15:09Z</time></trkpt>
<trkpt lat="46.25942" lon="7.12637"><ele>1512.8</ele><time>2025-10-07T12:15:11Z</time></trkpt>
<trkpt lat="46.25941" lon="7.12632"><ele>1513.8</ele><time>2025-10-07T12:15:15Z</time></trkpt>
<trkpt lat="46.25941" lon="7.1263"><ele>1514</ele><time>2025-10-07T12:15:16Z</time></trkpt>
<trkpt lat="46.2594" lon="7.12624"><ele>1515</ele><time>2025-10-07T12:15:20Z</time></trkpt>
<trkpt lat="46.25939" lon="7.12622"><ele>1515.4</ele><time>2025-10-07T12:15:21Z</time></trkpt>
<trkpt lat="46.25938" lon="7.12618"><ele>1516.2</ele><time>2025-10-07T12:15:24Z</time></trkpt>
<trkpt lat="46.25936" lon="7.12618"><ele>1516.6</ele><time>2025-10-07T12:15:28Z</time></trkpt>
<trkpt lat="46.25936" lon="7.1262"><ele>1516.6</ele><time>2025-10-07T12:15:30Z</time></trkpt>
<trkpt lat="46.25937" lon="7.12626"><ele>1517</ele><time>2025-10-07T12:15:34Z</time></trkpt>
<trkpt lat="46.25939" lon="7.12628"><ele>1517.4</ele><time>2025-10-07T12:15:36Z</time></trkpt>
<trkpt lat="46.2594" lon="7.12633"><ele>1517.8</ele><time>2025-10-07T12:15:40Z</time></trkpt>
<trkpt lat="46.2594" lon="7.12639"><ele>1518.2</ele><time>2025-10-07T12:15:44Z</time></trkpt>
<trkpt lat="46.25939" lon="7.1264"><ele>1518.2</ele><time>2025-10-07T12:15:45Z</time></trkpt>
<trkpt lat="46.25939" lon="7.12641"><ele>1518.4</ele><time>2025-10-07T12:15:46Z</time></trkpt>
<trkpt lat="46.25939" lon="7.12643"><ele>1519</ele><time>2025-10-07T12:15:49Z</time></trkpt>
<trkpt lat="46.25938" lon="7.12649"><ele>1519.6</ele><time>2025-10-07T12:15:54Z</time></trkpt>
<trkpt lat="46.25938" lon="7.12651"><ele>1519.8</ele><time>2025-10-07T12:15:55Z</time></trkpt>
<trkpt lat="46.2594" lon="7.12658"><ele>1520.8</ele><time>2025-10-07T12:15:59Z</time></trkpt>
<trkpt lat="46.25941" lon="7.12659"><ele>1521</ele><time>2025-10-07T12:16:00Z</time></trkpt>
<trkpt lat="46.25942" lon="7.1266"><ele>1521.4</ele><time>2025-10-07T12:16:01Z</time></trkpt>
<trkpt lat="46.25943" lon="7.12663"><ele>1521.8</ele><time>2025-10-07T12:16:04Z</time></trkpt>
<trkpt lat="46.25944" lon="7.12666"><ele>1522.4</ele><time>2025-10-07T12:16:07Z</time></trkpt>
<trkpt lat="46.25947" lon="7.12668"><ele>1523</ele><time>2025-10-07T12:16:10Z</time></trkpt>
<trkpt lat="46.25948" lon="7.1267"><ele>1523.4</ele><time>2025-10-07T12:16:12Z</time></trkpt>
<trkpt lat="46.25949" lon="7.12672"><ele>1523.6</ele><time>2025-10-07T12:16:14Z</time></trkpt>
<trkpt lat="46.25951" lon="7.12676"><ele>1523.8</ele><time>2025-10-07T12:16:17Z</time></trkpt>
<trkpt lat="46.25952" lon="7.12682"><ele>1523.8</ele><time>2025-10-07T12:16:21Z</time></trkpt>
<trkpt lat="46.25951" lon="7.12686"><ele>1524</ele><time>2025-10-07T12:16:23Z</time></trkpt>
<trkpt lat="46.2595" lon="7.12688"><ele>1524</ele><time>2025-10-07T12:16:24Z</time></trkpt>
<trkpt lat="46.2595" lon="7.12692"><ele>1524</ele><time>2025-10-07T12:16:27Z</time></trkpt>
<trkpt lat="46.25949" lon="7.12696"><ele>1524.6</ele><time>2025-10-07T12:16:30Z</time></trkpt>
<trkpt lat="46.25947" lon="7.12697"><ele>1525</ele><time>2025-10-07T12:16:31Z</time></trkpt>
<trkpt lat="46.25947" lon="7.12697"><ele>1525.2</ele><time>2025-10-07T12:16:32Z</time></trkpt>
<trkpt lat="46.25946" lon="7.12699"><ele>1525.2</ele><time>2025-10-07T12:16:33Z</time></trkpt>
<trkpt lat="46.25945" lon="7.127"><ele>1525.4</ele><time>2025-10-07T12:16:34Z</time></trkpt>
<trkpt lat="46.25941" lon="7.12702"><ele>1526.2</ele><time>2025-10-07T12:16:39Z</time></trkpt>
<trkpt lat="46.2594" lon="7.12702"><ele>1526.4</ele><time>2025-10-07T12:16:40Z</time></trkpt>
<trkpt lat="46.25936" lon="7.12703"><ele>1527.2</ele><time>2025-10-07T12:16:45Z</time></trkpt>
<trkpt lat="46.25935" lon="7.12703"><ele>1527.4</ele><time>2025-10-07T12:16:46Z</time></trkpt>
<trkpt lat="46.25931" lon="7.127"><ele>1528</ele><time>2025-10-07T12:16:49Z</time></trkpt>
<trkpt lat="46.2593" lon="7.12697"><ele>1528.4</ele><time>2025-10-07T12:16:51Z</time></trkpt>
<trkpt lat="46.25927" lon="7.12696"><ele>1529</ele><time>2025-10-07T12:16:55Z</time></trkpt>
<trkpt lat="46.25927" lon="7.12695"><ele>1529.2</ele><time>2025-10-07T12:16:56Z</time></trkpt>
<trkpt lat="46.25925" lon="7.12693"><ele>1529.4</ele><time>2025-10-07T12:16:58Z</time></trkpt>
<trkpt lat="46.2592" lon="7.12692"><ele>1529.6</ele><time>2025-10-07T12:17:02Z</time></trkpt>
<trkpt lat="46.25912" lon="7.12693"><ele>1529.6</ele><time>2025-10-07T12:17:08Z</time></trkpt>
<trkpt lat="46.25906" lon="7.12696"><ele>1529.6</ele><time>2025-10-07T12:17:13Z</time></trkpt>
<trkpt lat="46.25899" lon="7.12699"><ele>1530.2</ele><time>2025-10-07T12:17:20Z</time></trkpt>
<trkpt lat="46.25895" lon="7.12703"><ele>1530.6</ele><time>2025-10-07T12:17:24Z</time></trkpt>
<trkpt lat="46.25893" lon="7.12705"><ele>1531</ele><time>2025-10-07T12:17:26Z</time></trkpt>
<trkpt lat="46.25889" lon="7.12707"><ele>1531.6</ele><time>2025-10-07T12:17:30Z</time></trkpt>
<trkpt lat="46.25887" lon="7.12708"><ele>1531.8</ele><time>2025-10-07T12:17:32Z</time></trkpt>
<trkpt lat="46.25885" lon="7.12711"><ele>1532</ele><time>2025-10-07T12:17:36Z</time></trkpt>
<trkpt lat="46.25884" lon="7.12712"><ele>1532</ele><time>2025-10-07T12:17:37Z</time></trkpt>
<trkpt lat="46.25885" lon="7.1272"><ele>1532.6</ele><time>2025-10-07T12:17:42Z</time></trkpt>
<trkpt lat="46.25885" lon="7.12721"><ele>1532.8</ele><time>2025-10-07T12:17:43Z</time></trkpt>
<trkpt lat="46.25887" lon="7.12724"><ele>1533</ele><time>2025-10-07T12:17:45Z</time></trkpt>
<trkpt lat="46.25889" lon="7.12731"><ele>1533.4</ele><time>2025-10-07T12:17:49Z</time></trkpt>
<trkpt lat="46.25889" lon="7.12734"><ele>1533.8</ele><time>2025-10-07T12:17:52Z</time></trkpt>
<trkpt lat="46.25891" lon="7.12739"><ele>1534.2</ele><time>2025-10-07T12:17:55Z</time></trkpt>
<trkpt lat="46.25896" lon="7.12746"><ele>1534.8</ele><time>2025-10-07T12:18:01Z</time></trkpt>
<trkpt lat="46.25901" lon="7.1275"><ele>1535.4</ele><time>2025-10-07T12:18:06Z</time></trkpt>
<trkpt lat="46.25903" lon="7.12752"><ele>1535.6</ele><time>2025-10-07T12:18:08Z</time></trkpt>
<trkpt lat="46.25906" lon="7.12753"><ele>1535.8</ele><time>2025-10-07T12:18:10Z</time></trkpt>
<trkpt lat="46.25911" lon="7.12757"><ele>1536.2</ele><time>2025-10-07T12:18:14Z</time></trkpt>
<trkpt lat="46.25916" lon="7.12767"><ele>1536.2</ele><time>2025-10-07T12:18:20Z</time></trkpt>
<trkpt lat="46.25917" lon="7.12768"><ele>1536.4</ele><time>2025-10-07T12:18:21Z</time></trkpt>
<trkpt lat="46.25924" lon="7.12778"><ele>1536.6</ele><time>2025-10-07T12:18:29Z</time></trkpt>
<trkpt lat="46.25932" lon="7.12787"><ele>1536.4</ele><time>2025-10-07T12:18:36Z</time></trkpt>
<trkpt lat="46.25941" lon="7.12796"><ele>1536.2</ele><time>2025-10-07T12:18:41Z</time></trkpt>
<trkpt lat="46.25946" lon="7.12806"><ele>1536</ele><time>2025-10-07T12:18:46Z</time></trkpt>
<trkpt lat="46.25947" lon="7.12809"><ele>1536</ele><time>2025-10-07T12:18:47Z</time></trkpt>
<trkpt lat="46.2595" lon="7.12821"><ele>1535.8</ele><time>2025-10-07T12:18:51Z</time></trkpt>
<trkpt lat="46.25951" lon="7.12823"><ele>1535.8</ele><time>2025-10-07T12:18:52Z</time></trkpt>
<trkpt lat="46.25956" lon="7.12826"><ele>1536</ele><time>2025-10-07T12:18:55Z</time></trkpt>
<trkpt lat="46.25959" lon="7.12829"><ele>1536.2</ele><time>2025-10-07T12:18:57Z</time></trkpt>
<trkpt lat="46.2596" lon="7.1283"><ele>1536.4</ele><time>2025-10-07T12:18:58Z</time></trkpt>
<trkpt lat="46.25966" lon="7.12839"><ele>1536.6</ele><time>2025-10-07T12:19:03Z</time></trkpt>
<trkpt lat="46.25966" lon="7.12853"><ele>1536</ele><time>2025-10-07T12:19:07Z</time></trkpt>
<trkpt lat="46.25965" lon="7.12863"><ele>1535.6</ele><time>2025-10-07T12:19:11Z</time></trkpt>
<trkpt lat="46.25971" lon="7.12869"><ele>1535.8</ele><time>2025-10-07T12:19:16Z</time></trkpt>
<trkpt lat="46.25981" lon="7.12867"><ele>1534.8</ele><time>2025-10-07T12:19:19Z</time></trkpt>
<trkpt lat="46.25985" lon="7.12865"><ele>1534.6</ele><time>2025-10-07T12:19:20Z</time></trkpt>
<trkpt lat="46.25998" lon="7.12862"><ele>1533.6</ele><time>2025-10-07T12:19:24Z</time></trkpt>
<trkpt lat="46.26004" lon="7.12864"><ele>1533.4</ele><time>2025-10-07T12:19:26Z</time></trkpt>
<trkpt lat="46.26021" lon="7.12867"><ele>1532.6</ele><time>2025-10-07T12:19:32Z</time></trkpt>
<trkpt lat="46.26033" lon="7.12875"><ele>1531.8</ele><time>2025-10-07T12:19:36Z</time></trkpt>
<trkpt lat="46.26036" lon="7.12876"><ele>1531.6</ele><time>2025-10-07T12:19:37Z</time></trkpt>
<trkpt lat="46.26047" lon="7.1288"><ele>1531.2</ele><time>2025-10-07T12:19:41Z</time></trkpt>
<trkpt lat="46.2606" lon="7.12876"><ele>1531.8</ele><time>2025-10-07T12:19:47Z</time></trkpt>
<trkpt lat="46.26071" lon="7.12867"><ele>1532.4</ele><time>2025-10-07T12:19:54Z</time></trkpt>
<trkpt lat="46.26073" lon="7.12866"><ele>1532.6</ele><time>2025-10-07T12:19:56Z</time></trkpt>
<trkpt lat="46.26078" lon="7.12864"><ele>1533</ele><time>2025-10-07T12:19:59Z</time></trkpt>
<trkpt lat="46.26086" lon="7.12864"><ele>1533.6</ele><time>2025-10-07T12:20:05Z</time></trkpt>
<trkpt lat="46.26087" lon="7.12864"><ele>1533.8</ele><time>2025-10-07T12:20:06Z</time></trkpt>
<trkpt lat="46.26093" lon="7.12862"><ele>1534.4</ele><time>2025-10-07T12:20:11Z</time></trkpt>
<trkpt lat="46.26096" lon="7.12861"><ele>1534.8</ele><time>2025-10-07T12:20:14Z</time></trkpt>
<trkpt lat="46.26101" lon="7.1286"><ele>1535.6</ele><time>2025-10-07T12:20:18Z</time></trkpt>
<trkpt lat="46.26102" lon="7.12859"><ele>1535.8</ele><time>2025-10-07T12:20:20Z</time></trkpt>
<trkpt lat="46.26106" lon="7.12857"><ele>1536.6</ele><time>2025-10-07T12:20:24Z</time></trkpt>
<trkpt lat="46.26106" lon="7.12857"><ele>1536.8</ele><time>2025-10-07T12:20:25Z</time></trkpt>
<trkpt lat="46.26107" lon="7.12856"><ele>1537</ele><time>2025-10-07T12:20:27Z</time></trkpt>
<trkpt lat="46.26109" lon="7.12851"><ele>1538</ele><time>2025-10-07T12:20:31Z</time></trkpt>
<trkpt lat="46.26109" lon="7.12849"><ele>1538.2</ele><time>2025-10-07T12:20:32Z</time></trkpt>
<trkpt lat="46.26111" lon="7.12845"><ele>1539.2</ele><time>2025-10-07T12:20:36Z</time></trkpt>
<trkpt lat="46.26111" lon="7.12844"><ele>1539.2</ele><time>2025-10-07T12:20:37Z</time></trkpt>
<trkpt lat="46.26111" lon="7.12843"><ele>1539.4</ele><time>2025-10-07T12:20:38Z</time></trkpt>
<trkpt lat="46.26111" lon="7.12838"><ele>1540</ele><time>2025-10-07T12:20:42Z</time></trkpt>
<trkpt lat="46.26111" lon="7.12835"><ele>1540.4</ele><time>2025-10-07T12:20:44Z</time></trkpt>
<trkpt lat="46.26111" lon="7.12831"><ele>1541.2</ele><time>2025-10-07T12:20:48Z</time></trkpt>
<trkpt lat="46.26111" lon="7.12828"><ele>1541.6</ele><time>2025-10-07T12:20:50Z</time></trkpt>
<trkpt lat="46.2611" lon="7.12825"><ele>1542</ele><time>2025-10-07T12:20:53Z</time></trkpt>
<trkpt lat="46.2611" lon="7.1282"><ele>1542.6</ele><time>2025-10-07T12:20:57Z</time></trkpt>
<trkpt lat="46.2611" lon="7.12817"><ele>1543.2</ele><time>2025-10-07T12:21:00Z</time></trkpt>
<trkpt lat="46.26109" lon="7.12813"><ele>1543.8</ele><time>2025-10-07T12:21:04Z</time></trkpt>
<trkpt lat="46.26109" lon="7.12809"><ele>1544.2</ele><time>2025-10-07T12:21:07Z</time></trkpt>
<trkpt lat="46.26108" lon="7.12804"><ele>1544.8</ele><time>2025-10-07T12:21:11Z</time></trkpt>
<trkpt lat="46.26108" lon="7.12802"><ele>1545.2</ele><time>2025-10-07T12:21:13Z</time></trkpt>
<trkpt lat="46.26107" lon="7.12797"><ele>1546</ele><time>2025-10-07T12:21:17Z</time></trkpt>
<trkpt lat="46.26106" lon="7.12793"><ele>1546.6</ele><time>2025-10-07T12:21:20Z</time></trkpt>
<trkpt lat="46.26104" lon="7.12791"><ele>1547.2</ele><time>2025-10-07T12:21:23Z</time></trkpt>
<trkpt lat="46.26103" lon="7.1279"><ele>1547.4</ele><time>2025-10-07T12:21:24Z</time></trkpt>
<trkpt lat="46.26101" lon="7.12787"><ele>1548.2</ele><time>2025-10-07T12:21:28Z</time></trkpt>
<trkpt lat="46.26101" lon="7.12785"><ele>1548.2</ele><time>2025-10-07T12:21:29Z</time></trkpt>
<trkpt lat="46.26101" lon="7.12781"><ele>1549</ele><time>2025-10-07T12:21:33Z</time></trkpt>
<trkpt lat="46.26103" lon="7.12779"><ele>1549.4</ele><time>2025-10-07T12:21:36Z</time></trkpt>
<trkpt lat="46.26106" lon="7.12778"><ele>1550</ele><time>2025-10-07T12:21:39Z</time></trkpt>
<trkpt lat="46.26109" lon="7.12778"><ele>1550.4</ele><time>2025-10-07T12:21:42Z</time></trkpt>
<trkpt lat="46.26111" lon="7.1278"><ele>1551</ele><time>2025-10-07T12:21:45Z</time></trkpt>
<trkpt lat="46.26114" lon="7.12782"><ele>1551.2</ele><time>2025-10-07T12:21:48Z</time></trkpt>
<trkpt lat="46.26116" lon="7.12784"><ele>1551.6</ele><time>2025-10-07T12:21:51Z</time></trkpt>
<trkpt lat="46.26117" lon="7.12784"><ele>1551.8</ele><time>2025-10-07T12:21:52Z</time></trkpt>
<trkpt lat="46.2612" lon="7.12785"><ele>1552.4</ele><time>2025-10-07T12:21:57Z</time></trkpt>
<trkpt lat="46.26122" lon="7.12786"><ele>1552.6</ele><time>2025-10-07T12:21:59Z</time></trkpt>
<trkpt lat="46.26122" lon="7.12786"><ele>1553.2</ele><time>2025-10-07T12:22:02Z</time></trkpt>
<trkpt lat="46.26124" lon="7.12786"><ele>1553.2</ele><time>2025-10-07T12:22:09Z</time></trkpt>
<trkpt lat="46.26123" lon="7.12785"><ele>1553.2</ele><time>2025-10-07T12:22:18Z</time></trkpt>
<trkpt lat="46.26123" lon="7.12785"><ele>1553.4</ele><time>2025-10-07T12:22:26Z</time></trkpt>
<trkpt lat="46.26123" lon="7.12785"><ele>1553.6</ele><time>2025-10-07T12:22:32Z</time></trkpt>
<trkpt lat="46.26123" lon="7.12785"><ele>1553.6</ele><time>2025-10-07T12:22:34Z</time></trkpt>
<trkpt lat="46.26123" lon="7.12785"><ele>1553.6</ele><time>2025-10-07T12:22:37Z</time></trkpt>
<trkpt lat="46.26123" lon="7.12785"><ele>1553.8</ele><time>2025-10-07T12:22:45Z</time></trkpt>
<trkpt lat="46.26123" lon="7.12785"><ele>1554.2</ele><time>2025-10-07T12:22:54Z</time></trkpt>
<trkpt lat="46.26123" lon="7.12785"><ele>1554</ele><time>2025-10-07T12:22:59Z</time></trkpt>
<trkpt lat="46.26123" lon="7.12785"><ele>1554.2</ele><time>2025-10-07T12:23:06Z</time></trkpt>
<trkpt lat="46.26123" lon="7.12785"><ele>1554</ele><time>2025-10-07T12:23:10Z</time></trkpt>
<trkpt lat="46.26122" lon="7.12785"><ele>1554.2</ele><time>2025-10-07T12:23:12Z</time></trkpt>
<trkpt lat="46.26122" lon="7.12785"><ele>1554.2</ele><time>2025-10-07T12:23:18Z</time></trkpt>
<trkpt lat="46.26123" lon="7.12785"><ele>1554.2</ele><time>2025-10-07T12:23:24Z</time></trkpt>
<trkpt lat="46.26123" lon="7.12785"><ele>1554.2</ele><time>2025-10-07T12:23:25Z</time></trkpt>
<trkpt lat="46.26123" lon="7.12785"><ele>1554.2</ele><time>2025-10-07T12:23:30Z</time></trkpt>
<trkpt lat="46.26123" lon="7.12785"><ele>1554.4</ele><time>2025-10-07T12:23:36Z</time></trkpt>
<trkpt lat="46.26123" lon="7.12785"><ele>1554.4</ele><time>2025-10-07T12:23:49Z</time></trkpt>
<trkpt lat="46.26123" lon="7.12785"><ele>1554.4</ele><time>2025-10-07T12:23:58Z</time></trkpt>
<trkpt lat="46.26123" lon="7.12785"><ele>1554.8</ele><time>2025-10-07T12:24:01Z</time></trkpt>
<trkpt lat="46.26123" lon="7.12785"><ele>1554.8</ele><time>2025-10-07T12:24:05Z</time></trkpt>
<trkpt lat="46.26124" lon="7.12785"><ele>1554.8</ele><time>2025-10-07T12:24:12Z</time></trkpt>
<trkpt lat="46.26124" lon="7.12784"><ele>1554.8</ele><time>2025-10-07T12:24:17Z</time></trkpt>
<trkpt lat="46.26125" lon="7.12784"><ele>1554.8</ele><time>2025-10-07T12:24:20Z</time></trkpt>
<trkpt lat="46.26123" lon="7.12784"><ele>1554.8</ele><time>2025-10-07T12:24:27Z</time></trkpt>
<trkpt lat="46.26127" lon="7.12788"><ele>1554.8</ele><time>2025-10-07T12:24:33Z</time></trkpt>
<trkpt lat="46.26133" lon="7.12791"><ele>1555</ele><time>2025-10-07T12:24:39Z</time></trkpt>
<trkpt lat="46.26133" lon="7.12792"><ele>1555.2</ele><time>2025-10-07T12:24:40Z</time></trkpt>
<trkpt lat="46.26135" lon="7.12794"><ele>1555.8</ele><time>2025-10-07T12:24:43Z</time></trkpt>
<trkpt lat="46.26137" lon="7.12795"><ele>1556.2</ele><time>2025-10-07T12:24:45Z</time></trkpt>
<trkpt lat="46.26138" lon="7.12795"><ele>1556.6</ele><time>2025-10-07T12:24:47Z</time></trkpt>
<trkpt lat="46.2614" lon="7.12796"><ele>1557</ele><time>2025-10-07T12:24:49Z</time></trkpt>
<trkpt lat="46.26141" lon="7.12797"><ele>1557.4</ele><time>2025-10-07T12:24:51Z</time></trkpt>
<trkpt lat="46.26141" lon="7.12797"><ele>1557.6</ele><time>2025-10-07T12:24:52Z</time></trkpt>
<trkpt lat="46.26142" lon="7.12798"><ele>1557.8</ele><time>2025-10-07T12:24:53Z</time></trkpt>
<trkpt lat="46.26143" lon="7.12799"><ele>1557.8</ele><time>2025-10-07T12:24:54Z</time></trkpt>
<trkpt lat="46.26144" lon="7.12799"><ele>1558</ele><time>2025-10-07T12:24:55Z</time></trkpt>
<trkpt lat="46.26145" lon="7.12799"><ele>1558.2</ele><time>2025-10-07T12:24:56Z</time></trkpt>
<trkpt lat="46.26146" lon="7.128"><ele>1558.4</ele><time>2025-10-07T12:24:57Z</time></trkpt>
<trkpt lat="46.26147" lon="7.12801"><ele>1558.6</ele><time>2025-10-07T12:24:58Z</time></trkpt>
<trkpt lat="46.26148" lon="7.12802"><ele>1559.2</ele><time>2025-10-07T12:25:01Z</time></trkpt>
<trkpt lat="46.2615" lon="7.12804"><ele>1559.4</ele><time>2025-10-07T12:25:03Z</time></trkpt>
<trkpt lat="46.26152" lon="7.12805"><ele>1560.2</ele><time>2025-10-07T12:25:06Z</time></trkpt>
<trkpt lat="46.26155" lon="7.12809"><ele>1560.8</ele><time>2025-10-07T12:25:10Z</time></trkpt>
<trkpt lat="46.26156" lon="7.1281"><ele>1561.2</ele><time>2025-10-07T12:25:12Z</time></trkpt>
<trkpt lat="46.26158" lon="7.12811"><ele>1561.6</ele><time>2025-10-07T12:25:14Z</time></trkpt>
<trkpt lat="46.26163" lon="7.12815"><ele>1562.4</ele><time>2025-10-07T12:25:20Z</time></trkpt>
<trkpt lat="46.26166" lon="7.12819"><ele>1563.4</ele><time>2025-10-07T12:25:26Z</time></trkpt>
<trkpt lat="46.26168" lon="7.12822"><ele>1564</ele><time>2025-10-07T12:25:29Z</time></trkpt>
<trkpt lat="46.26169" lon="7.12823"><ele>1564.2</ele><time>2025-10-07T12:25:30Z</time></trkpt>
<trkpt lat="46.2617" lon="7.12823"><ele>1564.4</ele><time>2025-10-07T12:25:31Z</time></trkpt>
<trkpt lat="46.2617" lon="7.12823"><ele>1564.6</ele><time>2025-10-07T12:25:32Z</time></trkpt>
<trkpt lat="46.26176" lon="7.12823"><ele>1565.4</ele><time>2025-10-07T12:25:39Z</time></trkpt>
<trkpt lat="46.26177" lon="7.12823"><ele>1565.6</ele><time>2025-10-07T12:25:40Z</time></trkpt>
<trkpt lat="46.26181" lon="7.12822"><ele>1566</ele><time>2025-10-07T12:25:44Z</time></trkpt>
<trkpt lat="46.26181" lon="7.12822"><ele>1566.2</ele><time>2025-10-07T12:25:45Z</time></trkpt>
<trkpt lat="46.26182" lon="7.12822"><ele>1566.6</ele><time>2025-10-07T12:25:48Z</time></trkpt>
<trkpt lat="46.26184" lon="7.12821"><ele>1566.8</ele><time>2025-10-07T12:25:50Z</time></trkpt>
<trkpt lat="46.26187" lon="7.12822"><ele>1567.2</ele><time>2025-10-07T12:25:54Z</time></trkpt>
<trkpt lat="46.26188" lon="7.12821"><ele>1567.2</ele><time>2025-10-07T12:25:55Z</time></trkpt>
<trkpt lat="46.2619" lon="7.12822"><ele>1567.6</ele><time>2025-10-07T12:25:58Z</time></trkpt>
<trkpt lat="46.26192" lon="7.12823"><ele>1567.8</ele><time>2025-10-07T12:26:00Z</time></trkpt>
<trkpt lat="46.26193" lon="7.12823"><ele>1567.8</ele><time>2025-10-07T12:26:01Z</time></trkpt>
<trkpt lat="46.26197" lon="7.1283"><ele>1568.4</ele><time>2025-10-07T12:26:07Z</time></trkpt>
<trkpt lat="46.26198" lon="7.12833"><ele>1568.8</ele><time>2025-10-07T12:26:10Z</time></trkpt>
<trkpt lat="46.26199" lon="7.12838"><ele>1569.4</ele><time>2025-10-07T12:26:14Z</time></trkpt>
<trkpt lat="46.262" lon="7.12841"><ele>1569.8</ele><time>2025-10-07T12:26:16Z</time></trkpt>
<trkpt lat="46.262" lon="7.12844"><ele>1570.4</ele><time>2025-10-07T12:26:20Z</time></trkpt>
<trkpt lat="46.26202" lon="7.12845"><ele>1570.8</ele><time>2025-10-07T12:26:22Z</time></trkpt>
<trkpt lat="46.26203" lon="7.1285"><ele>1571.6</ele><time>2025-10-07T12:26:26Z</time></trkpt>
<trkpt lat="46.26204" lon="7.12852"><ele>1572</ele><time>2025-10-07T12:26:28Z</time></trkpt>
<trkpt lat="46.26205" lon="7.12862"><ele>1573</ele><time>2025-10-07T12:26:34Z</time></trkpt>
<trkpt lat="46.26205" lon="7.1287"><ele>1574</ele><time>2025-10-07T12:26:40Z</time></trkpt>
<trkpt lat="46.26206" lon="7.12871"><ele>1574.2</ele><time>2025-10-07T12:26:41Z</time></trkpt>
<trkpt lat="46.26206" lon="7.12877"><ele>1575.2</ele><time>2025-10-07T12:26:47Z</time></trkpt>
<trkpt lat="46.26206" lon="7.12879"><ele>1575.2</ele><time>2025-10-07T12:26:48Z</time></trkpt>
<trkpt lat="46.26206" lon="7.1288"><ele>1575.4</ele><time>2025-10-07T12:26:49Z</time></trkpt>
<trkpt lat="46.26206" lon="7.12881"><ele>1575.6</ele><time>2025-10-07T12:26:50Z</time></trkpt>
<trkpt lat="46.26207" lon="7.12882"><ele>1575.8</ele><time>2025-10-07T12:26:51Z</time></trkpt>
<trkpt lat="46.26207" lon="7.12885"><ele>1576.4</ele><time>2025-10-07T12:26:53Z</time></trkpt>
<trkpt lat="46.26207" lon="7.12887"><ele>1576.6</ele><time>2025-10-07T12:26:55Z</time></trkpt>
<trkpt lat="46.26208" lon="7.12891"><ele>1577</ele><time>2025-10-07T12:26:58Z</time></trkpt>
<trkpt lat="46.26208" lon="7.12894"><ele>1577.4</ele><time>2025-10-07T12:27:00Z</time></trkpt>
<trkpt lat="46.26209" lon="7.12897"><ele>1577.6</ele><time>2025-10-07T12:27:03Z</time></trkpt>
<trkpt lat="46.26211" lon="7.12901"><ele>1578</ele><time>2025-10-07T12:27:06Z</time></trkpt>
<trkpt lat="46.26212" lon="7.12904"><ele>1578.6</ele><time>2025-10-07T12:27:09Z</time></trkpt>
<trkpt lat="46.26213" lon="7.12907"><ele>1578.8</ele><time>2025-10-07T12:27:11Z</time></trkpt>
<trkpt lat="46.26214" lon="7.12907"><ele>1579</ele><time>2025-10-07T12:27:12Z</time></trkpt>
<trkpt lat="46.26216" lon="7.12909"><ele>1579.4</ele><time>2025-10-07T12:27:16Z</time></trkpt>
<trkpt lat="46.26217" lon="7.12909"><ele>1579.6</ele><time>2025-10-07T12:27:17Z</time></trkpt>
<trkpt lat="46.2622" lon="7.12917"><ele>1580.4</ele><time>2025-10-07T12:27:23Z</time></trkpt>
<trkpt lat="46.26221" lon="7.12922"><ele>1580.6</ele><time>2025-10-07T12:27:26Z</time></trkpt>
<trkpt lat="46.26221" lon="7.12926"><ele>1581</ele><time>2025-10-07T12:27:29Z</time></trkpt>
<trkpt lat="46.26221" lon="7.12934"><ele>1581.6</ele><time>2025-10-07T12:27:35Z</time></trkpt>
<trkpt lat="46.26222" lon="7.12935"><ele>1581.8</ele><time>2025-10-07T12:27:36Z</time></trkpt>
<trkpt lat="46.2622" lon="7.12945"><ele>1582.4</ele><time>2025-10-07T12:27:43Z</time></trkpt>
<trkpt lat="46.26217" lon="7.12948"><ele>1582.6</ele><time>2025-10-07T12:27:46Z</time></trkpt>
<trkpt lat="46.26216" lon="7.12951"><ele>1582.8</ele><time>2025-10-07T12:27:48Z</time></trkpt>
<trkpt lat="46.26216" lon="7.12952"><ele>1583</ele><time>2025-10-07T12:27:49Z</time></trkpt>
<trkpt lat="46.26214" lon="7.12956"><ele>1583.6</ele><time>2025-10-07T12:27:53Z</time></trkpt>
<trkpt lat="46.26213" lon="7.1296"><ele>1583.6</ele><time>2025-10-07T12:27:55Z</time></trkpt>
<trkpt lat="46.26214" lon="7.12962"><ele>1583.4</ele><time>2025-10-07T12:27:56Z</time></trkpt>
<trkpt lat="46.26213" lon="7.1297"><ele>1583.6</ele><time>2025-10-07T12:28:00Z</time></trkpt>
<trkpt lat="46.26212" lon="7.12982"><ele>1583.8</ele><time>2025-10-07T12:28:06Z</time></trkpt>
<trkpt lat="46.26215" lon="7.12993"><ele>1584.2</ele><time>2025-10-07T12:28:12Z</time></trkpt>
<trkpt lat="46.26217" lon="7.13001"><ele>1584.8</ele><time>2025-10-07T12:28:18Z</time></trkpt>
<trkpt lat="46.26217" lon="7.13003"><ele>1584.8</ele><time>2025-10-07T12:28:19Z</time></trkpt>
<trkpt lat="46.26219" lon="7.1301"><ele>1585.4</ele><time>2025-10-07T12:28:25Z</time></trkpt>
<trkpt lat="46.2622" lon="7.13016"><ele>1586</ele><time>2025-10-07T12:28:29Z</time></trkpt>
<trkpt lat="46.26221" lon="7.13018"><ele>1586.2</ele><time>2025-10-07T12:28:31Z</time></trkpt>
<trkpt lat="46.26225" lon="7.13028"><ele>1586.6</ele><time>2025-10-07T12:28:37Z</time></trkpt>
<trkpt lat="46.26226" lon="7.13036"><ele>1586.8</ele><time>2025-10-07T12:28:42Z</time></trkpt>
<trkpt lat="46.26226" lon="7.13039"><ele>1587</ele><time>2025-10-07T12:28:44Z</time></trkpt>
<trkpt lat="46.26227" lon="7.13048"><ele>1587.6</ele><time>2025-10-07T12:28:50Z</time></trkpt>
<trkpt lat="46.26227" lon="7.13049"><ele>1587.6</ele><time>2025-10-07T12:28:51Z</time></trkpt>
<trkpt lat="46.26226" lon="7.13054"><ele>1588</ele><time>2025-10-07T12:28:54Z</time></trkpt>
<trkpt lat="46.26226" lon="7.13056"><ele>1588.4</ele><time>2025-10-07T12:28:56Z</time></trkpt>
<trkpt lat="46.26225" lon="7.13062"><ele>1589</ele><time>2025-10-07T12:29:00Z</time></trkpt>
<trkpt lat="46.26225" lon="7.13064"><ele>1589.2</ele><time>2025-10-07T12:29:01Z</time></trkpt>
<trkpt lat="46.26224" lon="7.13066"><ele>1589.6</ele><time>2025-10-07T12:29:03Z</time></trkpt>
<trkpt lat="46.26223" lon="7.13071"><ele>1590.2</ele><time>2025-10-07T12:29:07Z</time></trkpt>
<trkpt lat="46.26221" lon="7.13077"><ele>1591.4</ele><time>2025-10-07T12:29:11Z</time></trkpt>
<trkpt lat="46.2622" lon="7.1308"><ele>1592</ele><time>2025-10-07T12:29:13Z</time></trkpt>
<trkpt lat="46.26219" lon="7.13082"><ele>1592.4</ele><time>2025-10-07T12:29:14Z</time></trkpt>
<trkpt lat="46.26218" lon="7.13089"><ele>1593.4</ele><time>2025-10-07T12:29:19Z</time></trkpt>
<trkpt lat="46.26219" lon="7.13093"><ele>1593.8</ele><time>2025-10-07T12:29:23Z</time></trkpt>
<trkpt lat="46.26219" lon="7.13093"><ele>1593.8</ele><time>2025-10-07T12:29:24Z</time></trkpt>
<trkpt lat="46.2622" lon="7.13095"><ele>1594.2</ele><time>2025-10-07T12:29:26Z</time></trkpt>
<trkpt lat="46.26221" lon="7.13096"><ele>1594.4</ele><time>2025-10-07T12:29:28Z</time></trkpt>
<trkpt lat="46.26223" lon="7.13097"><ele>1595</ele><time>2025-10-07T12:29:31Z</time></trkpt>
<trkpt lat="46.26225" lon="7.13097"><ele>1595.6</ele><time>2025-10-07T12:29:34Z</time></trkpt>
<trkpt lat="46.26227" lon="7.13097"><ele>1595.8</ele><time>2025-10-07T12:29:36Z</time></trkpt>
<trkpt lat="46.2623" lon="7.13097"><ele>1596.6</ele><time>2025-10-07T12:29:39Z</time></trkpt>
<trkpt lat="46.26231" lon="7.13096"><ele>1597</ele><time>2025-10-07T12:29:41Z</time></trkpt>
<trkpt lat="46.26232" lon="7.13095"><ele>1597.2</ele><time>2025-10-07T12:29:42Z</time></trkpt>
<trkpt lat="46.26236" lon="7.13089"><ele>1597.4</ele><time>2025-10-07T12:29:46Z</time></trkpt>
<trkpt lat="46.26236" lon="7.13085"><ele>1597.6</ele><time>2025-10-07T12:29:49Z</time></trkpt>
<trkpt lat="46.26237" lon="7.13081"><ele>1598</ele><time>2025-10-07T12:29:51Z</time></trkpt>
<trkpt lat="46.2624" lon="7.13073"><ele>1598.8</ele><time>2025-10-07T12:29:57Z</time></trkpt>
<trkpt lat="46.26241" lon="7.13072"><ele>1598.8</ele><time>2025-10-07T12:29:58Z</time></trkpt>
<trkpt lat="46.26243" lon="7.13067"><ele>1599.4</ele><time>2025-10-07T12:30:02Z</time></trkpt>
<trkpt lat="46.26245" lon="7.13064"><ele>1599.6</ele><time>2025-10-07T12:30:06Z</time></trkpt>
<trkpt lat="46.26246" lon="7.13063"><ele>1599.8</ele><time>2025-10-07T12:30:07Z</time></trkpt>
<trkpt lat="46.26246" lon="7.13062"><ele>1599.8</ele><time>2025-10-07T12:30:08Z</time></trkpt>
<trkpt lat="46.2625" lon="7.13057"><ele>1600.2</ele><time>2025-10-07T12:30:13Z</time></trkpt>
<trkpt lat="46.26256" lon="7.13052"><ele>1600.6</ele><time>2025-10-07T12:30:19Z</time></trkpt>
<trkpt lat="46.26258" lon="7.1305"><ele>1600.8</ele><time>2025-10-07T12:30:21Z</time></trkpt>
<trkpt lat="46.2626" lon="7.13047"><ele>1601.2</ele><time>2025-10-07T12:30:24Z</time></trkpt>
<trkpt lat="46.26261" lon="7.13045"><ele>1601.4</ele><time>2025-10-07T12:30:26Z</time></trkpt>
<trkpt lat="46.26263" lon="7.13041"><ele>1602</ele><time>2025-10-07T12:30:29Z</time></trkpt>
<trkpt lat="46.26263" lon="7.1304"><ele>1602</ele><time>2025-10-07T12:30:30Z</time></trkpt>
<trkpt lat="46.26267" lon="7.13034"><ele>1603.2</ele><time>2025-10-07T12:30:36Z</time></trkpt>
<trkpt lat="46.26269" lon="7.13029"><ele>1604.2</ele><time>2025-10-07T12:30:41Z</time></trkpt>
<trkpt lat="46.2627" lon="7.13028"><ele>1604.4</ele><time>2025-10-07T12:30:42Z</time></trkpt>
<trkpt lat="46.26271" lon="7.13028"><ele>1604.6</ele><time>2025-10-07T12:30:43Z</time></trkpt>
<trkpt lat="46.26274" lon="7.13028"><ele>1605</ele><time>2025-10-07T12:30:47Z</time></trkpt>
<trkpt lat="46.26275" lon="7.13027"><ele>1605.2</ele><time>2025-10-07T12:30:48Z</time></trkpt>
<trkpt lat="46.26278" lon="7.13024"><ele>1605.6</ele><time>2025-10-07T12:30:52Z</time></trkpt>
<trkpt lat="46.26282" lon="7.1302"><ele>1606.2</ele><time>2025-10-07T12:30:58Z</time></trkpt>
<trkpt lat="46.26283" lon="7.13014"><ele>1607</ele><time>2025-10-07T12:31:04Z</time></trkpt>
<trkpt lat="46.26283" lon="7.13012"><ele>1607.2</ele><time>2025-10-07T12:31:06Z</time></trkpt>
<trkpt lat="46.26284" lon="7.13006"><ele>1608</ele><time>2025-10-07T12:31:11Z</time></trkpt>
<trkpt lat="46.26284" lon="7.13004"><ele>1608.4</ele><time>2025-10-07T12:31:13Z</time></trkpt>
<trkpt lat="46.26283" lon="7.13"><ele>1609</ele><time>2025-10-07T12:31:17Z</time></trkpt>
<trkpt lat="46.26284" lon="7.12996"><ele>1609.4</ele><time>2025-10-07T12:31:20Z</time></trkpt>
<trkpt lat="46.26284" lon="7.12992"><ele>1609.8</ele><time>2025-10-07T12:31:24Z</time></trkpt>
<trkpt lat="46.26283" lon="7.12988"><ele>1610.4</ele><time>2025-10-07T12:31:28Z</time></trkpt>
<trkpt lat="46.26283" lon="7.12986"><ele>1610.8</ele><time>2025-10-07T12:31:30Z</time></trkpt>
<trkpt lat="46.26282" lon="7.1298"><ele>1611.4</ele><time>2025-10-07T12:31:35Z</time></trkpt>
<trkpt lat="46.26281" lon="7.12979"><ele>1611.6</ele><time>2025-10-07T12:31:36Z</time></trkpt>
<trkpt lat="46.26282" lon="7.12971"><ele>1612.6</ele><time>2025-10-07T12:31:42Z</time></trkpt>
<trkpt lat="46.26282" lon="7.12965"><ele>1613.2</ele><time>2025-10-07T12:31:48Z</time></trkpt>
<trkpt lat="46.26282" lon="7.12963"><ele>1613.6</ele><time>2025-10-07T12:31:50Z</time></trkpt>
<trkpt lat="46.26281" lon="7.12958"><ele>1614.2</ele><time>2025-10-07T12:31:55Z</time></trkpt>
<trkpt lat="46.2628" lon="7.12954"><ele>1614.8</ele><time>2025-10-07T12:31:58Z</time></trkpt>
<trkpt lat="46.2628" lon="7.1295"><ele>1615.2</ele><time>2025-10-07T12:32:01Z</time></trkpt>
<trkpt lat="46.26279" lon="7.12946"><ele>1615.8</ele><time>2025-10-07T12:32:05Z</time></trkpt>
<trkpt lat="46.26279" lon="7.12943"><ele>1616.4</ele><time>2025-10-07T12:32:08Z</time></trkpt>
<trkpt lat="46.26279" lon="7.12938"><ele>1616.8</ele><time>2025-10-07T12:32:12Z</time></trkpt>
<trkpt lat="46.26279" lon="7.12935"><ele>1617.4</ele><time>2025-10-07T12:32:15Z</time></trkpt>
<trkpt lat="46.26279" lon="7.12929"><ele>1618</ele><time>2025-10-07T12:32:20Z</time></trkpt>
<trkpt lat="46.26279" lon="7.12928"><ele>1618.2</ele><time>2025-10-07T12:32:21Z</time></trkpt>
<trkpt lat="46.2628" lon="7.12927"><ele>1618.6</ele><time>2025-10-07T12:32:26Z</time></trkpt>
<trkpt lat="46.2628" lon="7.12926"><ele>1618.2</ele><time>2025-10-07T12:32:33Z</time></trkpt>
<trkpt lat="46.2628" lon="7.12927"><ele>1618.8</ele><time>2025-10-07T12:32:38Z</time></trkpt>
<trkpt lat="46.2628" lon="7.12927"><ele>1618.6</ele><time>2025-10-07T12:32:45Z</time></trkpt>
<trkpt lat="46.2628" lon="7.12927"><ele>1618.8</ele><time>2025-10-07T12:32:51Z</time></trkpt>
<trkpt lat="46.26278" lon="7.12925"><ele>1618.8</ele><time>2025-10-07T12:33:02Z</time></trkpt>
<trkpt lat="46.26277" lon="7.12923"><ele>1619</ele><time>2025-10-07T12:33:04Z</time></trkpt>
<trkpt lat="46.26276" lon="7.12919"><ele>1619.6</ele><time>2025-10-07T12:33:07Z</time></trkpt>
<trkpt lat="46.26275" lon="7.12914"><ele>1620.2</ele><time>2025-10-07T12:33:12Z</time></trkpt>
<trkpt lat="46.26275" lon="7.12906"><ele>1621.2</ele><time>2025-10-07T12:33:18Z</time></trkpt>
<trkpt lat="46.26275" lon="7.12904"><ele>1621.4</ele><time>2025-10-07T12:33:19Z</time></trkpt>
<trkpt lat="46.26275" lon="7.12897"><ele>1622.4</ele><time>2025-10-07T12:33:25Z</time></trkpt>
<trkpt lat="46.26274" lon="7.1289"><ele>1623.2</ele><time>2025-10-07T12:33:30Z</time></trkpt>
<trkpt lat="46.26274" lon="7.12888"><ele>1623.6</ele><time>2025-10-07T12:33:32Z</time></trkpt>
<trkpt lat="46.26273" lon="7.12885"><ele>1624.2</ele><time>2025-10-07T12:33:35Z</time></trkpt>
<trkpt lat="46.26272" lon="7.12882"><ele>1624.6</ele><time>2025-10-07T12:33:37Z</time></trkpt>
<trkpt lat="46.26272" lon="7.12879"><ele>1625.2</ele><time>2025-10-07T12:33:40Z</time></trkpt>
<trkpt lat="46.26271" lon="7.12875"><ele>1625.8</ele><time>2025-10-07T12:33:43Z</time></trkpt>
<trkpt lat="46.26271" lon="7.12869"><ele>1626.8</ele><time>2025-10-07T12:33:48Z</time></trkpt>
<trkpt lat="46.26271" lon="7.12868"><ele>1626.8</ele><time>2025-10-07T12:33:49Z</time></trkpt>
<trkpt lat="46.26271" lon="7.12864"><ele>1627.6</ele><time>2025-10-07T12:33:53Z</time></trkpt>
<trkpt lat="46.26271" lon="7.12861"><ele>1628</ele><time>2025-10-07T12:33:55Z</time></trkpt>
<trkpt lat="46.26271" lon="7.12859"><ele>1628.2</ele><time>2025-10-07T12:33:57Z</time></trkpt>
<trkpt lat="46.26271" lon="7.12851"><ele>1629</ele><time>2025-10-07T12:34:03Z</time></trkpt>
<trkpt lat="46.26272" lon="7.12849"><ele>1629.2</ele><time>2025-10-07T12:34:05Z</time></trkpt>
<trkpt lat="46.26274" lon="7.12842"><ele>1630</ele><time>2025-10-07T12:34:11Z</time></trkpt>
<trkpt lat="46.26273" lon="7.12839"><ele>1630.2</ele><time>2025-10-07T12:34:13Z</time></trkpt>
<trkpt lat="46.26273" lon="7.12833"><ele>1631</ele><time>2025-10-07T12:34:19Z</time></trkpt>
<trkpt lat="46.26273" lon="7.12832"><ele>1631.4</ele><time>2025-10-07T12:34:20Z</time></trkpt>
<trkpt lat="46.26271" lon="7.12826"><ele>1631.8</ele><time>2025-10-07T12:34:25Z</time></trkpt>
<trkpt lat="46.2627" lon="7.12823"><ele>1632.4</ele><time>2025-10-07T12:34:28Z</time></trkpt>
<trkpt lat="46.26268" lon="7.12819"><ele>1632.8</ele><time>2025-10-07T12:34:31Z</time></trkpt>
<trkpt lat="46.26268" lon="7.12818"><ele>1633.2</ele><time>2025-10-07T12:34:32Z</time></trkpt>
<trkpt lat="46.26268" lon="7.12815"><ele>1633.6</ele><time>2025-10-07T12:34:34Z</time></trkpt>
<trkpt lat="46.26267" lon="7.12813"><ele>1634</ele><time>2025-10-07T12:34:36Z</time></trkpt>
<trkpt lat="46.26265" lon="7.12806"><ele>1634.6</ele><time>2025-10-07T12:34:42Z</time></trkpt>
<trkpt lat="46.26261" lon="7.128"><ele>1635.8</ele><time>2025-10-07T12:34:48Z</time></trkpt>
<trkpt lat="46.26261" lon="7.12799"><ele>1636</ele><time>2025-10-07T12:34:49Z</time></trkpt>
<trkpt lat="46.26259" lon="7.12794"><ele>1636.6</ele><time>2025-10-07T12:34:54Z</time></trkpt>
<trkpt lat="46.26259" lon="7.12792"><ele>1636.8</ele><time>2025-10-07T12:34:56Z</time></trkpt>
<trkpt lat="46.26257" lon="7.12787"><ele>1637.4</ele><time>2025-10-07T12:35:00Z</time></trkpt>
<trkpt lat="46.26254" lon="7.12784"><ele>1638</ele><time>2025-10-07T12:35:03Z</time></trkpt>
<trkpt lat="46.26253" lon="7.12779"><ele>1638.4</ele><time>2025-10-07T12:35:06Z</time></trkpt>
<trkpt lat="46.26251" lon="7.12774"><ele>1639</ele><time>2025-10-07T12:35:10Z</time></trkpt>
<trkpt lat="46.26252" lon="7.12771"><ele>1639.4</ele><time>2025-10-07T12:35:12Z</time></trkpt>
<trkpt lat="46.26252" lon="7.1277"><ele>1639.6</ele><time>2025-10-07T12:35:13Z</time></trkpt>
<trkpt lat="46.26254" lon="7.12766"><ele>1640.2</ele><time>2025-10-07T12:35:18Z</time></trkpt>
<trkpt lat="46.26254" lon="7.12765"><ele>1640.2</ele><time>2025-10-07T12:35:19Z</time></trkpt>
<trkpt lat="46.26255" lon="7.12761"><ele>1640.8</ele><time>2025-10-07T12:35:22Z</time></trkpt>
<trkpt lat="46.26256" lon="7.12759"><ele>1641.2</ele><time>2025-10-07T12:35:24Z</time></trkpt>
<trkpt lat="46.26257" lon="7.12759"><ele>1641.4</ele><time>2025-10-07T12:35:25Z</time></trkpt>
<trkpt lat="46.26258" lon="7.12759"><ele>1641.4</ele><time>2025-10-07T12:35:26Z</time></trkpt>
<trkpt lat="46.26262" lon="7.12759"><ele>1642.4</ele><time>2025-10-07T12:35:31Z</time></trkpt>
<trkpt lat="46.26263" lon="7.12759"><ele>1642.6</ele><time>2025-10-07T12:35:32Z</time></trkpt>
<trkpt lat="46.26265" lon="7.1276"><ele>1643</ele><time>2025-10-07T12:35:34Z</time></trkpt>
<trkpt lat="46.26267" lon="7.12761"><ele>1643.4</ele><time>2025-10-07T12:35:36Z</time></trkpt>
<trkpt lat="46.26267" lon="7.12762"><ele>1643.4</ele><time>2025-10-07T12:35:37Z</time></trkpt>
<trkpt lat="46.26271" lon="7.12765"><ele>1644</ele><time>2025-10-07T12:35:43Z</time></trkpt>
<trkpt lat="46.26273" lon="7.12769"><ele>1644.6</ele><time>2025-10-07T12:35:47Z</time></trkpt>
<trkpt lat="46.26277" lon="7.12775"><ele>1645.2</ele><time>2025-10-07T12:35:54Z</time></trkpt>
<trkpt lat="46.26278" lon="7.12779"><ele>1645.6</ele><time>2025-10-07T12:35:57Z</time></trkpt>
<trkpt lat="46.2628" lon="7.12783"><ele>1645.8</ele><time>2025-10-07T12:36:00Z</time></trkpt>
<trkpt lat="46.26282" lon="7.12789"><ele>1646.4</ele><time>2025-10-07T12:36:05Z</time></trkpt>
<trkpt lat="46.26282" lon="7.12791"><ele>1646.8</ele><time>2025-10-07T12:36:07Z</time></trkpt>
<trkpt lat="46.26282" lon="7.12792"><ele>1647</ele><time>2025-10-07T12:36:09Z</time></trkpt>
<trkpt lat="46.26285" lon="7.12797"><ele>1647.8</ele><time>2025-10-07T12:36:14Z</time></trkpt>
<trkpt lat="46.26287" lon="7.12801"><ele>1648.6</ele><time>2025-10-07T12:36:18Z</time></trkpt>
<trkpt lat="46.26288" lon="7.12803"><ele>1648.8</ele><time>2025-10-07T12:36:20Z</time></trkpt>
<trkpt lat="46.2629" lon="7.12808"><ele>1649.6</ele><time>2025-10-07T12:36:24Z</time></trkpt>
<trkpt lat="46.2629" lon="7.12811"><ele>1650</ele><time>2025-10-07T12:36:26Z</time></trkpt>
<trkpt lat="46.26291" lon="7.12813"><ele>1650.4</ele><time>2025-10-07T12:36:28Z</time></trkpt>
<trkpt lat="46.26291" lon="7.12814"><ele>1650.6</ele><time>2025-10-07T12:36:29Z</time></trkpt>
<trkpt lat="46.26292" lon="7.12818"><ele>1651.2</ele><time>2025-10-07T12:36:33Z</time></trkpt>
<trkpt lat="46.26295" lon="7.12822"><ele>1652.2</ele><time>2025-10-07T12:36:39Z</time></trkpt>
<trkpt lat="46.26296" lon="7.12824"><ele>1652.4</ele><time>2025-10-07T12:36:41Z</time></trkpt>
<trkpt lat="46.26298" lon="7.12828"><ele>1652.8</ele><time>2025-10-07T12:36:46Z</time></trkpt>
<trkpt lat="46.26302" lon="7.12831"><ele>1653.4</ele><time>2025-10-07T12:36:51Z</time></trkpt>
<trkpt lat="46.26303" lon="7.12833"><ele>1653.6</ele><time>2025-10-07T12:36:53Z</time></trkpt>
<trkpt lat="46.26306" lon="7.12838"><ele>1654</ele><time>2025-10-07T12:36:58Z</time></trkpt>
<trkpt lat="46.26309" lon="7.12844"><ele>1654.4</ele><time>2025-10-07T12:37:02Z</time></trkpt>
<trkpt lat="46.2631" lon="7.12847"><ele>1654.8</ele><time>2025-10-07T12:37:05Z</time></trkpt>
<trkpt lat="46.26313" lon="7.12855"><ele>1655.6</ele><time>2025-10-07T12:37:11Z</time></trkpt>
<trkpt lat="46.26314" lon="7.12856"><ele>1655.6</ele><time>2025-10-07T12:37:12Z</time></trkpt>
<trkpt lat="46.26317" lon="7.12861"><ele>1656.2</ele><time>2025-10-07T12:37:18Z</time></trkpt>
<trkpt lat="46.26319" lon="7.12863"><ele>1656.6</ele><time>2025-10-07T12:37:21Z</time></trkpt>
<trkpt lat="46.2632" lon="7.12866"><ele>1657</ele><time>2025-10-07T12:37:24Z</time></trkpt>
<trkpt lat="46.26322" lon="7.1287"><ele>1657.6</ele><time>2025-10-07T12:37:28Z</time></trkpt>
<trkpt lat="46.26324" lon="7.12871"><ele>1658</ele><time>2025-10-07T12:37:30Z</time></trkpt>
<trkpt lat="46.26326" lon="7.12876"><ele>1658.6</ele><time>2025-10-07T12:37:35Z</time></trkpt>
<trkpt lat="46.26328" lon="7.12878"><ele>1659</ele><time>2025-10-07T12:37:37Z</time></trkpt>
<trkpt lat="46.2633" lon="7.12883"><ele>1659.6</ele><time>2025-10-07T12:37:41Z</time></trkpt>
<trkpt lat="46.26333" lon="7.12888"><ele>1660.4</ele><time>2025-10-07T12:37:46Z</time></trkpt>
<trkpt lat="46.26334" lon="7.12891"><ele>1660.8</ele><time>2025-10-07T12:37:49Z</time></trkpt>
<trkpt lat="46.26337" lon="7.12895"><ele>1661.6</ele><time>2025-10-07T12:37:53Z</time></trkpt>
<trkpt lat="46.26338" lon="7.12896"><ele>1661.8</ele><time>2025-10-07T12:37:54Z</time></trkpt>
<trkpt lat="46.26341" lon="7.129"><ele>1662.6</ele><time>2025-10-07T12:37:59Z</time></trkpt>
<trkpt lat="46.26342" lon="7.12904"><ele>1663</ele><time>2025-10-07T12:38:02Z</time></trkpt>
<trkpt lat="46.26344" lon="7.12907"><ele>1663.4</ele><time>2025-10-07T12:38:05Z</time></trkpt>
<trkpt lat="46.26346" lon="7.12911"><ele>1664</ele><time>2025-10-07T12:38:08Z</time></trkpt>
<trkpt lat="46.26346" lon="7.12913"><ele>1664.2</ele><time>2025-10-07T12:38:10Z</time></trkpt>
<trkpt lat="46.2635" lon="7.12918"><ele>1665</ele><time>2025-10-07T12:38:15Z</time></trkpt>
<trkpt lat="46.26354" lon="7.12925"><ele>1665.6</ele><time>2025-10-07T12:38:22Z</time></trkpt>
<trkpt lat="46.26357" lon="7.12929"><ele>1666</ele><time>2025-10-07T12:38:26Z</time></trkpt>
<trkpt lat="46.26358" lon="7.12932"><ele>1666.4</ele><time>2025-10-07T12:38:29Z</time></trkpt>
<trkpt lat="46.26361" lon="7.12942"><ele>1666.6</ele><time>2025-10-07T12:38:35Z</time></trkpt>
<trkpt lat="46.26363" lon="7.12952"><ele>1666.8</ele><time>2025-10-07T12:38:40Z</time></trkpt>
<trkpt lat="46.26362" lon="7.1297"><ele>1666.4</ele><time>2025-10-07T12:38:46Z</time></trkpt>
<trkpt lat="46.26362" lon="7.12994"><ele>1666.2</ele><time>2025-10-07T12:38:53Z</time></trkpt>
<trkpt lat="46.26365" lon="7.13021"><ele>1665.6</ele><time>2025-10-07T12:39:00Z</time></trkpt>
<trkpt lat="46.26369" lon="7.13045"><ele>1665</ele><time>2025-10-07T12:39:05Z</time></trkpt>
<trkpt lat="46.26369" lon="7.13049"><ele>1665</ele><time>2025-10-07T12:39:06Z</time></trkpt>
<trkpt lat="46.26372" lon="7.13061"><ele>1665</ele><time>2025-10-07T12:39:11Z</time></trkpt>
<trkpt lat="46.26374" lon="7.13077"><ele>1665.6</ele><time>2025-10-07T12:39:18Z</time></trkpt>
<trkpt lat="46.26375" lon="7.13079"><ele>1665.8</ele><time>2025-10-07T12:39:19Z</time></trkpt>
<trkpt lat="46.26375" lon="7.13084"><ele>1666</ele><time>2025-10-07T12:39:21Z</time></trkpt>
<trkpt lat="46.26376" lon="7.13091"><ele>1666.8</ele><time>2025-10-07T12:39:26Z</time></trkpt>
<trkpt lat="46.26377" lon="7.13095"><ele>1667</ele><time>2025-10-07T12:39:29Z</time></trkpt>
<trkpt lat="46.26378" lon="7.13099"><ele>1667.4</ele><time>2025-10-07T12:39:32Z</time></trkpt>
<trkpt lat="46.26378" lon="7.13105"><ele>1668.2</ele><time>2025-10-07T12:39:36Z</time></trkpt>
<trkpt lat="46.26379" lon="7.1311"><ele>1668.8</ele><time>2025-10-07T12:39:39Z</time></trkpt>
<trkpt lat="46.26379" lon="7.13114"><ele>1669.4</ele><time>2025-10-07T12:39:41Z</time></trkpt>
<trkpt lat="46.26379" lon="7.13117"><ele>1669.6</ele><time>2025-10-07T12:39:43Z</time></trkpt>
<trkpt lat="46.2638" lon="7.13123"><ele>1670.6</ele><time>2025-10-07T12:39:47Z</time></trkpt>
<trkpt lat="46.26381" lon="7.13124"><ele>1670.8</ele><time>2025-10-07T12:39:48Z</time></trkpt>
<trkpt lat="46.26383" lon="7.13131"><ele>1671.6</ele><time>2025-10-07T12:39:54Z</time></trkpt>
<trkpt lat="46.26383" lon="7.13132"><ele>1671.8</ele><time>2025-10-07T12:39:55Z</time></trkpt>
<trkpt lat="46.26385" lon="7.1314"><ele>1672.4</ele><time>2025-10-07T12:40:01Z</time></trkpt>
<trkpt lat="46.26386" lon="7.13141"><ele>1672.6</ele><time>2025-10-07T12:40:02Z</time></trkpt>
<trkpt lat="46.26388" lon="7.13144"><ele>1673</ele><time>2025-10-07T12:40:06Z</time></trkpt>
<trkpt lat="46.26391" lon="7.13144"><ele>1673.6</ele><time>2025-10-07T12:40:09Z</time></trkpt>
<trkpt lat="46.26391" lon="7.13144"><ele>1673.8</ele><time>2025-10-07T12:40:10Z</time></trkpt>
<trkpt lat="46.26392" lon="7.13143"><ele>1674</ele><time>2025-10-07T12:40:11Z</time></trkpt>
<trkpt lat="46.26395" lon="7.13138"><ele>1675</ele><time>2025-10-07T12:40:16Z</time></trkpt>
<trkpt lat="46.26395" lon="7.13137"><ele>1675.2</ele><time>2025-10-07T12:40:17Z</time></trkpt>
<trkpt lat="46.26399" lon="7.13132"><ele>1676</ele><time>2025-10-07T12:40:22Z</time></trkpt>
<trkpt lat="46.264" lon="7.13132"><ele>1676</ele><time>2025-10-07T12:40:23Z</time></trkpt>
<trkpt lat="46.26404" lon="7.13126"><ele>1677</ele><time>2025-10-07T12:40:30Z</time></trkpt>
<trkpt lat="46.26406" lon="7.13124"><ele>1677.2</ele><time>2025-10-07T12:40:32Z</time></trkpt>
<trkpt lat="46.26408" lon="7.13119"><ele>1677.8</ele><time>2025-10-07T12:40:37Z</time></trkpt>
<trkpt lat="46.26411" lon="7.13112"><ele>1678.2</ele><time>2025-10-07T12:40:43Z</time></trkpt>
<trkpt lat="46.26414" lon="7.13107"><ele>1679</ele><time>2025-10-07T12:40:49Z</time></trkpt>
<trkpt lat="46.26415" lon="7.13103"><ele>1679.4</ele><time>2025-10-07T12:40:52Z</time></trkpt>
<trkpt lat="46.26417" lon="7.13099"><ele>1679.8</ele><time>2025-10-07T12:40:56Z</time></trkpt>
<trkpt lat="46.26419" lon="7.13089"><ele>1680.2</ele><time>2025-10-07T12:41:03Z</time></trkpt>
<trkpt lat="46.26419" lon="7.13088"><ele>1680.4</ele><time>2025-10-07T12:41:04Z</time></trkpt>
<trkpt lat="46.26417" lon="7.13081"><ele>1681</ele><time>2025-10-07T12:41:09Z</time></trkpt>
<trkpt lat="46.26417" lon="7.13076"><ele>1681.4</ele><time>2025-10-07T12:41:12Z</time></trkpt>
<trkpt lat="46.26416" lon="7.13067"><ele>1681.8</ele><time>2025-10-07T12:41:19Z</time></trkpt>
<trkpt lat="46.26414" lon="7.1306"><ele>1682.4</ele><time>2025-10-07T12:41:25Z</time></trkpt>
<trkpt lat="46.26411" lon="7.13054"><ele>1682.8</ele><time>2025-10-07T12:41:30Z</time></trkpt>
<trkpt lat="46.26408" lon="7.1305"><ele>1683.2</ele><time>2025-10-07T12:41:34Z</time></trkpt>
<trkpt lat="46.26408" lon="7.13048"><ele>1683.4</ele><time>2025-10-07T12:41:36Z</time></trkpt>
<trkpt lat="46.26408" lon="7.13046"><ele>1683.6</ele><time>2025-10-07T12:41:37Z</time></trkpt>
<trkpt lat="46.2641" lon="7.13045"><ele>1683.8</ele><time>2025-10-07T12:41:39Z</time></trkpt>
<trkpt lat="46.26413" lon="7.13046"><ele>1684</ele><time>2025-10-07T12:41:42Z</time></trkpt>
<trkpt lat="46.26418" lon="7.13051"><ele>1684.6</ele><time>2025-10-07T12:41:47Z</time></trkpt>
<trkpt lat="46.26419" lon="7.13053"><ele>1685</ele><time>2025-10-07T12:41:49Z</time></trkpt>
<trkpt lat="46.26422" lon="7.13057"><ele>1685.6</ele><time>2025-10-07T12:41:54Z</time></trkpt>
<trkpt lat="46.26423" lon="7.13058"><ele>1685.8</ele><time>2025-10-07T12:41:55Z</time></trkpt>
<trkpt lat="46.26425" lon="7.13063"><ele>1686.8</ele><time>2025-10-07T12:42:00Z</time></trkpt>
<trkpt lat="46.26426" lon="7.13065"><ele>1687</ele><time>2025-10-07T12:42:01Z</time></trkpt>
<trkpt lat="46.26429" lon="7.13069"><ele>1687.8</ele><time>2025-10-07T12:42:06Z</time></trkpt>
<trkpt lat="46.26429" lon="7.1307"><ele>1688.2</ele><time>2025-10-07T12:42:07Z</time></trkpt>
<trkpt lat="46.26431" lon="7.1307"><ele>1688.4</ele><time>2025-10-07T12:42:08Z</time></trkpt>
<trkpt lat="46.26433" lon="7.13072"><ele>1688.8</ele><time>2025-10-07T12:42:11Z</time></trkpt>
<trkpt lat="46.26434" lon="7.13072"><ele>1689</ele><time>2025-10-07T12:42:12Z</time></trkpt>
<trkpt lat="46.26439" lon="7.13078"><ele>1689.4</ele><time>2025-10-07T12:42:19Z</time></trkpt>
<trkpt lat="46.26442" lon="7.13084"><ele>1690</ele><time>2025-10-07T12:42:25Z</time></trkpt>
<trkpt lat="46.26443" lon="7.13086"><ele>1690.4</ele><time>2025-10-07T12:42:27Z</time></trkpt>
<trkpt lat="46.26445" lon="7.13089"><ele>1690.8</ele><time>2025-10-07T12:42:30Z</time></trkpt>
<trkpt lat="46.26446" lon="7.13089"><ele>1691.2</ele><time>2025-10-07T12:42:32Z</time></trkpt>
<trkpt lat="46.2645" lon="7.13096"><ele>1692.2</ele><time>2025-10-07T12:42:39Z</time></trkpt>
<trkpt lat="46.2645" lon="7.13096"><ele>1692.2</ele><time>2025-10-07T12:42:40Z</time></trkpt>
<trkpt lat="46.26453" lon="7.131"><ele>1693</ele><time>2025-10-07T12:42:44Z</time></trkpt>
<trkpt lat="46.26455" lon="7.13102"><ele>1693.4</ele><time>2025-10-07T12:42:47Z</time></trkpt>
<trkpt lat="46.26457" lon="7.13104"><ele>1693.8</ele><time>2025-10-07T12:42:50Z</time></trkpt>
<trkpt lat="46.2646" lon="7.13107"><ele>1694.4</ele><time>2025-10-07T12:42:55Z</time></trkpt>
<trkpt lat="46.2646" lon="7.13107"><ele>1694.6</ele><time>2025-10-07T12:42:57Z</time></trkpt>
<trkpt lat="46.2646" lon="7.13107"><ele>1694.4</ele><time>2025-10-07T12:43:03Z</time></trkpt>
<trkpt lat="46.2646" lon="7.13107"><ele>1694.4</ele><time>2025-10-07T12:43:12Z</time></trkpt>
<trkpt lat="46.2646" lon="7.13107"><ele>1694.6</ele><time>2025-10-07T12:43:23Z</time></trkpt>
<trkpt lat="46.26461" lon="7.13107"><ele>1694.4</ele><time>2025-10-07T12:43:32Z</time></trkpt>
<trkpt lat="46.26461" lon="7.13107"><ele>1694.4</ele><time>2025-10-07T12:43:38Z</time></trkpt>
<trkpt lat="46.2646" lon="7.13107"><ele>1694.4</ele><time>2025-10-07T12:43:43Z</time></trkpt>
<trkpt lat="46.2646" lon="7.13107"><ele>1694.4</ele><time>2025-10-07T12:43:44Z</time></trkpt>
<trkpt lat="46.2646" lon="7.13107"><ele>1694.6</ele><time>2025-10-07T12:43:51Z</time></trkpt>
<trkpt lat="46.2646" lon="7.13107"><ele>1694.6</ele><time>2025-10-07T12:43:52Z</time></trkpt>
<trkpt lat="46.2646" lon="7.13107"><ele>1694.6</ele><time>2025-10-07T12:43:59Z</time></trkpt>
<trkpt lat="46.2646" lon="7.13107"><ele>1694.6</ele><time>2025-10-07T12:44:00Z</time></trkpt>
<trkpt lat="46.2646" lon="7.13107"><ele>1694.6</ele><time>2025-10-07T12:44:07Z</time></trkpt>
<trkpt lat="46.2646" lon="7.13107"><ele>1694.6</ele><time>2025-10-07T12:44:09Z</time></trkpt>
<trkpt lat="46.2646" lon="7.13107"><ele>1694.6</ele><time>2025-10-07T12:44:15Z</time></trkpt>
<trkpt lat="46.2646" lon="7.13107"><ele>1694.6</ele><time>2025-10-07T12:44:20Z</time></trkpt>
<trkpt lat="46.2646" lon="7.13107"><ele>1694.6</ele><time>2025-10-07T12:44:32Z</time></trkpt>
<trkpt lat="46.26461" lon="7.13108"><ele>1694.6</ele><time>2025-10-07T12:44:41Z</time></trkpt>
<trkpt lat="46.26463" lon="7.13107"><ele>1694.6</ele><time>2025-10-07T12:44:49Z</time></trkpt>
<trkpt lat="46.26463" lon="7.13106"><ele>1694.6</ele><time>2025-10-07T12:44:58Z</time></trkpt>
<trkpt lat="46.26462" lon="7.13108"><ele>1694.6</ele><time>2025-10-07T12:45:02Z</time></trkpt>
<trkpt lat="46.26462" lon="7.13108"><ele>1694.6</ele><time>2025-10-07T12:45:10Z</time></trkpt>
<trkpt lat="46.26462" lon="7.13108"><ele>1694.6</ele><time>2025-10-07T12:45:11Z</time></trkpt>
<trkpt lat="46.26461" lon="7.13107"><ele>1694.6</ele><time>2025-10-07T12:45:15Z</time></trkpt>
<trkpt lat="46.26462" lon="7.13108"><ele>1694.6</ele><time>2025-10-07T12:45:18Z</time></trkpt>
<trkpt lat="46.26462" lon="7.13108"><ele>1694.6</ele><time>2025-10-07T12:45:25Z</time></trkpt>
<trkpt lat="46.26462" lon="7.13108"><ele>1694.6</ele><time>2025-10-07T12:45:33Z</time></trkpt>
<trkpt lat="46.26462" lon="7.13108"><ele>1694.6</ele><time>2025-10-07T12:45:38Z</time></trkpt>
<trkpt lat="46.2646" lon="7.13107"><ele>1694.6</ele><time>2025-10-07T12:45:46Z</time></trkpt>
<trkpt lat="46.26463" lon="7.13113"><ele>1694.8</ele><time>2025-10-07T12:45:51Z</time></trkpt>
<trkpt lat="46.26465" lon="7.13119"><ele>1695.6</ele><time>2025-10-07T12:45:56Z</time></trkpt>
<trkpt lat="46.26465" lon="7.1312"><ele>1695.8</ele><time>2025-10-07T12:45:57Z</time></trkpt>
<trkpt lat="46.26468" lon="7.13125"><ele>1696.6</ele><time>2025-10-07T12:46:02Z</time></trkpt>
<trkpt lat="46.26468" lon="7.13126"><ele>1696.8</ele><time>2025-10-07T12:46:03Z</time></trkpt>
<trkpt lat="46.26468" lon="7.13128"><ele>1697</ele><time>2025-10-07T12:46:04Z</time></trkpt>
<trkpt lat="46.26469" lon="7.13131"><ele>1697.6</ele><time>2025-10-07T12:46:07Z</time></trkpt>
<trkpt lat="46.26469" lon="7.13132"><ele>1697.8</ele><time>2025-10-07T12:46:08Z</time></trkpt>
<trkpt lat="46.2647" lon="7.13134"><ele>1698</ele><time>2025-10-07T12:46:09Z</time></trkpt>
<trkpt lat="46.2647" lon="7.13138"><ele>1698.6</ele><time>2025-10-07T12:46:12Z</time></trkpt>
<trkpt lat="46.2647" lon="7.1314"><ele>1698.8</ele><time>2025-10-07T12:46:14Z</time></trkpt>
<trkpt lat="46.26471" lon="7.13146"><ele>1699.6</ele><time>2025-10-07T12:46:20Z</time></trkpt>
<trkpt lat="46.26471" lon="7.13149"><ele>1700</ele><time>2025-10-07T12:46:22Z</time></trkpt>
<trkpt lat="46.26472" lon="7.13153"><ele>1700.6</ele><time>2025-10-07T12:46:25Z</time></trkpt>
<trkpt lat="46.26473" lon="7.13154"><ele>1701</ele><time>2025-10-07T12:46:27Z</time></trkpt>
<trkpt lat="46.26474" lon="7.13158"><ele>1701.6</ele><time>2025-10-07T12:46:31Z</time></trkpt>
<trkpt lat="46.26474" lon="7.13159"><ele>1701.8</ele><time>2025-10-07T12:46:32Z</time></trkpt>
<trkpt lat="46.26474" lon="7.1316"><ele>1702</ele><time>2025-10-07T12:46:34Z</time></trkpt>
<trkpt lat="46.26474" lon="7.13161"><ele>1702</ele><time>2025-10-07T12:46:35Z</time></trkpt>
<trkpt lat="46.26474" lon="7.13164"><ele>1702.4</ele><time>2025-10-07T12:46:37Z</time></trkpt>
<trkpt lat="46.26474" lon="7.1317"><ele>1703.2</ele><time>2025-10-07T12:46:43Z</time></trkpt>
<trkpt lat="46.26474" lon="7.1317"><ele>1703.2</ele><time>2025-10-07T12:46:44Z</time></trkpt>
<trkpt lat="46.26475" lon="7.13177"><ele>1704</ele><time>2025-10-07T12:46:50Z</time></trkpt>
<trkpt lat="46.26475" lon="7.13178"><ele>1704.2</ele><time>2025-10-07T12:46:51Z</time></trkpt>
<trkpt lat="46.26476" lon="7.13183"><ele>1705.2</ele><time>2025-10-07T12:46:57Z</time></trkpt>
<trkpt lat="46.26477" lon="7.13185"><ele>1705.4</ele><time>2025-10-07T12:46:58Z</time></trkpt>
<trkpt lat="46.26478" lon="7.1319"><ele>1706.2</ele><time>2025-10-07T12:47:03Z</time></trkpt>
<trkpt lat="46.26478" lon="7.13192"><ele>1706.4</ele><time>2025-10-07T12:47:04Z</time></trkpt>
<trkpt lat="46.2648" lon="7.13194"><ele>1707.2</ele><time>2025-10-07T12:47:09Z</time></trkpt>
<trkpt lat="46.2648" lon="7.13196"><ele>1707.4</ele><time>2025-10-07T12:47:11Z</time></trkpt>
<trkpt lat="46.26482" lon="7.13201"><ele>1708</ele><time>2025-10-07T12:47:15Z</time></trkpt>
<trkpt lat="46.26483" lon="7.13203"><ele>1708.4</ele><time>2025-10-07T12:47:19Z</time></trkpt>
<trkpt lat="46.26483" lon="7.13202"><ele>1708.6</ele><time>2025-10-07T12:47:21Z</time></trkpt>
<trkpt lat="46.26483" lon="7.13203"><ele>1708.6</ele><time>2025-10-07T12:47:23Z</time></trkpt>
<trkpt lat="46.26484" lon="7.13203"><ele>1708.6</ele><time>2025-10-07T12:47:36Z</time></trkpt>
<trkpt lat="46.26484" lon="7.13203"><ele>1708.8</ele><time>2025-10-07T12:47:48Z</time></trkpt>
<trkpt lat="46.26484" lon="7.13203"><ele>1708.8</ele><time>2025-10-07T12:47:52Z</time></trkpt>
<trkpt lat="46.26484" lon="7.13203"><ele>1708.6</ele><time>2025-10-07T12:47:55Z</time></trkpt>
<trkpt lat="46.26484" lon="7.13203"><ele>1708.6</ele><time>2025-10-07T12:47:57Z</time></trkpt>
<trkpt lat="46.26483" lon="7.13203"><ele>1708.8</ele><time>2025-10-07T12:48:01Z</time></trkpt>
<trkpt lat="46.26483" lon="7.13203"><ele>1708.8</ele><time>2025-10-07T12:48:04Z</time></trkpt>
<trkpt lat="46.26483" lon="7.13206"><ele>1709</ele><time>2025-10-07T12:48:07Z</time></trkpt>
<trkpt lat="46.26484" lon="7.1321"><ele>1709.6</ele><time>2025-10-07T12:48:10Z</time></trkpt>
<trkpt lat="46.26485" lon="7.13213"><ele>1710.4</ele><time>2025-10-07T12:48:13Z</time></trkpt>
<trkpt lat="46.26486" lon="7.13214"><ele>1710.6</ele><time>2025-10-07T12:48:14Z</time></trkpt>
<trkpt lat="46.2649" lon="7.1322"><ele>1711.6</ele><time>2025-10-07T12:48:20Z</time></trkpt>
<trkpt lat="46.26492" lon="7.13223"><ele>1712.2</ele><time>2025-10-07T12:48:24Z</time></trkpt>
<trkpt lat="46.26493" lon="7.13226"><ele>1712.8</ele><time>2025-10-07T12:48:27Z</time></trkpt>
<trkpt lat="46.26496" lon="7.13229"><ele>1713.4</ele><time>2025-10-07T12:48:30Z</time></trkpt>
<trkpt lat="46.26497" lon="7.13231"><ele>1714</ele><time>2025-10-07T12:48:32Z</time></trkpt>
<trkpt lat="46.26499" lon="7.13234"><ele>1714.6</ele><time>2025-10-07T12:48:35Z</time></trkpt>
<trkpt lat="46.26499" lon="7.13235"><ele>1714.8</ele><time>2025-10-07T12:48:36Z</time></trkpt>
<trkpt lat="46.265" lon="7.13237"><ele>1715</ele><time>2025-10-07T12:48:38Z</time></trkpt>
<trkpt lat="46.26501" lon="7.13238"><ele>1715.6</ele><time>2025-10-07T12:48:41Z</time></trkpt>
<trkpt lat="46.26503" lon="7.13243"><ele>1716</ele><time>2025-10-07T12:48:45Z</time></trkpt>
<trkpt lat="46.26503" lon="7.13244"><ele>1716</ele><time>2025-10-07T12:48:46Z</time></trkpt>
<trkpt lat="46.26503" lon="7.13245"><ele>1716.2</ele><time>2025-10-07T12:48:47Z</time></trkpt>
<trkpt lat="46.26504" lon="7.13247"><ele>1716.4</ele><time>2025-10-07T12:48:49Z</time></trkpt>
<trkpt lat="46.26505" lon="7.1325"><ele>1716.8</ele><time>2025-10-07T12:48:52Z</time></trkpt>
<trkpt lat="46.26505" lon="7.13252"><ele>1717.2</ele><time>2025-10-07T12:48:54Z</time></trkpt>
<trkpt lat="46.26506" lon="7.13255"><ele>1717.4</ele><time>2025-10-07T12:48:56Z</time></trkpt>
<trkpt lat="46.26506" lon="7.13256"><ele>1717.6</ele><time>2025-10-07T12:48:57Z</time></trkpt>
<trkpt lat="46.26506" lon="7.13263"><ele>1718.2</ele><time>2025-10-07T12:49:02Z</time></trkpt>
<trkpt lat="46.26506" lon="7.13264"><ele>1718.4</ele><time>2025-10-07T12:49:03Z</time></trkpt>
<trkpt lat="46.26505" lon="7.13273"><ele>1719.2</ele><time>2025-10-07T12:49:09Z</time></trkpt>
<trkpt lat="46.26504" lon="7.13282"><ele>1720</ele><time>2025-10-07T12:49:16Z</time></trkpt>
<trkpt lat="46.26504" lon="7.13286"><ele>1720.4</ele><time>2025-10-07T12:49:19Z</time></trkpt>
<trkpt lat="46.26502" lon="7.13293"><ele>1720.8</ele><time>2025-10-07T12:49:24Z</time></trkpt>
<trkpt lat="46.265" lon="7.133"><ele>1721.4</ele><time>2025-10-07T12:49:29Z</time></trkpt>
<trkpt lat="46.26499" lon="7.13301"><ele>1721.4</ele><time>2025-10-07T12:49:30Z</time></trkpt>
<trkpt lat="46.26498" lon="7.13309"><ele>1721.8</ele><time>2025-10-07T12:49:36Z</time></trkpt>
<trkpt lat="46.26497" lon="7.13309"><ele>1721.8</ele><time>2025-10-07T12:49:37Z</time></trkpt>
<trkpt lat="46.26493" lon="7.13315"><ele>1721.6</ele><time>2025-10-07T12:49:42Z</time></trkpt>
<trkpt lat="46.2649" lon="7.1332"><ele>1721.2</ele><time>2025-10-07T12:49:45Z</time></trkpt>
<trkpt lat="46.26489" lon="7.13321"><ele>1721.2</ele><time>2025-10-07T12:49:47Z</time></trkpt>
<trkpt lat="46.26481" lon="7.13326"><ele>1721.2</ele><time>2025-10-07T12:49:54Z</time></trkpt>
<trkpt lat="46.26474" lon="7.13332"><ele>1720.6</ele><time>2025-10-07T12:50:00Z</time></trkpt>
<trkpt lat="46.26472" lon="7.13333"><ele>1720.4</ele><time>2025-10-07T12:50:01Z</time></trkpt>
<trkpt lat="46.26465" lon="7.13335"><ele>1719.2</ele><time>2025-10-07T12:50:06Z</time></trkpt>
<trkpt lat="46.26464" lon="7.13334"><ele>1719</ele><time>2025-10-07T12:50:07Z</time></trkpt>
<trkpt lat="46.26454" lon="7.13332"><ele>1718.2</ele><time>2025-10-07T12:50:13Z</time></trkpt>
<trkpt lat="46.26445" lon="7.13331"><ele>1717.8</ele><time>2025-10-07T12:50:19Z</time></trkpt>
<trkpt lat="46.2644" lon="7.1333"><ele>1717.6</ele><time>2025-10-07T12:50:22Z</time></trkpt>
<trkpt lat="46.26436" lon="7.13328"><ele>1717.6</ele><time>2025-10-07T12:50:25Z</time></trkpt>
<trkpt lat="46.26425" lon="7.1332"><ele>1717.4</ele><time>2025-10-07T12:50:33Z</time></trkpt>
<trkpt lat="46.26423" lon="7.1332"><ele>1717.4</ele><time>2025-10-07T12:50:35Z</time></trkpt>
<trkpt lat="46.26421" lon="7.13319"><ele>1717.4</ele><time>2025-10-07T12:50:36Z</time></trkpt>
<trkpt lat="46.26418" lon="7.13319"><ele>1717.6</ele><time>2025-10-07T12:50:38Z</time></trkpt>
<trkpt lat="46.26414" lon="7.13318"><ele>1717.6</ele><time>2025-10-07T12:50:41Z</time></trkpt>
<trkpt lat="46.26405" lon="7.13314"><ele>1718</ele><time>2025-10-07T12:50:47Z</time></trkpt>
<trkpt lat="46.26395" lon="7.13312"><ele>1718.8</ele><time>2025-10-07T12:50:54Z</time></trkpt>
<trkpt lat="46.26386" lon="7.13309"><ele>1719</ele><time>2025-10-07T12:51:00Z</time></trkpt>
<trkpt lat="46.26381" lon="7.13308"><ele>1719.2</ele><time>2025-10-07T12:51:04Z</time></trkpt>
<trkpt lat="46.26376" lon="7.13308"><ele>1719.4</ele><time>2025-10-07T12:51:07Z</time></trkpt>
<trkpt lat="46.26369" lon="7.13306"><ele>1719.8</ele><time>2025-10-07T12:51:13Z</time></trkpt>
<trkpt lat="46.26364" lon="7.13305"><ele>1720.2</ele><time>2025-10-07T12:51:16Z</time></trkpt>
<trkpt lat="46.26358" lon="7.13304"><ele>1720.8</ele><time>2025-10-07T12:51:20Z</time></trkpt>
<trkpt lat="46.26347" lon="7.13299"><ele>1721</ele><time>2025-10-07T12:51:26Z</time></trkpt>
<trkpt lat="46.26338" lon="7.13296"><ele>1721.2</ele><time>2025-10-07T12:51:30Z</time></trkpt>
<trkpt lat="46.26334" lon="7.13296"><ele>1721.8</ele><time>2025-10-07T12:51:33Z</time></trkpt>
<trkpt lat="46.26331" lon="7.13294"><ele>1722.2</ele><time>2025-10-07T12:51:35Z</time></trkpt>
<trkpt lat="46.2633" lon="7.13294"><ele>1722.4</ele><time>2025-10-07T12:51:36Z</time></trkpt>
<trkpt lat="46.26325" lon="7.13292"><ele>1723</ele><time>2025-10-07T12:51:41Z</time></trkpt>
<trkpt lat="46.2632" lon="7.13292"><ele>1723.6</ele><time>2025-10-07T12:51:45Z</time></trkpt>
<trkpt lat="46.26319" lon="7.13292"><ele>1723.8</ele><time>2025-10-07T12:51:46Z</time></trkpt>
<trkpt lat="46.26312" lon="7.13293"><ele>1724.6</ele><time>2025-10-07T12:51:50Z</time></trkpt>
<trkpt lat="46.2631" lon="7.13292"><ele>1724.8</ele><time>2025-10-07T12:51:51Z</time></trkpt>
<trkpt lat="46.26307" lon="7.13292"><ele>1725.8</ele><time>2025-10-07T12:51:55Z</time></trkpt>
<trkpt lat="46.26306" lon="7.13292"><ele>1725.8</ele><time>2025-10-07T12:51:56Z</time></trkpt>
<trkpt lat="46.26304" lon="7.1329"><ele>1726</ele><time>2025-10-07T12:51:59Z</time></trkpt>
<trkpt lat="46.26302" lon="7.13289"><ele>1726.2</ele><time>2025-10-07T12:52:01Z</time></trkpt>
<trkpt lat="46.263" lon="7.1329"><ele>1726.4</ele><time>2025-10-07T12:52:04Z</time></trkpt>
<trkpt lat="46.26296" lon="7.13293"><ele>1726.8</ele><time>2025-10-07T12:52:08Z</time></trkpt>
<trkpt lat="46.26294" lon="7.13295"><ele>1726.8</ele><time>2025-10-07T12:52:10Z</time></trkpt>
<trkpt lat="46.26288" lon="7.133"><ele>1727.6</ele><time>2025-10-07T12:52:16Z</time></trkpt>
<trkpt lat="46.26287" lon="7.13302"><ele>1727.8</ele><time>2025-10-07T12:52:19Z</time></trkpt>
<trkpt lat="46.26286" lon="7.13302"><ele>1728</ele><time>2025-10-07T12:52:20Z</time></trkpt>
<trkpt lat="46.26281" lon="7.13305"><ele>1728.6</ele><time>2025-10-07T12:52:25Z</time></trkpt>
<trkpt lat="46.26278" lon="7.13306"><ele>1728.8</ele><time>2025-10-07T12:52:28Z</time></trkpt>
<trkpt lat="46.26276" lon="7.13307"><ele>1729.4</ele><time>2025-10-07T12:52:31Z</time></trkpt>
<trkpt lat="46.2627" lon="7.13307"><ele>1730</ele><time>2025-10-07T12:52:36Z</time></trkpt>
<trkpt lat="46.26267" lon="7.13309"><ele>1730.8</ele><time>2025-10-07T12:52:42Z</time></trkpt>
<trkpt lat="46.26265" lon="7.1331"><ele>1731.2</ele><time>2025-10-07T12:52:44Z</time></trkpt>
<trkpt lat="46.26263" lon="7.13311"><ele>1731.4</ele><time>2025-10-07T12:52:46Z</time></trkpt>
<trkpt lat="46.26262" lon="7.1331"><ele>1731.8</ele><time>2025-10-07T12:52:48Z</time></trkpt>
<trkpt lat="46.2626" lon="7.13311"><ele>1732</ele><time>2025-10-07T12:52:49Z</time></trkpt>
<trkpt lat="46.26259" lon="7.1331"><ele>1732.2</ele><time>2025-10-07T12:52:51Z</time></trkpt>
<trkpt lat="46.26256" lon="7.1331"><ele>1732.4</ele><time>2025-10-07T12:52:53Z</time></trkpt>
<trkpt lat="46.26253" lon="7.13311"><ele>1733.2</ele><time>2025-10-07T12:52:57Z</time></trkpt>
<trkpt lat="46.26253" lon="7.13311"><ele>1733.4</ele><time>2025-10-07T12:52:58Z</time></trkpt>
<trkpt lat="46.2625" lon="7.13313"><ele>1734</ele><time>2025-10-07T12:53:02Z</time></trkpt>
<trkpt lat="46.26249" lon="7.13314"><ele>1734</ele><time>2025-10-07T12:53:03Z</time></trkpt>
<trkpt lat="46.26248" lon="7.13314"><ele>1734.4</ele><time>2025-10-07T12:53:05Z</time></trkpt>
<trkpt lat="46.26246" lon="7.13314"><ele>1734.8</ele><time>2025-10-07T12:53:08Z</time></trkpt>
<trkpt lat="46.26246" lon="7.13314"><ele>1735</ele><time>2025-10-07T12:53:09Z</time></trkpt>
<trkpt lat="46.26245" lon="7.13315"><ele>1735.2</ele><time>2025-10-07T12:53:10Z</time></trkpt>
<trkpt lat="46.26243" lon="7.13314"><ele>1735.4</ele><time>2025-10-07T12:53:12Z</time></trkpt>
<trkpt lat="46.26241" lon="7.13315"><ele>1736</ele><time>2025-10-07T12:53:15Z</time></trkpt>
<trkpt lat="46.26241" lon="7.13315"><ele>1736.4</ele><time>2025-10-07T12:53:25Z</time></trkpt>
<trkpt lat="46.26241" lon="7.13315"><ele>1736.4</ele><time>2025-10-07T12:53:36Z</time></trkpt>
<trkpt lat="46.26241" lon="7.13315"><ele>1736.4</ele><time>2025-10-07T12:53:37Z</time></trkpt>
<trkpt lat="46.26241" lon="7.13315"><ele>1736.2</ele><time>2025-10-07T12:53:43Z</time></trkpt>
<trkpt lat="46.26238" lon="7.13315"><ele>1736.4</ele><time>2025-10-07T12:53:48Z</time></trkpt>
<trkpt lat="46.26238" lon="7.13314"><ele>1736.6</ele><time>2025-10-07T12:53:49Z</time></trkpt>
<trkpt lat="46.26234" lon="7.13315"><ele>1737.4</ele><time>2025-10-07T12:53:54Z</time></trkpt>
<trkpt lat="46.26233" lon="7.13316"><ele>1737.6</ele><time>2025-10-07T12:53:56Z</time></trkpt>
<trkpt lat="46.26232" lon="7.13318"><ele>1738.2</ele><time>2025-10-07T12:54:01Z</time></trkpt>
<trkpt lat="46.26229" lon="7.1332"><ele>1738.8</ele><time>2025-10-07T12:54:06Z</time></trkpt>
<trkpt lat="46.26227" lon="7.13323"><ele>1739.6</ele><time>2025-10-07T12:54:12Z</time></trkpt>
<trkpt lat="46.26227" lon="7.13324"><ele>1740</ele><time>2025-10-07T12:54:15Z</time></trkpt>
<trkpt lat="46.26226" lon="7.13325"><ele>1740.4</ele><time>2025-10-07T12:54:18Z</time></trkpt>
<trkpt lat="46.26226" lon="7.13328"><ele>1741</ele><time>2025-10-07T12:54:23Z</time></trkpt>
<trkpt lat="46.26226" lon="7.13329"><ele>1741</ele><time>2025-10-07T12:54:24Z</time></trkpt>
<trkpt lat="46.26227" lon="7.13331"><ele>1742</ele><time>2025-10-07T12:54:30Z</time></trkpt>
<trkpt lat="46.26228" lon="7.13331"><ele>1742</ele><time>2025-10-07T12:54:31Z</time></trkpt>
<trkpt lat="46.26231" lon="7.1333"><ele>1743</ele><time>2025-10-07T12:54:39Z</time></trkpt>
<trkpt lat="46.26234" lon="7.1333"><ele>1743.8</ele><time>2025-10-07T12:54:45Z</time></trkpt>
<trkpt lat="46.26235" lon="7.1333"><ele>1744</ele><time>2025-10-07T12:54:47Z</time></trkpt>
<trkpt lat="46.26237" lon="7.1333"><ele>1744.6</ele><time>2025-10-07T12:54:51Z</time></trkpt>
<trkpt lat="46.26238" lon="7.1333"><ele>1745.2</ele><time>2025-10-07T12:54:55Z</time></trkpt>
<trkpt lat="46.2624" lon="7.13331"><ele>1745.6</ele><time>2025-10-07T12:54:58Z</time></trkpt>
<trkpt lat="46.26243" lon="7.13332"><ele>1746.2</ele><time>2025-10-07T12:55:03Z</time></trkpt>
<trkpt lat="46.26243" lon="7.13332"><ele>1746.2</ele><time>2025-10-07T12:55:04Z</time></trkpt>
<trkpt lat="46.26248" lon="7.13333"><ele>1747.2</ele><time>2025-10-07T12:55:12Z</time></trkpt>
<trkpt lat="46.26249" lon="7.13333"><ele>1747.2</ele><time>2025-10-07T12:55:13Z</time></trkpt>
<trkpt lat="46.2625" lon="7.13337"><ele>1748</ele><time>2025-10-07T12:55:19Z</time></trkpt>
<trkpt lat="46.2625" lon="7.13338"><ele>1748.2</ele><time>2025-10-07T12:55:20Z</time></trkpt>
<trkpt lat="46.26249" lon="7.13342"><ele>1749</ele><time>2025-10-07T12:55:27Z</time></trkpt>
<trkpt lat="46.26248" lon="7.13343"><ele>1749.2</ele><time>2025-10-07T12:55:29Z</time></trkpt>
<trkpt lat="46.26248" lon="7.13343"><ele>1749.8</ele><time>2025-10-07T12:55:32Z</time></trkpt>
<trkpt lat="46.26248" lon="7.13343"><ele>1749.6</ele><time>2025-10-07T12:55:39Z</time></trkpt>
<trkpt lat="46.26248" lon="7.13343"><ele>1749.6</ele><time>2025-10-07T12:55:52Z</time></trkpt>
<trkpt lat="46.26248" lon="7.13343"><ele>1749.6</ele><time>2025-10-07T12:56:05Z</time></trkpt>
<trkpt lat="46.26248" lon="7.13343"><ele>1749.6</ele><time>2025-10-07T12:56:11Z</time></trkpt>
<trkpt lat="46.26247" lon="7.13344"><ele>1749.6</ele><time>2025-10-07T12:56:16Z</time></trkpt>
<trkpt lat="46.26244" lon="7.13345"><ele>1750.4</ele><time>2025-10-07T12:56:20Z</time></trkpt>
<trkpt lat="46.26242" lon="7.13346"><ele>1750.8</ele><time>2025-10-07T12:56:23Z</time></trkpt>
<trkpt lat="46.2624" lon="7.13347"><ele>1751.2</ele><time>2025-10-07T12:56:26Z</time></trkpt>
<trkpt lat="46.26238" lon="7.13347"><ele>1751.4</ele><time>2025-10-07T12:56:28Z</time></trkpt>
<trkpt lat="46.26238" lon="7.13347"><ele>1751.6</ele><time>2025-10-07T12:56:29Z</time></trkpt>
<trkpt lat="46.26233" lon="7.13348"><ele>1752.2</ele><time>2025-10-07T12:56:35Z</time></trkpt>
<trkpt lat="46.26232" lon="7.13349"><ele>1752.6</ele><time>2025-10-07T12:56:38Z</time></trkpt>
<trkpt lat="46.26229" lon="7.1335"><ele>1753</ele><time>2025-10-07T12:56:42Z</time></trkpt>
<trkpt lat="46.26225" lon="7.1335"><ele>1753.4</ele><time>2025-10-07T12:56:47Z</time></trkpt>
<trkpt lat="46.26224" lon="7.1335"><ele>1753.6</ele><time>2025-10-07T12:56:48Z</time></trkpt>
<trkpt lat="46.26222" lon="7.1335"><ele>1754.2</ele><time>2025-10-07T12:56:53Z</time></trkpt>
<trkpt lat="46.2622" lon="7.13351"><ele>1754.4</ele><time>2025-10-07T12:56:56Z</time></trkpt>
<trkpt lat="46.26218" lon="7.1335"><ele>1754.8</ele><time>2025-10-07T12:56:58Z</time></trkpt>
<trkpt lat="46.26216" lon="7.1335"><ele>1755.6</ele><time>2025-10-07T12:57:04Z</time></trkpt>
<trkpt lat="46.26215" lon="7.1335"><ele>1755.8</ele><time>2025-10-07T12:57:06Z</time></trkpt>
<trkpt lat="46.26213" lon="7.1335"><ele>1756.4</ele><time>2025-10-07T12:57:10Z</time></trkpt>
<trkpt lat="46.26212" lon="7.13351"><ele>1756.8</ele><time>2025-10-07T12:57:14Z</time></trkpt>
<trkpt lat="46.26212" lon="7.13351"><ele>1756.8</ele><time>2025-10-07T12:57:21Z</time></trkpt>
<trkpt lat="46.26212" lon="7.13351"><ele>1757</ele><time>2025-10-07T12:57:28Z</time></trkpt>
<trkpt lat="46.26212" lon="7.13351"><ele>1756.4</ele><time>2025-10-07T12:57:35Z</time></trkpt>
<trkpt lat="46.26209" lon="7.13349"><ele>1756.6</ele><time>2025-10-07T12:57:42Z</time></trkpt>
<trkpt lat="46.26207" lon="7.1335"><ele>1757.4</ele><time>2025-10-07T12:57:48Z</time></trkpt>
<trkpt lat="46.26206" lon="7.13353"><ele>1757.8</ele><time>2025-10-07T12:57:55Z</time></trkpt>
<trkpt lat="46.26206" lon="7.13352"><ele>1757.8</ele><time>2025-10-07T12:58:01Z</time></trkpt>
<trkpt lat="46.26207" lon="7.1335"><ele>1757.6</ele><time>2025-10-07T12:58:07Z</time></trkpt>
<trkpt lat="46.26209" lon="7.1335"><ele>1757.4</ele><time>2025-10-07T12:58:15Z</time></trkpt>
<trkpt lat="46.26208" lon="7.1335"><ele>1757.8</ele><time>2025-10-07T12:58:18Z</time></trkpt>
<trkpt lat="46.26208" lon="7.1335"><ele>1757.6</ele><time>2025-10-07T12:58:21Z</time></trkpt>
<trkpt lat="46.26207" lon="7.1335"><ele>1757.6</ele><time>2025-10-07T12:58:22Z</time></trkpt>
<trkpt lat="46.26207" lon="7.13351"><ele>1757.6</ele><time>2025-10-07T12:58:24Z</time></trkpt>
<trkpt lat="46.26205" lon="7.1335"><ele>1758</ele><time>2025-10-07T12:58:28Z</time></trkpt>
<trkpt lat="46.26205" lon="7.13349"><ele>1758</ele><time>2025-10-07T12:58:29Z</time></trkpt>
<trkpt lat="46.26206" lon="7.13348"><ele>1758</ele><time>2025-10-07T12:58:38Z</time></trkpt>
<trkpt lat="46.26206" lon="7.13348"><ele>1757.8</ele><time>2025-10-07T12:58:47Z</time></trkpt>
<trkpt lat="46.26206" lon="7.13348"><ele>1757.8</ele><time>2025-10-07T12:58:53Z</time></trkpt>
<trkpt lat="46.26208" lon="7.13348"><ele>1757.6</ele><time>2025-10-07T12:59:01Z</time></trkpt>
<trkpt lat="46.26209" lon="7.13348"><ele>1757.6</ele><time>2025-10-07T12:59:10Z</time></trkpt>
<trkpt lat="46.26207" lon="7.13351"><ele>1757.6</ele><time>2025-10-07T12:59:16Z</time></trkpt>
<trkpt lat="46.26208" lon="7.13353"><ele>1757.6</ele><time>2025-10-07T12:59:21Z</time></trkpt>
<trkpt lat="46.26208" lon="7.13351"><ele>1757.6</ele><time>2025-10-07T12:59:26Z</time></trkpt>
<trkpt lat="46.26208" lon="7.1335"><ele>1757.6</ele><time>2025-10-07T12:59:31Z</time></trkpt>
<trkpt lat="46.26208" lon="7.1335"><ele>1757.6</ele><time>2025-10-07T12:59:32Z</time></trkpt>
<trkpt lat="46.26209" lon="7.1335"><ele>1757.6</ele><time>2025-10-07T12:59:33Z</time></trkpt>
<trkpt lat="46.26208" lon="7.1335"><ele>1757.6</ele><time>2025-10-07T12:59:35Z</time></trkpt>
<trkpt lat="46.26208" lon="7.1335"><ele>1757.6</ele><time>2025-10-07T12:59:36Z</time></trkpt>
<trkpt lat="46.26208" lon="7.13349"><ele>1757.6</ele><time>2025-10-07T12:59:38Z</time></trkpt>
<trkpt lat="46.26208" lon="7.1335"><ele>1757.6</ele><time>2025-10-07T12:59:39Z</time></trkpt>
<trkpt lat="46.26207" lon="7.13349"><ele>1757.6</ele><time>2025-10-07T12:59:43Z</time></trkpt>
<trkpt lat="46.26207" lon="7.13348"><ele>1757.6</ele><time>2025-10-07T12:59:45Z</time></trkpt>
<trkpt lat="46.26208" lon="7.13348"><ele>1757.6</ele><time>2025-10-07T12:59:48Z</time></trkpt>
<trkpt lat="46.26209" lon="7.13348"><ele>1757.6</ele><time>2025-10-07T12:59:50Z</time></trkpt>
<trkpt lat="46.26209" lon="7.13348"><ele>1757.6</ele><time>2025-10-07T12:59:54Z</time></trkpt>
<trkpt lat="46.26209" lon="7.13348"><ele>1757.6</ele><time>2025-10-07T12:59:58Z</time></trkpt>
<trkpt lat="46.26208" lon="7.13351"><ele>1757.6</ele><time>2025-10-07T13:00:05Z</time></trkpt>
<trkpt lat="46.26206" lon="7.13348"><ele>1757.6</ele><time>2025-10-07T13:00:11Z</time></trkpt>
<trkpt lat="46.26208" lon="7.13347"><ele>1757.6</ele><time>2025-10-07T13:00:12Z</time></trkpt>
<trkpt lat="46.26211" lon="7.13348"><ele>1757.2</ele><time>2025-10-07T13:00:15Z</time></trkpt>
<trkpt lat="46.26211" lon="7.13348"><ele>1756.8</ele><time>2025-10-07T13:00:17Z</time></trkpt>
<trkpt lat="46.26209" lon="7.13349"><ele>1756.8</ele><time>2025-10-07T13:00:20Z</time></trkpt>
<trkpt lat="46.26207" lon="7.1335"><ele>1757.8</ele><time>2025-10-07T13:00:25Z</time></trkpt>
<trkpt lat="46.26206" lon="7.13351"><ele>1758</ele><time>2025-10-07T13:00:26Z</time></trkpt>
<trkpt lat="46.26206" lon="7.13352"><ele>1758.4</ele><time>2025-10-07T13:00:28Z</time></trkpt>
<trkpt lat="46.26204" lon="7.13353"><ele>1758.6</ele><time>2025-10-07T13:00:30Z</time></trkpt>
<trkpt lat="46.26204" lon="7.13354"><ele>1758.8</ele><time>2025-10-07T13:00:32Z</time></trkpt>
<trkpt lat="46.26204" lon="7.13354"><ele>1758.8</ele><time>2025-10-07T13:00:34Z</time></trkpt>
<trkpt lat="46.26207" lon="7.13352"><ele>1758.6</ele><time>2025-10-07T13:00:36Z</time></trkpt>
<trkpt lat="46.26206" lon="7.13351"><ele>1758</ele><time>2025-10-07T13:00:40Z</time></trkpt>
<trkpt lat="46.26204" lon="7.13351"><ele>1758.4</ele><time>2025-10-07T13:00:44Z</time></trkpt>
<trkpt lat="46.26204" lon="7.13352"><ele>1758.4</ele><time>2025-10-07T13:00:45Z</time></trkpt>
<trkpt lat="46.26203" lon="7.13352"><ele>1758.6</ele><time>2025-10-07T13:00:51Z</time></trkpt>
<trkpt lat="46.26204" lon="7.13351"><ele>1758.4</ele><time>2025-10-07T13:00:57Z</time></trkpt>
<trkpt lat="46.26203" lon="7.13352"><ele>1758.4</ele><time>2025-10-07T13:01:00Z</time></trkpt>
<trkpt lat="46.26203" lon="7.13352"><ele>1758.4</ele><time>2025-10-07T13:01:02Z</time></trkpt>
<trkpt lat="46.26206" lon="7.13352"><ele>1758.4</ele><time>2025-10-07T13:01:08Z</time></trkpt>
<trkpt lat="46.26206" lon="7.13351"><ele>1758.4</ele><time>2025-10-07T13:01:13Z</time></trkpt>
<trkpt lat="46.26206" lon="7.13351"><ele>1758.2</ele><time>2025-10-07T13:01:14Z</time></trkpt>
<trkpt lat="46.26203" lon="7.13352"><ele>1758.6</ele><time>2025-10-07T13:01:19Z</time></trkpt>
<trkpt lat="46.26202" lon="7.13353"><ele>1758.8</ele><time>2025-10-07T13:01:20Z</time></trkpt>
<trkpt lat="46.262" lon="7.13356"><ele>1759.6</ele><time>2025-10-07T13:01:25Z</time></trkpt>
<trkpt lat="46.26198" lon="7.13356"><ele>1760</ele><time>2025-10-07T13:01:27Z</time></trkpt>
<trkpt lat="46.26196" lon="7.13357"><ele>1760.4</ele><time>2025-10-07T13:01:30Z</time></trkpt>
<trkpt lat="46.26193" lon="7.13357"><ele>1761</ele><time>2025-10-07T13:01:34Z</time></trkpt>
<trkpt lat="46.26192" lon="7.13357"><ele>1761.2</ele><time>2025-10-07T13:01:36Z</time></trkpt>
<trkpt lat="46.26188" lon="7.13358"><ele>1762</ele><time>2025-10-07T13:01:40Z</time></trkpt>
<trkpt lat="46.26186" lon="7.13358"><ele>1762.6</ele><time>2025-10-07T13:01:43Z</time></trkpt>
<trkpt lat="46.26184" lon="7.13359"><ele>1763</ele><time>2025-10-07T13:01:47Z</time></trkpt>
<trkpt lat="46.26182" lon="7.13359"><ele>1763.4</ele><time>2025-10-07T13:01:50Z</time></trkpt>
<trkpt lat="46.2618" lon="7.1336"><ele>1764</ele><time>2025-10-07T13:01:55Z</time></trkpt>
<trkpt lat="46.26178" lon="7.13362"><ele>1764.6</ele><time>2025-10-07T13:01:58Z</time></trkpt>
<trkpt lat="46.26175" lon="7.13362"><ele>1765</ele><time>2025-10-07T13:02:02Z</time></trkpt>
<trkpt lat="46.26173" lon="7.13362"><ele>1765.4</ele><time>2025-10-07T13:02:05Z</time></trkpt>
<trkpt lat="46.26171" lon="7.13364"><ele>1765.8</ele><time>2025-10-07T13:02:09Z</time></trkpt>
<trkpt lat="46.26171" lon="7.13364"><ele>1766</ele><time>2025-10-07T13:02:13Z</time></trkpt>
<trkpt lat="46.26172" lon="7.13365"><ele>1765.8</ele><time>2025-10-07T13:02:19Z</time></trkpt>
<trkpt lat="46.26172" lon="7.13365"><ele>1765.8</ele><time>2025-10-07T13:02:24Z</time></trkpt>
<trkpt lat="46.26172" lon="7.13365"><ele>1765.8</ele><time>2025-10-07T13:02:25Z</time></trkpt>
<trkpt lat="46.26172" lon="7.13365"><ele>1766</ele><time>2025-10-07T13:02:34Z</time></trkpt>
<trkpt lat="46.26173" lon="7.13364"><ele>1765.6</ele><time>2025-10-07T13:02:39Z</time></trkpt>
<trkpt lat="46.26172" lon="7.13364"><ele>1765.8</ele><time>2025-10-07T13:02:45Z</time></trkpt>
<trkpt lat="46.26173" lon="7.13365"><ele>1765.8</ele><time>2025-10-07T13:02:51Z</time></trkpt>
<trkpt lat="46.26172" lon="7.13366"><ele>1766</ele><time>2025-10-07T13:02:55Z</time></trkpt>
<trkpt lat="46.26171" lon="7.13368"><ele>1766.2</ele><time>2025-10-07T13:02:57Z</time></trkpt>
<trkpt lat="46.26166" lon="7.13375"><ele>1767.2</ele><time>2025-10-07T13:03:04Z</time></trkpt>
<trkpt lat="46.26165" lon="7.13376"><ele>1767.2</ele><time>2025-10-07T13:03:05Z</time></trkpt>
<trkpt lat="46.26164" lon="7.13378"><ele>1768</ele><time>2025-10-07T13:03:09Z</time></trkpt>
<trkpt lat="46.26162" lon="7.1338"><ele>1768.4</ele><time>2025-10-07T13:03:11Z</time></trkpt>
<trkpt lat="46.26161" lon="7.13384"><ele>1768.8</ele><time>2025-10-07T13:03:15Z</time></trkpt>
<trkpt lat="46.26159" lon="7.13387"><ele>1769.4</ele><time>2025-10-07T13:03:19Z</time></trkpt>
<trkpt lat="46.26157" lon="7.13391"><ele>1770</ele><time>2025-10-07T13:03:23Z</time></trkpt>
<trkpt lat="46.26156" lon="7.13394"><ele>1770.4</ele><time>2025-10-07T13:03:26Z</time></trkpt>
<trkpt lat="46.26156" lon="7.13396"><ele>1770.8</ele><time>2025-10-07T13:03:28Z</time></trkpt>
<trkpt lat="46.26155" lon="7.13396"><ele>1771</ele><time>2025-10-07T13:03:29Z</time></trkpt>
<trkpt lat="46.26153" lon="7.13399"><ele>1771.6</ele><time>2025-10-07T13:03:34Z</time></trkpt>
<trkpt lat="46.26154" lon="7.13398"><ele>1771.8</ele><time>2025-10-07T13:03:36Z</time></trkpt>
<trkpt lat="46.26151" lon="7.134"><ele>1771.8</ele><time>2025-10-07T13:03:42Z</time></trkpt>
<trkpt lat="46.26149" lon="7.13402"><ele>1771.8</ele><time>2025-10-07T13:03:46Z</time></trkpt>
<trkpt lat="46.26149" lon="7.13402"><ele>1771.6</ele><time>2025-10-07T13:03:52Z</time></trkpt>
<trkpt lat="46.26149" lon="7.13402"><ele>1771.4</ele><time>2025-10-07T13:03:55Z</time></trkpt>
<trkpt lat="46.26149" lon="7.13402"><ele>1771.8</ele><time>2025-10-07T13:04:01Z</time></trkpt>
<trkpt lat="46.2615" lon="7.13404"><ele>1771.8</ele><time>2025-10-07T13:04:05Z</time></trkpt>
<trkpt lat="46.2615" lon="7.13405"><ele>1771.8</ele><time>2025-10-07T13:04:06Z</time></trkpt>
<trkpt lat="46.26147" lon="7.13412"><ele>1771.8</ele><time>2025-10-07T13:04:11Z</time></trkpt>
<trkpt lat="46.26139" lon="7.13421"><ele>1772</ele><time>2025-10-07T13:04:18Z</time></trkpt>
<trkpt lat="46.26133" lon="7.1343"><ele>1772.6</ele><time>2025-10-07T13:04:23Z</time></trkpt>
<trkpt lat="46.26132" lon="7.13431"><ele>1772.8</ele><time>2025-10-07T13:04:24Z</time></trkpt>
<trkpt lat="46.26123" lon="7.1344"><ele>1773.6</ele><time>2025-10-07T13:04:30Z</time></trkpt>
<trkpt lat="46.26118" lon="7.13443"><ele>1773.6</ele><time>2025-10-07T13:04:32Z</time></trkpt>
<trkpt lat="46.26109" lon="7.13447"><ele>1773.8</ele><time>2025-10-07T13:04:35Z</time></trkpt>
<trkpt lat="46.26096" lon="7.1345"><ele>1774.8</ele><time>2025-10-07T13:04:41Z</time></trkpt>
<trkpt lat="46.2609" lon="7.13453"><ele>1775.4</ele><time>2025-10-07T13:04:46Z</time></trkpt>
<trkpt lat="46.26086" lon="7.13459"><ele>1775.8</ele><time>2025-10-07T13:04:50Z</time></trkpt>
<trkpt lat="46.26085" lon="7.13461"><ele>1775.8</ele><time>2025-10-07T13:04:51Z</time></trkpt>
<trkpt lat="46.2608" lon="7.1347"><ele>1776.4</ele><time>2025-10-07T13:04:56Z</time></trkpt>
<trkpt lat="46.26074" lon="7.1348"><ele>1776.8</ele><time>2025-10-07T13:05:02Z</time></trkpt>
<trkpt lat="46.26074" lon="7.13481"><ele>1776.8</ele><time>2025-10-07T13:05:03Z</time></trkpt>
<trkpt lat="46.26071" lon="7.13491"><ele>1776.8</ele><time>2025-10-07T13:05:07Z</time></trkpt>
<trkpt lat="46.26072" lon="7.13504"><ele>1776.4</ele><time>2025-10-07T13:05:13Z</time></trkpt>
<trkpt lat="46.26074" lon="7.13514"><ele>1775.8</ele><time>2025-10-07T13:05:18Z</time></trkpt>
<trkpt lat="46.26077" lon="7.13531"><ele>1774.6</ele><time>2025-10-07T13:05:22Z</time></trkpt>
<trkpt lat="46.26079" lon="7.13534"><ele>1774.4</ele><time>2025-10-07T13:05:23Z</time></trkpt>
<trkpt lat="46.26086" lon="7.13552"><ele>1773.4</ele><time>2025-10-07T13:05:27Z</time></trkpt>
<trkpt lat="46.26088" lon="7.13557"><ele>1773</ele><time>2025-10-07T13:05:28Z</time></trkpt>
<trkpt lat="46.26092" lon="7.13565"><ele>1772.4</ele><time>2025-10-07T13:05:30Z</time></trkpt>
<trkpt lat="46.26096" lon="7.13578"><ele>1772.2</ele><time>2025-10-07T13:05:33Z</time></trkpt>
<trkpt lat="46.26101" lon="7.13598"><ele>1771.4</ele><time>2025-10-07T13:05:37Z</time></trkpt>
<trkpt lat="46.26102" lon="7.13607"><ele>1771.4</ele><time>2025-10-07T13:05:39Z</time></trkpt>
<trkpt lat="46.26107" lon="7.13627"><ele>1770.8</ele><time>2025-10-07T13:05:44Z</time></trkpt>
<trkpt lat="46.2611" lon="7.13643"><ele>1770.8</ele><time>2025-10-07T13:05:49Z</time></trkpt>
<trkpt lat="46.26111" lon="7.13654"><ele>1771.2</ele><time>2025-10-07T13:05:54Z</time></trkpt>
<trkpt lat="46.26111" lon="7.1366"><ele>1771.8</ele><time>2025-10-07T13:06:00Z</time></trkpt>
<trkpt lat="46.26116" lon="7.1367"><ele>1771.6</ele><time>2025-10-07T13:06:06Z</time></trkpt>
<trkpt lat="46.26118" lon="7.13673"><ele>1771.2</ele><time>2025-10-07T13:06:08Z</time></trkpt>
<trkpt lat="46.2612" lon="7.13677"><ele>1771</ele><time>2025-10-07T13:06:10Z</time></trkpt>
<trkpt lat="46.26121" lon="7.13679"><ele>1770.8</ele><time>2025-10-07T13:06:11Z</time></trkpt>
<trkpt lat="46.26124" lon="7.13689"><ele>1770.2</ele><time>2025-10-07T13:06:14Z</time></trkpt>
<trkpt lat="46.26127" lon="7.13698"><ele>1769</ele><time>2025-10-07T13:06:17Z</time></trkpt>
<trkpt lat="46.26129" lon="7.13702"><ele>1768.6</ele><time>2025-10-07T13:06:18Z</time></trkpt>
<trkpt lat="46.26133" lon="7.13712"><ele>1767.6</ele><time>2025-10-07T13:06:21Z</time></trkpt>
<trkpt lat="46.26137" lon="7.13718"><ele>1766.4</ele><time>2025-10-07T13:06:24Z</time></trkpt>
<trkpt lat="46.26137" lon="7.13719"><ele>1766.2</ele><time>2025-10-07T13:06:27Z</time></trkpt>
<trkpt lat="46.26137" lon="7.13719"><ele>1766</ele><time>2025-10-07T13:06:33Z</time></trkpt>
<trkpt lat="46.26139" lon="7.13719"><ele>1766.2</ele><time>2025-10-07T13:06:40Z</time></trkpt>
<trkpt lat="46.26148" lon="7.13726"><ele>1765.2</ele><time>2025-10-07T13:06:44Z</time></trkpt>
<trkpt lat="46.26156" lon="7.13737"><ele>1764</ele><time>2025-10-07T13:06:47Z</time></trkpt>
<trkpt lat="46.2616" lon="7.13746"><ele>1763.4</ele><time>2025-10-07T13:06:49Z</time></trkpt>
<trkpt lat="46.26163" lon="7.1375"><ele>1762.8</ele><time>2025-10-07T13:06:50Z</time></trkpt>
<trkpt lat="46.26168" lon="7.13755"><ele>1761.4</ele><time>2025-10-07T13:06:52Z</time></trkpt>
<trkpt lat="46.26173" lon="7.13762"><ele>1760.4</ele><time>2025-10-07T13:06:54Z</time></trkpt>
<trkpt lat="46.26176" lon="7.13765"><ele>1760</ele><time>2025-10-07T13:06:55Z</time></trkpt>
<trkpt lat="46.26184" lon="7.13773"><ele>1759</ele><time>2025-10-07T13:06:58Z</time></trkpt>
<trkpt lat="46.26189" lon="7.13779"><ele>1758.4</ele><time>2025-10-07T13:07:00Z</time></trkpt>
<trkpt lat="46.26194" lon="7.13786"><ele>1758</ele><time>2025-10-07T13:07:02Z</time></trkpt>
<trkpt lat="46.26199" lon="7.13797"><ele>1757</ele><time>2025-10-07T13:07:05Z</time></trkpt>
<trkpt lat="46.262" lon="7.138"><ele>1756.8</ele><time>2025-10-07T13:07:06Z</time></trkpt>
<trkpt lat="46.26205" lon="7.13812"><ele>1755.6</ele><time>2025-10-07T13:07:10Z</time></trkpt>
<trkpt lat="46.26207" lon="7.13817"><ele>1755.2</ele><time>2025-10-07T13:07:12Z</time></trkpt>
<trkpt lat="46.26207" lon="7.13826"><ele>1754.4</ele><time>2025-10-07T13:07:16Z</time></trkpt>
<trkpt lat="46.26207" lon="7.1383"><ele>1754.4</ele><time>2025-10-07T13:07:17Z</time></trkpt>
<trkpt lat="46.26208" lon="7.13853"><ele>1753.4</ele><time>2025-10-07T13:07:23Z</time></trkpt>
<trkpt lat="46.26208" lon="7.13857"><ele>1753.2</ele><time>2025-10-07T13:07:24Z</time></trkpt>
<trkpt lat="46.26205" lon="7.1387"><ele>1752.8</ele><time>2025-10-07T13:07:29Z</time></trkpt>
<trkpt lat="46.26205" lon="7.13879"><ele>1753.2</ele><time>2025-10-07T13:07:35Z</time></trkpt>
<trkpt lat="46.26204" lon="7.13879"><ele>1753.2</ele><time>2025-10-07T13:07:36Z</time></trkpt>
<trkpt lat="46.26203" lon="7.13878"><ele>1753.4</ele><time>2025-10-07T13:07:39Z</time></trkpt>
<trkpt lat="46.26203" lon="7.13878"><ele>1753.4</ele><time>2025-10-07T13:07:47Z</time></trkpt>
<trkpt lat="46.26203" lon="7.13878"><ele>1753.4</ele><time>2025-10-07T13:07:50Z</time></trkpt>
<trkpt lat="46.26203" lon="7.13878"><ele>1753.4</ele><time>2025-10-07T13:07:52Z</time></trkpt>
<trkpt lat="46.26203" lon="7.13878"><ele>1753.4</ele><time>2025-10-07T13:07:54Z</time></trkpt>
<trkpt lat="46.26204" lon="7.13879"><ele>1753.6</ele><time>2025-10-07T13:08:01Z</time></trkpt>
<trkpt lat="46.26204" lon="7.13878"><ele>1753.6</ele><time>2025-10-07T13:08:02Z</time></trkpt>
<trkpt lat="46.26205" lon="7.1388"><ele>1753.4</ele><time>2025-10-07T13:08:06Z</time></trkpt>
<trkpt lat="46.26205" lon="7.13875"><ele>1753.4</ele><time>2025-10-07T13:08:12Z</time></trkpt>
<trkpt lat="46.26206" lon="7.13863"><ele>1753.4</ele><time>2025-10-07T13:08:17Z</time></trkpt>
<trkpt lat="46.26206" lon="7.13849"><ele>1753.6</ele><time>2025-10-07T13:08:23Z</time></trkpt>
<trkpt lat="46.26207" lon="7.13845"><ele>1753.8</ele><time>2025-10-07T13:08:25Z</time></trkpt>
<trkpt lat="46.26206" lon="7.13844"><ele>1753.8</ele><time>2025-10-07T13:08:26Z</time></trkpt>
<trkpt lat="46.26207" lon="7.1384"><ele>1754</ele><time>2025-10-07T13:08:28Z</time></trkpt>
<trkpt lat="46.26205" lon="7.13831"><ele>1754.6</ele><time>2025-10-07T13:08:33Z</time></trkpt>
<trkpt lat="46.26205" lon="7.13827"><ele>1754.8</ele><time>2025-10-07T13:08:35Z</time></trkpt>
<trkpt lat="46.26206" lon="7.13818"><ele>1755.4</ele><time>2025-10-07T13:08:41Z</time></trkpt>
<trkpt lat="46.26205" lon="7.13817"><ele>1755.4</ele><time>2025-10-07T13:08:42Z</time></trkpt>
<trkpt lat="46.26206" lon="7.13817"><ele>1755.6</ele><time>2025-10-07T13:08:44Z</time></trkpt>
<trkpt lat="46.26205" lon="7.13818"><ele>1755.6</ele><time>2025-10-07T13:08:46Z</time></trkpt>
<trkpt lat="46.26204" lon="7.13819"><ele>1755.6</ele><time>2025-10-07T13:08:47Z</time></trkpt>
<trkpt lat="46.26202" lon="7.13819"><ele>1755.8</ele><time>2025-10-07T13:08:49Z</time></trkpt>
<trkpt lat="46.26199" lon="7.13817"><ele>1756.2</ele><time>2025-10-07T13:08:53Z</time></trkpt>
<trkpt lat="46.262" lon="7.13817"><ele>1756.4</ele><time>2025-10-07T13:08:57Z</time></trkpt>
<trkpt lat="46.262" lon="7.13817"><ele>1756.2</ele><time>2025-10-07T13:09:05Z</time></trkpt>
<trkpt lat="46.262" lon="7.13815"><ele>1756.4</ele><time>2025-10-07T13:09:16Z</time></trkpt>
<trkpt lat="46.262" lon="7.13815"><ele>1756.4</ele><time>2025-10-07T13:09:26Z</time></trkpt>
<trkpt lat="46.262" lon="7.13816"><ele>1756.4</ele><time>2025-10-07T13:09:28Z</time></trkpt>
<trkpt lat="46.262" lon="7.13815"><ele>1756</ele><time>2025-10-07T13:09:32Z</time></trkpt>
<trkpt lat="46.262" lon="7.13815"><ele>1756</ele><time>2025-10-07T13:09:34Z</time></trkpt>
<trkpt lat="46.26199" lon="7.13813"><ele>1756.4</ele><time>2025-10-07T13:09:39Z</time></trkpt>
<trkpt lat="46.26198" lon="7.1381"><ele>1756.4</ele><time>2025-10-07T13:09:42Z</time></trkpt>
<trkpt lat="46.26197" lon="7.13808"><ele>1756.6</ele><time>2025-10-07T13:09:43Z</time></trkpt>
<trkpt lat="46.26197" lon="7.13807"><ele>1756.6</ele><time>2025-10-07T13:09:44Z</time></trkpt>
<trkpt lat="46.26194" lon="7.13797"><ele>1757.4</ele><time>2025-10-07T13:09:49Z</time></trkpt>
<trkpt lat="46.26193" lon="7.13794"><ele>1757.6</ele><time>2025-10-07T13:09:51Z</time></trkpt>
<trkpt lat="46.26192" lon="7.13788"><ele>1758.2</ele><time>2025-10-07T13:09:55Z</time></trkpt>
<trkpt lat="46.2619" lon="7.13781"><ele>1758.8</ele><time>2025-10-07T13:09:59Z</time></trkpt>
<trkpt lat="46.26187" lon="7.13775"><ele>1759.2</ele><time>2025-10-07T13:10:03Z</time></trkpt>
<trkpt lat="46.26186" lon="7.13774"><ele>1759.6</ele><time>2025-10-07T13:10:05Z</time></trkpt>
<trkpt lat="46.26184" lon="7.13773"><ele>1759.8</ele><time>2025-10-07T13:10:07Z</time></trkpt>
<trkpt lat="46.26182" lon="7.13771"><ele>1760</ele><time>2025-10-07T13:10:09Z</time></trkpt>
<trkpt lat="46.26177" lon="7.1377"><ele>1760.6</ele><time>2025-10-07T13:10:13Z</time></trkpt>
<trkpt lat="46.26176" lon="7.13769"><ele>1760.8</ele><time>2025-10-07T13:10:14Z</time></trkpt>
<trkpt lat="46.26175" lon="7.13769"><ele>1761</ele><time>2025-10-07T13:10:15Z</time></trkpt>
<trkpt lat="46.26175" lon="7.1377"><ele>1761.2</ele><time>2025-10-07T13:10:16Z</time></trkpt>
<trkpt lat="46.26174" lon="7.13769"><ele>1761.4</ele><time>2025-10-07T13:10:21Z</time></trkpt>
<trkpt lat="46.26174" lon="7.13769"><ele>1761.4</ele><time>2025-10-07T13:10:28Z</time></trkpt>
<trkpt lat="46.26175" lon="7.13768"><ele>1761.8</ele><time>2025-10-07T13:10:32Z</time></trkpt>
<trkpt lat="46.26175" lon="7.13768"><ele>1761.8</ele><time>2025-10-07T13:10:33Z</time></trkpt>
<trkpt lat="46.26176" lon="7.13772"><ele>1761.2</ele><time>2025-10-07T13:10:36Z</time></trkpt>
<trkpt lat="46.26176" lon="7.13773"><ele>1761.2</ele><time>2025-10-07T13:10:38Z</time></trkpt>
<trkpt lat="46.26175" lon="7.13774"><ele>1761.2</ele><time>2025-10-07T13:10:43Z</time></trkpt>
<trkpt lat="46.26174" lon="7.13775"><ele>1760.8</ele><time>2025-10-07T13:10:48Z</time></trkpt>
<trkpt lat="46.26174" lon="7.13774"><ele>1761.2</ele><time>2025-10-07T13:10:51Z</time></trkpt>
<trkpt lat="46.26174" lon="7.13774"><ele>1761</ele><time>2025-10-07T13:10:56Z</time></trkpt>
<trkpt lat="46.26174" lon="7.13774"><ele>1760.6</ele><time>2025-10-07T13:10:59Z</time></trkpt>
<trkpt lat="46.26174" lon="7.13774"><ele>1760.6</ele><time>2025-10-07T13:11:01Z</time></trkpt>
<trkpt lat="46.26174" lon="7.13774"><ele>1760.6</ele><time>2025-10-07T13:11:06Z</time></trkpt>
<trkpt lat="46.26174" lon="7.13774"><ele>1760.6</ele><time>2025-10-07T13:11:10Z</time></trkpt>
<trkpt lat="46.26174" lon="7.13774"><ele>1760.8</ele><time>2025-10-07T13:11:16Z</time></trkpt>
<trkpt lat="46.26175" lon="7.13774"><ele>1760.8</ele><time>2025-10-07T13:11:17Z</time></trkpt>
<trkpt lat="46.26175" lon="7.13775"><ele>1760.4</ele><time>2025-10-07T13:11:21Z</time></trkpt>
<trkpt lat="46.26174" lon="7.13774"><ele>1760.4</ele><time>2025-10-07T13:11:27Z</time></trkpt>
<trkpt lat="46.26175" lon="7.13774"><ele>1760.4</ele><time>2025-10-07T13:11:36Z</time></trkpt>
<trkpt lat="46.26175" lon="7.13776"><ele>1760.2</ele><time>2025-10-07T13:11:41Z</time></trkpt>
<trkpt lat="46.26175" lon="7.13776"><ele>1760.4</ele><time>2025-10-07T13:11:43Z</time></trkpt>
<trkpt lat="46.26175" lon="7.13776"><ele>1760.6</ele><time>2025-10-07T13:11:44Z</time></trkpt>
<trkpt lat="46.26175" lon="7.13776"><ele>1760.6</ele><time>2025-10-07T13:11:47Z</time></trkpt>
<trkpt lat="46.26175" lon="7.13776"><ele>1760.4</ele><time>2025-10-07T13:11:52Z</time></trkpt>
<trkpt lat="46.26175" lon="7.13776"><ele>1760.2</ele><time>2025-10-07T13:11:59Z</time></trkpt>
<trkpt lat="46.26176" lon="7.13776"><ele>1759.8</ele><time>2025-10-07T13:12:06Z</time></trkpt>
<trkpt lat="46.26176" lon="7.13777"><ele>1759.8</ele><time>2025-10-07T13:12:07Z</time></trkpt>
<trkpt lat="46.26175" lon="7.13776"><ele>1759.8</ele><time>2025-10-07T13:12:14Z</time></trkpt>
<trkpt lat="46.26175" lon="7.13775"><ele>1759.8</ele><time>2025-10-07T13:12:22Z</time></trkpt>
<trkpt lat="46.26174" lon="7.13774"><ele>1759.8</ele><time>2025-10-07T13:12:30Z</time></trkpt>
<trkpt lat="46.26174" lon="7.13775"><ele>1759.8</ele><time>2025-10-07T13:12:34Z</time></trkpt>
<trkpt lat="46.26174" lon="7.13775"><ele>1759.8</ele><time>2025-10-07T13:12:35Z</time></trkpt>
<trkpt lat="46.26174" lon="7.13775"><ele>1759.8</ele><time>2025-10-07T13:12:36Z</time></trkpt>
<trkpt lat="46.26174" lon="7.13776"><ele>1759.8</ele><time>2025-10-07T13:12:38Z</time></trkpt>
<trkpt lat="46.26174" lon="7.13776"><ele>1759.8</ele><time>2025-10-07T13:12:42Z</time></trkpt>
<trkpt lat="46.26174" lon="7.13776"><ele>1759.8</ele><time>2025-10-07T13:12:45Z</time></trkpt>
<trkpt lat="46.26175" lon="7.13776"><ele>1759.8</ele><time>2025-10-07T13:12:51Z</time></trkpt>
<trkpt lat="46.26175" lon="7.13775"><ele>1759.8</ele><time>2025-10-07T13:12:58Z</time></trkpt>
<trkpt lat="46.26176" lon="7.13775"><ele>1759.8</ele><time>2025-10-07T13:13:07Z</time></trkpt>
<trkpt lat="46.26176" lon="7.13776"><ele>1759.8</ele><time>2025-10-07T13:13:14Z</time></trkpt>
<trkpt lat="46.26176" lon="7.13775"><ele>1759.8</ele><time>2025-10-07T13:13:21Z</time></trkpt>
<trkpt lat="46.26176" lon="7.13775"><ele>1759.8</ele><time>2025-10-07T13:13:24Z</time></trkpt>
<trkpt lat="46.26175" lon="7.13776"><ele>1759.8</ele><time>2025-10-07T13:13:27Z</time></trkpt>
<trkpt lat="46.26175" lon="7.13776"><ele>1759.8</ele><time>2025-10-07T13:13:30Z</time></trkpt>
<trkpt lat="46.26175" lon="7.13776"><ele>1759.8</ele><time>2025-10-07T13:13:37Z</time></trkpt>
<trkpt lat="46.26175" lon="7.13776"><ele>1759.8</ele><time>2025-10-07T13:13:44Z</time></trkpt>
<trkpt lat="46.26175" lon="7.13776"><ele>1759.8</ele><time>2025-10-07T13:13:48Z</time></trkpt>
<trkpt lat="46.26175" lon="7.13776"><ele>1759.8</ele><time>2025-10-07T13:13:51Z</time></trkpt>
<trkpt lat="46.26175" lon="7.13776"><ele>1759.8</ele><time>2025-10-07T13:13:52Z</time></trkpt>
<trkpt lat="46.26175" lon="7.13776"><ele>1759.8</ele><time>2025-10-07T13:13:54Z</time></trkpt>
<trkpt lat="46.26175" lon="7.13776"><ele>1759.8</ele><time>2025-10-07T13:13:58Z</time></trkpt>
<trkpt lat="46.26175" lon="7.13776"><ele>1759.8</ele><time>2025-10-07T13:14:08Z</time></trkpt>
<trkpt lat="46.26176" lon="7.13775"><ele>1759.8</ele><time>2025-10-07T13:14:17Z</time></trkpt>
<trkpt lat="46.26176" lon="7.13774"><ele>1759.8</ele><time>2025-10-07T13:14:27Z</time></trkpt>
<trkpt lat="46.26175" lon="7.13774"><ele>1759.8</ele><time>2025-10-07T13:14:38Z</time></trkpt>
<trkpt lat="46.26176" lon="7.13775"><ele>1759.8</ele><time>2025-10-07T13:14:47Z</time></trkpt>
<trkpt lat="46.26175" lon="7.13775"><ele>1759.8</ele><time>2025-10-07T13:14:55Z</time></trkpt>
<trkpt lat="46.26176" lon="7.13774"><ele>1759.8</ele><time>2025-10-07T13:15:03Z</time></trkpt>
<trkpt lat="46.26175" lon="7.13774"><ele>1759.8</ele><time>2025-10-07T13:15:10Z</time></trkpt>
<trkpt lat="46.26176" lon="7.13774"><ele>1759.8</ele><time>2025-10-07T13:15:16Z</time></trkpt>
<trkpt lat="46.26176" lon="7.13774"><ele>1759.8</ele><time>2025-10-07T13:15:18Z</time></trkpt>
<trkpt lat="46.26176" lon="7.13776"><ele>1759.8</ele><time>2025-10-07T13:15:24Z</time></trkpt>
<trkpt lat="46.26176" lon="7.13776"><ele>1759.8</ele><time>2025-10-07T13:15:31Z</time></trkpt>
<trkpt lat="46.26177" lon="7.13775"><ele>1759.8</ele><time>2025-10-07T13:15:38Z</time></trkpt>
<trkpt lat="46.26177" lon="7.13775"><ele>1759.8</ele><time>2025-10-07T13:15:46Z</time></trkpt>
<trkpt lat="46.26176" lon="7.13774"><ele>1759.8</ele><time>2025-10-07T13:15:55Z</time></trkpt>
<trkpt lat="46.26176" lon="7.13775"><ele>1759.8</ele><time>2025-10-07T13:16:04Z</time></trkpt>
<trkpt lat="46.26176" lon="7.13776"><ele>1759.8</ele><time>2025-10-07T13:16:10Z</time></trkpt>
<trkpt lat="46.26176" lon="7.13776"><ele>1759.8</ele><time>2025-10-07T13:16:14Z</time></trkpt>
<trkpt lat="46.26176" lon="7.13776"><ele>1759.8</ele><time>2025-10-07T13:16:16Z</time></trkpt>
<trkpt lat="46.26176" lon="7.13776"><ele>1759.8</ele><time>2025-10-07T13:16:20Z</time></trkpt>
<trkpt lat="46.26176" lon="7.13776"><ele>1759.8</ele><time>2025-10-07T13:16:25Z</time></trkpt>
<trkpt lat="46.26176" lon="7.13777"><ele>1759.8</ele><time>2025-10-07T13:16:35Z</time></trkpt>
<trkpt lat="46.26176" lon="7.13776"><ele>1759.8</ele><time>2025-10-07T13:16:43Z</time></trkpt>
<trkpt lat="46.26176" lon="7.13778"><ele>1759.8</ele><time>2025-10-07T13:16:49Z</time></trkpt>
<trkpt lat="46.26177" lon="7.13779"><ele>1759.8</ele><time>2025-10-07T13:16:50Z</time></trkpt>
<trkpt lat="46.26176" lon="7.13776"><ele>1759.8</ele><time>2025-10-07T13:16:51Z</time></trkpt>
<trkpt lat="46.26176" lon="7.13776"><ele>1759.8</ele><time>2025-10-07T13:16:55Z</time></trkpt>
<trkpt lat="46.26177" lon="7.13778"><ele>1759.8</ele><time>2025-10-07T13:16:56Z</time></trkpt>
<trkpt lat="46.26176" lon="7.13776"><ele>1759.8</ele><time>2025-10-07T13:16:59Z</time></trkpt>
<trkpt lat="46.26176" lon="7.13776"><ele>1759.8</ele><time>2025-10-07T13:17:00Z</time></trkpt>
<trkpt lat="46.26176" lon="7.13776"><ele>1759.8</ele><time>2025-10-07T13:17:02Z</time></trkpt>
<trkpt lat="46.26176" lon="7.13776"><ele>1759.8</ele><time>2025-10-07T13:17:03Z</time></trkpt>
<trkpt lat="46.26177" lon="7.13778"><ele>1759.8</ele><time>2025-10-07T13:17:04Z</time></trkpt>
<trkpt lat="46.26177" lon="7.13778"><ele>1759.8</ele><time>2025-10-07T13:17:08Z</time></trkpt>
<trkpt lat="46.26176" lon="7.13778"><ele>1759.8</ele><time>2025-10-07T13:17:11Z</time></trkpt>
<trkpt lat="46.26176" lon="7.13778"><ele>1759.8</ele><time>2025-10-07T13:17:15Z</time></trkpt>
<trkpt lat="46.26176" lon="7.13777"><ele>1759.8</ele><time>2025-10-07T13:17:20Z</time></trkpt>
<trkpt lat="46.26176" lon="7.13777"><ele>1759.8</ele><time>2025-10-07T13:17:22Z</time></trkpt>
<trkpt lat="46.26176" lon="7.13776"><ele>1759.8</ele><time>2025-10-07T13:17:29Z</time></trkpt>
<trkpt lat="46.26176" lon="7.13776"><ele>1759.8</ele><time>2025-10-07T13:17:37Z</time></trkpt>
<trkpt lat="46.26176" lon="7.13776"><ele>1759.8</ele><time>2025-10-07T13:17:39Z</time></trkpt>
<trkpt lat="46.26176" lon="7.13777"><ele>1759.8</ele><time>2025-10-07T13:17:43Z</time></trkpt>
<trkpt lat="46.26176" lon="7.13776"><ele>1759.8</ele><time>2025-10-07T13:17:50Z</time></trkpt>
<trkpt lat="46.26176" lon="7.13776"><ele>1759.8</ele><time>2025-10-07T13:17:56Z</time></trkpt>
<trkpt lat="46.26175" lon="7.13776"><ele>1759.8</ele><time>2025-10-07T13:18:03Z</time></trkpt>
<trkpt lat="46.26175" lon="7.13777"><ele>1759.8</ele><time>2025-10-07T13:18:12Z</time></trkpt>
<trkpt lat="46.26175" lon="7.13776"><ele>1759.8</ele><time>2025-10-07T13:18:18Z</time></trkpt>
<trkpt lat="46.26175" lon="7.13777"><ele>1759.8</ele><time>2025-10-07T13:18:27Z</time></trkpt>
<trkpt lat="46.26175" lon="7.13776"><ele>1759.8</ele><time>2025-10-07T13:18:31Z</time></trkpt>
<trkpt lat="46.26175" lon="7.13776"><ele>1759.8</ele><time>2025-10-07T13:18:38Z</time></trkpt>
<trkpt lat="46.26175" lon="7.13776"><ele>1759.8</ele><time>2025-10-07T13:18:40Z</time></trkpt>
<trkpt lat="46.26175" lon="7.13776"><ele>1759.8</ele><time>2025-10-07T13:18:41Z</time></trkpt>
<trkpt lat="46.26175" lon="7.13776"><ele>1759.8</ele><time>2025-10-07T13:18:43Z</time></trkpt>
<trkpt lat="46.26175" lon="7.13776"><ele>1759.8</ele><time>2025-10-07T13:18:46Z</time></trkpt>
<trkpt lat="46.26176" lon="7.13775"><ele>1759.8</ele><time>2025-10-07T13:18:58Z</time></trkpt>
<trkpt lat="46.26178" lon="7.13778"><ele>1759.8</ele><time>2025-10-07T13:19:08Z</time></trkpt>
<trkpt lat="46.26178" lon="7.13778"><ele>1759.8</ele><time>2025-10-07T13:19:11Z</time></trkpt>
<trkpt lat="46.26178" lon="7.13777"><ele>1759.8</ele><time>2025-10-07T13:19:14Z</time></trkpt>
<trkpt lat="46.26176" lon="7.13777"><ele>1759.8</ele><time>2025-10-07T13:19:18Z</time></trkpt>
<trkpt lat="46.26175" lon="7.13776"><ele>1759.8</ele><time>2025-10-07T13:19:20Z</time></trkpt>
<trkpt lat="46.26175" lon="7.13771"><ele>1760.2</ele><time>2025-10-07T13:19:23Z</time></trkpt>
<trkpt lat="46.26175" lon="7.13771"><ele>1760.2</ele><time>2025-10-07T13:19:25Z</time></trkpt>
<trkpt lat="46.26175" lon="7.13769"><ele>1760.2</ele><time>2025-10-07T13:19:26Z</time></trkpt>
<trkpt lat="46.26178" lon="7.13767"><ele>1760</ele><time>2025-10-07T13:19:29Z</time></trkpt>
<trkpt lat="46.2618" lon="7.13765"><ele>1759.8</ele><time>2025-10-07T13:19:34Z</time></trkpt>
<trkpt lat="46.2618" lon="7.13766"><ele>1760.2</ele><time>2025-10-07T13:19:43Z</time></trkpt>
<trkpt lat="46.2618" lon="7.13766"><ele>1760.2</ele><time>2025-10-07T13:19:45Z</time></trkpt>
<trkpt lat="46.2618" lon="7.13766"><ele>1760.4</ele><time>2025-10-07T13:19:56Z</time></trkpt>
<trkpt lat="46.2618" lon="7.13766"><ele>1760.2</ele><time>2025-10-07T13:20:01Z</time></trkpt>
<trkpt lat="46.26179" lon="7.13766"><ele>1760.2</ele><time>2025-10-07T13:20:05Z</time></trkpt>
<trkpt lat="46.26177" lon="7.1377"><ele>1760.4</ele><time>2025-10-07T13:20:10Z</time></trkpt>
<trkpt lat="46.26175" lon="7.13774"><ele>1760.8</ele><time>2025-10-07T13:20:15Z</time></trkpt>
<trkpt lat="46.26176" lon="7.13775"><ele>1760.8</ele><time>2025-10-07T13:20:17Z</time></trkpt>
<trkpt lat="46.26176" lon="7.13776"><ele>1760.4</ele><time>2025-10-07T13:20:20Z</time></trkpt>
<trkpt lat="46.26176" lon="7.13776"><ele>1760.4</ele><time>2025-10-07T13:20:21Z</time></trkpt>
<trkpt lat="46.26176" lon="7.13776"><ele>1760.2</ele><time>2025-10-07T13:20:27Z</time></trkpt>
<trkpt lat="46.26176" lon="7.13776"><ele>1759.8</ele><time>2025-10-07T13:20:30Z</time></trkpt>
<trkpt lat="46.26176" lon="7.13776"><ele>1759.8</ele><time>2025-10-07T13:20:32Z</time></trkpt>
<trkpt lat="46.26176" lon="7.13776"><ele>1760.4</ele><time>2025-10-07T13:20:35Z</time></trkpt>
<trkpt lat="46.26176" lon="7.13776"><ele>1760.4</ele><time>2025-10-07T13:20:39Z</time></trkpt>
<trkpt lat="46.26176" lon="7.13776"><ele>1760.4</ele><time>2025-10-07T13:20:41Z</time></trkpt>
<trkpt lat="46.26176" lon="7.13776"><ele>1760.4</ele><time>2025-10-07T13:20:45Z</time></trkpt>
<trkpt lat="46.26176" lon="7.13776"><ele>1760.4</ele><time>2025-10-07T13:20:50Z</time></trkpt>
<trkpt lat="46.26175" lon="7.13776"><ele>1760.4</ele><time>2025-10-07T13:20:56Z</time></trkpt>
<trkpt lat="46.26175" lon="7.13775"><ele>1760.4</ele><time>2025-10-07T13:20:58Z</time></trkpt>
<trkpt lat="46.26175" lon="7.13776"><ele>1760.4</ele><time>2025-10-07T13:21:01Z</time></trkpt>
<trkpt lat="46.26175" lon="7.13775"><ele>1760.4</ele><time>2025-10-07T13:21:09Z</time></trkpt>
<trkpt lat="46.26175" lon="7.13775"><ele>1760.4</ele><time>2025-10-07T13:21:13Z</time></trkpt>
<trkpt lat="46.26175" lon="7.13774"><ele>1760.4</ele><time>2025-10-07T13:21:18Z</time></trkpt>
<trkpt lat="46.26175" lon="7.13774"><ele>1760.4</ele><time>2025-10-07T13:21:26Z</time></trkpt>
<trkpt lat="46.26175" lon="7.13774"><ele>1760.4</ele><time>2025-10-07T13:21:33Z</time></trkpt>
<trkpt lat="46.26176" lon="7.13777"><ele>1760.4</ele><time>2025-10-07T13:21:40Z</time></trkpt>
<trkpt lat="46.26175" lon="7.13773"><ele>1760.4</ele><time>2025-10-07T13:21:50Z</time></trkpt>
<trkpt lat="46.26174" lon="7.13772"><ele>1760.4</ele><time>2025-10-07T13:21:57Z</time></trkpt>
<trkpt lat="46.26175" lon="7.13772"><ele>1760.4</ele><time>2025-10-07T13:22:01Z</time></trkpt>
<trkpt lat="46.26175" lon="7.13772"><ele>1760.4</ele><time>2025-10-07T13:22:05Z</time></trkpt>
<trkpt lat="46.26175" lon="7.13772"><ele>1760.4</ele><time>2025-10-07T13:22:10Z</time></trkpt>
<trkpt lat="46.26177" lon="7.13774"><ele>1760.4</ele><time>2025-10-07T13:22:17Z</time></trkpt>
<trkpt lat="46.26177" lon="7.13774"><ele>1760.4</ele><time>2025-10-07T13:22:22Z</time></trkpt>
<trkpt lat="46.26177" lon="7.13774"><ele>1760.4</ele><time>2025-10-07T13:22:26Z</time></trkpt>
<trkpt lat="46.26177" lon="7.13774"><ele>1760.4</ele><time>2025-10-07T13:22:29Z</time></trkpt>
<trkpt lat="46.26177" lon="7.13774"><ele>1760.4</ele><time>2025-10-07T13:22:30Z</time></trkpt>
<trkpt lat="46.26177" lon="7.13774"><ele>1760.4</ele><time>2025-10-07T13:22:32Z</time></trkpt>
<trkpt lat="46.26177" lon="7.13774"><ele>1760.4</ele><time>2025-10-07T13:22:40Z</time></trkpt>
<trkpt lat="46.26177" lon="7.13774"><ele>1760.4</ele><time>2025-10-07T13:22:47Z</time></trkpt>
<trkpt lat="46.26178" lon="7.13775"><ele>1760.4</ele><time>2025-10-07T13:22:52Z</time></trkpt>
<trkpt lat="46.26178" lon="7.13775"><ele>1760.4</ele><time>2025-10-07T13:22:54Z</time></trkpt>
<trkpt lat="46.26178" lon="7.13775"><ele>1760.4</ele><time>2025-10-07T13:23:00Z</time></trkpt>
<trkpt lat="46.26177" lon="7.13776"><ele>1760.4</ele><time>2025-10-07T13:23:06Z</time></trkpt>
<trkpt lat="46.26177" lon="7.13777"><ele>1760.4</ele><time>2025-10-07T13:23:07Z</time></trkpt>
<trkpt lat="46.26176" lon="7.13778"><ele>1760.4</ele><time>2025-10-07T13:23:11Z</time></trkpt>
<trkpt lat="46.26177" lon="7.13777"><ele>1760.4</ele><time>2025-10-07T13:23:14Z</time></trkpt>
<trkpt lat="46.26177" lon="7.13777"><ele>1760.4</ele><time>2025-10-07T13:23:21Z</time></trkpt>
<trkpt lat="46.26178" lon="7.13779"><ele>1760.4</ele><time>2025-10-07T13:23:27Z</time></trkpt>
<trkpt lat="46.26178" lon="7.13779"><ele>1760.4</ele><time>2025-10-07T13:23:29Z</time></trkpt>
<trkpt lat="46.26178" lon="7.13779"><ele>1760.4</ele><time>2025-10-07T13:23:30Z</time></trkpt>
<trkpt lat="46.26178" lon="7.13779"><ele>1760.4</ele><time>2025-10-07T13:23:32Z</time></trkpt>
<trkpt lat="46.26178" lon="7.13779"><ele>1760.4</ele><time>2025-10-07T13:23:34Z</time></trkpt>
<trkpt lat="46.26177" lon="7.13778"><ele>1760.4</ele><time>2025-10-07T13:23:40Z</time></trkpt>
<trkpt lat="46.26177" lon="7.13778"><ele>1760.4</ele><time>2025-10-07T13:23:41Z</time></trkpt>
<trkpt lat="46.26177" lon="7.13778"><ele>1760.4</ele><time>2025-10-07T13:23:48Z</time></trkpt>
<trkpt lat="46.26177" lon="7.13778"><ele>1760.4</ele><time>2025-10-07T13:23:53Z</time></trkpt>
<trkpt lat="46.26177" lon="7.13778"><ele>1760.4</ele><time>2025-10-07T13:23:54Z</time></trkpt>
<trkpt lat="46.26177" lon="7.13777"><ele>1760.4</ele><time>2025-10-07T13:24:00Z</time></trkpt>
<trkpt lat="46.26178" lon="7.13779"><ele>1760.4</ele><time>2025-10-07T13:24:08Z</time></trkpt>
<trkpt lat="46.26177" lon="7.13779"><ele>1760.4</ele><time>2025-10-07T13:24:12Z</time></trkpt>
<trkpt lat="46.26177" lon="7.13779"><ele>1760.4</ele><time>2025-10-07T13:24:13Z</time></trkpt>
<trkpt lat="46.26177" lon="7.13776"><ele>1760.4</ele><time>2025-10-07T13:24:20Z</time></trkpt>
<trkpt lat="46.26176" lon="7.13774"><ele>1760.4</ele><time>2025-10-07T13:24:22Z</time></trkpt>
<trkpt lat="46.26176" lon="7.13774"><ele>1760.4</ele><time>2025-10-07T13:24:25Z</time></trkpt>
<trkpt lat="46.26176" lon="7.13775"><ele>1760.4</ele><time>2025-10-07T13:24:31Z</time></trkpt>
<trkpt lat="46.26176" lon="7.13774"><ele>1760.4</ele><time>2025-10-07T13:24:34Z</time></trkpt>
<trkpt lat="46.26175" lon="7.13774"><ele>1760.4</ele><time>2025-10-07T13:24:36Z</time></trkpt>
<trkpt lat="46.26175" lon="7.13773"><ele>1760.4</ele><time>2025-10-07T13:24:38Z</time></trkpt>
<trkpt lat="46.26175" lon="7.13772"><ele>1760.4</ele><time>2025-10-07T13:24:45Z</time></trkpt>
<trkpt lat="46.26175" lon="7.1377"><ele>1760.4</ele><time>2025-10-07T13:24:51Z</time></trkpt>
<trkpt lat="46.26175" lon="7.13772"><ele>1760.4</ele><time>2025-10-07T13:24:59Z</time></trkpt>
<trkpt lat="46.26176" lon="7.13774"><ele>1760.4</ele><time>2025-10-07T13:25:07Z</time></trkpt>
<trkpt lat="46.26177" lon="7.13776"><ele>1760.4</ele><time>2025-10-07T13:25:13Z</time></trkpt>
<trkpt lat="46.26177" lon="7.13776"><ele>1760.4</ele><time>2025-10-07T13:25:16Z</time></trkpt>
<trkpt lat="46.26177" lon="7.13776"><ele>1760.4</ele><time>2025-10-07T13:25:20Z</time></trkpt>
<trkpt lat="46.26177" lon="7.13776"><ele>1760.4</ele><time>2025-10-07T13:25:23Z</time></trkpt>
<trkpt lat="46.26177" lon="7.13776"><ele>1760.4</ele><time>2025-10-07T13:25:28Z</time></trkpt>
<trkpt lat="46.26177" lon="7.13776"><ele>1760.4</ele><time>2025-10-07T13:25:37Z</time></trkpt>
<trkpt lat="46.26176" lon="7.13776"><ele>1760.4</ele><time>2025-10-07T13:25:51Z</time></trkpt>
<trkpt lat="46.26176" lon="7.13777"><ele>1760.4</ele><time>2025-10-07T13:25:56Z</time></trkpt>
<trkpt lat="46.26175" lon="7.13777"><ele>1760.4</ele><time>2025-10-07T13:26:03Z</time></trkpt>
<trkpt lat="46.26176" lon="7.13777"><ele>1760.4</ele><time>2025-10-07T13:26:10Z</time></trkpt>
<trkpt lat="46.26176" lon="7.13776"><ele>1760.4</ele><time>2025-10-07T13:26:16Z</time></trkpt>
<trkpt lat="46.26176" lon="7.13775"><ele>1760.4</ele><time>2025-10-07T13:26:24Z</time></trkpt>
<trkpt lat="46.26176" lon="7.13775"><ele>1760.4</ele><time>2025-10-07T13:26:28Z</time></trkpt>
<trkpt lat="46.26176" lon="7.13775"><ele>1760.4</ele><time>2025-10-07T13:26:31Z</time></trkpt>
<trkpt lat="46.26175" lon="7.13773"><ele>1760.4</ele><time>2025-10-07T13:26:38Z</time></trkpt>
<trkpt lat="46.26174" lon="7.13773"><ele>1760.4</ele><time>2025-10-07T13:26:47Z</time></trkpt>
<trkpt lat="46.26176" lon="7.13773"><ele>1760.4</ele><time>2025-10-07T13:26:53Z</time></trkpt>
<trkpt lat="46.26176" lon="7.13775"><ele>1760.4</ele><time>2025-10-07T13:27:01Z</time></trkpt>
<trkpt lat="46.26176" lon="7.13775"><ele>1760.4</ele><time>2025-10-07T13:27:11Z</time></trkpt>
<trkpt lat="46.26176" lon="7.13775"><ele>1760.4</ele><time>2025-10-07T13:27:15Z</time></trkpt>
<trkpt lat="46.26176" lon="7.13775"><ele>1760.4</ele><time>2025-10-07T13:27:24Z</time></trkpt>
<trkpt lat="46.26176" lon="7.13775"><ele>1760.4</ele><time>2025-10-07T13:27:26Z</time></trkpt>
<trkpt lat="46.26176" lon="7.13775"><ele>1760.4</ele><time>2025-10-07T13:27:34Z</time></trkpt>
<trkpt lat="46.26176" lon="7.13773"><ele>1760.4</ele><time>2025-10-07T13:27:41Z</time></trkpt>
<trkpt lat="46.26175" lon="7.1377"><ele>1760.4</ele><time>2025-10-07T13:27:48Z</time></trkpt>
<trkpt lat="46.26175" lon="7.1377"><ele>1760.4</ele><time>2025-10-07T13:27:54Z</time></trkpt>
<trkpt lat="46.26176" lon="7.1377"><ele>1760.4</ele><time>2025-10-07T13:27:56Z</time></trkpt>
<trkpt lat="46.26176" lon="7.13773"><ele>1760.4</ele><time>2025-10-07T13:28:03Z</time></trkpt>
<trkpt lat="46.26176" lon="7.13774"><ele>1760.4</ele><time>2025-10-07T13:28:06Z</time></trkpt>
<trkpt lat="46.26175" lon="7.13773"><ele>1760.4</ele><time>2025-10-07T13:28:09Z</time></trkpt>
<trkpt lat="46.26176" lon="7.13775"><ele>1760.4</ele><time>2025-10-07T13:28:16Z</time></trkpt>
<trkpt lat="46.26176" lon="7.13775"><ele>1760.4</ele><time>2025-10-07T13:28:22Z</time></trkpt>
<trkpt lat="46.26176" lon="7.13775"><ele>1760.4</ele><time>2025-10-07T13:28:27Z</time></trkpt>
<trkpt lat="46.26177" lon="7.13774"><ele>1760.4</ele><time>2025-10-07T13:28:29Z</time></trkpt>
<trkpt lat="46.26176" lon="7.13774"><ele>1760.4</ele><time>2025-10-07T13:28:30Z</time></trkpt>
<trkpt lat="46.26176" lon="7.13775"><ele>1760.4</ele><time>2025-10-07T13:28:36Z</time></trkpt>
<trkpt lat="46.26176" lon="7.13775"><ele>1760.4</ele><time>2025-10-07T13:28:43Z</time></trkpt>
<trkpt lat="46.26176" lon="7.13775"><ele>1760.4</ele><time>2025-10-07T13:28:48Z</time></trkpt>
<trkpt lat="46.26176" lon="7.13775"><ele>1760.4</ele><time>2025-10-07T13:28:49Z</time></trkpt>
<trkpt lat="46.26176" lon="7.13775"><ele>1760.4</ele><time>2025-10-07T13:28:57Z</time></trkpt>
<trkpt lat="46.26176" lon="7.13775"><ele>1760.4</ele><time>2025-10-07T13:28:58Z</time></trkpt>
<trkpt lat="46.26176" lon="7.13775"><ele>1760.4</ele><time>2025-10-07T13:29:00Z</time></trkpt>
<trkpt lat="46.26176" lon="7.13775"><ele>1760.4</ele><time>2025-10-07T13:29:06Z</time></trkpt>
<trkpt lat="46.26175" lon="7.13775"><ele>1760.4</ele><time>2025-10-07T13:29:08Z</time></trkpt>
<trkpt lat="46.26176" lon="7.13775"><ele>1760.4</ele><time>2025-10-07T13:29:10Z</time></trkpt>
<trkpt lat="46.26176" lon="7.13775"><ele>1760.4</ele><time>2025-10-07T13:29:11Z</time></trkpt>
<trkpt lat="46.26176" lon="7.13772"><ele>1760.4</ele><time>2025-10-07T13:29:16Z</time></trkpt>
<trkpt lat="46.26176" lon="7.13775"><ele>1760.4</ele><time>2025-10-07T13:29:25Z</time></trkpt>
<trkpt lat="46.26176" lon="7.13775"><ele>1760.4</ele><time>2025-10-07T13:29:31Z</time></trkpt>
<trkpt lat="46.26175" lon="7.13774"><ele>1760.4</ele><time>2025-10-07T13:29:38Z</time></trkpt>
<trkpt lat="46.26176" lon="7.13776"><ele>1760.4</ele><time>2025-10-07T13:29:46Z</time></trkpt>
<trkpt lat="46.26176" lon="7.13776"><ele>1760.4</ele><time>2025-10-07T13:29:53Z</time></trkpt>
<trkpt lat="46.26176" lon="7.13775"><ele>1760.4</ele><time>2025-10-07T13:29:57Z</time></trkpt>
<trkpt lat="46.26176" lon="7.13775"><ele>1760.4</ele><time>2025-10-07T13:29:59Z</time></trkpt>
<trkpt lat="46.26176" lon="7.13775"><ele>1760.4</ele><time>2025-10-07T13:30:06Z</time></trkpt>
<trkpt lat="46.26176" lon="7.13775"><ele>1760.4</ele><time>2025-10-07T13:30:11Z</time></trkpt>
<trkpt lat="46.26176" lon="7.13775"><ele>1760.4</ele><time>2025-10-07T13:30:16Z</time></trkpt>
<trkpt lat="46.26176" lon="7.13775"><ele>1760.4</ele><time>2025-10-07T13:30:19Z</time></trkpt>
<trkpt lat="46.26175" lon="7.13776"><ele>1760.4</ele><time>2025-10-07T13:30:26Z</time></trkpt>
<trkpt lat="46.26176" lon="7.13776"><ele>1760.4</ele><time>2025-10-07T13:30:32Z</time></trkpt>
<trkpt lat="46.26177" lon="7.13775"><ele>1760.4</ele><time>2025-10-07T13:30:39Z</time></trkpt>
<trkpt lat="46.26178" lon="7.13775"><ele>1760.4</ele><time>2025-10-07T13:30:43Z</time></trkpt>
<trkpt lat="46.26178" lon="7.13777"><ele>1760.4</ele><time>2025-10-07T13:30:47Z</time></trkpt>
<trkpt lat="46.26177" lon="7.13777"><ele>1760.4</ele><time>2025-10-07T13:30:51Z</time></trkpt>
<trkpt lat="46.26177" lon="7.13777"><ele>1760.4</ele><time>2025-10-07T13:30:53Z</time></trkpt>
<trkpt lat="46.26177" lon="7.13775"><ele>1760.4</ele><time>2025-10-07T13:31:01Z</time></trkpt>
<trkpt lat="46.26177" lon="7.13775"><ele>1760.4</ele><time>2025-10-07T13:31:10Z</time></trkpt>
<trkpt lat="46.26176" lon="7.13775"><ele>1760.4</ele><time>2025-10-07T13:31:17Z</time></trkpt>
<trkpt lat="46.26176" lon="7.13776"><ele>1760.4</ele><time>2025-10-07T13:31:24Z</time></trkpt>
<trkpt lat="46.26176" lon="7.13775"><ele>1760.4</ele><time>2025-10-07T13:31:30Z</time></trkpt>
<trkpt lat="46.26176" lon="7.13775"><ele>1760.4</ele><time>2025-10-07T13:31:34Z</time></trkpt>
<trkpt lat="46.26177" lon="7.13776"><ele>1760.4</ele><time>2025-10-07T13:31:38Z</time></trkpt>
<trkpt lat="46.26178" lon="7.13776"><ele>1760.4</ele><time>2025-10-07T13:31:45Z</time></trkpt>
<trkpt lat="46.26178" lon="7.13776"><ele>1760.4</ele><time>2025-10-07T13:31:46Z</time></trkpt>
<trkpt lat="46.26178" lon="7.13776"><ele>1760.4</ele><time>2025-10-07T13:31:53Z</time></trkpt>
<trkpt lat="46.26176" lon="7.13775"><ele>1760.4</ele><time>2025-10-07T13:31:59Z</time></trkpt>
<trkpt lat="46.26176" lon="7.13775"><ele>1760.4</ele><time>2025-10-07T13:32:03Z</time></trkpt>
<trkpt lat="46.26176" lon="7.13776"><ele>1760.4</ele><time>2025-10-07T13:32:06Z</time></trkpt>
<trkpt lat="46.26176" lon="7.13776"><ele>1760.4</ele><time>2025-10-07T13:32:11Z</time></trkpt>
<trkpt lat="46.26176" lon="7.13777"><ele>1760.4</ele><time>2025-10-07T13:32:17Z</time></trkpt>
<trkpt lat="46.26175" lon="7.13776"><ele>1760.4</ele><time>2025-10-07T13:32:23Z</time></trkpt>
<trkpt lat="46.26175" lon="7.13777"><ele>1760.4</ele><time>2025-10-07T13:32:25Z</time></trkpt>
<trkpt lat="46.26176" lon="7.13775"><ele>1760.4</ele><time>2025-10-07T13:32:30Z</time></trkpt>
<trkpt lat="46.26176" lon="7.13775"><ele>1760.4</ele><time>2025-10-07T13:32:38Z</time></trkpt>
<trkpt lat="46.26176" lon="7.13775"><ele>1760.4</ele><time>2025-10-07T13:32:45Z</time></trkpt>
<trkpt lat="46.26176" lon="7.13775"><ele>1760.4</ele><time>2025-10-07T13:32:50Z</time></trkpt>
<trkpt lat="46.26176" lon="7.13776"><ele>1760.4</ele><time>2025-10-07T13:32:58Z</time></trkpt>
<trkpt lat="46.26176" lon="7.13775"><ele>1760.4</ele><time>2025-10-07T13:33:03Z</time></trkpt>
<trkpt lat="46.26177" lon="7.13775"><ele>1760.4</ele><time>2025-10-07T13:33:05Z</time></trkpt>
<trkpt lat="46.26177" lon="7.13776"><ele>1760.4</ele><time>2025-10-07T13:33:11Z</time></trkpt>
<trkpt lat="46.26177" lon="7.13776"><ele>1760.4</ele><time>2025-10-07T13:33:16Z</time></trkpt>
<trkpt lat="46.26177" lon="7.13776"><ele>1760.4</ele><time>2025-10-07T13:33:18Z</time></trkpt>
<trkpt lat="46.26177" lon="7.13776"><ele>1760.4</ele><time>2025-10-07T13:33:21Z</time></trkpt>
<trkpt lat="46.26177" lon="7.13776"><ele>1760.4</ele><time>2025-10-07T13:33:24Z</time></trkpt>
<trkpt lat="46.26177" lon="7.13776"><ele>1760.4</ele><time>2025-10-07T13:33:25Z</time></trkpt>
<trkpt lat="46.26177" lon="7.13776"><ele>1760.4</ele><time>2025-10-07T13:33:26Z</time></trkpt>
<trkpt lat="46.26177" lon="7.13776"><ele>1760.4</ele><time>2025-10-07T13:33:27Z</time></trkpt>
<trkpt lat="46.26177" lon="7.13776"><ele>1760.4</ele><time>2025-10-07T13:33:34Z</time></trkpt>
<trkpt lat="46.26177" lon="7.13776"><ele>1760.4</ele><time>2025-10-07T13:33:41Z</time></trkpt>
<trkpt lat="46.26176" lon="7.13776"><ele>1760.4</ele><time>2025-10-07T13:33:47Z</time></trkpt>
<trkpt lat="46.26176" lon="7.13776"><ele>1760.4</ele><time>2025-10-07T13:33:49Z</time></trkpt>
<trkpt lat="46.26177" lon="7.13776"><ele>1760.4</ele><time>2025-10-07T13:33:51Z</time></trkpt>
<trkpt lat="46.26176" lon="7.13776"><ele>1760.4</ele><time>2025-10-07T13:33:54Z</time></trkpt>
<trkpt lat="46.26177" lon="7.13776"><ele>1760.4</ele><time>2025-10-07T13:34:00Z</time></trkpt>
<trkpt lat="46.26177" lon="7.13776"><ele>1760.4</ele><time>2025-10-07T13:34:01Z</time></trkpt>
<trkpt lat="46.26177" lon="7.13776"><ele>1760.4</ele><time>2025-10-07T13:34:03Z</time></trkpt>
<trkpt lat="46.26177" lon="7.13778"><ele>1760.4</ele><time>2025-10-07T13:34:09Z</time></trkpt>
<trkpt lat="46.26175" lon="7.13778"><ele>1760.4</ele><time>2025-10-07T13:34:17Z</time></trkpt>
<trkpt lat="46.26176" lon="7.13778"><ele>1760.4</ele><time>2025-10-07T13:34:26Z</time></trkpt>
<trkpt lat="46.26176" lon="7.13778"><ele>1760.4</ele><time>2025-10-07T13:34:32Z</time></trkpt>
<trkpt lat="46.26176" lon="7.13778"><ele>1760.4</ele><time>2025-10-07T13:34:41Z</time></trkpt>
<trkpt lat="46.26176" lon="7.13778"><ele>1760.4</ele><time>2025-10-07T13:34:52Z</time></trkpt>
<trkpt lat="46.26176" lon="7.13778"><ele>1760.4</ele><time>2025-10-07T13:35:00Z</time></trkpt>
<trkpt lat="46.26176" lon="7.13778"><ele>1760.4</ele><time>2025-10-07T13:35:04Z</time></trkpt>
<trkpt lat="46.26176" lon="7.13778"><ele>1760.4</ele><time>2025-10-07T13:35:10Z</time></trkpt>
<trkpt lat="46.26176" lon="7.13778"><ele>1760.4</ele><time>2025-10-07T13:35:15Z</time></trkpt>
<trkpt lat="46.26176" lon="7.13778"><ele>1760.4</ele><time>2025-10-07T13:35:19Z</time></trkpt>
<trkpt lat="46.26176" lon="7.13778"><ele>1760.4</ele><time>2025-10-07T13:35:24Z</time></trkpt>
<trkpt lat="46.26176" lon="7.13776"><ele>1760.4</ele><time>2025-10-07T13:35:28Z</time></trkpt>
<trkpt lat="46.26175" lon="7.13775"><ele>1760.4</ele><time>2025-10-07T13:35:33Z</time></trkpt>
<trkpt lat="46.26175" lon="7.13775"><ele>1760.4</ele><time>2025-10-07T13:35:41Z</time></trkpt>
<trkpt lat="46.26175" lon="7.13775"><ele>1760.4</ele><time>2025-10-07T13:35:47Z</time></trkpt>
<trkpt lat="46.26176" lon="7.13774"><ele>1760.4</ele><time>2025-10-07T13:35:54Z</time></trkpt>
<trkpt lat="46.26176" lon="7.13774"><ele>1760.4</ele><time>2025-10-07T13:36:00Z</time></trkpt>
<trkpt lat="46.26176" lon="7.13774"><ele>1760.4</ele><time>2025-10-07T13:36:06Z</time></trkpt>
<trkpt lat="46.26176" lon="7.13774"><ele>1760.4</ele><time>2025-10-07T13:36:14Z</time></trkpt>
<trkpt lat="46.26176" lon="7.13774"><ele>1760.4</ele><time>2025-10-07T13:36:15Z</time></trkpt>
<trkpt lat="46.26176" lon="7.13773"><ele>1760.4</ele><time>2025-10-07T13:36:20Z</time></trkpt>
<trkpt lat="46.26176" lon="7.13772"><ele>1760.4</ele><time>2025-10-07T13:36:27Z</time></trkpt>
<trkpt lat="46.26178" lon="7.13774"><ele>1760.4</ele><time>2025-10-07T13:36:34Z</time></trkpt>
<trkpt lat="46.26178" lon="7.13774"><ele>1760.4</ele><time>2025-10-07T13:36:41Z</time></trkpt>
<trkpt lat="46.26178" lon="7.13774"><ele>1760.4</ele><time>2025-10-07T13:36:51Z</time></trkpt>
<trkpt lat="46.26179" lon="7.13774"><ele>1760.4</ele><time>2025-10-07T13:36:54Z</time></trkpt>
<trkpt lat="46.26178" lon="7.13774"><ele>1760.4</ele><time>2025-10-07T13:36:55Z</time></trkpt>
<trkpt lat="46.26178" lon="7.13771"><ele>1760.4</ele><time>2025-10-07T13:37:00Z</time></trkpt>
<trkpt lat="46.26177" lon="7.1377"><ele>1760.4</ele><time>2025-10-07T13:37:05Z</time></trkpt>
<trkpt lat="46.26176" lon="7.13766"><ele>1760.4</ele><time>2025-10-07T13:37:10Z</time></trkpt>
<trkpt lat="46.26176" lon="7.13767"><ele>1760.4</ele><time>2025-10-07T13:37:12Z</time></trkpt>
<trkpt lat="46.26176" lon="7.13765"><ele>1760.4</ele><time>2025-10-07T13:37:21Z</time></trkpt>
<trkpt lat="46.26176" lon="7.13765"><ele>1760.4</ele><time>2025-10-07T13:37:23Z</time></trkpt>
<trkpt lat="46.26176" lon="7.13765"><ele>1760.4</ele><time>2025-10-07T13:37:25Z</time></trkpt>
<trkpt lat="46.26176" lon="7.13765"><ele>1760.4</ele><time>2025-10-07T13:37:26Z</time></trkpt>
<trkpt lat="46.26176" lon="7.13765"><ele>1760.4</ele><time>2025-10-07T13:37:31Z</time></trkpt>
<trkpt lat="46.26177" lon="7.13766"><ele>1760.4</ele><time>2025-10-07T13:37:39Z</time></trkpt>
<trkpt lat="46.26179" lon="7.13766"><ele>1760.4</ele><time>2025-10-07T13:37:43Z</time></trkpt>
<trkpt lat="46.26179" lon="7.13766"><ele>1760.4</ele><time>2025-10-07T13:37:44Z</time></trkpt>
<trkpt lat="46.26178" lon="7.13766"><ele>1760.4</ele><time>2025-10-07T13:37:48Z</time></trkpt>
<trkpt lat="46.26177" lon="7.13767"><ele>1760.4</ele><time>2025-10-07T13:37:50Z</time></trkpt>
<trkpt lat="46.26176" lon="7.13771"><ele>1760.4</ele><time>2025-10-07T13:37:53Z</time></trkpt>
<trkpt lat="46.26176" lon="7.13772"><ele>1760.4</ele><time>2025-10-07T13:37:55Z</time></trkpt>
<trkpt lat="46.26176" lon="7.13775"><ele>1760.2</ele><time>2025-10-07T13:38:02Z</time></trkpt>
<trkpt lat="46.26176" lon="7.13776"><ele>1760</ele><time>2025-10-07T13:38:07Z</time></trkpt>
<trkpt lat="46.26176" lon="7.13776"><ele>1760.4</ele><time>2025-10-07T13:38:18Z</time></trkpt>
<trkpt lat="46.26176" lon="7.13776"><ele>1760.4</ele><time>2025-10-07T13:38:22Z</time></trkpt>
<trkpt lat="46.26176" lon="7.13775"><ele>1760.4</ele><time>2025-10-07T13:38:26Z</time></trkpt>
<trkpt lat="46.26176" lon="7.13776"><ele>1760.4</ele><time>2025-10-07T13:38:27Z</time></trkpt>
<trkpt lat="46.26176" lon="7.13776"><ele>1760.4</ele><time>2025-10-07T13:38:30Z</time></trkpt>
<trkpt lat="46.26176" lon="7.13776"><ele>1760.4</ele><time>2025-10-07T13:38:36Z</time></trkpt>
<trkpt lat="46.26175" lon="7.13774"><ele>1760.6</ele><time>2025-10-07T13:38:41Z</time></trkpt>
<trkpt lat="46.26175" lon="7.13774"><ele>1760.4</ele><time>2025-10-07T13:38:48Z</time></trkpt>
<trkpt lat="46.26175" lon="7.13774"><ele>1760.4</ele><time>2025-10-07T13:38:49Z</time></trkpt>
<trkpt lat="46.26176" lon="7.13776"><ele>1760.4</ele><time>2025-10-07T13:38:58Z</time></trkpt>
<trkpt lat="46.26175" lon="7.13775"><ele>1760.4</ele><time>2025-10-07T13:39:06Z</time></trkpt>
<trkpt lat="46.26173" lon="7.13775"><ele>1760.4</ele><time>2025-10-07T13:39:13Z</time></trkpt>
<trkpt lat="46.26174" lon="7.13777"><ele>1760.4</ele><time>2025-10-07T13:39:20Z</time></trkpt>
<trkpt lat="46.26174" lon="7.13775"><ele>1760.4</ele><time>2025-10-07T13:39:26Z</time></trkpt>
<trkpt lat="46.26175" lon="7.13773"><ele>1760.4</ele><time>2025-10-07T13:39:35Z</time></trkpt>
<trkpt lat="46.26175" lon="7.13775"><ele>1760.4</ele><time>2025-10-07T13:39:43Z</time></trkpt>
<trkpt lat="46.26176" lon="7.13776"><ele>1760.4</ele><time>2025-10-07T13:39:53Z</time></trkpt>
<trkpt lat="46.26176" lon="7.13776"><ele>1760.4</ele><time>2025-10-07T13:39:58Z</time></trkpt>
<trkpt lat="46.26176" lon="7.13776"><ele>1760.4</ele><time>2025-10-07T13:39:59Z</time></trkpt>
<trkpt lat="46.26176" lon="7.13776"><ele>1760.4</ele><time>2025-10-07T13:40:00Z</time></trkpt>
<trkpt lat="46.26176" lon="7.13776"><ele>1760.4</ele><time>2025-10-07T13:40:01Z</time></trkpt>
<trkpt lat="46.26176" lon="7.13776"><ele>1760.4</ele><time>2025-10-07T13:40:07Z</time></trkpt>
<trkpt lat="46.26175" lon="7.13774"><ele>1760.4</ele><time>2025-10-07T13:40:11Z</time></trkpt>
<trkpt lat="46.26175" lon="7.13773"><ele>1760.4</ele><time>2025-10-07T13:40:17Z</time></trkpt>
<trkpt lat="46.26175" lon="7.13775"><ele>1760.4</ele><time>2025-10-07T13:40:22Z</time></trkpt>
<trkpt lat="46.26174" lon="7.13776"><ele>1760.4</ele><time>2025-10-07T13:40:29Z</time></trkpt>
<trkpt lat="46.26174" lon="7.13776"><ele>1760.4</ele><time>2025-10-07T13:40:36Z</time></trkpt>
<trkpt lat="46.26176" lon="7.13776"><ele>1760.4</ele><time>2025-10-07T13:40:38Z</time></trkpt>
<trkpt lat="46.26175" lon="7.13776"><ele>1760.4</ele><time>2025-10-07T13:40:40Z</time></trkpt>
<trkpt lat="46.26175" lon="7.13776"><ele>1760.4</ele><time>2025-10-07T13:40:45Z</time></trkpt>
<trkpt lat="46.26176" lon="7.13775"><ele>1760.4</ele><time>2025-10-07T13:40:53Z</time></trkpt>
<trkpt lat="46.26176" lon="7.13775"><ele>1760.4</ele><time>2025-10-07T13:40:57Z</time></trkpt>
<trkpt lat="46.26176" lon="7.13775"><ele>1760.4</ele><time>2025-10-07T13:41:03Z</time></trkpt>
<trkpt lat="46.26176" lon="7.13775"><ele>1760.4</ele><time>2025-10-07T13:41:10Z</time></trkpt>
<trkpt lat="46.26176" lon="7.13775"><ele>1760.4</ele><time>2025-10-07T13:41:16Z</time></trkpt>
<trkpt lat="46.26176" lon="7.13772"><ele>1760.4</ele><time>2025-10-07T13:41:19Z</time></trkpt>
<trkpt lat="46.26176" lon="7.13775"><ele>1760.4</ele><time>2025-10-07T13:41:25Z</time></trkpt>
<trkpt lat="46.26175" lon="7.13773"><ele>1760.4</ele><time>2025-10-07T13:41:31Z</time></trkpt>
<trkpt lat="46.26175" lon="7.13773"><ele>1760.4</ele><time>2025-10-07T13:41:37Z</time></trkpt>
<trkpt lat="46.26175" lon="7.13773"><ele>1760.4</ele><time>2025-10-07T13:41:45Z</time></trkpt>
<trkpt lat="46.26175" lon="7.13773"><ele>1762.4</ele><time>2025-10-07T13:41:50Z</time></trkpt>
<trkpt lat="46.26175" lon="7.13773"><ele>1762.6</ele><time>2025-10-07T13:41:52Z</time></trkpt>
<trkpt lat="46.26175" lon="7.13773"><ele>1762.4</ele><time>2025-10-07T13:41:58Z</time></trkpt>
<trkpt lat="46.26175" lon="7.13773"><ele>1762.4</ele><time>2025-10-07T13:42:04Z</time></trkpt>
<trkpt lat="46.26175" lon="7.13771"><ele>1762.4</ele><time>2025-10-07T13:42:11Z</time></trkpt>
<trkpt lat="46.26175" lon="7.13771"><ele>1762.8</ele><time>2025-10-07T13:42:16Z</time></trkpt>
<trkpt lat="46.26175" lon="7.13771"><ele>1762.6</ele><time>2025-10-07T13:42:24Z</time></trkpt>
<trkpt lat="46.26175" lon="7.13771"><ele>1762.8</ele><time>2025-10-07T13:42:32Z</time></trkpt>
<trkpt lat="46.26173" lon="7.13768"><ele>1762.6</ele><time>2025-10-07T13:42:36Z</time></trkpt>
<trkpt lat="46.26174" lon="7.13768"><ele>1762.8</ele><time>2025-10-07T13:42:41Z</time></trkpt>
<trkpt lat="46.26174" lon="7.13769"><ele>1763</ele><time>2025-10-07T13:42:42Z</time></trkpt>
<trkpt lat="46.26175" lon="7.1377"><ele>1762.6</ele><time>2025-10-07T13:42:48Z</time></trkpt>
<trkpt lat="46.26175" lon="7.13768"><ele>1762.6</ele><time>2025-10-07T13:42:49Z</time></trkpt>
<trkpt lat="46.26174" lon="7.13762"><ele>1763</ele><time>2025-10-07T13:42:52Z</time></trkpt>
<trkpt lat="46.26173" lon="7.1376"><ele>1763</ele><time>2025-10-07T13:42:54Z</time></trkpt>
<trkpt lat="46.2617" lon="7.1376"><ele>1763.4</ele><time>2025-10-07T13:42:57Z</time></trkpt>
<trkpt lat="46.26167" lon="7.13755"><ele>1764</ele><time>2025-10-07T13:43:01Z</time></trkpt>
<trkpt lat="46.26166" lon="7.13752"><ele>1764.2</ele><time>2025-10-07T13:43:03Z</time></trkpt>
<trkpt lat="46.26164" lon="7.1375"><ele>1764.6</ele><time>2025-10-07T13:43:06Z</time></trkpt>
<trkpt lat="46.26161" lon="7.13747"><ele>1765.2</ele><time>2025-10-07T13:43:10Z</time></trkpt>
<trkpt lat="46.2616" lon="7.13744"><ele>1765.4</ele><time>2025-10-07T13:43:13Z</time></trkpt>
<trkpt lat="46.26159" lon="7.13742"><ele>1765.6</ele><time>2025-10-07T13:43:15Z</time></trkpt>
<trkpt lat="46.26159" lon="7.13741"><ele>1765.8</ele><time>2025-10-07T13:43:16Z</time></trkpt>
<trkpt lat="46.26156" lon="7.13736"><ele>1766.6</ele><time>2025-10-07T13:43:22Z</time></trkpt>
<trkpt lat="46.26155" lon="7.13735"><ele>1766.8</ele><time>2025-10-07T13:43:23Z</time></trkpt>
<trkpt lat="46.26153" lon="7.13731"><ele>1767.2</ele><time>2025-10-07T13:43:28Z</time></trkpt>
<trkpt lat="46.26152" lon="7.1373"><ele>1767.4</ele><time>2025-10-07T13:43:30Z</time></trkpt>
<trkpt lat="46.26151" lon="7.13729"><ele>1767.6</ele><time>2025-10-07T13:43:32Z</time></trkpt>
<trkpt lat="46.2615" lon="7.13729"><ele>1767.8</ele><time>2025-10-07T13:43:33Z</time></trkpt>
<trkpt lat="46.2615" lon="7.13728"><ele>1767.8</ele><time>2025-10-07T13:43:34Z</time></trkpt>
<trkpt lat="46.26147" lon="7.13726"><ele>1768.4</ele><time>2025-10-07T13:43:37Z</time></trkpt>
<trkpt lat="46.26147" lon="7.13726"><ele>1768.4</ele><time>2025-10-07T13:43:38Z</time></trkpt>
<trkpt lat="46.26143" lon="7.13726"><ele>1769</ele><time>2025-10-07T13:43:44Z</time></trkpt>
<trkpt lat="46.26142" lon="7.13725"><ele>1769.2</ele><time>2025-10-07T13:43:45Z</time></trkpt>
<trkpt lat="46.26139" lon="7.13721"><ele>1769.6</ele><time>2025-10-07T13:43:49Z</time></trkpt>
<trkpt lat="46.26136" lon="7.13715"><ele>1770.2</ele><time>2025-10-07T13:43:54Z</time></trkpt>
<trkpt lat="46.26135" lon="7.13714"><ele>1770.2</ele><time>2025-10-07T13:43:55Z</time></trkpt>
<trkpt lat="46.2613" lon="7.13707"><ele>1771</ele><time>2025-10-07T13:44:03Z</time></trkpt>
<trkpt lat="46.2613" lon="7.13706"><ele>1771.2</ele><time>2025-10-07T13:44:04Z</time></trkpt>
<trkpt lat="46.26127" lon="7.13699"><ele>1772</ele><time>2025-10-07T13:44:10Z</time></trkpt>
<trkpt lat="46.26127" lon="7.13698"><ele>1772.2</ele><time>2025-10-07T13:44:12Z</time></trkpt>
<trkpt lat="46.26127" lon="7.13697"><ele>1772.4</ele><time>2025-10-07T13:44:13Z</time></trkpt>
<trkpt lat="46.26126" lon="7.13694"><ele>1772.8</ele><time>2025-10-07T13:44:16Z</time></trkpt>
<trkpt lat="46.26124" lon="7.13692"><ele>1773.2</ele><time>2025-10-07T13:44:19Z</time></trkpt>
<trkpt lat="46.26123" lon="7.13689"><ele>1773.6</ele><time>2025-10-07T13:44:22Z</time></trkpt>
<trkpt lat="46.26121" lon="7.13683"><ele>1774.2</ele><time>2025-10-07T13:44:27Z</time></trkpt>
<trkpt lat="46.26121" lon="7.13682"><ele>1774.2</ele><time>2025-10-07T13:44:28Z</time></trkpt>
<trkpt lat="46.26118" lon="7.13677"><ele>1775</ele><time>2025-10-07T13:44:33Z</time></trkpt>
<trkpt lat="46.26115" lon="7.13672"><ele>1775.4</ele><time>2025-10-07T13:44:38Z</time></trkpt>
<trkpt lat="46.26114" lon="7.13671"><ele>1775.4</ele><time>2025-10-07T13:44:39Z</time></trkpt>
<trkpt lat="46.26111" lon="7.13665"><ele>1775.8</ele><time>2025-10-07T13:44:45Z</time></trkpt>
<trkpt lat="46.2611" lon="7.13658"><ele>1776.4</ele><time>2025-10-07T13:44:51Z</time></trkpt>
<trkpt lat="46.2611" lon="7.13644"><ele>1775.8</ele><time>2025-10-07T13:44:57Z</time></trkpt>
<trkpt lat="46.26106" lon="7.13627"><ele>1775.6</ele><time>2025-10-07T13:45:03Z</time></trkpt>
<trkpt lat="46.26101" lon="7.13607"><ele>1776</ele><time>2025-10-07T13:45:10Z</time></trkpt>
<trkpt lat="46.26097" lon="7.13591"><ele>1776.4</ele><time>2025-10-07T13:45:15Z</time></trkpt>
<trkpt lat="46.26096" lon="7.13584"><ele>1776.6</ele><time>2025-10-07T13:45:17Z</time></trkpt>
<trkpt lat="46.26094" lon="7.13572"><ele>1777.4</ele><time>2025-10-07T13:45:21Z</time></trkpt>
<trkpt lat="46.26091" lon="7.13566"><ele>1777.6</ele><time>2025-10-07T13:45:24Z</time></trkpt>
<trkpt lat="46.26084" lon="7.13548"><ele>1778.2</ele><time>2025-10-07T13:45:32Z</time></trkpt>
<trkpt lat="46.26082" lon="7.13545"><ele>1778.4</ele><time>2025-10-07T13:45:35Z</time></trkpt>
<trkpt lat="46.26081" lon="7.13542"><ele>1778.8</ele><time>2025-10-07T13:45:37Z</time></trkpt>
<trkpt lat="46.26079" lon="7.13536"><ele>1779.6</ele><time>2025-10-07T13:45:41Z</time></trkpt>
<trkpt lat="46.26078" lon="7.13535"><ele>1779.6</ele><time>2025-10-07T13:45:42Z</time></trkpt>
<trkpt lat="46.26074" lon="7.13525"><ele>1780</ele><time>2025-10-07T13:45:47Z</time></trkpt>
<trkpt lat="46.26071" lon="7.13515"><ele>1780.6</ele><time>2025-10-07T13:45:51Z</time></trkpt>
<trkpt lat="46.2607" lon="7.13508"><ele>1781.2</ele><time>2025-10-07T13:45:54Z</time></trkpt>
<trkpt lat="46.2607" lon="7.13503"><ele>1781.6</ele><time>2025-10-07T13:45:56Z</time></trkpt>
<trkpt lat="46.2607" lon="7.13492"><ele>1782.4</ele><time>2025-10-07T13:46:01Z</time></trkpt>
<trkpt lat="46.26074" lon="7.13477"><ele>1782.4</ele><time>2025-10-07T13:46:08Z</time></trkpt>
<trkpt lat="46.26087" lon="7.13459"><ele>1782</ele><time>2025-10-07T13:46:13Z</time></trkpt>
<trkpt lat="46.26096" lon="7.13453"><ele>1781.6</ele><time>2025-10-07T13:46:15Z</time></trkpt>
<trkpt lat="46.26107" lon="7.1345"><ele>1780.8</ele><time>2025-10-07T13:46:17Z</time></trkpt>
<trkpt lat="46.26112" lon="7.13447"><ele>1780.4</ele><time>2025-10-07T13:46:18Z</time></trkpt>
<trkpt lat="46.26127" lon="7.13439"><ele>1780</ele><time>2025-10-07T13:46:21Z</time></trkpt>
<trkpt lat="46.26132" lon="7.13434"><ele>1780</ele><time>2025-10-07T13:46:22Z</time></trkpt>
<trkpt lat="46.26146" lon="7.13415"><ele>1779.2</ele><time>2025-10-07T13:46:25Z</time></trkpt>
<trkpt lat="46.26149" lon="7.13407"><ele>1778.4</ele><time>2025-10-07T13:46:26Z</time></trkpt>
<trkpt lat="46.26151" lon="7.13401"><ele>1778.2</ele><time>2025-10-07T13:46:27Z</time></trkpt>
<trkpt lat="46.26156" lon="7.13391"><ele>1777.8</ele><time>2025-10-07T13:46:29Z</time></trkpt>
<trkpt lat="46.26162" lon="7.13381"><ele>1777.2</ele><time>2025-10-07T13:46:31Z</time></trkpt>
<trkpt lat="46.26165" lon="7.13377"><ele>1776.6</ele><time>2025-10-07T13:46:32Z</time></trkpt>
<trkpt lat="46.26168" lon="7.13372"><ele>1775.6</ele><time>2025-10-07T13:46:33Z</time></trkpt>
<trkpt lat="46.26173" lon="7.13364"><ele>1774</ele><time>2025-10-07T13:46:35Z</time></trkpt>
<trkpt lat="46.26177" lon="7.13361"><ele>1772.8</ele><time>2025-10-07T13:46:37Z</time></trkpt>
<trkpt lat="46.26177" lon="7.13362"><ele>1772.6</ele><time>2025-10-07T13:46:38Z</time></trkpt>
<trkpt lat="46.26178" lon="7.13361"><ele>1772.2</ele><time>2025-10-07T13:46:47Z</time></trkpt>
<trkpt lat="46.26182" lon="7.13359"><ele>1771.8</ele><time>2025-10-07T13:46:49Z</time></trkpt>
<trkpt lat="46.26189" lon="7.13357"><ele>1770.2</ele><time>2025-10-07T13:46:52Z</time></trkpt>
<trkpt lat="46.26191" lon="7.13357"><ele>1769.4</ele><time>2025-10-07T13:46:53Z</time></trkpt>
<trkpt lat="46.26194" lon="7.13357"><ele>1768.8</ele><time>2025-10-07T13:46:54Z</time></trkpt>
<trkpt lat="46.262" lon="7.13355"><ele>1767.4</ele><time>2025-10-07T13:46:56Z</time></trkpt>
<trkpt lat="46.26206" lon="7.13352"><ele>1766.2</ele><time>2025-10-07T13:46:58Z</time></trkpt>
<trkpt lat="46.26212" lon="7.1335"><ele>1764.8</ele><time>2025-10-07T13:47:00Z</time></trkpt>
<trkpt lat="46.26218" lon="7.1335"><ele>1763.2</ele><time>2025-10-07T13:47:02Z</time></trkpt>
<trkpt lat="46.26222" lon="7.1335"><ele>1761.8</ele><time>2025-10-07T13:47:04Z</time></trkpt>
<trkpt lat="46.26229" lon="7.1335"><ele>1760.6</ele><time>2025-10-07T13:47:07Z</time></trkpt>
<trkpt lat="46.26239" lon="7.13349"><ele>1759.4</ele><time>2025-10-07T13:47:10Z</time></trkpt>
<trkpt lat="46.26245" lon="7.13347"><ele>1758.2</ele><time>2025-10-07T13:47:12Z</time></trkpt>
<trkpt lat="46.26248" lon="7.13341"><ele>1756.6</ele><time>2025-10-07T13:47:14Z</time></trkpt>
<trkpt lat="46.26248" lon="7.13338"><ele>1756</ele><time>2025-10-07T13:47:15Z</time></trkpt>
<trkpt lat="46.26247" lon="7.13336"><ele>1755.4</ele><time>2025-10-07T13:47:16Z</time></trkpt>
<trkpt lat="46.26246" lon="7.13335"><ele>1755</ele><time>2025-10-07T13:47:17Z</time></trkpt>
<trkpt lat="46.26241" lon="7.13333"><ele>1754</ele><time>2025-10-07T13:47:19Z</time></trkpt>
<trkpt lat="46.26235" lon="7.13333"><ele>1752.6</ele><time>2025-10-07T13:47:21Z</time></trkpt>
<trkpt lat="46.26229" lon="7.13332"><ele>1751</ele><time>2025-10-07T13:47:23Z</time></trkpt>
<trkpt lat="46.26227" lon="7.13331"><ele>1750.4</ele><time>2025-10-07T13:47:24Z</time></trkpt>
<trkpt lat="46.26225" lon="7.1333"><ele>1749.8</ele><time>2025-10-07T13:47:25Z</time></trkpt>
<trkpt lat="46.26225" lon="7.13325"><ele>1748.6</ele><time>2025-10-07T13:47:27Z</time></trkpt>
<trkpt lat="46.26226" lon="7.13323"><ele>1748.2</ele><time>2025-10-07T13:47:28Z</time></trkpt>
<trkpt lat="46.26228" lon="7.13321"><ele>1747.8</ele><time>2025-10-07T13:47:29Z</time></trkpt>
<trkpt lat="46.26231" lon="7.13319"><ele>1747.2</ele><time>2025-10-07T13:47:30Z</time></trkpt>
<trkpt lat="46.26237" lon="7.13316"><ele>1745.6</ele><time>2025-10-07T13:47:32Z</time></trkpt>
<trkpt lat="46.26242" lon="7.13315"><ele>1744.6</ele><time>2025-10-07T13:47:33Z</time></trkpt>
<trkpt lat="46.26246" lon="7.13313"><ele>1743.6</ele><time>2025-10-07T13:47:34Z</time></trkpt>
<trkpt lat="46.26258" lon="7.13312"><ele>1741.4</ele><time>2025-10-07T13:47:36Z</time></trkpt>
<trkpt lat="46.26264" lon="7.1331"><ele>1740.2</ele><time>2025-10-07T13:47:37Z</time></trkpt>
<trkpt lat="46.26271" lon="7.13309"><ele>1739.2</ele><time>2025-10-07T13:47:38Z</time></trkpt>
<trkpt lat="46.26277" lon="7.13307"><ele>1738.2</ele><time>2025-10-07T13:47:39Z</time></trkpt>
<trkpt lat="46.26288" lon="7.13302"><ele>1736.8</ele><time>2025-10-07T13:47:41Z</time></trkpt>
<trkpt lat="46.26296" lon="7.13297"><ele>1735.4</ele><time>2025-10-07T13:47:43Z</time></trkpt>
<trkpt lat="46.26302" lon="7.13294"><ele>1734.4</ele><time>2025-10-07T13:47:45Z</time></trkpt>
<trkpt lat="46.26305" lon="7.13294"><ele>1734</ele><time>2025-10-07T13:47:46Z</time></trkpt>
<trkpt lat="46.26316" lon="7.13294"><ele>1733.2</ele><time>2025-10-07T13:47:49Z</time></trkpt>
<trkpt lat="46.2632" lon="7.13293"><ele>1732.8</ele><time>2025-10-07T13:47:50Z</time></trkpt>
<trkpt lat="46.26331" lon="7.13295"><ele>1732</ele><time>2025-10-07T13:47:52Z</time></trkpt>
<trkpt lat="46.26335" lon="7.13295"><ele>1731.4</ele><time>2025-10-07T13:47:53Z</time></trkpt>
<trkpt lat="46.2634" lon="7.13297"><ele>1730.8</ele><time>2025-10-07T13:47:54Z</time></trkpt>
<trkpt lat="46.26344" lon="7.13299"><ele>1730.2</ele><time>2025-10-07T13:47:55Z</time></trkpt>
<trkpt lat="46.26355" lon="7.13304"><ele>1729</ele><time>2025-10-07T13:47:58Z</time></trkpt>
<trkpt lat="46.26361" lon="7.13307"><ele>1728.8</ele><time>2025-10-07T13:48:00Z</time></trkpt>
<trkpt lat="46.26376" lon="7.1331"><ele>1728.6</ele><time>2025-10-07T13:48:04Z</time></trkpt>
<trkpt lat="46.26386" lon="7.13311"><ele>1727.8</ele><time>2025-10-07T13:48:07Z</time></trkpt>
<trkpt lat="46.26393" lon="7.13313"><ele>1727.4</ele><time>2025-10-07T13:48:10Z</time></trkpt>
<trkpt lat="46.26407" lon="7.13319"><ele>1727</ele><time>2025-10-07T13:48:17Z</time></trkpt>
<trkpt lat="46.26413" lon="7.13318"><ele>1726.6</ele><time>2025-10-07T13:48:19Z</time></trkpt>
<trkpt lat="46.26421" lon="7.13318"><ele>1726</ele><time>2025-10-07T13:48:22Z</time></trkpt>
<trkpt lat="46.26432" lon="7.13324"><ele>1726</ele><time>2025-10-07T13:48:27Z</time></trkpt>
<trkpt lat="46.26437" lon="7.13329"><ele>1726.4</ele><time>2025-10-07T13:48:30Z</time></trkpt>
<trkpt lat="46.2644" lon="7.13332"><ele>1726.6</ele><time>2025-10-07T13:48:33Z</time></trkpt>
<trkpt lat="46.26443" lon="7.13334"><ele>1726.6</ele><time>2025-10-07T13:48:35Z</time></trkpt>
<trkpt lat="46.26448" lon="7.13334"><ele>1726.8</ele><time>2025-10-07T13:48:38Z</time></trkpt>
<trkpt lat="46.26449" lon="7.13335"><ele>1726.8</ele><time>2025-10-07T13:48:39Z</time></trkpt>
<trkpt lat="46.26459" lon="7.13336"><ele>1727.4</ele><time>2025-10-07T13:48:45Z</time></trkpt>
<trkpt lat="46.26462" lon="7.13336"><ele>1727.6</ele><time>2025-10-07T13:48:47Z</time></trkpt>
<trkpt lat="46.26467" lon="7.13335"><ele>1728</ele><time>2025-10-07T13:48:50Z</time></trkpt>
<trkpt lat="46.2647" lon="7.13335"><ele>1728.4</ele><time>2025-10-07T13:48:52Z</time></trkpt>
<trkpt lat="46.26472" lon="7.13334"><ele>1728.6</ele><time>2025-10-07T13:48:54Z</time></trkpt>
<trkpt lat="46.26474" lon="7.13333"><ele>1729</ele><time>2025-10-07T13:48:56Z</time></trkpt>
<trkpt lat="46.26477" lon="7.1333"><ele>1729.8</ele><time>2025-10-07T13:49:00Z</time></trkpt>
<trkpt lat="46.26478" lon="7.13329"><ele>1730</ele><time>2025-10-07T13:49:01Z</time></trkpt>
<trkpt lat="46.26483" lon="7.13325"><ele>1730.6</ele><time>2025-10-07T13:49:06Z</time></trkpt>
<trkpt lat="46.26484" lon="7.13324"><ele>1730.6</ele><time>2025-10-07T13:49:07Z</time></trkpt>
<trkpt lat="46.26485" lon="7.13323"><ele>1730.6</ele><time>2025-10-07T13:49:08Z</time></trkpt>
<trkpt lat="46.26491" lon="7.13318"><ele>1730.6</ele><time>2025-10-07T13:49:13Z</time></trkpt>
<trkpt lat="46.26493" lon="7.13315"><ele>1730.8</ele><time>2025-10-07T13:49:15Z</time></trkpt>
<trkpt lat="46.26499" lon="7.13301"><ele>1731.4</ele><time>2025-10-07T13:49:25Z</time></trkpt>
<trkpt lat="46.26499" lon="7.13298"><ele>1731.2</ele><time>2025-10-07T13:49:27Z</time></trkpt>
<trkpt lat="46.26499" lon="7.13294"><ele>1731</ele><time>2025-10-07T13:49:29Z</time></trkpt>
<trkpt lat="46.26503" lon="7.13274"><ele>1729.8</ele><time>2025-10-07T13:49:36Z</time></trkpt>
<trkpt lat="46.26505" lon="7.13258"><ele>1728.4</ele><time>2025-10-07T13:49:41Z</time></trkpt>
<trkpt lat="46.26503" lon="7.13251"><ele>1727.8</ele><time>2025-10-07T13:49:43Z</time></trkpt>
<trkpt lat="46.26502" lon="7.13247"><ele>1727.4</ele><time>2025-10-07T13:49:44Z</time></trkpt>
<trkpt lat="46.26497" lon="7.13238"><ele>1726</ele><time>2025-10-07T13:49:47Z</time></trkpt>
<trkpt lat="46.26495" lon="7.13235"><ele>1725.4</ele><time>2025-10-07T13:49:48Z</time></trkpt>
<trkpt lat="46.26493" lon="7.13232"><ele>1724.8</ele><time>2025-10-07T13:49:49Z</time></trkpt>
<trkpt lat="46.26487" lon="7.13222"><ele>1723.4</ele><time>2025-10-07T13:49:52Z</time></trkpt>
<trkpt lat="46.26483" lon="7.13216"><ele>1722</ele><time>2025-10-07T13:49:54Z</time></trkpt>
<trkpt lat="46.2648" lon="7.13208"><ele>1720.6</ele><time>2025-10-07T13:49:56Z</time></trkpt>
<trkpt lat="46.26478" lon="7.13199"><ele>1719.4</ele><time>2025-10-07T13:49:58Z</time></trkpt>
<trkpt lat="46.26478" lon="7.13195"><ele>1719</ele><time>2025-10-07T13:49:59Z</time></trkpt>
<trkpt lat="46.26477" lon="7.13192"><ele>1718.4</ele><time>2025-10-07T13:50:00Z</time></trkpt>
<trkpt lat="46.26476" lon="7.13187"><ele>1717.6</ele><time>2025-10-07T13:50:02Z</time></trkpt>
<trkpt lat="46.26475" lon="7.13183"><ele>1717.2</ele><time>2025-10-07T13:50:03Z</time></trkpt>
<trkpt lat="46.26474" lon="7.1318"><ele>1716.8</ele><time>2025-10-07T13:50:04Z</time></trkpt>
<trkpt lat="46.26472" lon="7.1317"><ele>1716</ele><time>2025-10-07T13:50:06Z</time></trkpt>
<trkpt lat="46.2647" lon="7.13161"><ele>1714.2</ele><time>2025-10-07T13:50:08Z</time></trkpt>
<trkpt lat="46.2647" lon="7.13156"><ele>1713.4</ele><time>2025-10-07T13:50:09Z</time></trkpt>
<trkpt lat="46.26469" lon="7.13151"><ele>1712.8</ele><time>2025-10-07T13:50:10Z</time></trkpt>
<trkpt lat="46.26468" lon="7.13142"><ele>1711.4</ele><time>2025-10-07T13:50:12Z</time></trkpt>
<trkpt lat="46.26467" lon="7.13132"><ele>1710.2</ele><time>2025-10-07T13:50:14Z</time></trkpt>
<trkpt lat="46.26464" lon="7.13122"><ele>1708.8</ele><time>2025-10-07T13:50:16Z</time></trkpt>
<trkpt lat="46.26462" lon="7.13112"><ele>1707.2</ele><time>2025-10-07T13:50:18Z</time></trkpt>
<trkpt lat="46.26454" lon="7.13104"><ele>1705.8</ele><time>2025-10-07T13:50:21Z</time></trkpt>
<trkpt lat="46.26449" lon="7.13097"><ele>1704.4</ele><time>2025-10-07T13:50:23Z</time></trkpt>
<trkpt lat="46.26441" lon="7.13086"><ele>1703</ele><time>2025-10-07T13:50:26Z</time></trkpt>
<trkpt lat="46.26435" lon="7.13079"><ele>1701.8</ele><time>2025-10-07T13:50:28Z</time></trkpt>
<trkpt lat="46.26428" lon="7.1307"><ele>1700.2</ele><time>2025-10-07T13:50:31Z</time></trkpt>
<trkpt lat="46.26425" lon="7.13066"><ele>1699.8</ele><time>2025-10-07T13:50:32Z</time></trkpt>
<trkpt lat="46.2642" lon="7.13058"><ele>1698.6</ele><time>2025-10-07T13:50:34Z</time></trkpt>
<trkpt lat="46.26416" lon="7.13049"><ele>1697</ele><time>2025-10-07T13:50:36Z</time></trkpt>
<trkpt lat="46.26413" lon="7.13048"><ele>1696.2</ele><time>2025-10-07T13:50:37Z</time></trkpt>
<trkpt lat="46.26411" lon="7.13049"><ele>1695.4</ele><time>2025-10-07T13:50:38Z</time></trkpt>
<trkpt lat="46.26413" lon="7.13056"><ele>1694.8</ele><time>2025-10-07T13:50:41Z</time></trkpt>
<trkpt lat="46.26416" lon="7.13065"><ele>1694.4</ele><time>2025-10-07T13:50:43Z</time></trkpt>
<trkpt lat="46.26418" lon="7.13074"><ele>1693.6</ele><time>2025-10-07T13:50:45Z</time></trkpt>
<trkpt lat="46.2642" lon="7.13089"><ele>1693</ele><time>2025-10-07T13:50:48Z</time></trkpt>
<trkpt lat="46.26419" lon="7.13104"><ele>1691.8</ele><time>2025-10-07T13:50:51Z</time></trkpt>
<trkpt lat="46.26412" lon="7.13118"><ele>1690.8</ele><time>2025-10-07T13:50:55Z</time></trkpt>
<trkpt lat="46.26409" lon="7.13122"><ele>1690.4</ele><time>2025-10-07T13:50:56Z</time></trkpt>
<trkpt lat="46.26405" lon="7.13128"><ele>1689.6</ele><time>2025-10-07T13:50:58Z</time></trkpt>
<trkpt lat="46.26398" lon="7.13139"><ele>1688.4</ele><time>2025-10-07T13:51:01Z</time></trkpt>
<trkpt lat="46.26396" lon="7.13143"><ele>1688</ele><time>2025-10-07T13:51:02Z</time></trkpt>
<trkpt lat="46.26394" lon="7.13146"><ele>1687.4</ele><time>2025-10-07T13:51:03Z</time></trkpt>
<trkpt lat="46.26388" lon="7.13147"><ele>1686.4</ele><time>2025-10-07T13:51:05Z</time></trkpt>
<trkpt lat="46.26387" lon="7.13144"><ele>1685.8</ele><time>2025-10-07T13:51:06Z</time></trkpt>
<trkpt lat="46.26385" lon="7.13137"><ele>1685</ele><time>2025-10-07T13:51:08Z</time></trkpt>
<trkpt lat="46.26382" lon="7.13129"><ele>1684.2</ele><time>2025-10-07T13:51:10Z</time></trkpt>
<trkpt lat="46.26381" lon="7.13125"><ele>1684</ele><time>2025-10-07T13:51:11Z</time></trkpt>
<trkpt lat="46.26379" lon="7.13117"><ele>1683.2</ele><time>2025-10-07T13:51:13Z</time></trkpt>
<trkpt lat="46.26378" lon="7.13112"><ele>1682.8</ele><time>2025-10-07T13:51:14Z</time></trkpt>
<trkpt lat="46.26376" lon="7.13103"><ele>1681.8</ele><time>2025-10-07T13:51:16Z</time></trkpt>
<trkpt lat="46.26374" lon="7.13092"><ele>1680.6</ele><time>2025-10-07T13:51:18Z</time></trkpt>
<trkpt lat="46.26372" lon="7.13078"><ele>1679.2</ele><time>2025-10-07T13:51:20Z</time></trkpt>
<trkpt lat="46.26372" lon="7.13071"><ele>1678.6</ele><time>2025-10-07T13:51:21Z</time></trkpt>
<trkpt lat="46.26371" lon="7.13062"><ele>1678</ele><time>2025-10-07T13:51:23Z</time></trkpt>
<trkpt lat="46.26371" lon="7.1306"><ele>1677.6</ele><time>2025-10-07T13:51:24Z</time></trkpt>
<trkpt lat="46.26368" lon="7.13041"><ele>1677.2</ele><time>2025-10-07T13:51:30Z</time></trkpt>
<trkpt lat="46.26366" lon="7.13025"><ele>1677.6</ele><time>2025-10-07T13:51:35Z</time></trkpt>
<trkpt lat="46.26366" lon="7.13021"><ele>1677.6</ele><time>2025-10-07T13:51:36Z</time></trkpt>
<trkpt lat="46.26362" lon="7.12991"><ele>1678.4</ele><time>2025-10-07T13:51:45Z</time></trkpt>
<trkpt lat="46.26362" lon="7.1298"><ele>1678.4</ele><time>2025-10-07T13:51:48Z</time></trkpt>
<trkpt lat="46.26363" lon="7.12966"><ele>1678.8</ele><time>2025-10-07T13:51:52Z</time></trkpt>
<trkpt lat="46.26362" lon="7.12953"><ele>1678.8</ele><time>2025-10-07T13:51:56Z</time></trkpt>
<trkpt lat="46.26362" lon="7.12951"><ele>1679</ele><time>2025-10-07T13:51:57Z</time></trkpt>
<trkpt lat="46.26362" lon="7.12948"><ele>1679</ele><time>2025-10-07T13:51:58Z</time></trkpt>
<trkpt lat="46.26358" lon="7.12931"><ele>1678.8</ele><time>2025-10-07T13:52:05Z</time></trkpt>
<trkpt lat="46.2635" lon="7.1292"><ele>1677.8</ele><time>2025-10-07T13:52:10Z</time></trkpt>
<trkpt lat="46.26349" lon="7.12918"><ele>1677.6</ele><time>2025-10-07T13:52:11Z</time></trkpt>
<trkpt lat="46.26345" lon="7.12911"><ele>1676.8</ele><time>2025-10-07T13:52:15Z</time></trkpt>
<trkpt lat="46.26344" lon="7.12909"><ele>1676.4</ele><time>2025-10-07T13:52:17Z</time></trkpt>
<trkpt lat="46.26344" lon="7.12908"><ele>1675.6</ele><time>2025-10-07T13:52:26Z</time></trkpt>
<trkpt lat="46.26344" lon="7.12908"><ele>1675.6</ele><time>2025-10-07T13:52:27Z</time></trkpt>
<trkpt lat="46.26344" lon="7.12908"><ele>1675.2</ele><time>2025-10-07T13:52:42Z</time></trkpt>
<trkpt lat="46.26344" lon="7.12908"><ele>1675.6</ele><time>2025-10-07T13:52:58Z</time></trkpt>
<trkpt lat="46.26344" lon="7.12908"><ele>1675.4</ele><time>2025-10-07T13:53:11Z</time></trkpt>
<trkpt lat="46.26344" lon="7.12908"><ele>1675.6</ele><time>2025-10-07T13:53:23Z</time></trkpt>
<trkpt lat="46.26344" lon="7.12908"><ele>1675.2</ele><time>2025-10-07T13:53:28Z</time></trkpt>
<trkpt lat="46.26344" lon="7.12908"><ele>1675.2</ele><time>2025-10-07T13:53:35Z</time></trkpt>
<trkpt lat="46.26344" lon="7.12908"><ele>1675.2</ele><time>2025-10-07T13:53:47Z</time></trkpt>
<trkpt lat="46.26344" lon="7.12908"><ele>1675.6</ele><time>2025-10-07T13:53:54Z</time></trkpt>
<trkpt lat="46.26344" lon="7.12909"><ele>1675</ele><time>2025-10-07T13:54:00Z</time></trkpt>
<trkpt lat="46.26344" lon="7.12908"><ele>1675</ele><time>2025-10-07T13:54:07Z</time></trkpt>
<trkpt lat="46.26344" lon="7.12908"><ele>1674.8</ele><time>2025-10-07T13:54:13Z</time></trkpt>
<trkpt lat="46.26344" lon="7.12908"><ele>1674.8</ele><time>2025-10-07T13:54:14Z</time></trkpt>
<trkpt lat="46.26343" lon="7.12907"><ele>1674.6</ele><time>2025-10-07T13:54:16Z</time></trkpt>
<trkpt lat="46.26342" lon="7.12906"><ele>1674.6</ele><time>2025-10-07T13:54:17Z</time></trkpt>
<trkpt lat="46.26341" lon="7.12905"><ele>1674</ele><time>2025-10-07T13:54:21Z</time></trkpt>
<trkpt lat="46.26341" lon="7.12903"><ele>1673.8</ele><time>2025-10-07T13:54:27Z</time></trkpt>
<trkpt lat="46.2634" lon="7.12899"><ele>1673.6</ele><time>2025-10-07T13:54:34Z</time></trkpt>
<trkpt lat="46.2634" lon="7.12899"><ele>1673.6</ele><time>2025-10-07T13:54:35Z</time></trkpt>
<trkpt lat="46.2634" lon="7.12899"><ele>1673.4</ele><time>2025-10-07T13:54:39Z</time></trkpt>
<trkpt lat="46.2634" lon="7.12899"><ele>1673.4</ele><time>2025-10-07T13:54:40Z</time></trkpt>
<trkpt lat="46.2634" lon="7.12897"><ele>1673.4</ele><time>2025-10-07T13:54:43Z</time></trkpt>
<trkpt lat="46.26339" lon="7.12895"><ele>1673</ele><time>2025-10-07T13:54:47Z</time></trkpt>
<trkpt lat="46.26339" lon="7.12894"><ele>1673.2</ele><time>2025-10-07T13:54:56Z</time></trkpt>
<trkpt lat="46.26339" lon="7.12894"><ele>1673.2</ele><time>2025-10-07T13:54:58Z</time></trkpt>
<trkpt lat="46.2634" lon="7.12897"><ele>1673.4</ele><time>2025-10-07T13:55:00Z</time></trkpt>
<trkpt lat="46.26344" lon="7.12908"><ele>1674.2</ele><time>2025-10-07T13:55:04Z</time></trkpt>
<trkpt lat="46.26345" lon="7.1291"><ele>1674.6</ele><time>2025-10-07T13:55:06Z</time></trkpt>
<trkpt lat="46.26345" lon="7.1291"><ele>1674.8</ele><time>2025-10-07T13:55:08Z</time></trkpt>
<trkpt lat="46.26349" lon="7.12918"><ele>1675.6</ele><time>2025-10-07T13:55:13Z</time></trkpt>
<trkpt lat="46.2635" lon="7.12919"><ele>1676</ele><time>2025-10-07T13:55:14Z</time></trkpt>
<trkpt lat="46.26351" lon="7.1292"><ele>1676.2</ele><time>2025-10-07T13:55:18Z</time></trkpt>
<trkpt lat="46.2635" lon="7.12918"><ele>1676.2</ele><time>2025-10-07T13:55:23Z</time></trkpt>
<trkpt lat="46.26348" lon="7.12916"><ele>1676.2</ele><time>2025-10-07T13:55:24Z</time></trkpt>
<trkpt lat="46.26344" lon="7.12908"><ele>1675.6</ele><time>2025-10-07T13:55:26Z</time></trkpt>
<trkpt lat="46.26339" lon="7.12897"><ele>1675</ele><time>2025-10-07T13:55:28Z</time></trkpt>
<trkpt lat="46.26335" lon="7.12892"><ele>1674</ele><time>2025-10-07T13:55:29Z</time></trkpt>
<trkpt lat="46.2633" lon="7.12884"><ele>1672.4</ele><time>2025-10-07T13:55:31Z</time></trkpt>
<trkpt lat="46.2633" lon="7.12883"><ele>1671.4</ele><time>2025-10-07T13:55:32Z</time></trkpt>
<trkpt lat="46.2633" lon="7.12884"><ele>1671.2</ele><time>2025-10-07T13:55:33Z</time></trkpt>
<trkpt lat="46.26331" lon="7.12885"><ele>1670.6</ele><time>2025-10-07T13:55:36Z</time></trkpt>
<trkpt lat="46.26331" lon="7.12885"><ele>1670.8</ele><time>2025-10-07T13:55:37Z</time></trkpt>
<trkpt lat="46.26334" lon="7.12889"><ele>1671.6</ele><time>2025-10-07T13:55:41Z</time></trkpt>
<trkpt lat="46.26337" lon="7.12893"><ele>1672.2</ele><time>2025-10-07T13:55:45Z</time></trkpt>
<trkpt lat="46.26337" lon="7.12893"><ele>1672.6</ele><time>2025-10-07T13:55:50Z</time></trkpt>
<trkpt lat="46.26338" lon="7.12894"><ele>1672.6</ele><time>2025-10-07T13:55:58Z</time></trkpt>
<trkpt lat="46.26339" lon="7.12895"><ele>1672.6</ele><time>2025-10-07T13:55:59Z</time></trkpt>
<trkpt lat="46.26343" lon="7.12902"><ele>1673.4</ele><time>2025-10-07T13:56:04Z</time></trkpt>
<trkpt lat="46.26343" lon="7.12902"><ele>1673.6</ele><time>2025-10-07T13:56:05Z</time></trkpt>
<trkpt lat="46.2634" lon="7.12896"><ele>1672.8</ele><time>2025-10-07T13:56:11Z</time></trkpt>
<trkpt lat="46.2634" lon="7.12895"><ele>1672.4</ele><time>2025-10-07T13:56:15Z</time></trkpt>
<trkpt lat="46.2634" lon="7.12895"><ele>1672.2</ele><time>2025-10-07T13:56:18Z</time></trkpt>
<trkpt lat="46.2634" lon="7.12895"><ele>1672.2</ele><time>2025-10-07T13:56:24Z</time></trkpt>
<trkpt lat="46.26339" lon="7.12895"><ele>1672.4</ele><time>2025-10-07T13:56:28Z</time></trkpt>
<trkpt lat="46.26339" lon="7.12895"><ele>1672.4</ele><time>2025-10-07T13:56:29Z</time></trkpt>
<trkpt lat="46.26342" lon="7.12901"><ele>1673</ele><time>2025-10-07T13:56:32Z</time></trkpt>
<trkpt lat="46.26342" lon="7.12901"><ele>1673.2</ele><time>2025-10-07T13:56:33Z</time></trkpt>
<trkpt lat="46.26342" lon="7.12902"><ele>1673.4</ele><time>2025-10-07T13:56:34Z</time></trkpt>
<trkpt lat="46.26344" lon="7.12906"><ele>1674</ele><time>2025-10-07T13:56:38Z</time></trkpt>
<trkpt lat="46.26343" lon="7.12904"><ele>1674.2</ele><time>2025-10-07T13:56:46Z</time></trkpt>
<trkpt lat="46.26336" lon="7.12894"><ele>1673.6</ele><time>2025-10-07T13:56:49Z</time></trkpt>
<trkpt lat="46.26328" lon="7.12883"><ele>1672</ele><time>2025-10-07T13:56:51Z</time></trkpt>
<trkpt lat="46.26322" lon="7.12874"><ele>1670.4</ele><time>2025-10-07T13:56:53Z</time></trkpt>
<trkpt lat="46.2632" lon="7.12868"><ele>1669.2</ele><time>2025-10-07T13:56:55Z</time></trkpt>
<trkpt lat="46.2632" lon="7.12868"><ele>1668.4</ele><time>2025-10-07T13:56:57Z</time></trkpt>
<trkpt lat="46.26321" lon="7.12869"><ele>1668.2</ele><time>2025-10-07T13:56:59Z</time></trkpt>
<trkpt lat="46.26323" lon="7.12874"><ele>1668.4</ele><time>2025-10-07T13:57:02Z</time></trkpt>
<trkpt lat="46.26327" lon="7.12879"><ele>1669.4</ele><time>2025-10-07T13:57:06Z</time></trkpt>
<trkpt lat="46.26331" lon="7.12883"><ele>1670</ele><time>2025-10-07T13:57:09Z</time></trkpt>
<trkpt lat="46.26332" lon="7.12886"><ele>1670.4</ele><time>2025-10-07T13:57:11Z</time></trkpt>
<trkpt lat="46.26335" lon="7.1289"><ele>1671</ele><time>2025-10-07T13:57:15Z</time></trkpt>
<trkpt lat="46.26337" lon="7.12892"><ele>1671.4</ele><time>2025-10-07T13:57:17Z</time></trkpt>
<trkpt lat="46.26339" lon="7.12892"><ele>1671.6</ele><time>2025-10-07T13:57:18Z</time></trkpt>
<trkpt lat="46.26339" lon="7.12892"><ele>1672.2</ele><time>2025-10-07T13:57:20Z</time></trkpt>
<trkpt lat="46.26339" lon="7.12892"><ele>1672.6</ele><time>2025-10-07T13:57:21Z</time></trkpt>
<trkpt lat="46.26338" lon="7.12891"><ele>1672.6</ele><time>2025-10-07T13:57:25Z</time></trkpt>
<trkpt lat="46.26334" lon="7.12886"><ele>1672.2</ele><time>2025-10-07T13:57:30Z</time></trkpt>
<trkpt lat="46.26332" lon="7.12884"><ele>1671.6</ele><time>2025-10-07T13:57:32Z</time></trkpt>
<trkpt lat="46.26328" lon="7.12882"><ele>1671.2</ele><time>2025-10-07T13:57:36Z</time></trkpt>
<trkpt lat="46.26327" lon="7.12881"><ele>1671</ele><time>2025-10-07T13:57:37Z</time></trkpt>
<trkpt lat="46.26326" lon="7.1288"><ele>1670.6</ele><time>2025-10-07T13:57:38Z</time></trkpt>
<trkpt lat="46.26324" lon="7.12875"><ele>1670</ele><time>2025-10-07T13:57:42Z</time></trkpt>
<trkpt lat="46.26323" lon="7.1287"><ele>1669.4</ele><time>2025-10-07T13:57:45Z</time></trkpt>
<trkpt lat="46.26322" lon="7.12869"><ele>1669</ele><time>2025-10-07T13:57:47Z</time></trkpt>
<trkpt lat="46.26322" lon="7.12869"><ele>1669</ele><time>2025-10-07T13:57:53Z</time></trkpt>
<trkpt lat="46.26322" lon="7.12869"><ele>1668.8</ele><time>2025-10-07T13:57:55Z</time></trkpt>
<trkpt lat="46.26322" lon="7.12869"><ele>1668.6</ele><time>2025-10-07T13:57:58Z</time></trkpt>
<trkpt lat="46.26322" lon="7.12869"><ele>1669</ele><time>2025-10-07T13:58:09Z</time></trkpt>
<trkpt lat="46.26321" lon="7.12867"><ele>1668.8</ele><time>2025-10-07T13:58:15Z</time></trkpt>
<trkpt lat="46.26321" lon="7.12867"><ele>1668.8</ele><time>2025-10-07T13:58:19Z</time></trkpt>
<trkpt lat="46.26321" lon="7.12867"><ele>1668.6</ele><time>2025-10-07T13:58:21Z</time></trkpt>
<trkpt lat="46.26321" lon="7.12867"><ele>1668.6</ele><time>2025-10-07T13:58:24Z</time></trkpt>
<trkpt lat="46.2632" lon="7.12867"><ele>1668.6</ele><time>2025-10-07T13:58:31Z</time></trkpt>
<trkpt lat="46.26321" lon="7.12867"><ele>1668.6</ele><time>2025-10-07T13:58:38Z</time></trkpt>
<trkpt lat="46.26321" lon="7.12867"><ele>1668.4</ele><time>2025-10-07T13:58:48Z</time></trkpt>
<trkpt lat="46.26321" lon="7.12867"><ele>1668.4</ele><time>2025-10-07T13:59:01Z</time></trkpt>
<trkpt lat="46.26321" lon="7.12867"><ele>1668.4</ele><time>2025-10-07T13:59:07Z</time></trkpt>
<trkpt lat="46.26321" lon="7.12867"><ele>1668.4</ele><time>2025-10-07T13:59:10Z</time></trkpt>
<trkpt lat="46.26321" lon="7.12867"><ele>1668.4</ele><time>2025-10-07T13:59:12Z</time></trkpt>
<trkpt lat="46.26321" lon="7.12867"><ele>1668.4</ele><time>2025-10-07T13:59:13Z</time></trkpt>
<trkpt lat="46.26321" lon="7.12867"><ele>1668.4</ele><time>2025-10-07T13:59:27Z</time></trkpt>
<trkpt lat="46.26321" lon="7.12867"><ele>1668.4</ele><time>2025-10-07T13:59:35Z</time></trkpt>
<trkpt lat="46.26321" lon="7.12867"><ele>1668.4</ele><time>2025-10-07T13:59:43Z</time></trkpt>
<trkpt lat="46.2632" lon="7.12866"><ele>1668.4</ele><time>2025-10-07T13:59:55Z</time></trkpt>
<trkpt lat="46.2632" lon="7.12866"><ele>1668.4</ele><time>2025-10-07T14:00:01Z</time></trkpt>
<trkpt lat="46.2632" lon="7.12866"><ele>1668.4</ele><time>2025-10-07T14:00:06Z</time></trkpt>
<trkpt lat="46.2632" lon="7.12867"><ele>1668.4</ele><time>2025-10-07T14:00:14Z</time></trkpt>
<trkpt lat="46.2632" lon="7.12868"><ele>1668.4</ele><time>2025-10-07T14:00:19Z</time></trkpt>
<trkpt lat="46.26319" lon="7.12868"><ele>1668.4</ele><time>2025-10-07T14:00:25Z</time></trkpt>
<trkpt lat="46.26319" lon="7.12869"><ele>1668.4</ele><time>2025-10-07T14:00:27Z</time></trkpt>
<trkpt lat="46.26321" lon="7.12869"><ele>1668.4</ele><time>2025-10-07T14:00:30Z</time></trkpt>
<trkpt lat="46.26322" lon="7.1287"><ele>1668.4</ele><time>2025-10-07T14:00:35Z</time></trkpt>
<trkpt lat="46.26322" lon="7.1287"><ele>1668.4</ele><time>2025-10-07T14:00:40Z</time></trkpt>
<trkpt lat="46.26322" lon="7.1287"><ele>1668.4</ele><time>2025-10-07T14:00:42Z</time></trkpt>
<trkpt lat="46.26322" lon="7.1287"><ele>1668.4</ele><time>2025-10-07T14:00:47Z</time></trkpt>
<trkpt lat="46.26322" lon="7.1287"><ele>1668.4</ele><time>2025-10-07T14:00:56Z</time></trkpt>
<trkpt lat="46.26322" lon="7.1287"><ele>1668.4</ele><time>2025-10-07T14:01:03Z</time></trkpt>
<trkpt lat="46.26322" lon="7.12868"><ele>1668.4</ele><time>2025-10-07T14:01:04Z</time></trkpt>
<trkpt lat="46.26322" lon="7.12869"><ele>1668.4</ele><time>2025-10-07T14:01:06Z</time></trkpt>
<trkpt lat="46.26322" lon="7.1287"><ele>1668.4</ele><time>2025-10-07T14:01:11Z</time></trkpt>
<trkpt lat="46.26321" lon="7.1287"><ele>1668.4</ele><time>2025-10-07T14:01:17Z</time></trkpt>
<trkpt lat="46.26322" lon="7.1287"><ele>1668.4</ele><time>2025-10-07T14:01:22Z</time></trkpt>
<trkpt lat="46.26322" lon="7.12868"><ele>1668.4</ele><time>2025-10-07T14:01:27Z</time></trkpt>
<trkpt lat="46.26322" lon="7.12868"><ele>1668.4</ele><time>2025-10-07T14:01:28Z</time></trkpt>
<trkpt lat="46.26322" lon="7.12868"><ele>1668.4</ele><time>2025-10-07T14:01:34Z</time></trkpt>
<trkpt lat="46.26322" lon="7.12868"><ele>1668.4</ele><time>2025-10-07T14:01:35Z</time></trkpt>
<trkpt lat="46.26322" lon="7.12868"><ele>1668.4</ele><time>2025-10-07T14:01:36Z</time></trkpt>
<trkpt lat="46.26322" lon="7.12868"><ele>1668.4</ele><time>2025-10-07T14:01:39Z</time></trkpt>
<trkpt lat="46.26322" lon="7.12868"><ele>1668.4</ele><time>2025-10-07T14:01:44Z</time></trkpt>
<trkpt lat="46.26322" lon="7.12868"><ele>1668.4</ele><time>2025-10-07T14:01:51Z</time></trkpt>
<trkpt lat="46.26321" lon="7.12869"><ele>1668.4</ele><time>2025-10-07T14:01:56Z</time></trkpt>
<trkpt lat="46.2632" lon="7.12868"><ele>1668.4</ele><time>2025-10-07T14:02:02Z</time></trkpt>
<trkpt lat="46.2632" lon="7.12868"><ele>1668.4</ele><time>2025-10-07T14:02:05Z</time></trkpt>
<trkpt lat="46.2632" lon="7.12867"><ele>1668.4</ele><time>2025-10-07T14:02:08Z</time></trkpt>
<trkpt lat="46.26317" lon="7.12861"><ele>1668.8</ele><time>2025-10-07T14:02:13Z</time></trkpt>
<trkpt lat="46.26317" lon="7.1286"><ele>1667.8</ele><time>2025-10-07T14:02:19Z</time></trkpt>
<trkpt lat="46.26317" lon="7.1286"><ele>1668.4</ele><time>2025-10-07T14:02:28Z</time></trkpt>
<trkpt lat="46.26314" lon="7.12854"><ele>1668.2</ele><time>2025-10-07T14:02:31Z</time></trkpt>
<trkpt lat="46.26305" lon="7.12838"><ele>1667</ele><time>2025-10-07T14:02:34Z</time></trkpt>
<trkpt lat="46.26301" lon="7.12833"><ele>1666.6</ele><time>2025-10-07T14:02:35Z</time></trkpt>
<trkpt lat="46.26297" lon="7.12828"><ele>1666</ele><time>2025-10-07T14:02:36Z</time></trkpt>
<trkpt lat="46.26294" lon="7.12822"><ele>1665.2</ele><time>2025-10-07T14:02:37Z</time></trkpt>
<trkpt lat="46.26292" lon="7.12814"><ele>1664.6</ele><time>2025-10-07T14:02:38Z</time></trkpt>
<trkpt lat="46.26289" lon="7.12806"><ele>1663.8</ele><time>2025-10-07T14:02:39Z</time></trkpt>
<trkpt lat="46.26285" lon="7.12797"><ele>1662.6</ele><time>2025-10-07T14:02:40Z</time></trkpt>
<trkpt lat="46.26278" lon="7.12778"><ele>1660.6</ele><time>2025-10-07T14:02:42Z</time></trkpt>
<trkpt lat="46.26274" lon="7.12769"><ele>1659.2</ele><time>2025-10-07T14:02:43Z</time></trkpt>
<trkpt lat="46.2627" lon="7.12763"><ele>1658.2</ele><time>2025-10-07T14:02:44Z</time></trkpt>
<trkpt lat="46.26266" lon="7.1276"><ele>1657.2</ele><time>2025-10-07T14:02:45Z</time></trkpt>
<trkpt lat="46.26261" lon="7.12759"><ele>1656.8</ele><time>2025-10-07T14:02:46Z</time></trkpt>
<trkpt lat="46.26258" lon="7.1276"><ele>1655.8</ele><time>2025-10-07T14:02:47Z</time></trkpt>
<trkpt lat="46.26254" lon="7.12769"><ele>1654</ele><time>2025-10-07T14:02:49Z</time></trkpt>
<trkpt lat="46.26255" lon="7.12779"><ele>1652.6</ele><time>2025-10-07T14:02:51Z</time></trkpt>
<trkpt lat="46.26257" lon="7.12792"><ele>1651.4</ele><time>2025-10-07T14:02:53Z</time></trkpt>
<trkpt lat="46.26262" lon="7.12802"><ele>1650</ele><time>2025-10-07T14:02:55Z</time></trkpt>
<trkpt lat="46.26266" lon="7.12813"><ele>1648.6</ele><time>2025-10-07T14:02:57Z</time></trkpt>
<trkpt lat="46.26268" lon="7.12817"><ele>1648</ele><time>2025-10-07T14:02:58Z</time></trkpt>
<trkpt lat="46.26269" lon="7.12821"><ele>1647.2</ele><time>2025-10-07T14:02:59Z</time></trkpt>
<trkpt lat="46.26272" lon="7.12823"><ele>1646</ele><time>2025-10-07T14:03:02Z</time></trkpt>
<trkpt lat="46.26272" lon="7.12823"><ele>1645.8</ele><time>2025-10-07T14:03:09Z</time></trkpt>
<trkpt lat="46.26272" lon="7.12823"><ele>1645.8</ele><time>2025-10-07T14:03:12Z</time></trkpt>
<trkpt lat="46.26272" lon="7.12823"><ele>1645.8</ele><time>2025-10-07T14:03:17Z</time></trkpt>
<trkpt lat="46.26273" lon="7.12826"><ele>1645.8</ele><time>2025-10-07T14:03:23Z</time></trkpt>
<trkpt lat="46.26273" lon="7.12826"><ele>1645.6</ele><time>2025-10-07T14:03:24Z</time></trkpt>
<trkpt lat="46.26274" lon="7.12829"><ele>1645.2</ele><time>2025-10-07T14:03:31Z</time></trkpt>
<trkpt lat="46.26275" lon="7.12836"><ele>1645</ele><time>2025-10-07T14:03:33Z</time></trkpt>
<trkpt lat="46.26274" lon="7.12846"><ele>1644.4</ele><time>2025-10-07T14:03:35Z</time></trkpt>
<trkpt lat="46.26275" lon="7.12852"><ele>1643.8</ele><time>2025-10-07T14:03:36Z</time></trkpt>
<trkpt lat="46.26275" lon="7.12868"><ele>1642.4</ele><time>2025-10-07T14:03:39Z</time></trkpt>
<trkpt lat="46.26275" lon="7.12879"><ele>1641.2</ele><time>2025-10-07T14:03:41Z</time></trkpt>
<trkpt lat="46.26277" lon="7.12891"><ele>1639.4</ele><time>2025-10-07T14:03:43Z</time></trkpt>
<trkpt lat="46.26278" lon="7.12905"><ele>1637.4</ele><time>2025-10-07T14:03:45Z</time></trkpt>
<trkpt lat="46.26279" lon="7.12913"><ele>1636.4</ele><time>2025-10-07T14:03:46Z</time></trkpt>
<trkpt lat="46.2628" lon="7.12928"><ele>1634.6</ele><time>2025-10-07T14:03:48Z</time></trkpt>
<trkpt lat="46.26282" lon="7.12935"><ele>1633.6</ele><time>2025-10-07T14:03:49Z</time></trkpt>
<trkpt lat="46.26283" lon="7.12943"><ele>1633.2</ele><time>2025-10-07T14:03:50Z</time></trkpt>
<trkpt lat="46.26284" lon="7.1295"><ele>1632</ele><time>2025-10-07T14:03:51Z</time></trkpt>
<trkpt lat="46.26284" lon="7.12966"><ele>1630.2</ele><time>2025-10-07T14:03:53Z</time></trkpt>
<trkpt lat="46.26285" lon="7.12974"><ele>1629.2</ele><time>2025-10-07T14:03:54Z</time></trkpt>
<trkpt lat="46.26286" lon="7.12991"><ele>1627</ele><time>2025-10-07T14:03:56Z</time></trkpt>
<trkpt lat="46.26286" lon="7.12999"><ele>1626</ele><time>2025-10-07T14:03:57Z</time></trkpt>
<trkpt lat="46.26287" lon="7.13008"><ele>1625</ele><time>2025-10-07T14:03:58Z</time></trkpt>
<trkpt lat="46.26285" lon="7.13016"><ele>1623.6</ele><time>2025-10-07T14:03:59Z</time></trkpt>
<trkpt lat="46.2628" lon="7.13028"><ele>1622</ele><time>2025-10-07T14:04:01Z</time></trkpt>
<trkpt lat="46.26273" lon="7.13034"><ele>1620.6</ele><time>2025-10-07T14:04:03Z</time></trkpt>
<trkpt lat="46.26268" lon="7.13041"><ele>1619.2</ele><time>2025-10-07T14:04:05Z</time></trkpt>
<trkpt lat="46.26262" lon="7.1305"><ele>1617.4</ele><time>2025-10-07T14:04:07Z</time></trkpt>
<trkpt lat="46.26257" lon="7.13055"><ele>1616.2</ele><time>2025-10-07T14:04:09Z</time></trkpt>
<trkpt lat="46.2625" lon="7.13067"><ele>1615.2</ele><time>2025-10-07T14:04:13Z</time></trkpt>
<trkpt lat="46.26241" lon="7.13084"><ele>1614</ele><time>2025-10-07T14:04:17Z</time></trkpt>
<trkpt lat="46.2623" lon="7.13099"><ele>1612.8</ele><time>2025-10-07T14:04:21Z</time></trkpt>
<trkpt lat="46.26226" lon="7.131"><ele>1612.4</ele><time>2025-10-07T14:04:22Z</time></trkpt>
<trkpt lat="46.26222" lon="7.13099"><ele>1611.8</ele><time>2025-10-07T14:04:23Z</time></trkpt>
<trkpt lat="46.26219" lon="7.13097"><ele>1611.4</ele><time>2025-10-07T14:04:24Z</time></trkpt>
<trkpt lat="46.26218" lon="7.13094"><ele>1610.8</ele><time>2025-10-07T14:04:25Z</time></trkpt>
<trkpt lat="46.26219" lon="7.13091"><ele>1610</ele><time>2025-10-07T14:04:26Z</time></trkpt>
<trkpt lat="46.26221" lon="7.13083"><ele>1608.8</ele><time>2025-10-07T14:04:28Z</time></trkpt>
<trkpt lat="46.26222" lon="7.13078"><ele>1608.4</ele><time>2025-10-07T14:04:29Z</time></trkpt>
<trkpt lat="46.26223" lon="7.13072"><ele>1607.6</ele><time>2025-10-07T14:04:30Z</time></trkpt>
<trkpt lat="46.26226" lon="7.1306"><ele>1605.8</ele><time>2025-10-07T14:04:32Z</time></trkpt>
<trkpt lat="46.26226" lon="7.13047"><ele>1604.4</ele><time>2025-10-07T14:04:34Z</time></trkpt>
<trkpt lat="46.26224" lon="7.13036"><ele>1603.4</ele><time>2025-10-07T14:04:36Z</time></trkpt>
<trkpt lat="46.26222" lon="7.13024"><ele>1602.4</ele><time>2025-10-07T14:04:39Z</time></trkpt>
<trkpt lat="46.26216" lon="7.13007"><ele>1601.8</ele><time>2025-10-07T14:04:44Z</time></trkpt>
<trkpt lat="46.26215" lon="7.13002"><ele>1601.4</ele><time>2025-10-07T14:04:45Z</time></trkpt>
<trkpt lat="46.26213" lon="7.12987"><ele>1600.2</ele><time>2025-10-07T14:04:48Z</time></trkpt>
<trkpt lat="46.26214" lon="7.12982"><ele>1600</ele><time>2025-10-07T14:04:49Z</time></trkpt>
<trkpt lat="46.26215" lon="7.12958"><ele>1599.8</ele><time>2025-10-07T14:04:55Z</time></trkpt>
<trkpt lat="46.26221" lon="7.12943"><ele>1599</ele><time>2025-10-07T14:05:01Z</time></trkpt>
<trkpt lat="46.26222" lon="7.12936"><ele>1598.6</ele><time>2025-10-07T14:05:03Z</time></trkpt>
<trkpt lat="46.2622" lon="7.12925"><ele>1598.2</ele><time>2025-10-07T14:05:05Z</time></trkpt>
<trkpt lat="46.26218" lon="7.12919"><ele>1598.2</ele><time>2025-10-07T14:05:06Z</time></trkpt>
<trkpt lat="46.26215" lon="7.12913"><ele>1597.8</ele><time>2025-10-07T14:05:07Z</time></trkpt>
<trkpt lat="46.26212" lon="7.12908"><ele>1597.6</ele><time>2025-10-07T14:05:08Z</time></trkpt>
<trkpt lat="46.26209" lon="7.12902"><ele>1596.6</ele><time>2025-10-07T14:05:09Z</time></trkpt>
<trkpt lat="46.26207" lon="7.12895"><ele>1595.8</ele><time>2025-10-07T14:05:10Z</time></trkpt>
<trkpt lat="46.26206" lon="7.12888"><ele>1595</ele><time>2025-10-07T14:05:11Z</time></trkpt>
<trkpt lat="46.26205" lon="7.1288"><ele>1594</ele><time>2025-10-07T14:05:12Z</time></trkpt>
<trkpt lat="46.26204" lon="7.1287"><ele>1593.2</ele><time>2025-10-07T14:05:13Z</time></trkpt>
<trkpt lat="46.26203" lon="7.1286"><ele>1592</ele><time>2025-10-07T14:05:14Z</time></trkpt>
<trkpt lat="46.262" lon="7.12839"><ele>1590.4</ele><time>2025-10-07T14:05:16Z</time></trkpt>
<trkpt lat="46.26196" lon="7.1283"><ele>1588.4</ele><time>2025-10-07T14:05:17Z</time></trkpt>
<trkpt lat="46.26191" lon="7.12824"><ele>1587.4</ele><time>2025-10-07T14:05:18Z</time></trkpt>
<trkpt lat="46.2618" lon="7.12826"><ele>1585.8</ele><time>2025-10-07T14:05:20Z</time></trkpt>
<trkpt lat="46.26172" lon="7.12827"><ele>1584.2</ele><time>2025-10-07T14:05:22Z</time></trkpt>
<trkpt lat="46.26168" lon="7.12824"><ele>1583.6</ele><time>2025-10-07T14:05:23Z</time></trkpt>
<trkpt lat="46.26164" lon="7.1282"><ele>1582.6</ele><time>2025-10-07T14:05:24Z</time></trkpt>
<trkpt lat="46.26159" lon="7.12815"><ele>1581.4</ele><time>2025-10-07T14:05:25Z</time></trkpt>
<trkpt lat="46.26147" lon="7.12804"><ele>1579.4</ele><time>2025-10-07T14:05:27Z</time></trkpt>
<trkpt lat="46.26134" lon="7.12796"><ele>1577.6</ele><time>2025-10-07T14:05:29Z</time></trkpt>
<trkpt lat="46.26127" lon="7.12791"><ele>1576.4</ele><time>2025-10-07T14:05:30Z</time></trkpt>
<trkpt lat="46.2612" lon="7.12786"><ele>1575.2</ele><time>2025-10-07T14:05:31Z</time></trkpt>
<trkpt lat="46.26114" lon="7.12781"><ele>1573.2</ele><time>2025-10-07T14:05:32Z</time></trkpt>
<trkpt lat="46.26109" lon="7.12779"><ele>1571.6</ele><time>2025-10-07T14:05:33Z</time></trkpt>
<trkpt lat="46.26105" lon="7.1278"><ele>1570.6</ele><time>2025-10-07T14:05:34Z</time></trkpt>
<trkpt lat="46.26103" lon="7.12784"><ele>1569.2</ele><time>2025-10-07T14:05:35Z</time></trkpt>
<trkpt lat="46.26104" lon="7.12791"><ele>1568.4</ele><time>2025-10-07T14:05:36Z</time></trkpt>
<trkpt lat="46.26109" lon="7.12806"><ele>1567.2</ele><time>2025-10-07T14:05:38Z</time></trkpt>
<trkpt lat="46.2611" lon="7.12816"><ele>1566.6</ele><time>2025-10-07T14:05:39Z</time></trkpt>
<trkpt lat="46.26112" lon="7.12827"><ele>1564.4</ele><time>2025-10-07T14:05:40Z</time></trkpt>
<trkpt lat="46.26113" lon="7.12837"><ele>1562.8</ele><time>2025-10-07T14:05:41Z</time></trkpt>
<trkpt lat="46.26113" lon="7.12853"><ele>1560.8</ele><time>2025-10-07T14:05:43Z</time></trkpt>
<trkpt lat="46.2611" lon="7.12859"><ele>1559.2</ele><time>2025-10-07T14:05:44Z</time></trkpt>
<trkpt lat="46.26105" lon="7.12862"><ele>1558.4</ele><time>2025-10-07T14:05:45Z</time></trkpt>
<trkpt lat="46.26101" lon="7.12861"><ele>1557.2</ele><time>2025-10-07T14:05:46Z</time></trkpt>
<trkpt lat="46.26092" lon="7.12862"><ele>1555</ele><time>2025-10-07T14:05:48Z</time></trkpt>
<trkpt lat="46.26084" lon="7.12866"><ele>1553.6</ele><time>2025-10-07T14:05:50Z</time></trkpt>
<trkpt lat="46.2608" lon="7.12867"><ele>1552.8</ele><time>2025-10-07T14:05:51Z</time></trkpt>
<trkpt lat="46.26071" lon="7.12871"><ele>1552.4</ele><time>2025-10-07T14:05:53Z</time></trkpt>
<trkpt lat="46.26062" lon="7.12875"><ele>1552</ele><time>2025-10-07T14:05:55Z</time></trkpt>
<trkpt lat="46.26053" lon="7.1288"><ele>1551.8</ele><time>2025-10-07T14:05:57Z</time></trkpt>
<trkpt lat="46.26048" lon="7.1288"><ele>1551.6</ele><time>2025-10-07T14:05:58Z</time></trkpt>
<trkpt lat="46.26043" lon="7.12879"><ele>1551.4</ele><time>2025-10-07T14:05:59Z</time></trkpt>
<trkpt lat="46.26039" lon="7.12878"><ele>1551.4</ele><time>2025-10-07T14:06:00Z</time></trkpt>
<trkpt lat="46.26031" lon="7.12874"><ele>1551.2</ele><time>2025-10-07T14:06:02Z</time></trkpt>
<trkpt lat="46.26022" lon="7.12868"><ele>1551.6</ele><time>2025-10-07T14:06:06Z</time></trkpt>
<trkpt lat="46.26012" lon="7.12866"><ele>1552.2</ele><time>2025-10-07T14:06:12Z</time></trkpt>
<trkpt lat="46.26011" lon="7.12866"><ele>1552.4</ele><time>2025-10-07T14:06:13Z</time></trkpt>
<trkpt lat="46.26004" lon="7.12866"><ele>1553</ele><time>2025-10-07T14:06:18Z</time></trkpt>
<trkpt lat="46.25999" lon="7.12866"><ele>1553.4</ele><time>2025-10-07T14:06:21Z</time></trkpt>
<trkpt lat="46.25994" lon="7.12867"><ele>1553.6</ele><time>2025-10-07T14:06:25Z</time></trkpt>
<trkpt lat="46.25986" lon="7.1287"><ele>1554</ele><time>2025-10-07T14:06:31Z</time></trkpt>
<trkpt lat="46.25981" lon="7.12872"><ele>1554.4</ele><time>2025-10-07T14:06:35Z</time></trkpt>
<trkpt lat="46.25978" lon="7.12874"><ele>1554.8</ele><time>2025-10-07T14:06:38Z</time></trkpt>
<trkpt lat="46.25977" lon="7.12874"><ele>1554.8</ele><time>2025-10-07T14:06:39Z</time></trkpt>
<trkpt lat="46.25975" lon="7.12872"><ele>1555</ele><time>2025-10-07T14:06:41Z</time></trkpt>
<trkpt lat="46.25971" lon="7.12869"><ele>1555.2</ele><time>2025-10-07T14:06:44Z</time></trkpt>
<trkpt lat="46.25969" lon="7.12869"><ele>1555.4</ele><time>2025-10-07T14:06:46Z</time></trkpt>
<trkpt lat="46.25968" lon="7.12867"><ele>1555.6</ele><time>2025-10-07T14:06:47Z</time></trkpt>
<trkpt lat="46.25967" lon="7.12865"><ele>1555.8</ele><time>2025-10-07T14:06:49Z</time></trkpt>
<trkpt lat="46.25966" lon="7.12859"><ele>1555.8</ele><time>2025-10-07T14:06:51Z</time></trkpt>
<trkpt lat="46.25967" lon="7.12855"><ele>1555.8</ele><time>2025-10-07T14:06:53Z</time></trkpt>
<trkpt lat="46.25968" lon="7.12844"><ele>1555.6</ele><time>2025-10-07T14:06:58Z</time></trkpt>
<trkpt lat="46.25966" lon="7.12837"><ele>1556</ele><time>2025-10-07T14:07:01Z</time></trkpt>
<trkpt lat="46.25961" lon="7.12833"><ele>1556.2</ele><time>2025-10-07T14:07:04Z</time></trkpt>
<trkpt lat="46.25948" lon="7.12818"><ele>1556</ele><time>2025-10-07T14:07:09Z</time></trkpt>
<trkpt lat="46.25944" lon="7.12802"><ele>1555.8</ele><time>2025-10-07T14:07:13Z</time></trkpt>
<trkpt lat="46.25931" lon="7.12788"><ele>1556</ele><time>2025-10-07T14:07:20Z</time></trkpt>
<trkpt lat="46.25921" lon="7.12774"><ele>1556.4</ele><time>2025-10-07T14:07:27Z</time></trkpt>
<trkpt lat="46.25906" lon="7.12756"><ele>1556</ele><time>2025-10-07T14:07:34Z</time></trkpt>
<trkpt lat="46.25889" lon="7.12739"><ele>1554.4</ele><time>2025-10-07T14:07:40Z</time></trkpt>
<trkpt lat="46.25887" lon="7.12724"><ele>1553.2</ele><time>2025-10-07T14:07:44Z</time></trkpt>
<trkpt lat="46.25885" lon="7.12711"><ele>1552.2</ele><time>2025-10-07T14:07:48Z</time></trkpt>
<trkpt lat="46.25885" lon="7.12708"><ele>1552</ele><time>2025-10-07T14:07:49Z</time></trkpt>
<trkpt lat="46.25887" lon="7.12706"><ele>1551.6</ele><time>2025-10-07T14:07:51Z</time></trkpt>
<trkpt lat="46.25891" lon="7.12703"><ele>1551.4</ele><time>2025-10-07T14:07:54Z</time></trkpt>
<trkpt lat="46.25895" lon="7.12701"><ele>1551</ele><time>2025-10-07T14:07:56Z</time></trkpt>
<trkpt lat="46.25906" lon="7.12697"><ele>1549.8</ele><time>2025-10-07T14:08:00Z</time></trkpt>
<trkpt lat="46.25917" lon="7.12693"><ele>1549.2</ele><time>2025-10-07T14:08:05Z</time></trkpt>
<trkpt lat="46.25926" lon="7.12695"><ele>1549.2</ele><time>2025-10-07T14:08:11Z</time></trkpt>
<trkpt lat="46.25932" lon="7.12701"><ele>1548.6</ele><time>2025-10-07T14:08:14Z</time></trkpt>
<trkpt lat="46.25938" lon="7.12704"><ele>1547.4</ele><time>2025-10-07T14:08:16Z</time></trkpt>
<trkpt lat="46.25947" lon="7.12699"><ele>1546</ele><time>2025-10-07T14:08:19Z</time></trkpt>
<trkpt lat="46.25949" lon="7.12695"><ele>1545.4</ele><time>2025-10-07T14:08:20Z</time></trkpt>
<trkpt lat="46.2595" lon="7.12691"><ele>1545</ele><time>2025-10-07T14:08:21Z</time></trkpt>
<trkpt lat="46.25949" lon="7.12677"><ele>1543.6</ele><time>2025-10-07T14:08:24Z</time></trkpt>
<trkpt lat="46.25941" lon="7.12662"><ele>1542.8</ele><time>2025-10-07T14:08:28Z</time></trkpt>
<trkpt lat="46.25939" lon="7.12658"><ele>1542.4</ele><time>2025-10-07T14:08:29Z</time></trkpt>
<trkpt lat="46.25937" lon="7.12654"><ele>1541.4</ele><time>2025-10-07T14:08:30Z</time></trkpt>
<trkpt lat="46.25935" lon="7.12644"><ele>1540</ele><time>2025-10-07T14:08:32Z</time></trkpt>
<trkpt lat="46.25934" lon="7.12639"><ele>1539.4</ele><time>2025-10-07T14:08:33Z</time></trkpt>
<trkpt lat="46.25933" lon="7.12634"><ele>1538.8</ele><time>2025-10-07T14:08:34Z</time></trkpt>
<trkpt lat="46.25932" lon="7.12625"><ele>1537.6</ele><time>2025-10-07T14:08:36Z</time></trkpt>
<trkpt lat="46.25935" lon="7.1262"><ele>1536.8</ele><time>2025-10-07T14:08:38Z</time></trkpt>
<trkpt lat="46.25936" lon="7.1262"><ele>1536.4</ele><time>2025-10-07T14:08:39Z</time></trkpt>
<trkpt lat="46.25937" lon="7.12624"><ele>1536</ele><time>2025-10-07T14:08:41Z</time></trkpt>
<trkpt lat="46.25937" lon="7.12632"><ele>1535</ele><time>2025-10-07T14:08:43Z</time></trkpt>
<trkpt lat="46.2594" lon="7.12641"><ele>1533.8</ele><time>2025-10-07T14:08:45Z</time></trkpt>
<trkpt lat="46.25945" lon="7.1265"><ele>1532</ele><time>2025-10-07T14:08:47Z</time></trkpt>
<trkpt lat="46.25953" lon="7.12659"><ele>1530.8</ele><time>2025-10-07T14:08:49Z</time></trkpt>
<trkpt lat="46.25959" lon="7.12664"><ele>1529.2</ele><time>2025-10-07T14:08:51Z</time></trkpt>
<trkpt lat="46.25964" lon="7.12663"><ele>1528.2</ele><time>2025-10-07T14:08:52Z</time></trkpt>
<trkpt lat="46.25969" lon="7.12661"><ele>1527.4</ele><time>2025-10-07T14:08:53Z</time></trkpt>
<trkpt lat="46.25974" lon="7.12659"><ele>1526.2</ele><time>2025-10-07T14:08:54Z</time></trkpt>
<trkpt lat="46.25984" lon="7.12655"><ele>1524</ele><time>2025-10-07T14:08:56Z</time></trkpt>
<trkpt lat="46.2599" lon="7.12655"><ele>1523</ele><time>2025-10-07T14:08:57Z</time></trkpt>
<trkpt lat="46.25996" lon="7.12658"><ele>1522</ele><time>2025-10-07T14:08:58Z</time></trkpt>
<trkpt lat="46.26001" lon="7.1266"><ele>1521</ele><time>2025-10-07T14:08:59Z</time></trkpt>
<trkpt lat="46.26008" lon="7.12667"><ele>1520.2</ele><time>2025-10-07T14:09:01Z</time></trkpt>
<trkpt lat="46.26011" lon="7.12672"><ele>1519.4</ele><time>2025-10-07T14:09:02Z</time></trkpt>
<trkpt lat="46.26013" lon="7.12678"><ele>1518.8</ele><time>2025-10-07T14:09:03Z</time></trkpt>
<trkpt lat="46.26015" lon="7.12684"><ele>1518.2</ele><time>2025-10-07T14:09:04Z</time></trkpt>
<trkpt lat="46.2602" lon="7.12693"><ele>1516.8</ele><time>2025-10-07T14:09:06Z</time></trkpt>
<trkpt lat="46.26023" lon="7.12694"><ele>1516.4</ele><time>2025-10-07T14:09:07Z</time></trkpt>
<trkpt lat="46.26027" lon="7.12692"><ele>1516.2</ele><time>2025-10-07T14:09:09Z</time></trkpt>
<trkpt lat="46.26028" lon="7.1269"><ele>1516.2</ele><time>2025-10-07T14:09:10Z</time></trkpt>
<trkpt lat="46.26028" lon="7.12678"><ele>1516.4</ele><time>2025-10-07T14:09:15Z</time></trkpt>
<trkpt lat="46.26025" lon="7.12657"><ele>1516.8</ele><time>2025-10-07T14:09:21Z</time></trkpt>
<trkpt lat="46.26018" lon="7.12633"><ele>1516</ele><time>2025-10-07T14:09:25Z</time></trkpt>
<trkpt lat="46.26017" lon="7.12627"><ele>1515.8</ele><time>2025-10-07T14:09:26Z</time></trkpt>
<trkpt lat="46.26017" lon="7.12621"><ele>1515.6</ele><time>2025-10-07T14:09:27Z</time></trkpt>
<trkpt lat="46.26018" lon="7.12614"><ele>1515.4</ele><time>2025-10-07T14:09:28Z</time></trkpt>
<trkpt lat="46.26021" lon="7.12608"><ele>1515</ele><time>2025-10-07T14:09:29Z</time></trkpt>
<trkpt lat="46.26025" lon="7.12602"><ele>1514.4</ele><time>2025-10-07T14:09:30Z</time></trkpt>
<trkpt lat="46.26033" lon="7.12588"><ele>1512.4</ele><time>2025-10-07T14:09:32Z</time></trkpt>
<trkpt lat="46.26035" lon="7.12579"><ele>1511.6</ele><time>2025-10-07T14:09:33Z</time></trkpt>
<trkpt lat="46.26035" lon="7.1257"><ele>1510.8</ele><time>2025-10-07T14:09:34Z</time></trkpt>
<trkpt lat="46.26035" lon="7.1256"><ele>1510</ele><time>2025-10-07T14:09:35Z</time></trkpt>
<trkpt lat="46.26035" lon="7.1255"><ele>1509.8</ele><time>2025-10-07T14:09:36Z</time></trkpt>
<trkpt lat="46.26033" lon="7.1254"><ele>1509</ele><time>2025-10-07T14:09:37Z</time></trkpt>
<trkpt lat="46.26026" lon="7.12524"><ele>1507.6</ele><time>2025-10-07T14:09:39Z</time></trkpt>
<trkpt lat="46.26023" lon="7.12517"><ele>1506.4</ele><time>2025-10-07T14:09:40Z</time></trkpt>
<trkpt lat="46.26015" lon="7.12502"><ele>1505.4</ele><time>2025-10-07T14:09:42Z</time></trkpt>
<trkpt lat="46.2601" lon="7.12495"><ele>1503</ele><time>2025-10-07T14:09:43Z</time></trkpt>
<trkpt lat="46.26004" lon="7.12489"><ele>1502</ele><time>2025-10-07T14:09:44Z</time></trkpt>
<trkpt lat="46.25998" lon="7.12485"><ele>1501</ele><time>2025-10-07T14:09:45Z</time></trkpt>
<trkpt lat="46.25991" lon="7.12482"><ele>1500</ele><time>2025-10-07T14:09:46Z</time></trkpt>
<trkpt lat="46.25985" lon="7.12478"><ele>1499.8</ele><time>2025-10-07T14:09:47Z</time></trkpt>
<trkpt lat="46.25975" lon="7.12471"><ele>1498.2</ele><time>2025-10-07T14:09:49Z</time></trkpt>
<trkpt lat="46.2597" lon="7.12467"><ele>1497.8</ele><time>2025-10-07T14:09:50Z</time></trkpt>
<trkpt lat="46.25965" lon="7.12463"><ele>1496.8</ele><time>2025-10-07T14:09:51Z</time></trkpt>
<trkpt lat="46.2596" lon="7.12459"><ele>1495.2</ele><time>2025-10-07T14:09:52Z</time></trkpt>
<trkpt lat="46.25956" lon="7.12454"><ele>1494.2</ele><time>2025-10-07T14:09:53Z</time></trkpt>
<trkpt lat="46.25951" lon="7.12449"><ele>1493</ele><time>2025-10-07T14:09:54Z</time></trkpt>
<trkpt lat="46.25947" lon="7.12444"><ele>1492.2</ele><time>2025-10-07T14:09:55Z</time></trkpt>
<trkpt lat="46.25942" lon="7.12438"><ele>1492</ele><time>2025-10-07T14:09:56Z</time></trkpt>
<trkpt lat="46.25937" lon="7.12431"><ele>1490.6</ele><time>2025-10-07T14:09:57Z</time></trkpt>
<trkpt lat="46.25932" lon="7.12423"><ele>1489.2</ele><time>2025-10-07T14:09:58Z</time></trkpt>
<trkpt lat="46.25926" lon="7.12415"><ele>1488.6</ele><time>2025-10-07T14:09:59Z</time></trkpt>
<trkpt lat="46.25919" lon="7.12407"><ele>1486.8</ele><time>2025-10-07T14:10:00Z</time></trkpt>
<trkpt lat="46.25905" lon="7.12389"><ele>1485.6</ele><time>2025-10-07T14:10:02Z</time></trkpt>
<trkpt lat="46.25892" lon="7.12375"><ele>1484.6</ele><time>2025-10-07T14:10:04Z</time></trkpt>
<trkpt lat="46.25886" lon="7.12368"><ele>1484.6</ele><time>2025-10-07T14:10:05Z</time></trkpt>
<trkpt lat="46.25877" lon="7.1236"><ele>1482.6</ele><time>2025-10-07T14:10:07Z</time></trkpt>
<trkpt lat="46.2587" lon="7.12355"><ele>1481</ele><time>2025-10-07T14:10:09Z</time></trkpt>
<trkpt lat="46.25863" lon="7.12349"><ele>1480.2</ele><time>2025-10-07T14:10:12Z</time></trkpt>
<trkpt lat="46.25857" lon="7.12347"><ele>1480</ele><time>2025-10-07T14:10:15Z</time></trkpt>
<trkpt lat="46.25853" lon="7.12346"><ele>1480</ele><time>2025-10-07T14:10:17Z</time></trkpt>
<trkpt lat="46.25843" lon="7.12339"><ele>1480</ele><time>2025-10-07T14:10:22Z</time></trkpt>
<trkpt lat="46.25835" lon="7.12334"><ele>1480.4</ele><time>2025-10-07T14:10:28Z</time></trkpt>
<trkpt lat="46.25828" lon="7.12327"><ele>1481</ele><time>2025-10-07T14:10:33Z</time></trkpt>
<trkpt lat="46.25826" lon="7.12326"><ele>1481.2</ele><time>2025-10-07T14:10:34Z</time></trkpt>
<trkpt lat="46.2582" lon="7.12321"><ele>1481.8</ele><time>2025-10-07T14:10:38Z</time></trkpt>
<trkpt lat="46.25819" lon="7.1232"><ele>1482.2</ele><time>2025-10-07T14:10:40Z</time></trkpt>
<trkpt lat="46.25816" lon="7.12318"><ele>1482.6</ele><time>2025-10-07T14:10:43Z</time></trkpt>
<trkpt lat="46.25813" lon="7.12313"><ele>1483.2</ele><time>2025-10-07T14:10:46Z</time></trkpt>
<trkpt lat="46.2581" lon="7.12311"><ele>1483.4</ele><time>2025-10-07T14:10:48Z</time></trkpt>
<trkpt lat="46.25807" lon="7.12305"><ele>1483.8</ele><time>2025-10-07T14:10:51Z</time></trkpt>
<trkpt lat="46.25804" lon="7.12301"><ele>1483.8</ele><time>2025-10-07T14:10:53Z</time></trkpt>
<trkpt lat="46.25794" lon="7.12288"><ele>1483.6</ele><time>2025-10-07T14:10:58Z</time></trkpt>
<trkpt lat="46.25793" lon="7.12285"><ele>1483.6</ele><time>2025-10-07T14:10:59Z</time></trkpt>
<trkpt lat="46.25786" lon="7.12276"><ele>1483.8</ele><time>2025-10-07T14:11:04Z</time></trkpt>
<trkpt lat="46.25774" lon="7.12266"><ele>1483.2</ele><time>2025-10-07T14:11:09Z</time></trkpt>
<trkpt lat="46.25763" lon="7.12262"><ele>1482</ele><time>2025-10-07T14:11:13Z</time></trkpt>
<trkpt lat="46.2576" lon="7.12261"><ele>1481.6</ele><time>2025-10-07T14:11:14Z</time></trkpt>
<trkpt lat="46.25752" lon="7.12259"><ele>1480.8</ele><time>2025-10-07T14:11:16Z</time></trkpt>
<trkpt lat="46.25745" lon="7.12255"><ele>1479.4</ele><time>2025-10-07T14:11:18Z</time></trkpt>
<trkpt lat="46.25737" lon="7.1225"><ele>1478</ele><time>2025-10-07T14:11:20Z</time></trkpt>
<trkpt lat="46.2573" lon="7.12247"><ele>1476.4</ele><time>2025-10-07T14:11:22Z</time></trkpt>
<trkpt lat="46.25724" lon="7.12244"><ele>1474.8</ele><time>2025-10-07T14:11:24Z</time></trkpt>
<trkpt lat="46.25719" lon="7.12241"><ele>1473.4</ele><time>2025-10-07T14:11:26Z</time></trkpt>
<trkpt lat="46.25713" lon="7.12236"><ele>1472</ele><time>2025-10-07T14:11:28Z</time></trkpt>
<trkpt lat="46.25711" lon="7.12232"><ele>1471.4</ele><time>2025-10-07T14:11:29Z</time></trkpt>
<trkpt lat="46.2571" lon="7.12226"><ele>1470.6</ele><time>2025-10-07T14:11:30Z</time></trkpt>
<trkpt lat="46.25707" lon="7.12214"><ele>1469.2</ele><time>2025-10-07T14:11:32Z</time></trkpt>
<trkpt lat="46.25705" lon="7.1221"><ele>1468.6</ele><time>2025-10-07T14:11:33Z</time></trkpt>
<trkpt lat="46.25702" lon="7.12205"><ele>1468</ele><time>2025-10-07T14:11:34Z</time></trkpt>
<trkpt lat="46.25698" lon="7.12198"><ele>1466.4</ele><time>2025-10-07T14:11:36Z</time></trkpt>
<trkpt lat="46.25696" lon="7.12195"><ele>1466</ele><time>2025-10-07T14:11:37Z</time></trkpt>
<trkpt lat="46.25696" lon="7.12191"><ele>1465.4</ele><time>2025-10-07T14:11:38Z</time></trkpt>
<trkpt lat="46.25697" lon="7.12188"><ele>1465</ele><time>2025-10-07T14:11:39Z</time></trkpt>
<trkpt lat="46.25699" lon="7.12185"><ele>1464.6</ele><time>2025-10-07T14:11:40Z</time></trkpt>
<trkpt lat="46.25702" lon="7.12181"><ele>1463.4</ele><time>2025-10-07T14:11:42Z</time></trkpt>
<trkpt lat="46.25703" lon="7.12176"><ele>1462.2</ele><time>2025-10-07T14:11:44Z</time></trkpt>
<trkpt lat="46.257" lon="7.12173"><ele>1461.4</ele><time>2025-10-07T14:11:45Z</time></trkpt>
<trkpt lat="46.25698" lon="7.12172"><ele>1460.8</ele><time>2025-10-07T14:11:46Z</time></trkpt>
<trkpt lat="46.25692" lon="7.12165"><ele>1459.4</ele><time>2025-10-07T14:11:48Z</time></trkpt>
<trkpt lat="46.25688" lon="7.12162"><ele>1458.6</ele><time>2025-10-07T14:11:49Z</time></trkpt>
<trkpt lat="46.25685" lon="7.1216"><ele>1457.8</ele><time>2025-10-07T14:11:50Z</time></trkpt>
<trkpt lat="46.25677" lon="7.1216"><ele>1456.2</ele><time>2025-10-07T14:11:52Z</time></trkpt>
<trkpt lat="46.25674" lon="7.12163"><ele>1455.8</ele><time>2025-10-07T14:11:53Z</time></trkpt>
<trkpt lat="46.25671" lon="7.12171"><ele>1455</ele><time>2025-10-07T14:11:55Z</time></trkpt>
<trkpt lat="46.25672" lon="7.12175"><ele>1454.8</ele><time>2025-10-07T14:11:56Z</time></trkpt>
<trkpt lat="46.25675" lon="7.12195"><ele>1453.6</ele><time>2025-10-07T14:12:01Z</time></trkpt>
<trkpt lat="46.25676" lon="7.12202"><ele>1452.8</ele><time>2025-10-07T14:12:02Z</time></trkpt>
<trkpt lat="46.25677" lon="7.12208"><ele>1451.8</ele><time>2025-10-07T14:12:03Z</time></trkpt>
<trkpt lat="46.25678" lon="7.12219"><ele>1450</ele><time>2025-10-07T14:12:05Z</time></trkpt>
<trkpt lat="46.25677" lon="7.12229"><ele>1448.4</ele><time>2025-10-07T14:12:07Z</time></trkpt>
<trkpt lat="46.25675" lon="7.12233"><ele>1447.8</ele><time>2025-10-07T14:12:08Z</time></trkpt>
<trkpt lat="46.25672" lon="7.12237"><ele>1447.2</ele><time>2025-10-07T14:12:09Z</time></trkpt>
<trkpt lat="46.25669" lon="7.12237"><ele>1446.8</ele><time>2025-10-07T14:12:10Z</time></trkpt>
<trkpt lat="46.25665" lon="7.12232"><ele>1445.8</ele><time>2025-10-07T14:12:12Z</time></trkpt>
<trkpt lat="46.25664" lon="7.12227"><ele>1445.4</ele><time>2025-10-07T14:12:13Z</time></trkpt>
<trkpt lat="46.25663" lon="7.12222"><ele>1444.8</ele><time>2025-10-07T14:12:14Z</time></trkpt>
<trkpt lat="46.25656" lon="7.12211"><ele>1443.2</ele><time>2025-10-07T14:12:17Z</time></trkpt>
<trkpt lat="46.2565" lon="7.12207"><ele>1442</ele><time>2025-10-07T14:12:19Z</time></trkpt>
<trkpt lat="46.25645" lon="7.12202"><ele>1440.8</ele><time>2025-10-07T14:12:21Z</time></trkpt>
<trkpt lat="46.25642" lon="7.12194"><ele>1439.2</ele><time>2025-10-07T14:12:23Z</time></trkpt>
<trkpt lat="46.25638" lon="7.12183"><ele>1438.4</ele><time>2025-10-07T14:12:25Z</time></trkpt>
<trkpt lat="46.25636" lon="7.12176"><ele>1437.2</ele><time>2025-10-07T14:12:26Z</time></trkpt>
<trkpt lat="46.25632" lon="7.12161"><ele>1435.4</ele><time>2025-10-07T14:12:28Z</time></trkpt>
<trkpt lat="46.2563" lon="7.12154"><ele>1434.2</ele><time>2025-10-07T14:12:29Z</time></trkpt>
<trkpt lat="46.25626" lon="7.12149"><ele>1433.6</ele><time>2025-10-07T14:12:30Z</time></trkpt>
<trkpt lat="46.25622" lon="7.12144"><ele>1432.8</ele><time>2025-10-07T14:12:31Z</time></trkpt>
<trkpt lat="46.25615" lon="7.12133"><ele>1431</ele><time>2025-10-07T14:12:33Z</time></trkpt>
<trkpt lat="46.25608" lon="7.12123"><ele>1429.6</ele><time>2025-10-07T14:12:35Z</time></trkpt>
<trkpt lat="46.25606" lon="7.12117"><ele>1429</ele><time>2025-10-07T14:12:36Z</time></trkpt>
<trkpt lat="46.25604" lon="7.12112"><ele>1428.2</ele><time>2025-10-07T14:12:37Z</time></trkpt>
<trkpt lat="46.25598" lon="7.1211"><ele>1427</ele><time>2025-10-07T14:12:39Z</time></trkpt>
<trkpt lat="46.25596" lon="7.12118"><ele>1425.6</ele><time>2025-10-07T14:12:41Z</time></trkpt>
<trkpt lat="46.25597" lon="7.12122"><ele>1425</ele><time>2025-10-07T14:12:42Z</time></trkpt>
<trkpt lat="46.25599" lon="7.12126"><ele>1424.4</ele><time>2025-10-07T14:12:43Z</time></trkpt>
<trkpt lat="46.25604" lon="7.12143"><ele>1423.2</ele><time>2025-10-07T14:12:46Z</time></trkpt>
<trkpt lat="46.25613" lon="7.12172"><ele>1422</ele><time>2025-10-07T14:12:50Z</time></trkpt>
<trkpt lat="46.25614" lon="7.1218"><ele>1421.6</ele><time>2025-10-07T14:12:51Z</time></trkpt>
<trkpt lat="46.25614" lon="7.12198"><ele>1421.2</ele><time>2025-10-07T14:12:53Z</time></trkpt>
<trkpt lat="46.25612" lon="7.12205"><ele>1421.2</ele><time>2025-10-07T14:12:54Z</time></trkpt>
<trkpt lat="46.25609" lon="7.12217"><ele>1421.2</ele><time>2025-10-07T14:12:57Z</time></trkpt>
<trkpt lat="46.25609" lon="7.12222"><ele>1421</ele><time>2025-10-07T14:12:58Z</time></trkpt>
<trkpt lat="46.25611" lon="7.12227"><ele>1420.8</ele><time>2025-10-07T14:12:59Z</time></trkpt>
<trkpt lat="46.25615" lon="7.12233"><ele>1420.4</ele><time>2025-10-07T14:13:00Z</time></trkpt>
<trkpt lat="46.25616" lon="7.12241"><ele>1419.8</ele><time>2025-10-07T14:13:01Z</time></trkpt>
<trkpt lat="46.25614" lon="7.12256"><ele>1418.6</ele><time>2025-10-07T14:13:03Z</time></trkpt>
<trkpt lat="46.25612" lon="7.1226"><ele>1417.8</ele><time>2025-10-07T14:13:05Z</time></trkpt>
<trkpt lat="46.25613" lon="7.1226"><ele>1417.6</ele><time>2025-10-07T14:13:09Z</time></trkpt>
<trkpt lat="46.25615" lon="7.12261"><ele>1417.8</ele><time>2025-10-07T14:13:16Z</time></trkpt>
<trkpt lat="46.25613" lon="7.12264"><ele>1417.8</ele><time>2025-10-07T14:13:20Z</time></trkpt>
<trkpt lat="46.25611" lon="7.12263"><ele>1417.8</ele><time>2025-10-07T14:13:21Z</time></trkpt>
<trkpt lat="46.2561" lon="7.12264"><ele>1417.6</ele><time>2025-10-07T14:13:23Z</time></trkpt>
<trkpt lat="46.2561" lon="7.12265"><ele>1417.4</ele><time>2025-10-07T14:13:25Z</time></trkpt>
<trkpt lat="46.25607" lon="7.12266"><ele>1417.2</ele><time>2025-10-07T14:13:27Z</time></trkpt>
<trkpt lat="46.25604" lon="7.12264"><ele>1417.4</ele><time>2025-10-07T14:13:29Z</time></trkpt>
<trkpt lat="46.25591" lon="7.12259"><ele>1416.6</ele><time>2025-10-07T14:13:34Z</time></trkpt>
<trkpt lat="46.25579" lon="7.1227"><ele>1415.4</ele><time>2025-10-07T14:13:38Z</time></trkpt>
<trkpt lat="46.25577" lon="7.12274"><ele>1415</ele><time>2025-10-07T14:13:39Z</time></trkpt>
<trkpt lat="46.25575" lon="7.12287"><ele>1414.2</ele><time>2025-10-07T14:13:41Z</time></trkpt>
<trkpt lat="46.25574" lon="7.12294"><ele>1413.6</ele><time>2025-10-07T14:13:42Z</time></trkpt>
<trkpt lat="46.25571" lon="7.12301"><ele>1413</ele><time>2025-10-07T14:13:43Z</time></trkpt>
<trkpt lat="46.2556" lon="7.12307"><ele>1411.6</ele><time>2025-10-07T14:13:45Z</time></trkpt>
<trkpt lat="46.25547" lon="7.12305"><ele>1409.8</ele><time>2025-10-07T14:13:47Z</time></trkpt>
<trkpt lat="46.25541" lon="7.12301"><ele>1408.6</ele><time>2025-10-07T14:13:48Z</time></trkpt>
<trkpt lat="46.25526" lon="7.1229"><ele>1406.6</ele><time>2025-10-07T14:13:50Z</time></trkpt>
<trkpt lat="46.2551" lon="7.12275"><ele>1404.8</ele><time>2025-10-07T14:13:52Z</time></trkpt>
<trkpt lat="46.25502" lon="7.12267"><ele>1403.6</ele><time>2025-10-07T14:13:53Z</time></trkpt>
<trkpt lat="46.25494" lon="7.12259"><ele>1402.2</ele><time>2025-10-07T14:13:54Z</time></trkpt>
<trkpt lat="46.25487" lon="7.12252"><ele>1401.2</ele><time>2025-10-07T14:13:55Z</time></trkpt>
<trkpt lat="46.2548" lon="7.12248"><ele>1400.2</ele><time>2025-10-07T14:13:56Z</time></trkpt>
<trkpt lat="46.25473" lon="7.12246"><ele>1399.2</ele><time>2025-10-07T14:13:57Z</time></trkpt>
<trkpt lat="46.25461" lon="7.12242"><ele>1398</ele><time>2025-10-07T14:13:59Z</time></trkpt>
<trkpt lat="46.25455" lon="7.12242"><ele>1397.6</ele><time>2025-10-07T14:14:00Z</time></trkpt>
<trkpt lat="46.25448" lon="7.12243"><ele>1397.8</ele><time>2025-10-07T14:14:01Z</time></trkpt>
<trkpt lat="46.2543" lon="7.12248"><ele>1398</ele><time>2025-10-07T14:14:05Z</time></trkpt>
<trkpt lat="46.25422" lon="7.12251"><ele>1396.8</ele><time>2025-10-07T14:14:07Z</time></trkpt>
<trkpt lat="46.25415" lon="7.1225"><ele>1395</ele><time>2025-10-07T14:14:09Z</time></trkpt>
<trkpt lat="46.25408" lon="7.12245"><ele>1393.8</ele><time>2025-10-07T14:14:11Z</time></trkpt>
<trkpt lat="46.25402" lon="7.12239"><ele>1392.8</ele><time>2025-10-07T14:14:13Z</time></trkpt>
<trkpt lat="46.254" lon="7.12234"><ele>1392.4</ele><time>2025-10-07T14:14:14Z</time></trkpt>
<trkpt lat="46.25394" lon="7.1222"><ele>1391</ele><time>2025-10-07T14:14:17Z</time></trkpt>
<trkpt lat="46.25392" lon="7.12216"><ele>1390.4</ele><time>2025-10-07T14:14:18Z</time></trkpt>
<trkpt lat="46.25391" lon="7.12209"><ele>1389.8</ele><time>2025-10-07T14:14:19Z</time></trkpt>
<trkpt lat="46.2539" lon="7.12203"><ele>1388.8</ele><time>2025-10-07T14:14:20Z</time></trkpt>
<trkpt lat="46.2539" lon="7.12189"><ele>1387.6</ele><time>2025-10-07T14:14:22Z</time></trkpt>
<trkpt lat="46.25391" lon="7.12173"><ele>1386</ele><time>2025-10-07T14:14:24Z</time></trkpt>
<trkpt lat="46.2539" lon="7.12157"><ele>1384</ele><time>2025-10-07T14:14:26Z</time></trkpt>
<trkpt lat="46.2539" lon="7.12139"><ele>1381.8</ele><time>2025-10-07T14:14:28Z</time></trkpt>
<trkpt lat="46.2539" lon="7.12117"><ele>1380</ele><time>2025-10-07T14:14:30Z</time></trkpt>
<trkpt lat="46.2539" lon="7.12104"><ele>1379.2</ele><time>2025-10-07T14:14:31Z</time></trkpt>
<trkpt lat="46.25391" lon="7.12091"><ele>1378</ele><time>2025-10-07T14:14:32Z</time></trkpt>
<trkpt lat="46.25391" lon="7.12078"><ele>1376</ele><time>2025-10-07T14:14:33Z</time></trkpt>
<trkpt lat="46.25392" lon="7.12064"><ele>1375.4</ele><time>2025-10-07T14:14:34Z</time></trkpt>
<trkpt lat="46.25393" lon="7.12036"><ele>1374.6</ele><time>2025-10-07T14:14:36Z</time></trkpt>
<trkpt lat="46.25394" lon="7.12011"><ele>1373.6</ele><time>2025-10-07T14:14:38Z</time></trkpt>
<trkpt lat="46.25394" lon="7.12"><ele>1373.2</ele><time>2025-10-07T14:14:39Z</time></trkpt>
<trkpt lat="46.25394" lon="7.11977"><ele>1372.2</ele><time>2025-10-07T14:14:42Z</time></trkpt>
<trkpt lat="46.25397" lon="7.11967"><ele>1370.8</ele><time>2025-10-07T14:14:45Z</time></trkpt>
<trkpt lat="46.25397" lon="7.11965"><ele>1370.2</ele><time>2025-10-07T14:14:46Z</time></trkpt>
<trkpt lat="46.25399" lon="7.11961"><ele>1369.6</ele><time>2025-10-07T14:14:48Z</time></trkpt>
<trkpt lat="46.25401" lon="7.11952"><ele>1368.6</ele><time>2025-10-07T14:14:51Z</time></trkpt>
<trkpt lat="46.25401" lon="7.11948"><ele>1368.2</ele><time>2025-10-07T14:14:52Z</time></trkpt>
<trkpt lat="46.25399" lon="7.11939"><ele>1367</ele><time>2025-10-07T14:14:54Z</time></trkpt>
<trkpt lat="46.25396" lon="7.11932"><ele>1365.6</ele><time>2025-10-07T14:14:56Z</time></trkpt>
<trkpt lat="46.25393" lon="7.1193"><ele>1365</ele><time>2025-10-07T14:14:57Z</time></trkpt>
<trkpt lat="46.2539" lon="7.11926"><ele>1364.4</ele><time>2025-10-07T14:14:58Z</time></trkpt>
<trkpt lat="46.25387" lon="7.1192"><ele>1363</ele><time>2025-10-07T14:15:00Z</time></trkpt>
<trkpt lat="46.25383" lon="7.11912"><ele>1361.8</ele><time>2025-10-07T14:15:02Z</time></trkpt>
<trkpt lat="46.2538" lon="7.11904"><ele>1360</ele><time>2025-10-07T14:15:04Z</time></trkpt>
<trkpt lat="46.25378" lon="7.11895"><ele>1358.6</ele><time>2025-10-07T14:15:06Z</time></trkpt>
<trkpt lat="46.25375" lon="7.11885"><ele>1357.6</ele><time>2025-10-07T14:15:08Z</time></trkpt>
<trkpt lat="46.25374" lon="7.1188"><ele>1357</ele><time>2025-10-07T14:15:09Z</time></trkpt>
<trkpt lat="46.25373" lon="7.11875"><ele>1356.4</ele><time>2025-10-07T14:15:10Z</time></trkpt>
<trkpt lat="46.2537" lon="7.11865"><ele>1355.2</ele><time>2025-10-07T14:15:12Z</time></trkpt>
<trkpt lat="46.25367" lon="7.11856"><ele>1354</ele><time>2025-10-07T14:15:14Z</time></trkpt>
<trkpt lat="46.25364" lon="7.11847"><ele>1352.8</ele><time>2025-10-07T14:15:16Z</time></trkpt>
<trkpt lat="46.25362" lon="7.11842"><ele>1352.2</ele><time>2025-10-07T14:15:17Z</time></trkpt>
<trkpt lat="46.2536" lon="7.11838"><ele>1351.6</ele><time>2025-10-07T14:15:18Z</time></trkpt>
<trkpt lat="46.25355" lon="7.1183"><ele>1350.2</ele><time>2025-10-07T14:15:20Z</time></trkpt>
<trkpt lat="46.2535" lon="7.11822"><ele>1349.2</ele><time>2025-10-07T14:15:22Z</time></trkpt>
<trkpt lat="46.25344" lon="7.11814"><ele>1348</ele><time>2025-10-07T14:15:24Z</time></trkpt>
<trkpt lat="46.25334" lon="7.11798"><ele>1346</ele><time>2025-10-07T14:15:27Z</time></trkpt>
<trkpt lat="46.2533" lon="7.11793"><ele>1345</ele><time>2025-10-07T14:15:28Z</time></trkpt>
<trkpt lat="46.25325" lon="7.11787"><ele>1343.8</ele><time>2025-10-07T14:15:29Z</time></trkpt>
<trkpt lat="46.25319" lon="7.11783"><ele>1342.4</ele><time>2025-10-07T14:15:30Z</time></trkpt>
<trkpt lat="46.2531" lon="7.11772"><ele>1340.6</ele><time>2025-10-07T14:15:32Z</time></trkpt>
<trkpt lat="46.25305" lon="7.11758"><ele>1339.8</ele><time>2025-10-07T14:15:35Z</time></trkpt>
<trkpt lat="46.25305" lon="7.11753"><ele>1339.4</ele><time>2025-10-07T14:15:36Z</time></trkpt>
<trkpt lat="46.25305" lon="7.1174"><ele>1339</ele><time>2025-10-07T14:15:38Z</time></trkpt>
<trkpt lat="46.25303" lon="7.11734"><ele>1338.4</ele><time>2025-10-07T14:15:39Z</time></trkpt>
<trkpt lat="46.253" lon="7.11718"><ele>1337.2</ele><time>2025-10-07T14:15:41Z</time></trkpt>
<trkpt lat="46.25295" lon="7.11694"><ele>1335.8</ele><time>2025-10-07T14:15:44Z</time></trkpt>
<trkpt lat="46.2529" lon="7.1167"><ele>1335.2</ele><time>2025-10-07T14:15:47Z</time></trkpt>
<trkpt lat="46.2529" lon="7.11655"><ele>1334.6</ele><time>2025-10-07T14:15:49Z</time></trkpt>
<trkpt lat="46.25292" lon="7.11639"><ele>1333.6</ele><time>2025-10-07T14:15:51Z</time></trkpt>
<trkpt lat="46.25294" lon="7.11625"><ele>1332.6</ele><time>2025-10-07T14:15:53Z</time></trkpt>
<trkpt lat="46.25296" lon="7.11618"><ele>1331.6</ele><time>2025-10-07T14:15:54Z</time></trkpt>
<trkpt lat="46.25296" lon="7.11612"><ele>1330.4</ele><time>2025-10-07T14:15:55Z</time></trkpt>
<trkpt lat="46.25296" lon="7.11605"><ele>1329.6</ele><time>2025-10-07T14:15:56Z</time></trkpt>
<trkpt lat="46.25295" lon="7.11599"><ele>1328.6</ele><time>2025-10-07T14:15:57Z</time></trkpt>
<trkpt lat="46.25293" lon="7.11593"><ele>1327.6</ele><time>2025-10-07T14:15:58Z</time></trkpt>
<trkpt lat="46.25289" lon="7.11589"><ele>1326.4</ele><time>2025-10-07T14:15:59Z</time></trkpt>
<trkpt lat="46.25285" lon="7.11587"><ele>1326</ele><time>2025-10-07T14:16:00Z</time></trkpt>
<trkpt lat="46.25281" lon="7.11585"><ele>1325.2</ele><time>2025-10-07T14:16:01Z</time></trkpt>
<trkpt lat="46.25277" lon="7.11577"><ele>1324.2</ele><time>2025-10-07T14:16:03Z</time></trkpt>
<trkpt lat="46.25276" lon="7.11572"><ele>1323.8</ele><time>2025-10-07T14:16:04Z</time></trkpt>
<trkpt lat="46.25277" lon="7.11562"><ele>1322.6</ele><time>2025-10-07T14:16:06Z</time></trkpt>
<trkpt lat="46.25277" lon="7.11554"><ele>1321.4</ele><time>2025-10-07T14:16:08Z</time></trkpt>
<trkpt lat="46.25278" lon="7.11549"><ele>1320.8</ele><time>2025-10-07T14:16:09Z</time></trkpt>
<trkpt lat="46.25278" lon="7.11544"><ele>1320.4</ele><time>2025-10-07T14:16:10Z</time></trkpt>
<trkpt lat="46.25276" lon="7.11533"><ele>1319.4</ele><time>2025-10-07T14:16:12Z</time></trkpt>
<trkpt lat="46.25273" lon="7.11521"><ele>1318.2</ele><time>2025-10-07T14:16:14Z</time></trkpt>
<trkpt lat="46.25269" lon="7.11501"><ele>1316.8</ele><time>2025-10-07T14:16:17Z</time></trkpt>
<trkpt lat="46.25267" lon="7.11486"><ele>1315.6</ele><time>2025-10-07T14:16:19Z</time></trkpt>
<trkpt lat="46.25266" lon="7.11473"><ele>1314</ele><time>2025-10-07T14:16:21Z</time></trkpt>
<trkpt lat="46.25262" lon="7.11467"><ele>1312.8</ele><time>2025-10-07T14:16:23Z</time></trkpt>
<trkpt lat="46.2526" lon="7.11465"><ele>1312.4</ele><time>2025-10-07T14:16:24Z</time></trkpt>
<trkpt lat="46.25255" lon="7.11454"><ele>1311.4</ele><time>2025-10-07T14:16:27Z</time></trkpt>
<trkpt lat="46.25256" lon="7.1145"><ele>1310.8</ele><time>2025-10-07T14:16:28Z</time></trkpt>
<trkpt lat="46.25258" lon="7.11446"><ele>1310.2</ele><time>2025-10-07T14:16:29Z</time></trkpt>
<trkpt lat="46.25264" lon="7.11442"><ele>1309.2</ele><time>2025-10-07T14:16:31Z</time></trkpt>
<trkpt lat="46.2527" lon="7.11444"><ele>1308.4</ele><time>2025-10-07T14:16:33Z</time></trkpt>
<trkpt lat="46.25274" lon="7.11446"><ele>1307.8</ele><time>2025-10-07T14:16:34Z</time></trkpt>
<trkpt lat="46.25282" lon="7.11452"><ele>1306</ele><time>2025-10-07T14:16:36Z</time></trkpt>
<trkpt lat="46.25292" lon="7.11463"><ele>1305.2</ele><time>2025-10-07T14:16:38Z</time></trkpt>
<trkpt lat="46.25298" lon="7.11467"><ele>1304.4</ele><time>2025-10-07T14:16:39Z</time></trkpt>
<trkpt lat="46.25308" lon="7.11477"><ele>1303.4</ele><time>2025-10-07T14:16:41Z</time></trkpt>
<trkpt lat="46.25313" lon="7.1148"><ele>1302.2</ele><time>2025-10-07T14:16:42Z</time></trkpt>
<trkpt lat="46.25318" lon="7.11477"><ele>1301</ele><time>2025-10-07T14:16:43Z</time></trkpt>
<trkpt lat="46.25319" lon="7.11472"><ele>1300</ele><time>2025-10-07T14:16:44Z</time></trkpt>
<trkpt lat="46.25319" lon="7.11466"><ele>1299.6</ele><time>2025-10-07T14:16:45Z</time></trkpt>
<trkpt lat="46.25318" lon="7.11461"><ele>1299</ele><time>2025-10-07T14:16:46Z</time></trkpt>
<trkpt lat="46.25316" lon="7.11453"><ele>1298.6</ele><time>2025-10-07T14:16:47Z</time></trkpt>
<trkpt lat="46.25314" lon="7.11435"><ele>1297</ele><time>2025-10-07T14:16:49Z</time></trkpt>
<trkpt lat="46.25313" lon="7.11414"><ele>1295.6</ele><time>2025-10-07T14:16:51Z</time></trkpt>
<trkpt lat="46.25309" lon="7.11395"><ele>1293.8</ele><time>2025-10-07T14:16:53Z</time></trkpt>
<trkpt lat="46.25307" lon="7.11387"><ele>1292.8</ele><time>2025-10-07T14:16:54Z</time></trkpt>
<trkpt lat="46.25306" lon="7.1138"><ele>1291.8</ele><time>2025-10-07T14:16:55Z</time></trkpt>
<trkpt lat="46.25304" lon="7.11373"><ele>1290.4</ele><time>2025-10-07T14:16:56Z</time></trkpt>
<trkpt lat="46.25303" lon="7.11367"><ele>1289.2</ele><time>2025-10-07T14:16:57Z</time></trkpt>
<trkpt lat="46.253" lon="7.11355"><ele>1288</ele><time>2025-10-07T14:16:59Z</time></trkpt>
<trkpt lat="46.25297" lon="7.11345"><ele>1286.8</ele><time>2025-10-07T14:17:01Z</time></trkpt>
<trkpt lat="46.25295" lon="7.11335"><ele>1285.4</ele><time>2025-10-07T14:17:03Z</time></trkpt>
<trkpt lat="46.25294" lon="7.11324"><ele>1284</ele><time>2025-10-07T14:17:05Z</time></trkpt>
<trkpt lat="46.25291" lon="7.11314"><ele>1282.8</ele><time>2025-10-07T14:17:07Z</time></trkpt>
<trkpt lat="46.25291" lon="7.1131"><ele>1282.2</ele><time>2025-10-07T14:17:08Z</time></trkpt>
<trkpt lat="46.25289" lon="7.11305"><ele>1281.4</ele><time>2025-10-07T14:17:10Z</time></trkpt>
<trkpt lat="46.25288" lon="7.11304"><ele>1281.2</ele><time>2025-10-07T14:17:11Z</time></trkpt>
<trkpt lat="46.25287" lon="7.11302"><ele>1280.8</ele><time>2025-10-07T14:17:12Z</time></trkpt>
<trkpt lat="46.25283" lon="7.11296"><ele>1280.2</ele><time>2025-10-07T14:17:15Z</time></trkpt>
<trkpt lat="46.25281" lon="7.11294"><ele>1279.8</ele><time>2025-10-07T14:17:17Z</time></trkpt>
<trkpt lat="46.25279" lon="7.1129"><ele>1279.2</ele><time>2025-10-07T14:17:19Z</time></trkpt>
<trkpt lat="46.25276" lon="7.11286"><ele>1278.6</ele><time>2025-10-07T14:17:22Z</time></trkpt>
<trkpt lat="46.25275" lon="7.11282"><ele>1278.2</ele><time>2025-10-07T14:17:24Z</time></trkpt>
<trkpt lat="46.25273" lon="7.11274"><ele>1277.2</ele><time>2025-10-07T14:17:28Z</time></trkpt>
<trkpt lat="46.25271" lon="7.11265"><ele>1276.4</ele><time>2025-10-07T14:17:31Z</time></trkpt>
<trkpt lat="46.2527" lon="7.11258"><ele>1276.2</ele><time>2025-10-07T14:17:33Z</time></trkpt>
<trkpt lat="46.25268" lon="7.11253"><ele>1276</ele><time>2025-10-07T14:17:34Z</time></trkpt>
<trkpt lat="46.25266" lon="7.1124"><ele>1275</ele><time>2025-10-07T14:17:37Z</time></trkpt>
<trkpt lat="46.25264" lon="7.11234"><ele>1274</ele><time>2025-10-07T14:17:39Z</time></trkpt>
<trkpt lat="46.25264" lon="7.11229"><ele>1272.8</ele><time>2025-10-07T14:17:42Z</time></trkpt>
<trkpt lat="46.25264" lon="7.11229"><ele>1272.4</ele><time>2025-10-07T14:17:44Z</time></trkpt>
<trkpt lat="46.25264" lon="7.11228"><ele>1271.8</ele><time>2025-10-07T14:17:49Z</time></trkpt>
<trkpt lat="46.25264" lon="7.11227"><ele>1271.8</ele><time>2025-10-07T14:17:50Z</time></trkpt>
<trkpt lat="46.25267" lon="7.11227"><ele>1271.8</ele><time>2025-10-07T14:17:54Z</time></trkpt>
<trkpt lat="46.25266" lon="7.11226"><ele>1272</ele><time>2025-10-07T14:17:56Z</time></trkpt>
<trkpt lat="46.25265" lon="7.11225"><ele>1271.8</ele><time>2025-10-07T14:17:59Z</time></trkpt>
<trkpt lat="46.25265" lon="7.11224"><ele>1271.6</ele><time>2025-10-07T14:18:04Z</time></trkpt>
<trkpt lat="46.25264" lon="7.11222"><ele>1271.2</ele><time>2025-10-07T14:18:08Z</time></trkpt>
<trkpt lat="46.25264" lon="7.11219"><ele>1271.2</ele><time>2025-10-07T14:18:09Z</time></trkpt>
<trkpt lat="46.25265" lon="7.1121"><ele>1270.6</ele><time>2025-10-07T14:18:12Z</time></trkpt>
<trkpt lat="46.25267" lon="7.11202"><ele>1269.8</ele><time>2025-10-07T14:18:14Z</time></trkpt>
<trkpt lat="46.25268" lon="7.11197"><ele>1269.4</ele><time>2025-10-07T14:18:15Z</time></trkpt>
<trkpt lat="46.25268" lon="7.11186"><ele>1268.4</ele><time>2025-10-07T14:18:17Z</time></trkpt>
<trkpt lat="46.25268" lon="7.11175"><ele>1267.2</ele><time>2025-10-07T14:18:19Z</time></trkpt>
<trkpt lat="46.2527" lon="7.11163"><ele>1265.8</ele><time>2025-10-07T14:18:22Z</time></trkpt>
<trkpt lat="46.2527" lon="7.11163"><ele>1265.6</ele><time>2025-10-07T14:18:23Z</time></trkpt>
<trkpt lat="46.25269" lon="7.11154"><ele>1264.8</ele><time>2025-10-07T14:18:28Z</time></trkpt>
<trkpt lat="46.2527" lon="7.11141"><ele>1264.4</ele><time>2025-10-07T14:18:31Z</time></trkpt>
<trkpt lat="46.25275" lon="7.11139"><ele>1264.2</ele><time>2025-10-07T14:18:33Z</time></trkpt>
<trkpt lat="46.25278" lon="7.11135"><ele>1264</ele><time>2025-10-07T14:18:35Z</time></trkpt>
<trkpt lat="46.2528" lon="7.11129"><ele>1264</ele><time>2025-10-07T14:18:37Z</time></trkpt>
<trkpt lat="46.2528" lon="7.11128"><ele>1263.8</ele><time>2025-10-07T14:18:39Z</time></trkpt>
<trkpt lat="46.2528" lon="7.11127"><ele>1263.8</ele><time>2025-10-07T14:18:41Z</time></trkpt>
<trkpt lat="46.2528" lon="7.11122"><ele>1264</ele><time>2025-10-07T14:18:48Z</time></trkpt>
<trkpt lat="46.2528" lon="7.11123"><ele>1264</ele><time>2025-10-07T14:18:52Z</time></trkpt>
<trkpt lat="46.25279" lon="7.11124"><ele>1264</ele><time>2025-10-07T14:18:56Z</time></trkpt>
<trkpt lat="46.2528" lon="7.11125"><ele>1263.6</ele><time>2025-10-07T14:19:05Z</time></trkpt>
<trkpt lat="46.25282" lon="7.11125"><ele>1263.6</ele><time>2025-10-07T14:19:08Z</time></trkpt>
<trkpt lat="46.25285" lon="7.11122"><ele>1263.8</ele><time>2025-10-07T14:19:11Z</time></trkpt>
<trkpt lat="46.25292" lon="7.11118"><ele>1263.4</ele><time>2025-10-07T14:19:18Z</time></trkpt>
<trkpt lat="46.25294" lon="7.11121"><ele>1263.4</ele><time>2025-10-07T14:19:23Z</time></trkpt>
<trkpt lat="46.25297" lon="7.11122"><ele>1263</ele><time>2025-10-07T14:19:30Z</time></trkpt>
<trkpt lat="46.25298" lon="7.11122"><ele>1263.2</ele><time>2025-10-07T14:19:36Z</time></trkpt>
<trkpt lat="46.25295" lon="7.11122"><ele>1263.2</ele><time>2025-10-07T14:19:42Z</time></trkpt>
<trkpt lat="46.25295" lon="7.11121"><ele>1263</ele><time>2025-10-07T14:19:49Z</time></trkpt>
<trkpt lat="46.25294" lon="7.11121"><ele>1262.8</ele><time>2025-10-07T14:19:51Z</time></trkpt>
<trkpt lat="46.25294" lon="7.11121"><ele>1262.8</ele><time>2025-10-07T14:19:52Z</time></trkpt>
<trkpt lat="46.25294" lon="7.11119"><ele>1262.8</ele><time>2025-10-07T14:19:55Z</time></trkpt>
<trkpt lat="46.25293" lon="7.11116"><ele>1262.8</ele><time>2025-10-07T14:20:01Z</time></trkpt>
<trkpt lat="46.25293" lon="7.11118"><ele>1263</ele><time>2025-10-07T14:20:07Z</time></trkpt>
<trkpt lat="46.25293" lon="7.11119"><ele>1262.8</ele><time>2025-10-07T14:20:14Z</time></trkpt>
<trkpt lat="46.25292" lon="7.1112"><ele>1262.8</ele><time>2025-10-07T14:20:21Z</time></trkpt>
<trkpt lat="46.25294" lon="7.1112"><ele>1262.8</ele><time>2025-10-07T14:20:29Z</time></trkpt>
<trkpt lat="46.25296" lon="7.1112"><ele>1262.6</ele><time>2025-10-07T14:20:38Z</time></trkpt>
<trkpt lat="46.25294" lon="7.11119"><ele>1262.8</ele><time>2025-10-07T14:20:43Z</time></trkpt>
<trkpt lat="46.25293" lon="7.1112"><ele>1263</ele><time>2025-10-07T14:20:50Z</time></trkpt>
<trkpt lat="46.25294" lon="7.11119"><ele>1263</ele><time>2025-10-07T14:20:52Z</time></trkpt>
<trkpt lat="46.25295" lon="7.11119"><ele>1263</ele><time>2025-10-07T14:20:59Z</time></trkpt>
<trkpt lat="46.25295" lon="7.11119"><ele>1263</ele><time>2025-10-07T14:21:05Z</time></trkpt>
<trkpt lat="46.25295" lon="7.11121"><ele>1263</ele><time>2025-10-07T14:21:11Z</time></trkpt>
<trkpt lat="46.25295" lon="7.11122"><ele>1263</ele><time>2025-10-07T14:21:20Z</time></trkpt>
<trkpt lat="46.25295" lon="7.11122"><ele>1263</ele><time>2025-10-07T14:21:28Z</time></trkpt>
<trkpt lat="46.25295" lon="7.11122"><ele>1263</ele><time>2025-10-07T14:21:30Z</time></trkpt>
<trkpt lat="46.25295" lon="7.11122"><ele>1263</ele><time>2025-10-07T14:21:37Z</time></trkpt>
<trkpt lat="46.25295" lon="7.11121"><ele>1263</ele><time>2025-10-07T14:21:47Z</time></trkpt>
<trkpt lat="46.25295" lon="7.11122"><ele>1263</ele><time>2025-10-07T14:22:00Z</time></trkpt>
<trkpt lat="46.25295" lon="7.11122"><ele>1263</ele><time>2025-10-07T14:22:03Z</time></trkpt>
<trkpt lat="46.25295" lon="7.11122"><ele>1263</ele><time>2025-10-07T14:22:10Z</time></trkpt>
<trkpt lat="46.25295" lon="7.1112"><ele>1263</ele><time>2025-10-07T14:22:12Z</time></trkpt>
<trkpt lat="46.25293" lon="7.11119"><ele>1263</ele><time>2025-10-07T14:22:15Z</time></trkpt>
<trkpt lat="46.25291" lon="7.11119"><ele>1263</ele><time>2025-10-07T14:22:20Z</time></trkpt>
<trkpt lat="46.25294" lon="7.1112"><ele>1263</ele><time>2025-10-07T14:22:26Z</time></trkpt>
<trkpt lat="46.25294" lon="7.11121"><ele>1263</ele><time>2025-10-07T14:22:31Z</time></trkpt>
<trkpt lat="46.25295" lon="7.1112"><ele>1263</ele><time>2025-10-07T14:22:33Z</time></trkpt>
<trkpt lat="46.25297" lon="7.1112"><ele>1263</ele><time>2025-10-07T14:22:34Z</time></trkpt>
<trkpt lat="46.25299" lon="7.1112"><ele>1263</ele><time>2025-10-07T14:22:36Z</time></trkpt>
<trkpt lat="46.25299" lon="7.11121"><ele>1263.2</ele><time>2025-10-07T14:22:41Z</time></trkpt>
<trkpt lat="46.25299" lon="7.11122"><ele>1263.2</ele><time>2025-10-07T14:22:48Z</time></trkpt>
<trkpt lat="46.25299" lon="7.11122"><ele>1263.2</ele><time>2025-10-07T14:22:52Z</time></trkpt>
<trkpt lat="46.25299" lon="7.11122"><ele>1263</ele><time>2025-10-07T14:22:54Z</time></trkpt>
<trkpt lat="46.25299" lon="7.11122"><ele>1263.2</ele><time>2025-10-07T14:22:56Z</time></trkpt>
<trkpt lat="46.25298" lon="7.11123"><ele>1263</ele><time>2025-10-07T14:22:59Z</time></trkpt>
<trkpt lat="46.25302" lon="7.11112"><ele>1262.6</ele><time>2025-10-07T14:23:04Z</time></trkpt>
<trkpt lat="46.25304" lon="7.11094"><ele>1261.2</ele><time>2025-10-07T14:23:07Z</time></trkpt>
<trkpt lat="46.25304" lon="7.11087"><ele>1260.6</ele><time>2025-10-07T14:23:08Z</time></trkpt>
<trkpt lat="46.25306" lon="7.1108"><ele>1259.6</ele><time>2025-10-07T14:23:09Z</time></trkpt>
<trkpt lat="46.25309" lon="7.11065"><ele>1257.8</ele><time>2025-10-07T14:23:11Z</time></trkpt>
<trkpt lat="46.25308" lon="7.1105"><ele>1256.2</ele><time>2025-10-07T14:23:13Z</time></trkpt>
<trkpt lat="46.25298" lon="7.1104"><ele>1254.8</ele><time>2025-10-07T14:23:15Z</time></trkpt>
<trkpt lat="46.25291" lon="7.11035"><ele>1254</ele><time>2025-10-07T14:23:16Z</time></trkpt>
<trkpt lat="46.25284" lon="7.11029"><ele>1253</ele><time>2025-10-07T14:23:17Z</time></trkpt>
<trkpt lat="46.25278" lon="7.11022"><ele>1251.8</ele><time>2025-10-07T14:23:18Z</time></trkpt>
<trkpt lat="46.25271" lon="7.11017"><ele>1250.6</ele><time>2025-10-07T14:23:19Z</time></trkpt>
<trkpt lat="46.25263" lon="7.11011"><ele>1249.4</ele><time>2025-10-07T14:23:20Z</time></trkpt>
<trkpt lat="46.25256" lon="7.11005"><ele>1248.2</ele><time>2025-10-07T14:23:21Z</time></trkpt>
<trkpt lat="46.2525" lon="7.10998"><ele>1246.8</ele><time>2025-10-07T14:23:22Z</time></trkpt>
<trkpt lat="46.25244" lon="7.1099"><ele>1245.6</ele><time>2025-10-07T14:23:23Z</time></trkpt>
<trkpt lat="46.25239" lon="7.10979"><ele>1244.2</ele><time>2025-10-07T14:23:24Z</time></trkpt>
<trkpt lat="46.25235" lon="7.10969"><ele>1243</ele><time>2025-10-07T14:23:25Z</time></trkpt>
<trkpt lat="46.25232" lon="7.1096"><ele>1241.8</ele><time>2025-10-07T14:23:26Z</time></trkpt>
<trkpt lat="46.25225" lon="7.10941"><ele>1240</ele><time>2025-10-07T14:23:28Z</time></trkpt>
<trkpt lat="46.25227" lon="7.10933"><ele>1239.6</ele><time>2025-10-07T14:23:29Z</time></trkpt>
<trkpt lat="46.25229" lon="7.10925"><ele>1239</ele><time>2025-10-07T14:23:30Z</time></trkpt>
<trkpt lat="46.25236" lon="7.10919"><ele>1238</ele><time>2025-10-07T14:23:32Z</time></trkpt>
<trkpt lat="46.25244" lon="7.10925"><ele>1236.4</ele><time>2025-10-07T14:23:34Z</time></trkpt>
<trkpt lat="46.25249" lon="7.1093"><ele>1235.6</ele><time>2025-10-07T14:23:35Z</time></trkpt>
<trkpt lat="46.25253" lon="7.10939"><ele>1234.6</ele><time>2025-10-07T14:23:36Z</time></trkpt>
<trkpt lat="46.25262" lon="7.10944"><ele>1232.8</ele><time>2025-10-07T14:23:38Z</time></trkpt>
<trkpt lat="46.2527" lon="7.10945"><ele>1231.8</ele><time>2025-10-07T14:23:39Z</time></trkpt>
<trkpt lat="46.25277" lon="7.10945"><ele>1230.6</ele><time>2025-10-07T14:23:40Z</time></trkpt>
<trkpt lat="46.25295" lon="7.10946"><ele>1228.4</ele><time>2025-10-07T14:23:42Z</time></trkpt>
<trkpt lat="46.25306" lon="7.10948"><ele>1226.8</ele><time>2025-10-07T14:23:43Z</time></trkpt>
<trkpt lat="46.25316" lon="7.1095"><ele>1225.2</ele><time>2025-10-07T14:23:44Z</time></trkpt>
<trkpt lat="46.25324" lon="7.10953"><ele>1223.4</ele><time>2025-10-07T14:23:45Z</time></trkpt>
<trkpt lat="46.25332" lon="7.10955"><ele>1222.4</ele><time>2025-10-07T14:23:46Z</time></trkpt>
<trkpt lat="46.25339" lon="7.10954"><ele>1221</ele><time>2025-10-07T14:23:47Z</time></trkpt>
<trkpt lat="46.25345" lon="7.10951"><ele>1219.8</ele><time>2025-10-07T14:23:48Z</time></trkpt>
<trkpt lat="46.25351" lon="7.10946"><ele>1218.6</ele><time>2025-10-07T14:23:49Z</time></trkpt>
<trkpt lat="46.25358" lon="7.10939"><ele>1217.4</ele><time>2025-10-07T14:23:50Z</time></trkpt>
<trkpt lat="46.25365" lon="7.10932"><ele>1216.2</ele><time>2025-10-07T14:23:51Z</time></trkpt>
<trkpt lat="46.25372" lon="7.10923"><ele>1214.8</ele><time>2025-10-07T14:23:52Z</time></trkpt>
<trkpt lat="46.25379" lon="7.10914"><ele>1213.4</ele><time>2025-10-07T14:23:53Z</time></trkpt>
<trkpt lat="46.25385" lon="7.10902"><ele>1212.2</ele><time>2025-10-07T14:23:54Z</time></trkpt>
<trkpt lat="46.25388" lon="7.1089"><ele>1211.2</ele><time>2025-10-07T14:23:55Z</time></trkpt>
<trkpt lat="46.25393" lon="7.10878"><ele>1210.2</ele><time>2025-10-07T14:23:56Z</time></trkpt>
<trkpt lat="46.25396" lon="7.10865"><ele>1209.6</ele><time>2025-10-07T14:23:57Z</time></trkpt>
<trkpt lat="46.25403" lon="7.1084"><ele>1208.2</ele><time>2025-10-07T14:23:59Z</time></trkpt>
<trkpt lat="46.25407" lon="7.10826"><ele>1207</ele><time>2025-10-07T14:24:00Z</time></trkpt>
<trkpt lat="46.25411" lon="7.10808"><ele>1205.8</ele><time>2025-10-07T14:24:01Z</time></trkpt>
<trkpt lat="46.25414" lon="7.10791"><ele>1204.2</ele><time>2025-10-07T14:24:02Z</time></trkpt>
<trkpt lat="46.25417" lon="7.10773"><ele>1202.6</ele><time>2025-10-07T14:24:03Z</time></trkpt>
<trkpt lat="46.2542" lon="7.10756"><ele>1201</ele><time>2025-10-07T14:24:04Z</time></trkpt>
<trkpt lat="46.25423" lon="7.10741"><ele>1199.4</ele><time>2025-10-07T14:24:05Z</time></trkpt>
<trkpt lat="46.25427" lon="7.10725"><ele>1198</ele><time>2025-10-07T14:24:06Z</time></trkpt>
<trkpt lat="46.25429" lon="7.10711"><ele>1196.6</ele><time>2025-10-07T14:24:07Z</time></trkpt>
<trkpt lat="46.25431" lon="7.10698"><ele>1195.2</ele><time>2025-10-07T14:24:08Z</time></trkpt>
<trkpt lat="46.25433" lon="7.10686"><ele>1193.8</ele><time>2025-10-07T14:24:09Z</time></trkpt>
<trkpt lat="46.25435" lon="7.10673"><ele>1192.4</ele><time>2025-10-07T14:24:10Z</time></trkpt>
<trkpt lat="46.25437" lon="7.10661"><ele>1191.2</ele><time>2025-10-07T14:24:11Z</time></trkpt>
<trkpt lat="46.25438" lon="7.10651"><ele>1190.2</ele><time>2025-10-07T14:24:12Z</time></trkpt>
<trkpt lat="46.25439" lon="7.10641"><ele>1189.2</ele><time>2025-10-07T14:24:13Z</time></trkpt>
<trkpt lat="46.2544" lon="7.10631"><ele>1188.2</ele><time>2025-10-07T14:24:14Z</time></trkpt>
<trkpt lat="46.25441" lon="7.10613"><ele>1186.2</ele><time>2025-10-07T14:24:16Z</time></trkpt>
<trkpt lat="46.25441" lon="7.10593"><ele>1184.2</ele><time>2025-10-07T14:24:18Z</time></trkpt>
<trkpt lat="46.25442" lon="7.10584"><ele>1183.4</ele><time>2025-10-07T14:24:19Z</time></trkpt>
<trkpt lat="46.25442" lon="7.10575"><ele>1182.4</ele><time>2025-10-07T14:24:20Z</time></trkpt>
<trkpt lat="46.25441" lon="7.10559"><ele>1180.8</ele><time>2025-10-07T14:24:22Z</time></trkpt>
<trkpt lat="46.25441" lon="7.1055"><ele>1179.8</ele><time>2025-10-07T14:24:23Z</time></trkpt>
<trkpt lat="46.2544" lon="7.10537"><ele>1179</ele><time>2025-10-07T14:24:24Z</time></trkpt>
<trkpt lat="46.25439" lon="7.10512"><ele>1177.4</ele><time>2025-10-07T14:24:26Z</time></trkpt>
<trkpt lat="46.25439" lon="7.10485"><ele>1175</ele><time>2025-10-07T14:24:28Z</time></trkpt>
<trkpt lat="46.25439" lon="7.1047"><ele>1173.4</ele><time>2025-10-07T14:24:29Z</time></trkpt>
<trkpt lat="46.25439" lon="7.10455"><ele>1171.8</ele><time>2025-10-07T14:24:30Z</time></trkpt>
<trkpt lat="46.2544" lon="7.10439"><ele>1170.2</ele><time>2025-10-07T14:24:31Z</time></trkpt>
<trkpt lat="46.25443" lon="7.10405"><ele>1167.8</ele><time>2025-10-07T14:24:33Z</time></trkpt>
<trkpt lat="46.25444" lon="7.10386"><ele>1166.2</ele><time>2025-10-07T14:24:34Z</time></trkpt>
<trkpt lat="46.25446" lon="7.10369"><ele>1164.8</ele><time>2025-10-07T14:24:35Z</time></trkpt>
<trkpt lat="46.25448" lon="7.10356"><ele>1163.2</ele><time>2025-10-07T14:24:36Z</time></trkpt>
<trkpt lat="46.25451" lon="7.10342"><ele>1161.6</ele><time>2025-10-07T14:24:37Z</time></trkpt>
<trkpt lat="46.25453" lon="7.1033"><ele>1160.2</ele><time>2025-10-07T14:24:38Z</time></trkpt>
<trkpt lat="46.25455" lon="7.10318"><ele>1159</ele><time>2025-10-07T14:24:39Z</time></trkpt>
<trkpt lat="46.25455" lon="7.10306"><ele>1157.6</ele><time>2025-10-07T14:24:40Z</time></trkpt>
<trkpt lat="46.25455" lon="7.10294"><ele>1156.4</ele><time>2025-10-07T14:24:41Z</time></trkpt>
<trkpt lat="46.25455" lon="7.1028"><ele>1155.2</ele><time>2025-10-07T14:24:42Z</time></trkpt>
<trkpt lat="46.25455" lon="7.10265"><ele>1154</ele><time>2025-10-07T14:24:43Z</time></trkpt>
<trkpt lat="46.25453" lon="7.10252"><ele>1152.8</ele><time>2025-10-07T14:24:44Z</time></trkpt>
<trkpt lat="46.25452" lon="7.10236"><ele>1151.6</ele><time>2025-10-07T14:24:45Z</time></trkpt>
<trkpt lat="46.25451" lon="7.10223"><ele>1150.6</ele><time>2025-10-07T14:24:46Z</time></trkpt>
<trkpt lat="46.2545" lon="7.1021"><ele>1149.4</ele><time>2025-10-07T14:24:47Z</time></trkpt>
<trkpt lat="46.25448" lon="7.10196"><ele>1148</ele><time>2025-10-07T14:24:48Z</time></trkpt>
<trkpt lat="46.25444" lon="7.10182"><ele>1146.8</ele><time>2025-10-07T14:24:49Z</time></trkpt>
<trkpt lat="46.2544" lon="7.10169"><ele>1145.6</ele><time>2025-10-07T14:24:50Z</time></trkpt>
<trkpt lat="46.25435" lon="7.10156"><ele>1144.6</ele><time>2025-10-07T14:24:51Z</time></trkpt>
<trkpt lat="46.2543" lon="7.10142"><ele>1143.6</ele><time>2025-10-07T14:24:52Z</time></trkpt>
<trkpt lat="46.25426" lon="7.10128"><ele>1142.4</ele><time>2025-10-07T14:24:53Z</time></trkpt>
<trkpt lat="46.25422" lon="7.10113"><ele>1141</ele><time>2025-10-07T14:24:54Z</time></trkpt>
<trkpt lat="46.25417" lon="7.10097"><ele>1139.8</ele><time>2025-10-07T14:24:55Z</time></trkpt>
<trkpt lat="46.25413" lon="7.10083"><ele>1138.6</ele><time>2025-10-07T14:24:56Z</time></trkpt>
<trkpt lat="46.25408" lon="7.10066"><ele>1137.4</ele><time>2025-10-07T14:24:57Z</time></trkpt>
<trkpt lat="46.25403" lon="7.10049"><ele>1136.2</ele><time>2025-10-07T14:24:58Z</time></trkpt>
<trkpt lat="46.25397" lon="7.10032"><ele>1135</ele><time>2025-10-07T14:24:59Z</time></trkpt>
<trkpt lat="46.25391" lon="7.10016"><ele>1133.8</ele><time>2025-10-07T14:25:00Z</time></trkpt>
<trkpt lat="46.25385" lon="7.10001"><ele>1132.4</ele><time>2025-10-07T14:25:01Z</time></trkpt>
<trkpt lat="46.25382" lon="7.09983"><ele>1131</ele><time>2025-10-07T14:25:02Z</time></trkpt>
<trkpt lat="46.25379" lon="7.09966"><ele>1129.6</ele><time>2025-10-07T14:25:03Z</time></trkpt>
<trkpt lat="46.25378" lon="7.09948"><ele>1128.4</ele><time>2025-10-07T14:25:04Z</time></trkpt>
<trkpt lat="46.25378" lon="7.0993"><ele>1127.2</ele><time>2025-10-07T14:25:05Z</time></trkpt>
<trkpt lat="46.25377" lon="7.09913"><ele>1126.2</ele><time>2025-10-07T14:25:06Z</time></trkpt>
<trkpt lat="46.25378" lon="7.0988"><ele>1124.4</ele><time>2025-10-07T14:25:08Z</time></trkpt>
<trkpt lat="46.25382" lon="7.09846"><ele>1122.8</ele><time>2025-10-07T14:25:10Z</time></trkpt>
<trkpt lat="46.25385" lon="7.09834"><ele>1122</ele><time>2025-10-07T14:25:11Z</time></trkpt>
<trkpt lat="46.25389" lon="7.09819"><ele>1121.2</ele><time>2025-10-07T14:25:12Z</time></trkpt>
<trkpt lat="46.25393" lon="7.09808"><ele>1120.4</ele><time>2025-10-07T14:25:13Z</time></trkpt>
<trkpt lat="46.25399" lon="7.09798"><ele>1119.6</ele><time>2025-10-07T14:25:14Z</time></trkpt>
<trkpt lat="46.25405" lon="7.09789"><ele>1118.8</ele><time>2025-10-07T14:25:15Z</time></trkpt>
<trkpt lat="46.25412" lon="7.09779"><ele>1118.2</ele><time>2025-10-07T14:25:16Z</time></trkpt>
<trkpt lat="46.25433" lon="7.09747"><ele>1117.2</ele><time>2025-10-07T14:25:19Z</time></trkpt>
<trkpt lat="46.2544" lon="7.09737"><ele>1117</ele><time>2025-10-07T14:25:20Z</time></trkpt>
<trkpt lat="46.25464" lon="7.097"><ele>1116</ele><time>2025-10-07T14:25:24Z</time></trkpt>
<trkpt lat="46.25476" lon="7.09681"><ele>1115.2</ele><time>2025-10-07T14:25:26Z</time></trkpt>
<trkpt lat="46.25482" lon="7.09672"><ele>1114.8</ele><time>2025-10-07T14:25:27Z</time></trkpt>
<trkpt lat="46.25495" lon="7.09649"><ele>1113.2</ele><time>2025-10-07T14:25:29Z</time></trkpt>
<trkpt lat="46.25505" lon="7.09628"><ele>1111.6</ele><time>2025-10-07T14:25:31Z</time></trkpt>
<trkpt lat="46.25512" lon="7.09609"><ele>1110.4</ele><time>2025-10-07T14:25:33Z</time></trkpt>
<trkpt lat="46.25516" lon="7.09592"><ele>1109</ele><time>2025-10-07T14:25:35Z</time></trkpt>
<trkpt lat="46.25529" lon="7.09562"><ele>1107.6</ele><time>2025-10-07T14:25:39Z</time></trkpt>
<trkpt lat="46.25537" lon="7.09541"><ele>1106.8</ele><time>2025-10-07T14:25:41Z</time></trkpt>
<trkpt lat="46.25539" lon="7.09532"><ele>1106.4</ele><time>2025-10-07T14:25:42Z</time></trkpt>
<trkpt lat="46.25546" lon="7.09501"><ele>1105.4</ele><time>2025-10-07T14:25:45Z</time></trkpt>
<trkpt lat="46.25547" lon="7.09489"><ele>1105</ele><time>2025-10-07T14:25:46Z</time></trkpt>
<trkpt lat="46.25549" lon="7.09476"><ele>1104.6</ele><time>2025-10-07T14:25:47Z</time></trkpt>
<trkpt lat="46.25551" lon="7.09465"><ele>1104.2</ele><time>2025-10-07T14:25:48Z</time></trkpt>
<trkpt lat="46.25556" lon="7.09438"><ele>1103.2</ele><time>2025-10-07T14:25:50Z</time></trkpt>
<trkpt lat="46.25558" lon="7.09426"><ele>1103</ele><time>2025-10-07T14:25:51Z</time></trkpt>
<trkpt lat="46.25565" lon="7.09385"><ele>1101.8</ele><time>2025-10-07T14:25:54Z</time></trkpt>
<trkpt lat="46.25567" lon="7.09341"><ele>1101</ele><time>2025-10-07T14:25:57Z</time></trkpt>
<trkpt lat="46.25571" lon="7.0931"><ele>1100.4</ele><time>2025-10-07T14:25:59Z</time></trkpt>
<trkpt lat="46.25576" lon="7.09266"><ele>1099</ele><time>2025-10-07T14:26:02Z</time></trkpt>
<trkpt lat="46.25575" lon="7.09236"><ele>1097.8</ele><time>2025-10-07T14:26:04Z</time></trkpt>
<trkpt lat="46.2557" lon="7.0921"><ele>1096.8</ele><time>2025-10-07T14:26:06Z</time></trkpt>
<trkpt lat="46.25562" lon="7.09186"><ele>1096</ele><time>2025-10-07T14:26:08Z</time></trkpt>
<trkpt lat="46.25559" lon="7.09174"><ele>1095.4</ele><time>2025-10-07T14:26:09Z</time></trkpt>
<trkpt lat="46.25556" lon="7.0916"><ele>1095</ele><time>2025-10-07T14:26:10Z</time></trkpt>
<trkpt lat="46.25556" lon="7.09147"><ele>1094.6</ele><time>2025-10-07T14:26:11Z</time></trkpt>
<trkpt lat="46.25556" lon="7.09134"><ele>1094.2</ele><time>2025-10-07T14:26:12Z</time></trkpt>
<trkpt lat="46.25555" lon="7.09112"><ele>1093.6</ele><time>2025-10-07T14:26:14Z</time></trkpt>
<trkpt lat="46.25558" lon="7.0909"><ele>1093.2</ele><time>2025-10-07T14:26:17Z</time></trkpt>
<trkpt lat="46.25557" lon="7.09082"><ele>1093.2</ele><time>2025-10-07T14:26:18Z</time></trkpt>
<trkpt lat="46.25555" lon="7.09062"><ele>1092.8</ele><time>2025-10-07T14:26:23Z</time></trkpt>
<trkpt lat="46.25556" lon="7.09058"><ele>1092.4</ele><time>2025-10-07T14:26:27Z</time></trkpt>
<trkpt lat="46.25556" lon="7.09058"><ele>1092.2</ele><time>2025-10-07T14:26:29Z</time></trkpt>
<trkpt lat="46.25557" lon="7.09057"><ele>1092.2</ele><time>2025-10-07T14:26:31Z</time></trkpt>
<trkpt lat="46.25557" lon="7.09057"><ele>1092.2</ele><time>2025-10-07T14:26:36Z</time></trkpt>
<trkpt lat="46.25556" lon="7.09056"><ele>1092.2</ele><time>2025-10-07T14:26:37Z</time></trkpt>
</trkseg></trk></gpx>